<?xml version="1.0" encoding="UTF-8" standalone="no" ?>
<gpx xmlns="http://www.topografix.com/GPX/1/1" xmlns:xsi="http://www.w3.org/2001/XMLSchema-instance" xsi:schemaLocation="http://www.topografix.com/GPX/1/1 http://www.topografix.com/GPX/1/1/gpx.xsd" version="1.1" creator="VisuGPX - https://www.visugpx.com">
  <metadata>
    <name>Parcours Templeuve du 6 février 2018</name>
    <desc><![CDATA[Parcours hivernal à partir de Templeuve réalisé par 8 braves !]]></desc>
  </metadata>
  <trk>
    <name><![CDATA[Celles]]></name>
    <trkseg>
      <trkpt lat="50.64504" lon="3.28313">
        <ele>28.859324</ele>
        <time>2018-02-06T12:32:20Z</time>
      </trkpt>
      <trkpt lat="50.64507" lon="3.28305">
        <ele>28.870152</ele>
        <time>2018-02-06T12:32:22Z</time>
      </trkpt>
      <trkpt lat="50.64508" lon="3.28295">
        <ele>28.903046</ele>
        <time>2018-02-06T12:32:24Z</time>
      </trkpt>
      <trkpt lat="50.64508" lon="3.28286">
        <ele>28.902786</ele>
        <time>2018-02-06T12:32:26Z</time>
      </trkpt>
      <trkpt lat="50.64508" lon="3.28277">
        <ele>29.225277</ele>
        <time>2018-02-06T12:32:28Z</time>
      </trkpt>
      <trkpt lat="50.64508" lon="3.28268">
        <ele>29.157038</ele>
        <time>2018-02-06T12:32:30Z</time>
      </trkpt>
      <trkpt lat="50.6451" lon="3.28259">
        <ele>29.149719</ele>
        <time>2018-02-06T12:32:32Z</time>
      </trkpt>
      <trkpt lat="50.64513" lon="3.28249">
        <ele>29.11355</ele>
        <time>2018-02-06T12:32:34Z</time>
      </trkpt>
      <trkpt lat="50.64518" lon="3.28239">
        <ele>29.017752</ele>
        <time>2018-02-06T12:32:36Z</time>
      </trkpt>
      <trkpt lat="50.64525" lon="3.2823">
        <ele>29.029593</ele>
        <time>2018-02-06T12:32:38Z</time>
      </trkpt>
      <trkpt lat="50.64531" lon="3.2822">
        <ele>29.06373</ele>
        <time>2018-02-06T12:32:40Z</time>
      </trkpt>
      <trkpt lat="50.64538" lon="3.28211">
        <ele>29.060577</ele>
        <time>2018-02-06T12:32:42Z</time>
      </trkpt>
      <trkpt lat="50.64545" lon="3.28201">
        <ele>29.057934</ele>
        <time>2018-02-06T12:32:44Z</time>
      </trkpt>
      <trkpt lat="50.64552" lon="3.28191">
        <ele>29.02479</ele>
        <time>2018-02-06T12:32:46Z</time>
      </trkpt>
      <trkpt lat="50.64558" lon="3.28183">
        <ele>28.997585</ele>
        <time>2018-02-06T12:32:48Z</time>
      </trkpt>
      <trkpt lat="50.64566" lon="3.28175">
        <ele>29.057501</ele>
        <time>2018-02-06T12:32:50Z</time>
      </trkpt>
      <trkpt lat="50.64573" lon="3.28166">
        <ele>29.074795</ele>
        <time>2018-02-06T12:32:52Z</time>
      </trkpt>
      <trkpt lat="50.64579" lon="3.28156">
        <ele>29.072809</ele>
        <time>2018-02-06T12:32:54Z</time>
      </trkpt>
      <trkpt lat="50.64586" lon="3.28146">
        <ele>29.034931</ele>
        <time>2018-02-06T12:32:56Z</time>
      </trkpt>
      <trkpt lat="50.64592" lon="3.28135">
        <ele>29.053997</ele>
        <time>2018-02-06T12:32:58Z</time>
      </trkpt>
      <trkpt lat="50.64597" lon="3.28123">
        <ele>28.98468</ele>
        <time>2018-02-06T12:33:00Z</time>
      </trkpt>
      <trkpt lat="50.64602" lon="3.28112">
        <ele>28.951809</ele>
        <time>2018-02-06T12:33:02Z</time>
      </trkpt>
      <trkpt lat="50.64607" lon="3.28102">
        <ele>28.863773</ele>
        <time>2018-02-06T12:33:04Z</time>
      </trkpt>
      <trkpt lat="50.6461" lon="3.28093">
        <ele>28.800953</ele>
        <time>2018-02-06T12:33:06Z</time>
      </trkpt>
      <trkpt lat="50.64613" lon="3.28084">
        <ele>28.806253</ele>
        <time>2018-02-06T12:33:08Z</time>
      </trkpt>
      <trkpt lat="50.64612" lon="3.28071">
        <ele>28.724056</ele>
        <time>2018-02-06T12:33:10Z</time>
      </trkpt>
      <trkpt lat="50.64607" lon="3.28059">
        <ele>28.710785</ele>
        <time>2018-02-06T12:33:12Z</time>
      </trkpt>
      <trkpt lat="50.64602" lon="3.28046">
        <ele>28.693386</ele>
        <time>2018-02-06T12:33:14Z</time>
      </trkpt>
      <trkpt lat="50.64596" lon="3.28034">
        <ele>28.654959</ele>
        <time>2018-02-06T12:33:16Z</time>
      </trkpt>
      <trkpt lat="50.64592" lon="3.28021">
        <ele>28.578405</ele>
        <time>2018-02-06T12:33:18Z</time>
      </trkpt>
      <trkpt lat="50.64591" lon="3.28007">
        <ele>28.463547</ele>
        <time>2018-02-06T12:33:20Z</time>
      </trkpt>
      <trkpt lat="50.64591" lon="3.27992">
        <ele>28.32868</ele>
        <time>2018-02-06T12:33:22Z</time>
      </trkpt>
      <trkpt lat="50.64595" lon="3.2798">
        <ele>28.240286</ele>
        <time>2018-02-06T12:33:24Z</time>
      </trkpt>
      <trkpt lat="50.64602" lon="3.27969">
        <ele>28.144205</ele>
        <time>2018-02-06T12:33:26Z</time>
      </trkpt>
      <trkpt lat="50.64609" lon="3.27957">
        <ele>28.036274</ele>
        <time>2018-02-06T12:33:28Z</time>
      </trkpt>
      <trkpt lat="50.64616" lon="3.27945">
        <ele>27.941288</ele>
        <time>2018-02-06T12:33:30Z</time>
      </trkpt>
      <trkpt lat="50.64623" lon="3.27933">
        <ele>27.838512</ele>
        <time>2018-02-06T12:33:32Z</time>
      </trkpt>
      <trkpt lat="50.64629" lon="3.27922">
        <ele>27.754919</ele>
        <time>2018-02-06T12:33:34Z</time>
      </trkpt>
      <trkpt lat="50.64636" lon="3.27913">
        <ele>27.684275</ele>
        <time>2018-02-06T12:33:36Z</time>
      </trkpt>
      <trkpt lat="50.64642" lon="3.27903">
        <ele>27.629086</ele>
        <time>2018-02-06T12:33:38Z</time>
      </trkpt>
      <trkpt lat="50.64649" lon="3.27893">
        <ele>27.577902</ele>
        <time>2018-02-06T12:33:40Z</time>
      </trkpt>
      <trkpt lat="50.64656" lon="3.27883">
        <ele>27.51803</ele>
        <time>2018-02-06T12:33:42Z</time>
      </trkpt>
      <trkpt lat="50.64663" lon="3.27872">
        <ele>27.462421</ele>
        <time>2018-02-06T12:33:44Z</time>
      </trkpt>
      <trkpt lat="50.64669" lon="3.27861">
        <ele>27.427509</ele>
        <time>2018-02-06T12:33:46Z</time>
      </trkpt>
      <trkpt lat="50.64675" lon="3.27851">
        <ele>27.354633</ele>
        <time>2018-02-06T12:33:48Z</time>
      </trkpt>
      <trkpt lat="50.64681" lon="3.27841">
        <ele>27.302923</ele>
        <time>2018-02-06T12:33:50Z</time>
      </trkpt>
      <trkpt lat="50.64688" lon="3.2783">
        <ele>27.279556</ele>
        <time>2018-02-06T12:33:52Z</time>
      </trkpt>
      <trkpt lat="50.64694" lon="3.2782">
        <ele>27.201672</ele>
        <time>2018-02-06T12:33:54Z</time>
      </trkpt>
      <trkpt lat="50.64701" lon="3.2781">
        <ele>27.095829</ele>
        <time>2018-02-06T12:33:56Z</time>
      </trkpt>
      <trkpt lat="50.64708" lon="3.27799">
        <ele>26.981121</ele>
        <time>2018-02-06T12:33:58Z</time>
      </trkpt>
      <trkpt lat="50.64714" lon="3.27789">
        <ele>26.956135</ele>
        <time>2018-02-06T12:34:00Z</time>
      </trkpt>
      <trkpt lat="50.6472" lon="3.27779">
        <ele>26.946329</ele>
        <time>2018-02-06T12:34:02Z</time>
      </trkpt>
      <trkpt lat="50.64727" lon="3.27768">
        <ele>26.893223</ele>
        <time>2018-02-06T12:34:04Z</time>
      </trkpt>
      <trkpt lat="50.64733" lon="3.27758">
        <ele>26.832317</ele>
        <time>2018-02-06T12:34:06Z</time>
      </trkpt>
      <trkpt lat="50.64739" lon="3.27748">
        <ele>26.783329</ele>
        <time>2018-02-06T12:34:08Z</time>
      </trkpt>
      <trkpt lat="50.64746" lon="3.27737">
        <ele>26.738485</ele>
        <time>2018-02-06T12:34:10Z</time>
      </trkpt>
      <trkpt lat="50.64752" lon="3.27726">
        <ele>26.648645</ele>
        <time>2018-02-06T12:34:12Z</time>
      </trkpt>
      <trkpt lat="50.64759" lon="3.27716">
        <ele>26.556305</ele>
        <time>2018-02-06T12:34:14Z</time>
      </trkpt>
      <trkpt lat="50.64766" lon="3.27705">
        <ele>26.468246</ele>
        <time>2018-02-06T12:34:16Z</time>
      </trkpt>
      <trkpt lat="50.64772" lon="3.27694">
        <ele>26.413214</ele>
        <time>2018-02-06T12:34:18Z</time>
      </trkpt>
      <trkpt lat="50.64779" lon="3.27684">
        <ele>26.361324</ele>
        <time>2018-02-06T12:34:20Z</time>
      </trkpt>
      <trkpt lat="50.64786" lon="3.27673">
        <ele>26.279125</ele>
        <time>2018-02-06T12:34:22Z</time>
      </trkpt>
      <trkpt lat="50.64793" lon="3.27662">
        <ele>26.20348</ele>
        <time>2018-02-06T12:34:24Z</time>
      </trkpt>
      <trkpt lat="50.648" lon="3.27651">
        <ele>26.186987</ele>
        <time>2018-02-06T12:34:26Z</time>
      </trkpt>
      <trkpt lat="50.64807" lon="3.2764">
        <ele>26.085297</ele>
        <time>2018-02-06T12:34:28Z</time>
      </trkpt>
      <trkpt lat="50.64814" lon="3.27629">
        <ele>25.992779</ele>
        <time>2018-02-06T12:34:30Z</time>
      </trkpt>
      <trkpt lat="50.64821" lon="3.27618">
        <ele>25.880457</ele>
        <time>2018-02-06T12:34:32Z</time>
      </trkpt>
      <trkpt lat="50.64828" lon="3.27607">
        <ele>25.746038</ele>
        <time>2018-02-06T12:34:34Z</time>
      </trkpt>
      <trkpt lat="50.64835" lon="3.27596">
        <ele>25.64924</ele>
        <time>2018-02-06T12:34:36Z</time>
      </trkpt>
      <trkpt lat="50.64842" lon="3.27585">
        <ele>25.553728</ele>
        <time>2018-02-06T12:34:38Z</time>
      </trkpt>
      <trkpt lat="50.64848" lon="3.27574">
        <ele>25.448006</ele>
        <time>2018-02-06T12:34:40Z</time>
      </trkpt>
      <trkpt lat="50.64855" lon="3.27563">
        <ele>25.321173</ele>
        <time>2018-02-06T12:34:42Z</time>
      </trkpt>
      <trkpt lat="50.64862" lon="3.27552">
        <ele>25.26656</ele>
        <time>2018-02-06T12:34:44Z</time>
      </trkpt>
      <trkpt lat="50.64869" lon="3.27541">
        <ele>25.161457</ele>
        <time>2018-02-06T12:34:46Z</time>
      </trkpt>
      <trkpt lat="50.64876" lon="3.2753">
        <ele>25.036667</ele>
        <time>2018-02-06T12:34:48Z</time>
      </trkpt>
      <trkpt lat="50.64883" lon="3.27521">
        <ele>24.889868</ele>
        <time>2018-02-06T12:34:50Z</time>
      </trkpt>
      <trkpt lat="50.64892" lon="3.27514">
        <ele>24.804323</ele>
        <time>2018-02-06T12:34:52Z</time>
      </trkpt>
      <trkpt lat="50.649" lon="3.27508">
        <ele>24.721958</ele>
        <time>2018-02-06T12:34:54Z</time>
      </trkpt>
      <trkpt lat="50.64909" lon="3.27503">
        <ele>24.686357</ele>
        <time>2018-02-06T12:34:56Z</time>
      </trkpt>
      <trkpt lat="50.64917" lon="3.27501">
        <ele>24.611677</ele>
        <time>2018-02-06T12:34:58Z</time>
      </trkpt>
      <trkpt lat="50.64927" lon="3.275">
        <ele>24.527233</ele>
        <time>2018-02-06T12:35:00Z</time>
      </trkpt>
      <trkpt lat="50.64936" lon="3.275">
        <ele>24.432354</ele>
        <time>2018-02-06T12:35:02Z</time>
      </trkpt>
      <trkpt lat="50.64945" lon="3.27499">
        <ele>24.306797</ele>
        <time>2018-02-06T12:35:04Z</time>
      </trkpt>
      <trkpt lat="50.64954" lon="3.27499">
        <ele>24.227175</ele>
        <time>2018-02-06T12:35:06Z</time>
      </trkpt>
      <trkpt lat="50.64964" lon="3.27499">
        <ele>24.087389</ele>
        <time>2018-02-06T12:35:08Z</time>
      </trkpt>
      <trkpt lat="50.64974" lon="3.27499">
        <ele>23.962864</ele>
        <time>2018-02-06T12:35:10Z</time>
      </trkpt>
      <trkpt lat="50.64983" lon="3.27498">
        <ele>23.904802</ele>
        <time>2018-02-06T12:35:12Z</time>
      </trkpt>
      <trkpt lat="50.64993" lon="3.27498">
        <ele>23.817446</ele>
        <time>2018-02-06T12:35:14Z</time>
      </trkpt>
      <trkpt lat="50.65002" lon="3.27497">
        <ele>23.795063</ele>
        <time>2018-02-06T12:35:16Z</time>
      </trkpt>
      <trkpt lat="50.65012" lon="3.27496">
        <ele>23.77247</ele>
        <time>2018-02-06T12:35:18Z</time>
      </trkpt>
      <trkpt lat="50.65021" lon="3.27495">
        <ele>23.773928</ele>
        <time>2018-02-06T12:35:20Z</time>
      </trkpt>
      <trkpt lat="50.6503" lon="3.27493">
        <ele>23.746548</ele>
        <time>2018-02-06T12:35:22Z</time>
      </trkpt>
      <trkpt lat="50.65038" lon="3.27492">
        <ele>23.663204</ele>
        <time>2018-02-06T12:35:24Z</time>
      </trkpt>
      <trkpt lat="50.65048" lon="3.2749">
        <ele>23.64072</ele>
        <time>2018-02-06T12:35:26Z</time>
      </trkpt>
      <trkpt lat="50.65057" lon="3.27488">
        <ele>23.584667</ele>
        <time>2018-02-06T12:35:28Z</time>
      </trkpt>
      <trkpt lat="50.65066" lon="3.27484">
        <ele>23.536453</ele>
        <time>2018-02-06T12:35:30Z</time>
      </trkpt>
      <trkpt lat="50.65075" lon="3.2748">
        <ele>23.507025</ele>
        <time>2018-02-06T12:35:32Z</time>
      </trkpt>
      <trkpt lat="50.65083" lon="3.27476">
        <ele>23.479115</ele>
        <time>2018-02-06T12:35:34Z</time>
      </trkpt>
      <trkpt lat="50.65092" lon="3.27471">
        <ele>23.418001</ele>
        <time>2018-02-06T12:35:36Z</time>
      </trkpt>
      <trkpt lat="50.65101" lon="3.27467">
        <ele>23.342106</ele>
        <time>2018-02-06T12:35:38Z</time>
      </trkpt>
      <trkpt lat="50.6511" lon="3.27463">
        <ele>23.213545</ele>
        <time>2018-02-06T12:35:40Z</time>
      </trkpt>
      <trkpt lat="50.65118" lon="3.27458">
        <ele>23.111835</ele>
        <time>2018-02-06T12:35:42Z</time>
      </trkpt>
      <trkpt lat="50.65128" lon="3.27453">
        <ele>22.990364</ele>
        <time>2018-02-06T12:35:44Z</time>
      </trkpt>
      <trkpt lat="50.65138" lon="3.27448">
        <ele>22.916973</ele>
        <time>2018-02-06T12:35:46Z</time>
      </trkpt>
      <trkpt lat="50.65147" lon="3.27443">
        <ele>22.848972</ele>
        <time>2018-02-06T12:35:48Z</time>
      </trkpt>
      <trkpt lat="50.65156" lon="3.27439">
        <ele>22.835041</ele>
        <time>2018-02-06T12:35:50Z</time>
      </trkpt>
      <trkpt lat="50.65165" lon="3.27435">
        <ele>22.720268</ele>
        <time>2018-02-06T12:35:52Z</time>
      </trkpt>
      <trkpt lat="50.65174" lon="3.27432">
        <ele>22.64525</ele>
        <time>2018-02-06T12:35:54Z</time>
      </trkpt>
      <trkpt lat="50.65183" lon="3.2743">
        <ele>22.60684</ele>
        <time>2018-02-06T12:35:56Z</time>
      </trkpt>
      <trkpt lat="50.65192" lon="3.2743">
        <ele>22.487354</ele>
        <time>2018-02-06T12:35:58Z</time>
      </trkpt>
      <trkpt lat="50.65202" lon="3.27432">
        <ele>22.432604</ele>
        <time>2018-02-06T12:36:00Z</time>
      </trkpt>
      <trkpt lat="50.6521" lon="3.27435">
        <ele>22.335508</ele>
        <time>2018-02-06T12:36:02Z</time>
      </trkpt>
      <trkpt lat="50.65218" lon="3.2744">
        <ele>22.246567</ele>
        <time>2018-02-06T12:36:04Z</time>
      </trkpt>
      <trkpt lat="50.65227" lon="3.27446">
        <ele>22.231159</ele>
        <time>2018-02-06T12:36:06Z</time>
      </trkpt>
      <trkpt lat="50.65235" lon="3.27453">
        <ele>22.206167</ele>
        <time>2018-02-06T12:36:08Z</time>
      </trkpt>
      <trkpt lat="50.65242" lon="3.27459">
        <ele>22.177904</ele>
        <time>2018-02-06T12:36:10Z</time>
      </trkpt>
      <trkpt lat="50.6525" lon="3.27465">
        <ele>22.163761</ele>
        <time>2018-02-06T12:36:12Z</time>
      </trkpt>
      <trkpt lat="50.65257" lon="3.27472">
        <ele>22.11937</ele>
        <time>2018-02-06T12:36:14Z</time>
      </trkpt>
      <trkpt lat="50.65264" lon="3.27476">
        <ele>22.060352</ele>
        <time>2018-02-06T12:36:16Z</time>
      </trkpt>
      <trkpt lat="50.65271" lon="3.27475">
        <ele>22.020878</ele>
        <time>2018-02-06T12:36:18Z</time>
      </trkpt>
      <trkpt lat="50.65275" lon="3.27468">
        <ele>21.959757</ele>
        <time>2018-02-06T12:36:20Z</time>
      </trkpt>
      <trkpt lat="50.65276" lon="3.27459">
        <ele>21.82806</ele>
        <time>2018-02-06T12:36:22Z</time>
      </trkpt>
      <trkpt lat="50.65278" lon="3.27448">
        <ele>21.736807</ele>
        <time>2018-02-06T12:36:24Z</time>
      </trkpt>
      <trkpt lat="50.65281" lon="3.27435">
        <ele>21.746582</ele>
        <time>2018-02-06T12:36:26Z</time>
      </trkpt>
      <trkpt lat="50.65284" lon="3.27421">
        <ele>21.711084</ele>
        <time>2018-02-06T12:36:28Z</time>
      </trkpt>
      <trkpt lat="50.65288" lon="3.27407">
        <ele>21.695795</ele>
        <time>2018-02-06T12:36:30Z</time>
      </trkpt>
      <trkpt lat="50.65292" lon="3.27393">
        <ele>21.630169</ele>
        <time>2018-02-06T12:36:32Z</time>
      </trkpt>
      <trkpt lat="50.65297" lon="3.27379">
        <ele>21.648081</ele>
        <time>2018-02-06T12:36:34Z</time>
      </trkpt>
      <trkpt lat="50.65301" lon="3.27365">
        <ele>21.651325</ele>
        <time>2018-02-06T12:36:36Z</time>
      </trkpt>
      <trkpt lat="50.65305" lon="3.2735">
        <ele>21.686285</ele>
        <time>2018-02-06T12:36:38Z</time>
      </trkpt>
      <trkpt lat="50.65308" lon="3.27336">
        <ele>21.682636</ele>
        <time>2018-02-06T12:36:40Z</time>
      </trkpt>
      <trkpt lat="50.65313" lon="3.27322">
        <ele>21.674408</ele>
        <time>2018-02-06T12:36:42Z</time>
      </trkpt>
      <trkpt lat="50.65317" lon="3.27307">
        <ele>21.701605</ele>
        <time>2018-02-06T12:36:44Z</time>
      </trkpt>
      <trkpt lat="50.65321" lon="3.27292">
        <ele>21.697855</ele>
        <time>2018-02-06T12:36:46Z</time>
      </trkpt>
      <trkpt lat="50.65326" lon="3.27278">
        <ele>21.682564</ele>
        <time>2018-02-06T12:36:48Z</time>
      </trkpt>
      <trkpt lat="50.65331" lon="3.27263">
        <ele>21.640095</ele>
        <time>2018-02-06T12:36:50Z</time>
      </trkpt>
      <trkpt lat="50.65335" lon="3.27248">
        <ele>21.590816</ele>
        <time>2018-02-06T12:36:52Z</time>
      </trkpt>
      <trkpt lat="50.6534" lon="3.27234">
        <ele>21.52198</ele>
        <time>2018-02-06T12:36:54Z</time>
      </trkpt>
      <trkpt lat="50.65344" lon="3.27221">
        <ele>21.472429</ele>
        <time>2018-02-06T12:36:56Z</time>
      </trkpt>
      <trkpt lat="50.65347" lon="3.27209">
        <ele>21.390171</ele>
        <time>2018-02-06T12:36:58Z</time>
      </trkpt>
      <trkpt lat="50.65351" lon="3.27196">
        <ele>21.389568</ele>
        <time>2018-02-06T12:37:00Z</time>
      </trkpt>
      <trkpt lat="50.65355" lon="3.27182">
        <ele>21.318748</ele>
        <time>2018-02-06T12:37:02Z</time>
      </trkpt>
      <trkpt lat="50.65358" lon="3.27168">
        <ele>21.309452</ele>
        <time>2018-02-06T12:37:04Z</time>
      </trkpt>
      <trkpt lat="50.65362" lon="3.27154">
        <ele>21.258738</ele>
        <time>2018-02-06T12:37:06Z</time>
      </trkpt>
      <trkpt lat="50.65366" lon="3.2714">
        <ele>21.179485</ele>
        <time>2018-02-06T12:37:08Z</time>
      </trkpt>
      <trkpt lat="50.65371" lon="3.27126">
        <ele>21.058754</ele>
        <time>2018-02-06T12:37:10Z</time>
      </trkpt>
      <trkpt lat="50.65375" lon="3.27112">
        <ele>20.954031</ele>
        <time>2018-02-06T12:37:12Z</time>
      </trkpt>
      <trkpt lat="50.65379" lon="3.27099">
        <ele>20.856586</ele>
        <time>2018-02-06T12:37:14Z</time>
      </trkpt>
      <trkpt lat="50.65384" lon="3.27086">
        <ele>20.746321</ele>
        <time>2018-02-06T12:37:16Z</time>
      </trkpt>
      <trkpt lat="50.65389" lon="3.27072">
        <ele>20.639296</ele>
        <time>2018-02-06T12:37:18Z</time>
      </trkpt>
      <trkpt lat="50.65394" lon="3.27058">
        <ele>20.525492</ele>
        <time>2018-02-06T12:37:20Z</time>
      </trkpt>
      <trkpt lat="50.65399" lon="3.27045">
        <ele>20.36186</ele>
        <time>2018-02-06T12:37:22Z</time>
      </trkpt>
      <trkpt lat="50.65404" lon="3.27032">
        <ele>20.272753</ele>
        <time>2018-02-06T12:37:24Z</time>
      </trkpt>
      <trkpt lat="50.65408" lon="3.2702">
        <ele>20.175724</ele>
        <time>2018-02-06T12:37:26Z</time>
      </trkpt>
      <trkpt lat="50.65413" lon="3.2701">
        <ele>20.088934</ele>
        <time>2018-02-06T12:37:28Z</time>
      </trkpt>
      <trkpt lat="50.65416" lon="3.27001">
        <ele>19.97234</ele>
        <time>2018-02-06T12:37:30Z</time>
      </trkpt>
      <trkpt lat="50.65419" lon="3.26993">
        <ele>19.871889</ele>
        <time>2018-02-06T12:37:32Z</time>
      </trkpt>
      <trkpt lat="50.65422" lon="3.26986">
        <ele>19.812475</ele>
        <time>2018-02-06T12:37:34Z</time>
      </trkpt>
      <trkpt lat="50.65424" lon="3.26977">
        <ele>19.744108</ele>
        <time>2018-02-06T12:37:36Z</time>
      </trkpt>
      <trkpt lat="50.65428" lon="3.26967">
        <ele>19.745741</ele>
        <time>2018-02-06T12:37:38Z</time>
      </trkpt>
      <trkpt lat="50.65432" lon="3.26956">
        <ele>19.722029</ele>
        <time>2018-02-06T12:37:40Z</time>
      </trkpt>
      <trkpt lat="50.65436" lon="3.26944">
        <ele>19.658653</ele>
        <time>2018-02-06T12:37:42Z</time>
      </trkpt>
      <trkpt lat="50.6544" lon="3.26933">
        <ele>19.60643</ele>
        <time>2018-02-06T12:37:44Z</time>
      </trkpt>
      <trkpt lat="50.65445" lon="3.2692">
        <ele>19.613026</ele>
        <time>2018-02-06T12:37:46Z</time>
      </trkpt>
      <trkpt lat="50.6545" lon="3.26908">
        <ele>19.563732</ele>
        <time>2018-02-06T12:37:48Z</time>
      </trkpt>
      <trkpt lat="50.65455" lon="3.26895">
        <ele>19.5184</ele>
        <time>2018-02-06T12:37:50Z</time>
      </trkpt>
      <trkpt lat="50.65459" lon="3.26882">
        <ele>19.513508</ele>
        <time>2018-02-06T12:37:52Z</time>
      </trkpt>
      <trkpt lat="50.65464" lon="3.2687">
        <ele>19.487398</ele>
        <time>2018-02-06T12:37:53Z</time>
      </trkpt>
      <trkpt lat="50.65468" lon="3.26858">
        <ele>19.484846</ele>
        <time>2018-02-06T12:37:56Z</time>
      </trkpt>
      <trkpt lat="50.65473" lon="3.26849">
        <ele>19.462339</ele>
        <time>2018-02-06T12:37:58Z</time>
      </trkpt>
      <trkpt lat="50.6548" lon="3.26842">
        <ele>19.462679</ele>
        <time>2018-02-06T12:38:00Z</time>
      </trkpt>
      <trkpt lat="50.65489" lon="3.26839">
        <ele>19.463612</ele>
        <time>2018-02-06T12:38:02Z</time>
      </trkpt>
      <trkpt lat="50.655" lon="3.26837">
        <ele>19.451342</ele>
        <time>2018-02-06T12:38:04Z</time>
      </trkpt>
      <trkpt lat="50.6551" lon="3.26835">
        <ele>19.416599</ele>
        <time>2018-02-06T12:38:06Z</time>
      </trkpt>
      <trkpt lat="50.6552" lon="3.26834">
        <ele>19.370079</ele>
        <time>2018-02-06T12:38:08Z</time>
      </trkpt>
      <trkpt lat="50.65531" lon="3.26832">
        <ele>19.310184</ele>
        <time>2018-02-06T12:38:10Z</time>
      </trkpt>
      <trkpt lat="50.65541" lon="3.2683">
        <ele>19.307131</ele>
        <time>2018-02-06T12:38:12Z</time>
      </trkpt>
      <trkpt lat="50.65551" lon="3.26828">
        <ele>19.225725</ele>
        <time>2018-02-06T12:38:14Z</time>
      </trkpt>
      <trkpt lat="50.65562" lon="3.26825">
        <ele>19.097965</ele>
        <time>2018-02-06T12:38:16Z</time>
      </trkpt>
      <trkpt lat="50.65572" lon="3.26822">
        <ele>19.052565</ele>
        <time>2018-02-06T12:38:18Z</time>
      </trkpt>
      <trkpt lat="50.65582" lon="3.2682">
        <ele>19.018135</ele>
        <time>2018-02-06T12:38:20Z</time>
      </trkpt>
      <trkpt lat="50.65592" lon="3.26818">
        <ele>18.940098</ele>
        <time>2018-02-06T12:38:22Z</time>
      </trkpt>
      <trkpt lat="50.65602" lon="3.26816">
        <ele>18.933788</ele>
        <time>2018-02-06T12:38:24Z</time>
      </trkpt>
      <trkpt lat="50.65612" lon="3.26814">
        <ele>18.864195</ele>
        <time>2018-02-06T12:38:26Z</time>
      </trkpt>
      <trkpt lat="50.65622" lon="3.26812">
        <ele>18.799498</ele>
        <time>2018-02-06T12:38:28Z</time>
      </trkpt>
      <trkpt lat="50.65632" lon="3.2681">
        <ele>18.734486</ele>
        <time>2018-02-06T12:38:30Z</time>
      </trkpt>
      <trkpt lat="50.65643" lon="3.26809">
        <ele>18.656126</ele>
        <time>2018-02-06T12:38:32Z</time>
      </trkpt>
      <trkpt lat="50.65653" lon="3.26809">
        <ele>18.516451</ele>
        <time>2018-02-06T12:38:34Z</time>
      </trkpt>
      <trkpt lat="50.65662" lon="3.26811">
        <ele>18.422367</ele>
        <time>2018-02-06T12:38:36Z</time>
      </trkpt>
      <trkpt lat="50.65671" lon="3.26812">
        <ele>18.296352</ele>
        <time>2018-02-06T12:38:38Z</time>
      </trkpt>
      <trkpt lat="50.6568" lon="3.26814">
        <ele>18.121342</ele>
        <time>2018-02-06T12:38:40Z</time>
      </trkpt>
      <trkpt lat="50.65689" lon="3.26818">
        <ele>18.015047</ele>
        <time>2018-02-06T12:38:42Z</time>
      </trkpt>
      <trkpt lat="50.65696" lon="3.26825">
        <ele>17.881168</ele>
        <time>2018-02-06T12:38:44Z</time>
      </trkpt>
      <trkpt lat="50.65703" lon="3.26835">
        <ele>17.73344</ele>
        <time>2018-02-06T12:38:46Z</time>
      </trkpt>
      <trkpt lat="50.65708" lon="3.26847">
        <ele>17.631626</ele>
        <time>2018-02-06T12:38:48Z</time>
      </trkpt>
      <trkpt lat="50.65712" lon="3.2686">
        <ele>17.46069</ele>
        <time>2018-02-06T12:38:50Z</time>
      </trkpt>
      <trkpt lat="50.65715" lon="3.26874">
        <ele>17.330519</ele>
        <time>2018-02-06T12:38:52Z</time>
      </trkpt>
      <trkpt lat="50.65719" lon="3.26888">
        <ele>17.220802</ele>
        <time>2018-02-06T12:38:54Z</time>
      </trkpt>
      <trkpt lat="50.65723" lon="3.26903">
        <ele>17.178837</ele>
        <time>2018-02-06T12:38:56Z</time>
      </trkpt>
      <trkpt lat="50.65727" lon="3.26918">
        <ele>17.131382</ele>
        <time>2018-02-06T12:38:58Z</time>
      </trkpt>
      <trkpt lat="50.65731" lon="3.26932">
        <ele>17.0306</ele>
        <time>2018-02-06T12:39:00Z</time>
      </trkpt>
      <trkpt lat="50.65735" lon="3.26946">
        <ele>16.895578</ele>
        <time>2018-02-06T12:39:02Z</time>
      </trkpt>
      <trkpt lat="50.65739" lon="3.2696">
        <ele>16.785131</ele>
        <time>2018-02-06T12:39:04Z</time>
      </trkpt>
      <trkpt lat="50.65742" lon="3.26974">
        <ele>16.697525</ele>
        <time>2018-02-06T12:39:06Z</time>
      </trkpt>
      <trkpt lat="50.65746" lon="3.26988">
        <ele>16.63093</ele>
        <time>2018-02-06T12:39:08Z</time>
      </trkpt>
      <trkpt lat="50.6575" lon="3.27002">
        <ele>16.548645</ele>
        <time>2018-02-06T12:39:10Z</time>
      </trkpt>
      <trkpt lat="50.65754" lon="3.27016">
        <ele>16.464722</ele>
        <time>2018-02-06T12:39:12Z</time>
      </trkpt>
      <trkpt lat="50.65758" lon="3.2703">
        <ele>16.408274</ele>
        <time>2018-02-06T12:39:14Z</time>
      </trkpt>
      <trkpt lat="50.65762" lon="3.27044">
        <ele>16.3699</ele>
        <time>2018-02-06T12:39:16Z</time>
      </trkpt>
      <trkpt lat="50.65766" lon="3.27058">
        <ele>16.341391</ele>
        <time>2018-02-06T12:39:18Z</time>
      </trkpt>
      <trkpt lat="50.6577" lon="3.27072">
        <ele>16.381659</ele>
        <time>2018-02-06T12:39:20Z</time>
      </trkpt>
      <trkpt lat="50.65774" lon="3.27087">
        <ele>16.343418</ele>
        <time>2018-02-06T12:39:22Z</time>
      </trkpt>
      <trkpt lat="50.65778" lon="3.27102">
        <ele>16.300579</ele>
        <time>2018-02-06T12:39:24Z</time>
      </trkpt>
      <trkpt lat="50.65782" lon="3.27117">
        <ele>16.276245</ele>
        <time>2018-02-06T12:39:26Z</time>
      </trkpt>
      <trkpt lat="50.65786" lon="3.27132">
        <ele>16.244024</ele>
        <time>2018-02-06T12:39:28Z</time>
      </trkpt>
      <trkpt lat="50.65789" lon="3.27147">
        <ele>16.243261</ele>
        <time>2018-02-06T12:39:30Z</time>
      </trkpt>
      <trkpt lat="50.65792" lon="3.27163">
        <ele>16.254099</ele>
        <time>2018-02-06T12:39:32Z</time>
      </trkpt>
      <trkpt lat="50.65794" lon="3.27178">
        <ele>16.240259</ele>
        <time>2018-02-06T12:39:34Z</time>
      </trkpt>
      <trkpt lat="50.65797" lon="3.27194">
        <ele>16.220373</ele>
        <time>2018-02-06T12:39:36Z</time>
      </trkpt>
      <trkpt lat="50.65799" lon="3.2721">
        <ele>16.157757</ele>
        <time>2018-02-06T12:39:38Z</time>
      </trkpt>
      <trkpt lat="50.65802" lon="3.27225">
        <ele>16.103891</ele>
        <time>2018-02-06T12:39:40Z</time>
      </trkpt>
      <trkpt lat="50.65804" lon="3.2724">
        <ele>16.020906</ele>
        <time>2018-02-06T12:39:42Z</time>
      </trkpt>
      <trkpt lat="50.65808" lon="3.27255">
        <ele>16.016014</ele>
        <time>2018-02-06T12:39:44Z</time>
      </trkpt>
      <trkpt lat="50.65812" lon="3.27268">
        <ele>16.01955</ele>
        <time>2018-02-06T12:39:46Z</time>
      </trkpt>
      <trkpt lat="50.65817" lon="3.27281">
        <ele>16.014074</ele>
        <time>2018-02-06T12:39:48Z</time>
      </trkpt>
      <trkpt lat="50.65822" lon="3.27293">
        <ele>16.009714</ele>
        <time>2018-02-06T12:39:50Z</time>
      </trkpt>
      <trkpt lat="50.65828" lon="3.27305">
        <ele>15.986731</ele>
        <time>2018-02-06T12:39:52Z</time>
      </trkpt>
      <trkpt lat="50.65835" lon="3.27316">
        <ele>16.018375</ele>
        <time>2018-02-06T12:39:54Z</time>
      </trkpt>
      <trkpt lat="50.65842" lon="3.27326">
        <ele>16.018684</ele>
        <time>2018-02-06T12:39:56Z</time>
      </trkpt>
      <trkpt lat="50.65849" lon="3.27336">
        <ele>16.002781</ele>
        <time>2018-02-06T12:39:58Z</time>
      </trkpt>
      <trkpt lat="50.65856" lon="3.27346">
        <ele>16.030138</ele>
        <time>2018-02-06T12:40:00Z</time>
      </trkpt>
      <trkpt lat="50.65863" lon="3.27356">
        <ele>15.995212</ele>
        <time>2018-02-06T12:40:02Z</time>
      </trkpt>
      <trkpt lat="50.65871" lon="3.27366">
        <ele>15.990633</ele>
        <time>2018-02-06T12:40:04Z</time>
      </trkpt>
      <trkpt lat="50.65878" lon="3.27375">
        <ele>15.983011</ele>
        <time>2018-02-06T12:40:06Z</time>
      </trkpt>
      <trkpt lat="50.65884" lon="3.27385">
        <ele>15.994479</ele>
        <time>2018-02-06T12:40:08Z</time>
      </trkpt>
      <trkpt lat="50.6589" lon="3.27393">
        <ele>15.961601</ele>
        <time>2018-02-06T12:40:10Z</time>
      </trkpt>
      <trkpt lat="50.65896" lon="3.27402">
        <ele>15.943228</ele>
        <time>2018-02-06T12:40:12Z</time>
      </trkpt>
      <trkpt lat="50.65902" lon="3.27411">
        <ele>15.926287</ele>
        <time>2018-02-06T12:40:14Z</time>
      </trkpt>
      <trkpt lat="50.65908" lon="3.27418">
        <ele>15.876581</ele>
        <time>2018-02-06T12:40:16Z</time>
      </trkpt>
      <trkpt lat="50.65916" lon="3.27425">
        <ele>15.858942</ele>
        <time>2018-02-06T12:40:18Z</time>
      </trkpt>
      <trkpt lat="50.65925" lon="3.27431">
        <ele>15.896441</ele>
        <time>2018-02-06T12:40:20Z</time>
      </trkpt>
      <trkpt lat="50.65933" lon="3.27437">
        <ele>15.964903</ele>
        <time>2018-02-06T12:40:22Z</time>
      </trkpt>
      <trkpt lat="50.65942" lon="3.27443">
        <ele>15.916628</ele>
        <time>2018-02-06T12:40:24Z</time>
      </trkpt>
      <trkpt lat="50.6595" lon="3.2745">
        <ele>15.919779</ele>
        <time>2018-02-06T12:40:26Z</time>
      </trkpt>
      <trkpt lat="50.65958" lon="3.27458">
        <ele>15.816584</ele>
        <time>2018-02-06T12:40:28Z</time>
      </trkpt>
      <trkpt lat="50.65966" lon="3.27465">
        <ele>15.780565</ele>
        <time>2018-02-06T12:40:30Z</time>
      </trkpt>
      <trkpt lat="50.65973" lon="3.27474">
        <ele>15.73645</ele>
        <time>2018-02-06T12:40:32Z</time>
      </trkpt>
      <trkpt lat="50.6598" lon="3.27483">
        <ele>15.70719</ele>
        <time>2018-02-06T12:40:34Z</time>
      </trkpt>
      <trkpt lat="50.65987" lon="3.27492">
        <ele>15.671471</ele>
        <time>2018-02-06T12:40:36Z</time>
      </trkpt>
      <trkpt lat="50.65993" lon="3.27502">
        <ele>15.624443</ele>
        <time>2018-02-06T12:40:38Z</time>
      </trkpt>
      <trkpt lat="50.66" lon="3.27512">
        <ele>15.561659</ele>
        <time>2018-02-06T12:40:40Z</time>
      </trkpt>
      <trkpt lat="50.66007" lon="3.27522">
        <ele>15.494037</ele>
        <time>2018-02-06T12:40:42Z</time>
      </trkpt>
      <trkpt lat="50.66014" lon="3.27532">
        <ele>15.44401</ele>
        <time>2018-02-06T12:40:44Z</time>
      </trkpt>
      <trkpt lat="50.66021" lon="3.27542">
        <ele>15.392876</ele>
        <time>2018-02-06T12:40:46Z</time>
      </trkpt>
      <trkpt lat="50.66028" lon="3.27552">
        <ele>15.335866</ele>
        <time>2018-02-06T12:40:48Z</time>
      </trkpt>
      <trkpt lat="50.66034" lon="3.27562">
        <ele>15.279013</ele>
        <time>2018-02-06T12:40:50Z</time>
      </trkpt>
      <trkpt lat="50.66041" lon="3.27571">
        <ele>15.236517</ele>
        <time>2018-02-06T12:40:52Z</time>
      </trkpt>
      <trkpt lat="50.66048" lon="3.27581">
        <ele>15.170622</ele>
        <time>2018-02-06T12:40:54Z</time>
      </trkpt>
      <trkpt lat="50.66055" lon="3.27591">
        <ele>15.133311</ele>
        <time>2018-02-06T12:40:56Z</time>
      </trkpt>
      <trkpt lat="50.66061" lon="3.27601">
        <ele>15.148288</ele>
        <time>2018-02-06T12:40:58Z</time>
      </trkpt>
      <trkpt lat="50.66068" lon="3.27611">
        <ele>15.119983</ele>
        <time>2018-02-06T12:41:00Z</time>
      </trkpt>
      <trkpt lat="50.66075" lon="3.27621">
        <ele>15.070491</ele>
        <time>2018-02-06T12:41:02Z</time>
      </trkpt>
      <trkpt lat="50.66082" lon="3.2763">
        <ele>15.025988</ele>
        <time>2018-02-06T12:41:04Z</time>
      </trkpt>
      <trkpt lat="50.66088" lon="3.2764">
        <ele>15.00903</ele>
        <time>2018-02-06T12:41:06Z</time>
      </trkpt>
      <trkpt lat="50.66095" lon="3.27649">
        <ele>14.989326</ele>
        <time>2018-02-06T12:41:08Z</time>
      </trkpt>
      <trkpt lat="50.66102" lon="3.27658">
        <ele>14.959448</ele>
        <time>2018-02-06T12:41:10Z</time>
      </trkpt>
      <trkpt lat="50.66108" lon="3.27668">
        <ele>14.982185</ele>
        <time>2018-02-06T12:41:12Z</time>
      </trkpt>
      <trkpt lat="50.66115" lon="3.27678">
        <ele>14.926781</ele>
        <time>2018-02-06T12:41:14Z</time>
      </trkpt>
      <trkpt lat="50.66122" lon="3.27688">
        <ele>14.890483</ele>
        <time>2018-02-06T12:41:16Z</time>
      </trkpt>
      <trkpt lat="50.66129" lon="3.27698">
        <ele>14.881386</ele>
        <time>2018-02-06T12:41:18Z</time>
      </trkpt>
      <trkpt lat="50.66134" lon="3.2771">
        <ele>14.851048</ele>
        <time>2018-02-06T12:41:20Z</time>
      </trkpt>
      <trkpt lat="50.6614" lon="3.27723">
        <ele>14.819273</ele>
        <time>2018-02-06T12:41:22Z</time>
      </trkpt>
      <trkpt lat="50.66144" lon="3.27736">
        <ele>14.776006</ele>
        <time>2018-02-06T12:41:24Z</time>
      </trkpt>
      <trkpt lat="50.66148" lon="3.2775">
        <ele>14.774549</ele>
        <time>2018-02-06T12:41:26Z</time>
      </trkpt>
      <trkpt lat="50.66152" lon="3.27764">
        <ele>14.720961</ele>
        <time>2018-02-06T12:41:28Z</time>
      </trkpt>
      <trkpt lat="50.66156" lon="3.27779">
        <ele>14.70641</ele>
        <time>2018-02-06T12:41:30Z</time>
      </trkpt>
      <trkpt lat="50.6616" lon="3.27793">
        <ele>14.659782</ele>
        <time>2018-02-06T12:41:32Z</time>
      </trkpt>
      <trkpt lat="50.66164" lon="3.27806">
        <ele>14.616402</ele>
        <time>2018-02-06T12:41:34Z</time>
      </trkpt>
      <trkpt lat="50.66167" lon="3.2782">
        <ele>14.595828</ele>
        <time>2018-02-06T12:41:36Z</time>
      </trkpt>
      <trkpt lat="50.66171" lon="3.27835">
        <ele>14.541649</ele>
        <time>2018-02-06T12:41:38Z</time>
      </trkpt>
      <trkpt lat="50.66174" lon="3.27849">
        <ele>14.46221</ele>
        <time>2018-02-06T12:41:40Z</time>
      </trkpt>
      <trkpt lat="50.66178" lon="3.27863">
        <ele>14.368288</ele>
        <time>2018-02-06T12:41:42Z</time>
      </trkpt>
      <trkpt lat="50.66182" lon="3.27878">
        <ele>14.317225</ele>
        <time>2018-02-06T12:41:44Z</time>
      </trkpt>
      <trkpt lat="50.66184" lon="3.27892">
        <ele>14.281543</ele>
        <time>2018-02-06T12:41:46Z</time>
      </trkpt>
      <trkpt lat="50.66187" lon="3.27907">
        <ele>14.215998</ele>
        <time>2018-02-06T12:41:48Z</time>
      </trkpt>
      <trkpt lat="50.66188" lon="3.27922">
        <ele>14.209501</ele>
        <time>2018-02-06T12:41:50Z</time>
      </trkpt>
      <trkpt lat="50.6619" lon="3.27937">
        <ele>14.198084</ele>
        <time>2018-02-06T12:41:52Z</time>
      </trkpt>
      <trkpt lat="50.66191" lon="3.27953">
        <ele>14.165665</ele>
        <time>2018-02-06T12:41:54Z</time>
      </trkpt>
      <trkpt lat="50.66192" lon="3.27968">
        <ele>14.11702</ele>
        <time>2018-02-06T12:41:56Z</time>
      </trkpt>
      <trkpt lat="50.66193" lon="3.27985">
        <ele>14.098262</ele>
        <time>2018-02-06T12:41:58Z</time>
      </trkpt>
      <trkpt lat="50.66193" lon="3.28001">
        <ele>14.056895</ele>
        <time>2018-02-06T12:42:00Z</time>
      </trkpt>
      <trkpt lat="50.66193" lon="3.28018">
        <ele>14.050435</ele>
        <time>2018-02-06T12:42:02Z</time>
      </trkpt>
      <trkpt lat="50.66193" lon="3.28034">
        <ele>14.044561</ele>
        <time>2018-02-06T12:42:04Z</time>
      </trkpt>
      <trkpt lat="50.66193" lon="3.2805">
        <ele>13.967662</ele>
        <time>2018-02-06T12:42:06Z</time>
      </trkpt>
      <trkpt lat="50.66192" lon="3.28067">
        <ele>13.923612</ele>
        <time>2018-02-06T12:42:08Z</time>
      </trkpt>
      <trkpt lat="50.6619" lon="3.28083">
        <ele>13.85977</ele>
        <time>2018-02-06T12:42:10Z</time>
      </trkpt>
      <trkpt lat="50.66188" lon="3.28099">
        <ele>13.816307</ele>
        <time>2018-02-06T12:42:12Z</time>
      </trkpt>
      <trkpt lat="50.66187" lon="3.28115">
        <ele>13.792046</ele>
        <time>2018-02-06T12:42:14Z</time>
      </trkpt>
      <trkpt lat="50.66185" lon="3.2813">
        <ele>13.746325</ele>
        <time>2018-02-06T12:42:16Z</time>
      </trkpt>
      <trkpt lat="50.66184" lon="3.28146">
        <ele>13.659183</ele>
        <time>2018-02-06T12:42:18Z</time>
      </trkpt>
      <trkpt lat="50.66182" lon="3.28163">
        <ele>13.654411</ele>
        <time>2018-02-06T12:42:20Z</time>
      </trkpt>
      <trkpt lat="50.6618" lon="3.28179">
        <ele>13.696085</ele>
        <time>2018-02-06T12:42:22Z</time>
      </trkpt>
      <trkpt lat="50.66179" lon="3.28196">
        <ele>13.725607</ele>
        <time>2018-02-06T12:42:24Z</time>
      </trkpt>
      <trkpt lat="50.66177" lon="3.28212">
        <ele>13.746623</ele>
        <time>2018-02-06T12:42:26Z</time>
      </trkpt>
      <trkpt lat="50.66175" lon="3.28229">
        <ele>13.739576</ele>
        <time>2018-02-06T12:42:28Z</time>
      </trkpt>
      <trkpt lat="50.66173" lon="3.28245">
        <ele>13.728024</ele>
        <time>2018-02-06T12:42:30Z</time>
      </trkpt>
      <trkpt lat="50.66172" lon="3.28262">
        <ele>13.68825</ele>
        <time>2018-02-06T12:42:32Z</time>
      </trkpt>
      <trkpt lat="50.66171" lon="3.28279">
        <ele>13.679219</ele>
        <time>2018-02-06T12:42:34Z</time>
      </trkpt>
      <trkpt lat="50.66169" lon="3.28295">
        <ele>13.675066</ele>
        <time>2018-02-06T12:42:36Z</time>
      </trkpt>
      <trkpt lat="50.66167" lon="3.28311">
        <ele>13.686902</ele>
        <time>2018-02-06T12:42:38Z</time>
      </trkpt>
      <trkpt lat="50.66165" lon="3.28328">
        <ele>13.703549</ele>
        <time>2018-02-06T12:42:40Z</time>
      </trkpt>
      <trkpt lat="50.66164" lon="3.28344">
        <ele>13.715744</ele>
        <time>2018-02-06T12:42:42Z</time>
      </trkpt>
      <trkpt lat="50.66162" lon="3.2836">
        <ele>13.719009</ele>
        <time>2018-02-06T12:42:44Z</time>
      </trkpt>
      <trkpt lat="50.6616" lon="3.28377">
        <ele>13.750525</ele>
        <time>2018-02-06T12:42:46Z</time>
      </trkpt>
      <trkpt lat="50.66159" lon="3.28393">
        <ele>13.854975</ele>
        <time>2018-02-06T12:42:48Z</time>
      </trkpt>
      <trkpt lat="50.66158" lon="3.28409">
        <ele>13.935957</ele>
        <time>2018-02-06T12:42:50Z</time>
      </trkpt>
      <trkpt lat="50.66156" lon="3.28425">
        <ele>14.007321</ele>
        <time>2018-02-06T12:42:52Z</time>
      </trkpt>
      <trkpt lat="50.66156" lon="3.28442">
        <ele>14.073454</ele>
        <time>2018-02-06T12:42:54Z</time>
      </trkpt>
      <trkpt lat="50.66156" lon="3.28458">
        <ele>14.137187</ele>
        <time>2018-02-06T12:42:56Z</time>
      </trkpt>
      <trkpt lat="50.66157" lon="3.28474">
        <ele>14.158051</ele>
        <time>2018-02-06T12:42:58Z</time>
      </trkpt>
      <trkpt lat="50.66158" lon="3.28489">
        <ele>14.247533</ele>
        <time>2018-02-06T12:43:00Z</time>
      </trkpt>
      <trkpt lat="50.66159" lon="3.28503">
        <ele>14.257332</ele>
        <time>2018-02-06T12:43:02Z</time>
      </trkpt>
      <trkpt lat="50.66159" lon="3.28516">
        <ele>14.269922</ele>
        <time>2018-02-06T12:43:04Z</time>
      </trkpt>
      <trkpt lat="50.6616" lon="3.28529">
        <ele>14.309276</ele>
        <time>2018-02-06T12:43:06Z</time>
      </trkpt>
      <trkpt lat="50.66161" lon="3.28541">
        <ele>14.365476</ele>
        <time>2018-02-06T12:43:08Z</time>
      </trkpt>
      <trkpt lat="50.66161" lon="3.28554">
        <ele>14.488291</ele>
        <time>2018-02-06T12:43:10Z</time>
      </trkpt>
      <trkpt lat="50.66161" lon="3.28567">
        <ele>14.601419</ele>
        <time>2018-02-06T12:43:12Z</time>
      </trkpt>
      <trkpt lat="50.66162" lon="3.2858">
        <ele>14.711299</ele>
        <time>2018-02-06T12:43:14Z</time>
      </trkpt>
      <trkpt lat="50.66162" lon="3.28593">
        <ele>14.909636</ele>
        <time>2018-02-06T12:43:16Z</time>
      </trkpt>
      <trkpt lat="50.66163" lon="3.28605">
        <ele>15.136847</ele>
        <time>2018-02-06T12:43:18Z</time>
      </trkpt>
      <trkpt lat="50.66163" lon="3.28618">
        <ele>15.330098</ele>
        <time>2018-02-06T12:43:20Z</time>
      </trkpt>
      <trkpt lat="50.66164" lon="3.2863">
        <ele>15.549109</ele>
        <time>2018-02-06T12:43:22Z</time>
      </trkpt>
      <trkpt lat="50.66164" lon="3.28643">
        <ele>15.875554</ele>
        <time>2018-02-06T12:43:24Z</time>
      </trkpt>
      <trkpt lat="50.66164" lon="3.28655">
        <ele>16.199358</ele>
        <time>2018-02-06T12:43:26Z</time>
      </trkpt>
      <trkpt lat="50.66165" lon="3.28668">
        <ele>16.474707</ele>
        <time>2018-02-06T12:43:28Z</time>
      </trkpt>
      <trkpt lat="50.66166" lon="3.28681">
        <ele>16.835007</ele>
        <time>2018-02-06T12:43:30Z</time>
      </trkpt>
      <trkpt lat="50.66167" lon="3.28694">
        <ele>17.198042</ele>
        <time>2018-02-06T12:43:32Z</time>
      </trkpt>
      <trkpt lat="50.66168" lon="3.28706">
        <ele>17.378685</ele>
        <time>2018-02-06T12:43:34Z</time>
      </trkpt>
      <trkpt lat="50.66169" lon="3.28718">
        <ele>17.809338</ele>
        <time>2018-02-06T12:43:36Z</time>
      </trkpt>
      <trkpt lat="50.66169" lon="3.2873">
        <ele>18.294935</ele>
        <time>2018-02-06T12:43:38Z</time>
      </trkpt>
      <trkpt lat="50.6617" lon="3.28741">
        <ele>18.78467</ele>
        <time>2018-02-06T12:43:40Z</time>
      </trkpt>
      <trkpt lat="50.66171" lon="3.28752">
        <ele>19.230293</ele>
        <time>2018-02-06T12:43:42Z</time>
      </trkpt>
      <trkpt lat="50.66171" lon="3.28763">
        <ele>19.687963</ele>
        <time>2018-02-06T12:43:44Z</time>
      </trkpt>
      <trkpt lat="50.66172" lon="3.28775">
        <ele>20.196421</ele>
        <time>2018-02-06T12:43:46Z</time>
      </trkpt>
      <trkpt lat="50.66172" lon="3.28787">
        <ele>20.648888</ele>
        <time>2018-02-06T12:43:48Z</time>
      </trkpt>
      <trkpt lat="50.66173" lon="3.288">
        <ele>20.992268</ele>
        <time>2018-02-06T12:43:50Z</time>
      </trkpt>
      <trkpt lat="50.66174" lon="3.28813">
        <ele>21.347477</ele>
        <time>2018-02-06T12:43:52Z</time>
      </trkpt>
      <trkpt lat="50.66175" lon="3.28827">
        <ele>21.657032</ele>
        <time>2018-02-06T12:43:54Z</time>
      </trkpt>
      <trkpt lat="50.66177" lon="3.28843">
        <ele>21.93821</ele>
        <time>2018-02-06T12:43:56Z</time>
      </trkpt>
      <trkpt lat="50.66178" lon="3.28861">
        <ele>22.119267</ele>
        <time>2018-02-06T12:43:58Z</time>
      </trkpt>
      <trkpt lat="50.66179" lon="3.2888">
        <ele>22.232674</ele>
        <time>2018-02-06T12:44:00Z</time>
      </trkpt>
      <trkpt lat="50.6618" lon="3.289">
        <ele>22.280827</ele>
        <time>2018-02-06T12:44:02Z</time>
      </trkpt>
      <trkpt lat="50.66182" lon="3.2892">
        <ele>22.325153</ele>
        <time>2018-02-06T12:44:04Z</time>
      </trkpt>
      <trkpt lat="50.66185" lon="3.28939">
        <ele>22.161884</ele>
        <time>2018-02-06T12:44:06Z</time>
      </trkpt>
      <trkpt lat="50.66187" lon="3.2896">
        <ele>22.078951</ele>
        <time>2018-02-06T12:44:08Z</time>
      </trkpt>
      <trkpt lat="50.6619" lon="3.2898">
        <ele>21.968586</ele>
        <time>2018-02-06T12:44:10Z</time>
      </trkpt>
      <trkpt lat="50.66193" lon="3.29002">
        <ele>21.691301</ele>
        <time>2018-02-06T12:44:12Z</time>
      </trkpt>
      <trkpt lat="50.66197" lon="3.2902">
        <ele>21.275093</ele>
        <time>2018-02-06T12:44:14Z</time>
      </trkpt>
      <trkpt lat="50.66201" lon="3.29037">
        <ele>20.851841</ele>
        <time>2018-02-06T12:44:16Z</time>
      </trkpt>
      <trkpt lat="50.66204" lon="3.29051">
        <ele>20.331005</ele>
        <time>2018-02-06T12:44:18Z</time>
      </trkpt>
      <trkpt lat="50.66208" lon="3.29066">
        <ele>19.842844</ele>
        <time>2018-02-06T12:44:20Z</time>
      </trkpt>
      <trkpt lat="50.6621" lon="3.29079">
        <ele>19.336681</ele>
        <time>2018-02-06T12:44:22Z</time>
      </trkpt>
      <trkpt lat="50.66213" lon="3.29092">
        <ele>18.801044</ele>
        <time>2018-02-06T12:44:24Z</time>
      </trkpt>
      <trkpt lat="50.66216" lon="3.29106">
        <ele>18.228746</ele>
        <time>2018-02-06T12:44:26Z</time>
      </trkpt>
      <trkpt lat="50.66218" lon="3.29121">
        <ele>17.642107</ele>
        <time>2018-02-06T12:44:28Z</time>
      </trkpt>
      <trkpt lat="50.66221" lon="3.29137">
        <ele>17.11179</ele>
        <time>2018-02-06T12:44:30Z</time>
      </trkpt>
      <trkpt lat="50.66223" lon="3.29154">
        <ele>16.569693</ele>
        <time>2018-02-06T12:44:32Z</time>
      </trkpt>
      <trkpt lat="50.66226" lon="3.29171">
        <ele>16.112278</ele>
        <time>2018-02-06T12:44:34Z</time>
      </trkpt>
      <trkpt lat="50.66229" lon="3.29189">
        <ele>15.877063</ele>
        <time>2018-02-06T12:44:36Z</time>
      </trkpt>
      <trkpt lat="50.66232" lon="3.29206">
        <ele>15.351962</ele>
        <time>2018-02-06T12:44:38Z</time>
      </trkpt>
      <trkpt lat="50.66235" lon="3.29222">
        <ele>14.936269</ele>
        <time>2018-02-06T12:44:40Z</time>
      </trkpt>
      <trkpt lat="50.66239" lon="3.29237">
        <ele>14.521434</ele>
        <time>2018-02-06T12:44:42Z</time>
      </trkpt>
      <trkpt lat="50.66243" lon="3.29253">
        <ele>14.141026</ele>
        <time>2018-02-06T12:44:44Z</time>
      </trkpt>
      <trkpt lat="50.66246" lon="3.29268">
        <ele>13.735476</ele>
        <time>2018-02-06T12:44:46Z</time>
      </trkpt>
      <trkpt lat="50.6625" lon="3.29284">
        <ele>13.474642</ele>
        <time>2018-02-06T12:44:48Z</time>
      </trkpt>
      <trkpt lat="50.66254" lon="3.29299">
        <ele>13.191498</ele>
        <time>2018-02-06T12:44:50Z</time>
      </trkpt>
      <trkpt lat="50.66257" lon="3.29314">
        <ele>12.970836</ele>
        <time>2018-02-06T12:44:52Z</time>
      </trkpt>
      <trkpt lat="50.66261" lon="3.29328">
        <ele>12.904655</ele>
        <time>2018-02-06T12:44:54Z</time>
      </trkpt>
      <trkpt lat="50.66267" lon="3.29342">
        <ele>12.886322</ele>
        <time>2018-02-06T12:44:56Z</time>
      </trkpt>
      <trkpt lat="50.66274" lon="3.29352">
        <ele>12.852916</ele>
        <time>2018-02-06T12:44:58Z</time>
      </trkpt>
      <trkpt lat="50.66282" lon="3.29362">
        <ele>12.824496</ele>
        <time>2018-02-06T12:45:00Z</time>
      </trkpt>
      <trkpt lat="50.66291" lon="3.2937">
        <ele>12.730496</ele>
        <time>2018-02-06T12:45:02Z</time>
      </trkpt>
      <trkpt lat="50.66299" lon="3.29379">
        <ele>12.662572</ele>
        <time>2018-02-06T12:45:04Z</time>
      </trkpt>
      <trkpt lat="50.66307" lon="3.29387">
        <ele>12.655637</ele>
        <time>2018-02-06T12:45:06Z</time>
      </trkpt>
      <trkpt lat="50.66316" lon="3.29396">
        <ele>12.627985</ele>
        <time>2018-02-06T12:45:08Z</time>
      </trkpt>
      <trkpt lat="50.66324" lon="3.29403">
        <ele>12.646291</ele>
        <time>2018-02-06T12:45:10Z</time>
      </trkpt>
      <trkpt lat="50.66333" lon="3.29411">
        <ele>12.674627</ele>
        <time>2018-02-06T12:45:12Z</time>
      </trkpt>
      <trkpt lat="50.66341" lon="3.29419">
        <ele>12.651392</ele>
        <time>2018-02-06T12:45:14Z</time>
      </trkpt>
      <trkpt lat="50.6635" lon="3.29427">
        <ele>12.578691</ele>
        <time>2018-02-06T12:45:16Z</time>
      </trkpt>
      <trkpt lat="50.66358" lon="3.29435">
        <ele>12.600695</ele>
        <time>2018-02-06T12:45:18Z</time>
      </trkpt>
      <trkpt lat="50.66365" lon="3.29444">
        <ele>12.608887</ele>
        <time>2018-02-06T12:45:20Z</time>
      </trkpt>
      <trkpt lat="50.66371" lon="3.29457">
        <ele>12.563556</ele>
        <time>2018-02-06T12:45:22Z</time>
      </trkpt>
      <trkpt lat="50.66374" lon="3.29471">
        <ele>12.566236</ele>
        <time>2018-02-06T12:45:24Z</time>
      </trkpt>
      <trkpt lat="50.66375" lon="3.29486">
        <ele>12.630068</ele>
        <time>2018-02-06T12:45:26Z</time>
      </trkpt>
      <trkpt lat="50.66373" lon="3.29502">
        <ele>12.651828</ele>
        <time>2018-02-06T12:45:28Z</time>
      </trkpt>
      <trkpt lat="50.66371" lon="3.29517">
        <ele>12.652344</ele>
        <time>2018-02-06T12:45:30Z</time>
      </trkpt>
      <trkpt lat="50.66369" lon="3.29532">
        <ele>12.580355</ele>
        <time>2018-02-06T12:45:32Z</time>
      </trkpt>
      <trkpt lat="50.66368" lon="3.29547">
        <ele>12.581751</ele>
        <time>2018-02-06T12:45:34Z</time>
      </trkpt>
      <trkpt lat="50.66366" lon="3.29562">
        <ele>12.600632</ele>
        <time>2018-02-06T12:45:36Z</time>
      </trkpt>
      <trkpt lat="50.66365" lon="3.29577">
        <ele>12.566759</ele>
        <time>2018-02-06T12:45:38Z</time>
      </trkpt>
      <trkpt lat="50.66364" lon="3.29592">
        <ele>12.569601</ele>
        <time>2018-02-06T12:45:40Z</time>
      </trkpt>
      <trkpt lat="50.66362" lon="3.29607">
        <ele>12.532869</ele>
        <time>2018-02-06T12:45:42Z</time>
      </trkpt>
      <trkpt lat="50.66362" lon="3.29623">
        <ele>12.554434</ele>
        <time>2018-02-06T12:45:44Z</time>
      </trkpt>
      <trkpt lat="50.66365" lon="3.29639">
        <ele>12.598034</ele>
        <time>2018-02-06T12:45:46Z</time>
      </trkpt>
      <trkpt lat="50.6637" lon="3.29653">
        <ele>12.565587</ele>
        <time>2018-02-06T12:45:48Z</time>
      </trkpt>
      <trkpt lat="50.66375" lon="3.29665">
        <ele>12.596515</ele>
        <time>2018-02-06T12:45:50Z</time>
      </trkpt>
      <trkpt lat="50.66382" lon="3.29676">
        <ele>12.53927</ele>
        <time>2018-02-06T12:45:52Z</time>
      </trkpt>
      <trkpt lat="50.66387" lon="3.29688">
        <ele>12.519136</ele>
        <time>2018-02-06T12:45:54Z</time>
      </trkpt>
      <trkpt lat="50.66393" lon="3.297">
        <ele>12.549406</ele>
        <time>2018-02-06T12:45:56Z</time>
      </trkpt>
      <trkpt lat="50.66399" lon="3.29712">
        <ele>12.551192</ele>
        <time>2018-02-06T12:45:58Z</time>
      </trkpt>
      <trkpt lat="50.66405" lon="3.29724">
        <ele>12.469522</ele>
        <time>2018-02-06T12:46:00Z</time>
      </trkpt>
      <trkpt lat="50.66411" lon="3.29736">
        <ele>12.417661</ele>
        <time>2018-02-06T12:46:02Z</time>
      </trkpt>
      <trkpt lat="50.66416" lon="3.29748">
        <ele>12.417904</ele>
        <time>2018-02-06T12:46:04Z</time>
      </trkpt>
      <trkpt lat="50.66422" lon="3.2976">
        <ele>12.319216</ele>
        <time>2018-02-06T12:46:06Z</time>
      </trkpt>
      <trkpt lat="50.66428" lon="3.29772">
        <ele>12.222228</ele>
        <time>2018-02-06T12:46:08Z</time>
      </trkpt>
      <trkpt lat="50.66433" lon="3.29783">
        <ele>12.178192</ele>
        <time>2018-02-06T12:46:10Z</time>
      </trkpt>
      <trkpt lat="50.66439" lon="3.29794">
        <ele>12.107465</ele>
        <time>2018-02-06T12:46:12Z</time>
      </trkpt>
      <trkpt lat="50.66444" lon="3.29806">
        <ele>12.049553</ele>
        <time>2018-02-06T12:46:14Z</time>
      </trkpt>
      <trkpt lat="50.6645" lon="3.29818">
        <ele>11.977104</ele>
        <time>2018-02-06T12:46:16Z</time>
      </trkpt>
      <trkpt lat="50.66454" lon="3.29831">
        <ele>11.921193</ele>
        <time>2018-02-06T12:46:18Z</time>
      </trkpt>
      <trkpt lat="50.66457" lon="3.29844">
        <ele>11.847386</ele>
        <time>2018-02-06T12:46:20Z</time>
      </trkpt>
      <trkpt lat="50.66459" lon="3.29858">
        <ele>11.814669</ele>
        <time>2018-02-06T12:46:22Z</time>
      </trkpt>
      <trkpt lat="50.66461" lon="3.29873">
        <ele>11.799795</ele>
        <time>2018-02-06T12:46:24Z</time>
      </trkpt>
      <trkpt lat="50.66462" lon="3.29887">
        <ele>11.769186</ele>
        <time>2018-02-06T12:46:26Z</time>
      </trkpt>
      <trkpt lat="50.66464" lon="3.299">
        <ele>11.745837</ele>
        <time>2018-02-06T12:46:28Z</time>
      </trkpt>
      <trkpt lat="50.66466" lon="3.29913">
        <ele>11.741785</ele>
        <time>2018-02-06T12:46:30Z</time>
      </trkpt>
      <trkpt lat="50.66468" lon="3.29929">
        <ele>11.737921</ele>
        <time>2018-02-06T12:46:32Z</time>
      </trkpt>
      <trkpt lat="50.66469" lon="3.29944">
        <ele>11.727566</ele>
        <time>2018-02-06T12:46:34Z</time>
      </trkpt>
      <trkpt lat="50.66469" lon="3.2996">
        <ele>11.736498</ele>
        <time>2018-02-06T12:46:36Z</time>
      </trkpt>
      <trkpt lat="50.66467" lon="3.29976">
        <ele>11.672354</ele>
        <time>2018-02-06T12:46:38Z</time>
      </trkpt>
      <trkpt lat="50.66464" lon="3.29991">
        <ele>11.699438</ele>
        <time>2018-02-06T12:46:40Z</time>
      </trkpt>
      <trkpt lat="50.66461" lon="3.30006">
        <ele>11.742225</ele>
        <time>2018-02-06T12:46:42Z</time>
      </trkpt>
      <trkpt lat="50.66458" lon="3.30021">
        <ele>11.771665</ele>
        <time>2018-02-06T12:46:44Z</time>
      </trkpt>
      <trkpt lat="50.66454" lon="3.30036">
        <ele>11.808541</ele>
        <time>2018-02-06T12:46:46Z</time>
      </trkpt>
      <trkpt lat="50.66451" lon="3.30051">
        <ele>11.882126</ele>
        <time>2018-02-06T12:46:48Z</time>
      </trkpt>
      <trkpt lat="50.66447" lon="3.30066">
        <ele>11.953197</ele>
        <time>2018-02-06T12:46:50Z</time>
      </trkpt>
      <trkpt lat="50.66444" lon="3.3008">
        <ele>12.02218</ele>
        <time>2018-02-06T12:46:52Z</time>
      </trkpt>
      <trkpt lat="50.66441" lon="3.30095">
        <ele>12.097684</ele>
        <time>2018-02-06T12:46:54Z</time>
      </trkpt>
      <trkpt lat="50.66437" lon="3.3011">
        <ele>12.20204</ele>
        <time>2018-02-06T12:46:56Z</time>
      </trkpt>
      <trkpt lat="50.66434" lon="3.30124">
        <ele>12.282067</ele>
        <time>2018-02-06T12:46:58Z</time>
      </trkpt>
      <trkpt lat="50.66431" lon="3.30139">
        <ele>12.367846</ele>
        <time>2018-02-06T12:47:00Z</time>
      </trkpt>
      <trkpt lat="50.66427" lon="3.30154">
        <ele>12.38834</ele>
        <time>2018-02-06T12:47:02Z</time>
      </trkpt>
      <trkpt lat="50.66424" lon="3.30169">
        <ele>12.461963</ele>
        <time>2018-02-06T12:47:04Z</time>
      </trkpt>
      <trkpt lat="50.66421" lon="3.30184">
        <ele>12.540219</ele>
        <time>2018-02-06T12:47:06Z</time>
      </trkpt>
      <trkpt lat="50.66419" lon="3.30199">
        <ele>12.593398</ele>
        <time>2018-02-06T12:47:08Z</time>
      </trkpt>
      <trkpt lat="50.66415" lon="3.30214">
        <ele>12.625804</ele>
        <time>2018-02-06T12:47:10Z</time>
      </trkpt>
      <trkpt lat="50.66412" lon="3.30229">
        <ele>12.645487</ele>
        <time>2018-02-06T12:47:12Z</time>
      </trkpt>
      <trkpt lat="50.66409" lon="3.30244">
        <ele>12.684798</ele>
        <time>2018-02-06T12:47:14Z</time>
      </trkpt>
      <trkpt lat="50.66406" lon="3.30259">
        <ele>12.71549</ele>
        <time>2018-02-06T12:47:16Z</time>
      </trkpt>
      <trkpt lat="50.66403" lon="3.30274">
        <ele>12.77747</ele>
        <time>2018-02-06T12:47:18Z</time>
      </trkpt>
      <trkpt lat="50.664" lon="3.30289">
        <ele>12.836337</ele>
        <time>2018-02-06T12:47:20Z</time>
      </trkpt>
      <trkpt lat="50.66397" lon="3.30304">
        <ele>12.913977</ele>
        <time>2018-02-06T12:47:22Z</time>
      </trkpt>
      <trkpt lat="50.66393" lon="3.30318">
        <ele>12.970747</ele>
        <time>2018-02-06T12:47:24Z</time>
      </trkpt>
      <trkpt lat="50.66388" lon="3.30331">
        <ele>12.986285</ele>
        <time>2018-02-06T12:47:26Z</time>
      </trkpt>
      <trkpt lat="50.66379" lon="3.3034">
        <ele>13.032895</ele>
        <time>2018-02-06T12:47:28Z</time>
      </trkpt>
      <trkpt lat="50.6637" lon="3.30342">
        <ele>13.025764</ele>
        <time>2018-02-06T12:47:30Z</time>
      </trkpt>
      <trkpt lat="50.6636" lon="3.30338">
        <ele>13.033607</ele>
        <time>2018-02-06T12:47:32Z</time>
      </trkpt>
      <trkpt lat="50.66351" lon="3.30332">
        <ele>13.03815</ele>
        <time>2018-02-06T12:47:34Z</time>
      </trkpt>
      <trkpt lat="50.66341" lon="3.30325">
        <ele>13.026571</ele>
        <time>2018-02-06T12:47:36Z</time>
      </trkpt>
      <trkpt lat="50.66332" lon="3.30318">
        <ele>12.956085</ele>
        <time>2018-02-06T12:47:38Z</time>
      </trkpt>
      <trkpt lat="50.66322" lon="3.30311">
        <ele>12.906644</ele>
        <time>2018-02-06T12:47:40Z</time>
      </trkpt>
      <trkpt lat="50.66312" lon="3.30305">
        <ele>12.938837</ele>
        <time>2018-02-06T12:47:42Z</time>
      </trkpt>
      <trkpt lat="50.66302" lon="3.30299">
        <ele>12.950368</ele>
        <time>2018-02-06T12:47:44Z</time>
      </trkpt>
      <trkpt lat="50.66291" lon="3.30295">
        <ele>12.94738</ele>
        <time>2018-02-06T12:47:46Z</time>
      </trkpt>
      <trkpt lat="50.6628" lon="3.30296">
        <ele>12.93049</ele>
        <time>2018-02-06T12:47:48Z</time>
      </trkpt>
      <trkpt lat="50.6627" lon="3.30303">
        <ele>12.959948</ele>
        <time>2018-02-06T12:47:50Z</time>
      </trkpt>
      <trkpt lat="50.66261" lon="3.30314">
        <ele>12.956782</ele>
        <time>2018-02-06T12:47:52Z</time>
      </trkpt>
      <trkpt lat="50.66253" lon="3.30326">
        <ele>12.905408</ele>
        <time>2018-02-06T12:47:54Z</time>
      </trkpt>
      <trkpt lat="50.66245" lon="3.30339">
        <ele>12.868437</ele>
        <time>2018-02-06T12:47:56Z</time>
      </trkpt>
      <trkpt lat="50.66238" lon="3.30353">
        <ele>12.87294</ele>
        <time>2018-02-06T12:47:58Z</time>
      </trkpt>
      <trkpt lat="50.66231" lon="3.30366">
        <ele>12.832502</ele>
        <time>2018-02-06T12:48:00Z</time>
      </trkpt>
      <trkpt lat="50.66224" lon="3.30379">
        <ele>12.795446</ele>
        <time>2018-02-06T12:48:02Z</time>
      </trkpt>
      <trkpt lat="50.66217" lon="3.30393">
        <ele>12.740136</ele>
        <time>2018-02-06T12:48:04Z</time>
      </trkpt>
      <trkpt lat="50.6621" lon="3.30406">
        <ele>12.719568</ele>
        <time>2018-02-06T12:48:06Z</time>
      </trkpt>
      <trkpt lat="50.66203" lon="3.30419">
        <ele>12.701949</ele>
        <time>2018-02-06T12:48:08Z</time>
      </trkpt>
      <trkpt lat="50.66194" lon="3.30431">
        <ele>12.690672</ele>
        <time>2018-02-06T12:48:10Z</time>
      </trkpt>
      <trkpt lat="50.66186" lon="3.30442">
        <ele>12.720228</ele>
        <time>2018-02-06T12:48:12Z</time>
      </trkpt>
      <trkpt lat="50.66177" lon="3.30452">
        <ele>12.717731</ele>
        <time>2018-02-06T12:48:14Z</time>
      </trkpt>
      <trkpt lat="50.66169" lon="3.30462">
        <ele>12.707582</ele>
        <time>2018-02-06T12:48:16Z</time>
      </trkpt>
      <trkpt lat="50.66161" lon="3.30472">
        <ele>12.689713</ele>
        <time>2018-02-06T12:48:18Z</time>
      </trkpt>
      <trkpt lat="50.66152" lon="3.30482">
        <ele>12.735979</ele>
        <time>2018-02-06T12:48:20Z</time>
      </trkpt>
      <trkpt lat="50.66143" lon="3.30493">
        <ele>12.731821</ele>
        <time>2018-02-06T12:48:22Z</time>
      </trkpt>
      <trkpt lat="50.66134" lon="3.30503">
        <ele>12.747954</ele>
        <time>2018-02-06T12:48:24Z</time>
      </trkpt>
      <trkpt lat="50.66126" lon="3.30513">
        <ele>12.674022</ele>
        <time>2018-02-06T12:48:26Z</time>
      </trkpt>
      <trkpt lat="50.66117" lon="3.30524">
        <ele>12.631121</ele>
        <time>2018-02-06T12:48:28Z</time>
      </trkpt>
      <trkpt lat="50.66109" lon="3.30536">
        <ele>12.575891</ele>
        <time>2018-02-06T12:48:30Z</time>
      </trkpt>
      <trkpt lat="50.66101" lon="3.30547">
        <ele>12.555983</ele>
        <time>2018-02-06T12:48:32Z</time>
      </trkpt>
      <trkpt lat="50.66093" lon="3.30559">
        <ele>12.533027</ele>
        <time>2018-02-06T12:48:34Z</time>
      </trkpt>
      <trkpt lat="50.66086" lon="3.30571">
        <ele>12.578945</ele>
        <time>2018-02-06T12:48:36Z</time>
      </trkpt>
      <trkpt lat="50.66079" lon="3.30582">
        <ele>12.584515</ele>
        <time>2018-02-06T12:48:38Z</time>
      </trkpt>
      <trkpt lat="50.66071" lon="3.30593">
        <ele>12.587427</ele>
        <time>2018-02-06T12:48:40Z</time>
      </trkpt>
      <trkpt lat="50.66064" lon="3.30605">
        <ele>12.581727</ele>
        <time>2018-02-06T12:48:42Z</time>
      </trkpt>
      <trkpt lat="50.66056" lon="3.30617">
        <ele>12.590196</ele>
        <time>2018-02-06T12:48:44Z</time>
      </trkpt>
      <trkpt lat="50.66049" lon="3.30629">
        <ele>12.613118</ele>
        <time>2018-02-06T12:48:46Z</time>
      </trkpt>
      <trkpt lat="50.66041" lon="3.3064">
        <ele>12.623569</ele>
        <time>2018-02-06T12:48:48Z</time>
      </trkpt>
      <trkpt lat="50.66034" lon="3.30652">
        <ele>12.660145</ele>
        <time>2018-02-06T12:48:50Z</time>
      </trkpt>
      <trkpt lat="50.66027" lon="3.30663">
        <ele>12.702158</ele>
        <time>2018-02-06T12:48:52Z</time>
      </trkpt>
      <trkpt lat="50.66019" lon="3.30674">
        <ele>12.745647</ele>
        <time>2018-02-06T12:48:54Z</time>
      </trkpt>
      <trkpt lat="50.66012" lon="3.30685">
        <ele>12.793257</ele>
        <time>2018-02-06T12:48:56Z</time>
      </trkpt>
      <trkpt lat="50.66005" lon="3.30696">
        <ele>12.871183</ele>
        <time>2018-02-06T12:48:58Z</time>
      </trkpt>
      <trkpt lat="50.65997" lon="3.30706">
        <ele>12.97113</ele>
        <time>2018-02-06T12:49:00Z</time>
      </trkpt>
      <trkpt lat="50.6599" lon="3.30717">
        <ele>12.999842</ele>
        <time>2018-02-06T12:49:02Z</time>
      </trkpt>
      <trkpt lat="50.65983" lon="3.30726">
        <ele>12.991318</ele>
        <time>2018-02-06T12:49:04Z</time>
      </trkpt>
      <trkpt lat="50.65976" lon="3.30736">
        <ele>13.063101</ele>
        <time>2018-02-06T12:49:06Z</time>
      </trkpt>
      <trkpt lat="50.65968" lon="3.30746">
        <ele>13.11279</ele>
        <time>2018-02-06T12:49:08Z</time>
      </trkpt>
      <trkpt lat="50.65961" lon="3.30758">
        <ele>13.186256</ele>
        <time>2018-02-06T12:49:10Z</time>
      </trkpt>
      <trkpt lat="50.65954" lon="3.30769">
        <ele>13.274355</ele>
        <time>2018-02-06T12:49:12Z</time>
      </trkpt>
      <trkpt lat="50.65947" lon="3.3078">
        <ele>13.364075</ele>
        <time>2018-02-06T12:49:14Z</time>
      </trkpt>
      <trkpt lat="50.65941" lon="3.30792">
        <ele>13.421013</ele>
        <time>2018-02-06T12:49:16Z</time>
      </trkpt>
      <trkpt lat="50.65934" lon="3.30804">
        <ele>13.429068</ele>
        <time>2018-02-06T12:49:18Z</time>
      </trkpt>
      <trkpt lat="50.6593" lon="3.30818">
        <ele>13.474489</ele>
        <time>2018-02-06T12:49:20Z</time>
      </trkpt>
      <trkpt lat="50.65926" lon="3.30833">
        <ele>13.527054</ele>
        <time>2018-02-06T12:49:22Z</time>
      </trkpt>
      <trkpt lat="50.65922" lon="3.30849">
        <ele>13.56015</ele>
        <time>2018-02-06T12:49:24Z</time>
      </trkpt>
      <trkpt lat="50.65918" lon="3.30864">
        <ele>13.601993</ele>
        <time>2018-02-06T12:49:26Z</time>
      </trkpt>
      <trkpt lat="50.65915" lon="3.3088">
        <ele>13.689975</ele>
        <time>2018-02-06T12:49:28Z</time>
      </trkpt>
      <trkpt lat="50.65912" lon="3.30894">
        <ele>13.760631</ele>
        <time>2018-02-06T12:49:30Z</time>
      </trkpt>
      <trkpt lat="50.65908" lon="3.30909">
        <ele>13.804441</ele>
        <time>2018-02-06T12:49:32Z</time>
      </trkpt>
      <trkpt lat="50.65905" lon="3.30923">
        <ele>13.818459</ele>
        <time>2018-02-06T12:49:34Z</time>
      </trkpt>
      <trkpt lat="50.65905" lon="3.30938">
        <ele>13.85789</ele>
        <time>2018-02-06T12:49:36Z</time>
      </trkpt>
      <trkpt lat="50.65907" lon="3.30952">
        <ele>13.902997</ele>
        <time>2018-02-06T12:49:38Z</time>
      </trkpt>
      <trkpt lat="50.6591" lon="3.30964">
        <ele>13.969858</ele>
        <time>2018-02-06T12:49:40Z</time>
      </trkpt>
      <trkpt lat="50.65913" lon="3.30973">
        <ele>14.033884</ele>
        <time>2018-02-06T12:49:42Z</time>
      </trkpt>
      <trkpt lat="50.65918" lon="3.30983">
        <ele>14.136609</ele>
        <time>2018-02-06T12:49:44Z</time>
      </trkpt>
      <trkpt lat="50.65923" lon="3.30993">
        <ele>14.166201</ele>
        <time>2018-02-06T12:49:46Z</time>
      </trkpt>
      <trkpt lat="50.65929" lon="3.31006">
        <ele>14.248172</ele>
        <time>2018-02-06T12:49:48Z</time>
      </trkpt>
      <trkpt lat="50.65934" lon="3.31019">
        <ele>14.355965</ele>
        <time>2018-02-06T12:49:50Z</time>
      </trkpt>
      <trkpt lat="50.6594" lon="3.31032">
        <ele>14.377161</ele>
        <time>2018-02-06T12:49:52Z</time>
      </trkpt>
      <trkpt lat="50.65945" lon="3.31045">
        <ele>14.376608</ele>
        <time>2018-02-06T12:49:54Z</time>
      </trkpt>
      <trkpt lat="50.6595" lon="3.31058">
        <ele>14.413656</ele>
        <time>2018-02-06T12:49:56Z</time>
      </trkpt>
      <trkpt lat="50.65953" lon="3.31073">
        <ele>14.424017</ele>
        <time>2018-02-06T12:49:58Z</time>
      </trkpt>
      <trkpt lat="50.65954" lon="3.31088">
        <ele>14.474409</ele>
        <time>2018-02-06T12:50:00Z</time>
      </trkpt>
      <trkpt lat="50.65952" lon="3.31104">
        <ele>14.505625</ele>
        <time>2018-02-06T12:50:02Z</time>
      </trkpt>
      <trkpt lat="50.65949" lon="3.31119">
        <ele>14.528503</ele>
        <time>2018-02-06T12:50:04Z</time>
      </trkpt>
      <trkpt lat="50.65946" lon="3.31134">
        <ele>14.551127</ele>
        <time>2018-02-06T12:50:06Z</time>
      </trkpt>
      <trkpt lat="50.65942" lon="3.31148">
        <ele>14.507472</ele>
        <time>2018-02-06T12:50:08Z</time>
      </trkpt>
      <trkpt lat="50.6594" lon="3.31162">
        <ele>14.451715</ele>
        <time>2018-02-06T12:50:10Z</time>
      </trkpt>
      <trkpt lat="50.65939" lon="3.31177">
        <ele>14.429739</ele>
        <time>2018-02-06T12:50:12Z</time>
      </trkpt>
      <trkpt lat="50.65942" lon="3.31191">
        <ele>14.392038</ele>
        <time>2018-02-06T12:50:14Z</time>
      </trkpt>
      <trkpt lat="50.65947" lon="3.31203">
        <ele>14.386937</ele>
        <time>2018-02-06T12:50:16Z</time>
      </trkpt>
      <trkpt lat="50.65955" lon="3.31211">
        <ele>14.38944</ele>
        <time>2018-02-06T12:50:18Z</time>
      </trkpt>
      <trkpt lat="50.65963" lon="3.3122">
        <ele>14.325928</ele>
        <time>2018-02-06T12:50:20Z</time>
      </trkpt>
      <trkpt lat="50.65972" lon="3.31227">
        <ele>14.257256</ele>
        <time>2018-02-06T12:50:22Z</time>
      </trkpt>
      <trkpt lat="50.6598" lon="3.31235">
        <ele>14.152919</ele>
        <time>2018-02-06T12:50:24Z</time>
      </trkpt>
      <trkpt lat="50.65988" lon="3.31243">
        <ele>14.106482</ele>
        <time>2018-02-06T12:50:26Z</time>
      </trkpt>
      <trkpt lat="50.65996" lon="3.31251">
        <ele>14.054715</ele>
        <time>2018-02-06T12:50:28Z</time>
      </trkpt>
      <trkpt lat="50.66003" lon="3.31258">
        <ele>13.971022</ele>
        <time>2018-02-06T12:50:30Z</time>
      </trkpt>
      <trkpt lat="50.66011" lon="3.31266">
        <ele>13.915784</ele>
        <time>2018-02-06T12:50:32Z</time>
      </trkpt>
      <trkpt lat="50.66019" lon="3.31273">
        <ele>13.852527</ele>
        <time>2018-02-06T12:50:34Z</time>
      </trkpt>
      <trkpt lat="50.66027" lon="3.31281">
        <ele>13.79245</ele>
        <time>2018-02-06T12:50:36Z</time>
      </trkpt>
      <trkpt lat="50.66035" lon="3.31288">
        <ele>13.711281</ele>
        <time>2018-02-06T12:50:38Z</time>
      </trkpt>
      <trkpt lat="50.66043" lon="3.31295">
        <ele>13.639272</ele>
        <time>2018-02-06T12:50:40Z</time>
      </trkpt>
      <trkpt lat="50.66051" lon="3.31302">
        <ele>13.572192</ele>
        <time>2018-02-06T12:50:42Z</time>
      </trkpt>
      <trkpt lat="50.66058" lon="3.3131">
        <ele>13.545299</ele>
        <time>2018-02-06T12:50:44Z</time>
      </trkpt>
      <trkpt lat="50.66066" lon="3.31317">
        <ele>13.518599</ele>
        <time>2018-02-06T12:50:46Z</time>
      </trkpt>
      <trkpt lat="50.66074" lon="3.31324">
        <ele>13.518599</ele>
        <time>2018-02-06T12:50:48Z</time>
      </trkpt>
      <trkpt lat="50.66082" lon="3.31331">
        <ele>13.520703</ele>
        <time>2018-02-06T12:50:50Z</time>
      </trkpt>
      <trkpt lat="50.66089" lon="3.3134">
        <ele>13.512976</ele>
        <time>2018-02-06T12:50:52Z</time>
      </trkpt>
      <trkpt lat="50.66097" lon="3.31348">
        <ele>13.568517</ele>
        <time>2018-02-06T12:50:54Z</time>
      </trkpt>
      <trkpt lat="50.66103" lon="3.31356">
        <ele>13.548361</ele>
        <time>2018-02-06T12:50:56Z</time>
      </trkpt>
      <trkpt lat="50.6611" lon="3.31365">
        <ele>13.527722</ele>
        <time>2018-02-06T12:50:58Z</time>
      </trkpt>
      <trkpt lat="50.66117" lon="3.31374">
        <ele>13.520905</ele>
        <time>2018-02-06T12:51:00Z</time>
      </trkpt>
      <trkpt lat="50.66124" lon="3.31383">
        <ele>13.504603</ele>
        <time>2018-02-06T12:51:02Z</time>
      </trkpt>
      <trkpt lat="50.66131" lon="3.31391">
        <ele>13.549278</ele>
        <time>2018-02-06T12:51:04Z</time>
      </trkpt>
      <trkpt lat="50.66139" lon="3.31399">
        <ele>13.550453</ele>
        <time>2018-02-06T12:51:06Z</time>
      </trkpt>
      <trkpt lat="50.66145" lon="3.31407">
        <ele>13.547648</ele>
        <time>2018-02-06T12:51:08Z</time>
      </trkpt>
      <trkpt lat="50.66153" lon="3.31415">
        <ele>13.585085</ele>
        <time>2018-02-06T12:51:10Z</time>
      </trkpt>
      <trkpt lat="50.6616" lon="3.31423">
        <ele>13.629987</ele>
        <time>2018-02-06T12:51:12Z</time>
      </trkpt>
      <trkpt lat="50.66167" lon="3.31432">
        <ele>13.67452</ele>
        <time>2018-02-06T12:51:14Z</time>
      </trkpt>
      <trkpt lat="50.66173" lon="3.31441">
        <ele>13.737488</ele>
        <time>2018-02-06T12:51:16Z</time>
      </trkpt>
      <trkpt lat="50.6618" lon="3.3145">
        <ele>13.757136</ele>
        <time>2018-02-06T12:51:18Z</time>
      </trkpt>
      <trkpt lat="50.66186" lon="3.31461">
        <ele>13.782471</ele>
        <time>2018-02-06T12:51:20Z</time>
      </trkpt>
      <trkpt lat="50.66192" lon="3.31473">
        <ele>13.859156</ele>
        <time>2018-02-06T12:51:22Z</time>
      </trkpt>
      <trkpt lat="50.66196" lon="3.31486">
        <ele>13.8819</ele>
        <time>2018-02-06T12:51:24Z</time>
      </trkpt>
      <trkpt lat="50.662" lon="3.315">
        <ele>13.861567</ele>
        <time>2018-02-06T12:51:26Z</time>
      </trkpt>
      <trkpt lat="50.66204" lon="3.31513">
        <ele>13.898654</ele>
        <time>2018-02-06T12:51:28Z</time>
      </trkpt>
      <trkpt lat="50.66206" lon="3.31527">
        <ele>13.909178</ele>
        <time>2018-02-06T12:51:30Z</time>
      </trkpt>
      <trkpt lat="50.66209" lon="3.3154">
        <ele>13.924711</ele>
        <time>2018-02-06T12:51:32Z</time>
      </trkpt>
      <trkpt lat="50.66212" lon="3.31553">
        <ele>13.93085</ele>
        <time>2018-02-06T12:51:34Z</time>
      </trkpt>
      <trkpt lat="50.66215" lon="3.31567">
        <ele>13.941795</ele>
        <time>2018-02-06T12:51:36Z</time>
      </trkpt>
      <trkpt lat="50.66218" lon="3.3158">
        <ele>13.968982</ele>
        <time>2018-02-06T12:51:38Z</time>
      </trkpt>
      <trkpt lat="50.66223" lon="3.31591">
        <ele>13.987041</ele>
        <time>2018-02-06T12:51:40Z</time>
      </trkpt>
      <trkpt lat="50.6623" lon="3.316">
        <ele>14.000795</ele>
        <time>2018-02-06T12:51:42Z</time>
      </trkpt>
      <trkpt lat="50.66238" lon="3.31607">
        <ele>14.061571</ele>
        <time>2018-02-06T12:51:44Z</time>
      </trkpt>
      <trkpt lat="50.66246" lon="3.31612">
        <ele>14.037501</ele>
        <time>2018-02-06T12:51:46Z</time>
      </trkpt>
      <trkpt lat="50.66254" lon="3.31617">
        <ele>14.109518</ele>
        <time>2018-02-06T12:51:48Z</time>
      </trkpt>
      <trkpt lat="50.66262" lon="3.31621">
        <ele>14.113614</ele>
        <time>2018-02-06T12:51:50Z</time>
      </trkpt>
      <trkpt lat="50.6627" lon="3.31619">
        <ele>14.07477</ele>
        <time>2018-02-06T12:51:52Z</time>
      </trkpt>
      <trkpt lat="50.66278" lon="3.31611">
        <ele>14.045486</ele>
        <time>2018-02-06T12:51:54Z</time>
      </trkpt>
      <trkpt lat="50.66283" lon="3.31598">
        <ele>14.003302</ele>
        <time>2018-02-06T12:51:56Z</time>
      </trkpt>
      <trkpt lat="50.66287" lon="3.31585">
        <ele>13.998987</ele>
        <time>2018-02-06T12:51:58Z</time>
      </trkpt>
      <trkpt lat="50.66291" lon="3.31572">
        <ele>14.001978</ele>
        <time>2018-02-06T12:52:00Z</time>
      </trkpt>
      <trkpt lat="50.66297" lon="3.31561">
        <ele>14.012032</ele>
        <time>2018-02-06T12:52:02Z</time>
      </trkpt>
      <trkpt lat="50.66305" lon="3.31552">
        <ele>13.984471</ele>
        <time>2018-02-06T12:52:04Z</time>
      </trkpt>
      <trkpt lat="50.66313" lon="3.31544">
        <ele>13.958635</ele>
        <time>2018-02-06T12:52:06Z</time>
      </trkpt>
      <trkpt lat="50.6632" lon="3.31537">
        <ele>13.953293</ele>
        <time>2018-02-06T12:52:08Z</time>
      </trkpt>
      <trkpt lat="50.66328" lon="3.3153">
        <ele>13.915705</ele>
        <time>2018-02-06T12:52:10Z</time>
      </trkpt>
      <trkpt lat="50.66336" lon="3.31523">
        <ele>13.894892</ele>
        <time>2018-02-06T12:52:12Z</time>
      </trkpt>
      <trkpt lat="50.66344" lon="3.31516">
        <ele>13.876653</ele>
        <time>2018-02-06T12:52:14Z</time>
      </trkpt>
      <trkpt lat="50.66352" lon="3.31509">
        <ele>13.841772</ele>
        <time>2018-02-06T12:52:16Z</time>
      </trkpt>
      <trkpt lat="50.6636" lon="3.31502">
        <ele>13.796965</ele>
        <time>2018-02-06T12:52:18Z</time>
      </trkpt>
      <trkpt lat="50.66367" lon="3.31495">
        <ele>13.756312</ele>
        <time>2018-02-06T12:52:20Z</time>
      </trkpt>
      <trkpt lat="50.66375" lon="3.31489">
        <ele>13.730748</ele>
        <time>2018-02-06T12:52:22Z</time>
      </trkpt>
      <trkpt lat="50.66384" lon="3.31486">
        <ele>13.654024</ele>
        <time>2018-02-06T12:52:24Z</time>
      </trkpt>
      <trkpt lat="50.66393" lon="3.31487">
        <ele>13.599681</ele>
        <time>2018-02-06T12:52:26Z</time>
      </trkpt>
      <trkpt lat="50.66402" lon="3.31495">
        <ele>13.506459</ele>
        <time>2018-02-06T12:52:28Z</time>
      </trkpt>
      <trkpt lat="50.66409" lon="3.31504">
        <ele>13.437483</ele>
        <time>2018-02-06T12:52:30Z</time>
      </trkpt>
      <trkpt lat="50.66417" lon="3.31513">
        <ele>13.394882</ele>
        <time>2018-02-06T12:52:32Z</time>
      </trkpt>
      <trkpt lat="50.66423" lon="3.31521">
        <ele>13.399999</ele>
        <time>2018-02-06T12:52:34Z</time>
      </trkpt>
      <trkpt lat="50.6643" lon="3.31529">
        <ele>13.394386</ele>
        <time>2018-02-06T12:52:36Z</time>
      </trkpt>
      <trkpt lat="50.66437" lon="3.31538">
        <ele>13.437164</ele>
        <time>2018-02-06T12:52:38Z</time>
      </trkpt>
      <trkpt lat="50.66444" lon="3.31546">
        <ele>13.457402</ele>
        <time>2018-02-06T12:52:40Z</time>
      </trkpt>
      <trkpt lat="50.66452" lon="3.31554">
        <ele>13.470228</ele>
        <time>2018-02-06T12:52:42Z</time>
      </trkpt>
      <trkpt lat="50.66459" lon="3.31561">
        <ele>13.500569</ele>
        <time>2018-02-06T12:52:44Z</time>
      </trkpt>
      <trkpt lat="50.66466" lon="3.31567">
        <ele>13.516161</ele>
        <time>2018-02-06T12:52:46Z</time>
      </trkpt>
      <trkpt lat="50.66474" lon="3.31574">
        <ele>13.570369</ele>
        <time>2018-02-06T12:52:48Z</time>
      </trkpt>
      <trkpt lat="50.66482" lon="3.31579">
        <ele>13.627243</ele>
        <time>2018-02-06T12:52:50Z</time>
      </trkpt>
      <trkpt lat="50.6649" lon="3.31585">
        <ele>13.615262</ele>
        <time>2018-02-06T12:52:52Z</time>
      </trkpt>
      <trkpt lat="50.66498" lon="3.31591">
        <ele>13.606249</ele>
        <time>2018-02-06T12:52:54Z</time>
      </trkpt>
      <trkpt lat="50.66506" lon="3.31597">
        <ele>13.640013</ele>
        <time>2018-02-06T12:52:56Z</time>
      </trkpt>
      <trkpt lat="50.66515" lon="3.31602">
        <ele>13.628347</ele>
        <time>2018-02-06T12:52:58Z</time>
      </trkpt>
      <trkpt lat="50.66525" lon="3.31604">
        <ele>13.61586</ele>
        <time>2018-02-06T12:53:00Z</time>
      </trkpt>
      <trkpt lat="50.66534" lon="3.31604">
        <ele>13.599543</ele>
        <time>2018-02-06T12:53:02Z</time>
      </trkpt>
      <trkpt lat="50.66542" lon="3.31601">
        <ele>13.595014</ele>
        <time>2018-02-06T12:53:04Z</time>
      </trkpt>
      <trkpt lat="50.66551" lon="3.31596">
        <ele>13.639788</ele>
        <time>2018-02-06T12:53:06Z</time>
      </trkpt>
      <trkpt lat="50.6656" lon="3.3159">
        <ele>13.627089</ele>
        <time>2018-02-06T12:53:08Z</time>
      </trkpt>
      <trkpt lat="50.66568" lon="3.31584">
        <ele>13.657831</ele>
        <time>2018-02-06T12:53:10Z</time>
      </trkpt>
      <trkpt lat="50.66577" lon="3.31577">
        <ele>13.668627</ele>
        <time>2018-02-06T12:53:12Z</time>
      </trkpt>
      <trkpt lat="50.66585" lon="3.31571">
        <ele>13.591962</ele>
        <time>2018-02-06T12:53:14Z</time>
      </trkpt>
      <trkpt lat="50.66593" lon="3.31566">
        <ele>13.552419</ele>
        <time>2018-02-06T12:53:16Z</time>
      </trkpt>
      <trkpt lat="50.66599" lon="3.31562">
        <ele>13.498662</ele>
        <time>2018-02-06T12:53:18Z</time>
      </trkpt>
      <trkpt lat="50.66605" lon="3.31557">
        <ele>13.388209</ele>
        <time>2018-02-06T12:53:20Z</time>
      </trkpt>
      <trkpt lat="50.66613" lon="3.31551">
        <ele>13.270494</ele>
        <time>2018-02-06T12:53:22Z</time>
      </trkpt>
      <trkpt lat="50.66621" lon="3.31544">
        <ele>13.180203</ele>
        <time>2018-02-06T12:53:24Z</time>
      </trkpt>
      <trkpt lat="50.6663" lon="3.31538">
        <ele>13.098401</ele>
        <time>2018-02-06T12:53:26Z</time>
      </trkpt>
      <trkpt lat="50.66639" lon="3.31531">
        <ele>13.065954</ele>
        <time>2018-02-06T12:53:28Z</time>
      </trkpt>
      <trkpt lat="50.66649" lon="3.31525">
        <ele>12.976959</ele>
        <time>2018-02-06T12:53:30Z</time>
      </trkpt>
      <trkpt lat="50.66658" lon="3.31518">
        <ele>12.908808</ele>
        <time>2018-02-06T12:53:32Z</time>
      </trkpt>
      <trkpt lat="50.66667" lon="3.31513">
        <ele>12.863169</ele>
        <time>2018-02-06T12:53:34Z</time>
      </trkpt>
      <trkpt lat="50.66676" lon="3.3151">
        <ele>12.847377</ele>
        <time>2018-02-06T12:53:36Z</time>
      </trkpt>
      <trkpt lat="50.66685" lon="3.31512">
        <ele>12.789615</ele>
        <time>2018-02-06T12:53:38Z</time>
      </trkpt>
      <trkpt lat="50.66692" lon="3.3152">
        <ele>12.732176</ele>
        <time>2018-02-06T12:53:40Z</time>
      </trkpt>
      <trkpt lat="50.66697" lon="3.31532">
        <ele>12.722173</ele>
        <time>2018-02-06T12:53:42Z</time>
      </trkpt>
      <trkpt lat="50.66702" lon="3.31543">
        <ele>12.72659</ele>
        <time>2018-02-06T12:53:44Z</time>
      </trkpt>
      <trkpt lat="50.66707" lon="3.31554">
        <ele>12.67808</ele>
        <time>2018-02-06T12:53:46Z</time>
      </trkpt>
      <trkpt lat="50.66712" lon="3.31565">
        <ele>12.627763</ele>
        <time>2018-02-06T12:53:48Z</time>
      </trkpt>
      <trkpt lat="50.66717" lon="3.31575">
        <ele>12.692063</ele>
        <time>2018-02-06T12:53:50Z</time>
      </trkpt>
      <trkpt lat="50.66722" lon="3.31586">
        <ele>12.702229</ele>
        <time>2018-02-06T12:53:52Z</time>
      </trkpt>
      <trkpt lat="50.66728" lon="3.31596">
        <ele>12.698171</ele>
        <time>2018-02-06T12:53:54Z</time>
      </trkpt>
      <trkpt lat="50.66734" lon="3.31605">
        <ele>12.769833</ele>
        <time>2018-02-06T12:53:56Z</time>
      </trkpt>
      <trkpt lat="50.66739" lon="3.31614">
        <ele>12.796385</ele>
        <time>2018-02-06T12:53:58Z</time>
      </trkpt>
      <trkpt lat="50.66745" lon="3.31623">
        <ele>12.875715</ele>
        <time>2018-02-06T12:54:00Z</time>
      </trkpt>
      <trkpt lat="50.66751" lon="3.31633">
        <ele>12.992899</ele>
        <time>2018-02-06T12:54:02Z</time>
      </trkpt>
      <trkpt lat="50.66757" lon="3.31642">
        <ele>13.065694</ele>
        <time>2018-02-06T12:54:04Z</time>
      </trkpt>
      <trkpt lat="50.66764" lon="3.31651">
        <ele>13.163281</ele>
        <time>2018-02-06T12:54:06Z</time>
      </trkpt>
      <trkpt lat="50.6677" lon="3.31659">
        <ele>13.255544</ele>
        <time>2018-02-06T12:54:08Z</time>
      </trkpt>
      <trkpt lat="50.66777" lon="3.31668">
        <ele>13.251483</ele>
        <time>2018-02-06T12:54:10Z</time>
      </trkpt>
      <trkpt lat="50.66783" lon="3.31677">
        <ele>13.362419</ele>
        <time>2018-02-06T12:54:12Z</time>
      </trkpt>
      <trkpt lat="50.6679" lon="3.31685">
        <ele>13.454524</ele>
        <time>2018-02-06T12:54:14Z</time>
      </trkpt>
      <trkpt lat="50.66798" lon="3.31693">
        <ele>13.505539</ele>
        <time>2018-02-06T12:54:16Z</time>
      </trkpt>
      <trkpt lat="50.66806" lon="3.317">
        <ele>13.560112</ele>
        <time>2018-02-06T12:54:18Z</time>
      </trkpt>
      <trkpt lat="50.66814" lon="3.31706">
        <ele>13.685793</ele>
        <time>2018-02-06T12:54:20Z</time>
      </trkpt>
      <trkpt lat="50.66822" lon="3.31712">
        <ele>13.773686</ele>
        <time>2018-02-06T12:54:22Z</time>
      </trkpt>
      <trkpt lat="50.6683" lon="3.31718">
        <ele>13.7852</ele>
        <time>2018-02-06T12:54:24Z</time>
      </trkpt>
      <trkpt lat="50.66839" lon="3.31725">
        <ele>13.819697</ele>
        <time>2018-02-06T12:54:26Z</time>
      </trkpt>
      <trkpt lat="50.66847" lon="3.31733">
        <ele>13.869543</ele>
        <time>2018-02-06T12:54:28Z</time>
      </trkpt>
      <trkpt lat="50.66853" lon="3.31741">
        <ele>13.909492</ele>
        <time>2018-02-06T12:54:30Z</time>
      </trkpt>
      <trkpt lat="50.6686" lon="3.31749">
        <ele>13.874327</ele>
        <time>2018-02-06T12:54:32Z</time>
      </trkpt>
      <trkpt lat="50.66867" lon="3.31757">
        <ele>13.888179</ele>
        <time>2018-02-06T12:54:34Z</time>
      </trkpt>
      <trkpt lat="50.66873" lon="3.31765">
        <ele>13.937971</ele>
        <time>2018-02-06T12:54:36Z</time>
      </trkpt>
      <trkpt lat="50.66879" lon="3.31771">
        <ele>13.934253</ele>
        <time>2018-02-06T12:54:38Z</time>
      </trkpt>
      <trkpt lat="50.66887" lon="3.31772">
        <ele>13.983238</ele>
        <time>2018-02-06T12:54:40Z</time>
      </trkpt>
      <trkpt lat="50.66893" lon="3.31765">
        <ele>13.959267</ele>
        <time>2018-02-06T12:54:42Z</time>
      </trkpt>
      <trkpt lat="50.669" lon="3.31755">
        <ele>13.950907</ele>
        <time>2018-02-06T12:54:44Z</time>
      </trkpt>
      <trkpt lat="50.66907" lon="3.31746">
        <ele>13.928035</ele>
        <time>2018-02-06T12:54:46Z</time>
      </trkpt>
      <trkpt lat="50.66916" lon="3.31739">
        <ele>13.90694</ele>
        <time>2018-02-06T12:54:48Z</time>
      </trkpt>
      <trkpt lat="50.66924" lon="3.31732">
        <ele>13.846992</ele>
        <time>2018-02-06T12:54:50Z</time>
      </trkpt>
      <trkpt lat="50.66932" lon="3.31726">
        <ele>13.821307</ele>
        <time>2018-02-06T12:54:52Z</time>
      </trkpt>
      <trkpt lat="50.66941" lon="3.31726">
        <ele>13.725748</ele>
        <time>2018-02-06T12:54:54Z</time>
      </trkpt>
      <trkpt lat="50.66947" lon="3.31734">
        <ele>13.674357</ele>
        <time>2018-02-06T12:54:56Z</time>
      </trkpt>
      <trkpt lat="50.66951" lon="3.31746">
        <ele>13.642024</ele>
        <time>2018-02-06T12:54:58Z</time>
      </trkpt>
      <trkpt lat="50.66954" lon="3.3176">
        <ele>13.623039</ele>
        <time>2018-02-06T12:55:00Z</time>
      </trkpt>
      <trkpt lat="50.66958" lon="3.31775">
        <ele>13.537524</ele>
        <time>2018-02-06T12:55:02Z</time>
      </trkpt>
      <trkpt lat="50.66961" lon="3.3179">
        <ele>13.461149</ele>
        <time>2018-02-06T12:55:04Z</time>
      </trkpt>
      <trkpt lat="50.66964" lon="3.31805">
        <ele>13.407033</ele>
        <time>2018-02-06T12:55:06Z</time>
      </trkpt>
      <trkpt lat="50.66967" lon="3.3182">
        <ele>13.336555</ele>
        <time>2018-02-06T12:55:08Z</time>
      </trkpt>
      <trkpt lat="50.6697" lon="3.31835">
        <ele>13.291786</ele>
        <time>2018-02-06T12:55:10Z</time>
      </trkpt>
      <trkpt lat="50.66974" lon="3.31849">
        <ele>13.218729</ele>
        <time>2018-02-06T12:55:12Z</time>
      </trkpt>
      <trkpt lat="50.66977" lon="3.31863">
        <ele>13.182554</ele>
        <time>2018-02-06T12:55:14Z</time>
      </trkpt>
      <trkpt lat="50.6698" lon="3.31877">
        <ele>13.150594</ele>
        <time>2018-02-06T12:55:16Z</time>
      </trkpt>
      <trkpt lat="50.66983" lon="3.31892">
        <ele>13.160647</ele>
        <time>2018-02-06T12:55:18Z</time>
      </trkpt>
      <trkpt lat="50.66986" lon="3.31908">
        <ele>13.104326</ele>
        <time>2018-02-06T12:55:20Z</time>
      </trkpt>
      <trkpt lat="50.66989" lon="3.31923">
        <ele>13.054255</ele>
        <time>2018-02-06T12:55:22Z</time>
      </trkpt>
      <trkpt lat="50.66992" lon="3.31938">
        <ele>12.964983</ele>
        <time>2018-02-06T12:55:24Z</time>
      </trkpt>
      <trkpt lat="50.66995" lon="3.31952">
        <ele>12.954233</ele>
        <time>2018-02-06T12:55:26Z</time>
      </trkpt>
      <trkpt lat="50.66999" lon="3.31966">
        <ele>12.906194</ele>
        <time>2018-02-06T12:55:28Z</time>
      </trkpt>
      <trkpt lat="50.67003" lon="3.3198">
        <ele>12.872904</ele>
        <time>2018-02-06T12:55:30Z</time>
      </trkpt>
      <trkpt lat="50.67007" lon="3.31993">
        <ele>12.832239</ele>
        <time>2018-02-06T12:55:32Z</time>
      </trkpt>
      <trkpt lat="50.67012" lon="3.32005">
        <ele>12.789214</ele>
        <time>2018-02-06T12:55:34Z</time>
      </trkpt>
      <trkpt lat="50.67019" lon="3.32014">
        <ele>12.764208</ele>
        <time>2018-02-06T12:55:36Z</time>
      </trkpt>
      <trkpt lat="50.67027" lon="3.32022">
        <ele>12.730966</ele>
        <time>2018-02-06T12:55:38Z</time>
      </trkpt>
      <trkpt lat="50.67035" lon="3.3203">
        <ele>12.668194</ele>
        <time>2018-02-06T12:55:40Z</time>
      </trkpt>
      <trkpt lat="50.67043" lon="3.32037">
        <ele>12.629002</ele>
        <time>2018-02-06T12:55:42Z</time>
      </trkpt>
      <trkpt lat="50.67052" lon="3.32044">
        <ele>12.576727</ele>
        <time>2018-02-06T12:55:44Z</time>
      </trkpt>
      <trkpt lat="50.67061" lon="3.3205">
        <ele>12.561123</ele>
        <time>2018-02-06T12:55:46Z</time>
      </trkpt>
      <trkpt lat="50.6707" lon="3.32055">
        <ele>12.541848</ele>
        <time>2018-02-06T12:55:48Z</time>
      </trkpt>
      <trkpt lat="50.67078" lon="3.3206">
        <ele>12.608407</ele>
        <time>2018-02-06T12:55:50Z</time>
      </trkpt>
      <trkpt lat="50.67087" lon="3.32063">
        <ele>12.629728</ele>
        <time>2018-02-06T12:55:52Z</time>
      </trkpt>
      <trkpt lat="50.67096" lon="3.32066">
        <ele>12.590845</ele>
        <time>2018-02-06T12:55:54Z</time>
      </trkpt>
      <trkpt lat="50.67104" lon="3.32069">
        <ele>12.563978</ele>
        <time>2018-02-06T12:55:56Z</time>
      </trkpt>
      <trkpt lat="50.67113" lon="3.32073">
        <ele>12.539499</ele>
        <time>2018-02-06T12:55:58Z</time>
      </trkpt>
      <trkpt lat="50.67122" lon="3.32076">
        <ele>12.494577</ele>
        <time>2018-02-06T12:56:00Z</time>
      </trkpt>
      <trkpt lat="50.67131" lon="3.32079">
        <ele>12.425353</ele>
        <time>2018-02-06T12:56:02Z</time>
      </trkpt>
      <trkpt lat="50.6714" lon="3.32083">
        <ele>12.412813</ele>
        <time>2018-02-06T12:56:04Z</time>
      </trkpt>
      <trkpt lat="50.67149" lon="3.32087">
        <ele>12.4158</ele>
        <time>2018-02-06T12:56:06Z</time>
      </trkpt>
      <trkpt lat="50.67157" lon="3.3209">
        <ele>12.358804</ele>
        <time>2018-02-06T12:56:08Z</time>
      </trkpt>
      <trkpt lat="50.67167" lon="3.32094">
        <ele>12.371668</ele>
        <time>2018-02-06T12:56:10Z</time>
      </trkpt>
      <trkpt lat="50.67176" lon="3.32097">
        <ele>12.333792</ele>
        <time>2018-02-06T12:56:12Z</time>
      </trkpt>
      <trkpt lat="50.67185" lon="3.32101">
        <ele>12.383293</ele>
        <time>2018-02-06T12:56:14Z</time>
      </trkpt>
      <trkpt lat="50.67194" lon="3.32104">
        <ele>12.395699</ele>
        <time>2018-02-06T12:56:16Z</time>
      </trkpt>
      <trkpt lat="50.67204" lon="3.32107">
        <ele>12.407666</ele>
        <time>2018-02-06T12:56:18Z</time>
      </trkpt>
      <trkpt lat="50.67213" lon="3.32111">
        <ele>12.416862</ele>
        <time>2018-02-06T12:56:20Z</time>
      </trkpt>
      <trkpt lat="50.67222" lon="3.32114">
        <ele>12.403369</ele>
        <time>2018-02-06T12:56:22Z</time>
      </trkpt>
      <trkpt lat="50.67231" lon="3.32117">
        <ele>12.416183</ele>
        <time>2018-02-06T12:56:24Z</time>
      </trkpt>
      <trkpt lat="50.6724" lon="3.3212">
        <ele>12.357114</ele>
        <time>2018-02-06T12:56:26Z</time>
      </trkpt>
      <trkpt lat="50.67249" lon="3.32122">
        <ele>12.350828</ele>
        <time>2018-02-06T12:56:28Z</time>
      </trkpt>
      <trkpt lat="50.67258" lon="3.32125">
        <ele>12.316417</ele>
        <time>2018-02-06T12:56:30Z</time>
      </trkpt>
      <trkpt lat="50.67267" lon="3.32128">
        <ele>12.254666</ele>
        <time>2018-02-06T12:56:32Z</time>
      </trkpt>
      <trkpt lat="50.67276" lon="3.3213">
        <ele>12.178233</ele>
        <time>2018-02-06T12:56:34Z</time>
      </trkpt>
      <trkpt lat="50.67284" lon="3.32133">
        <ele>12.129571</ele>
        <time>2018-02-06T12:56:36Z</time>
      </trkpt>
      <trkpt lat="50.67292" lon="3.32136">
        <ele>12.066919</ele>
        <time>2018-02-06T12:56:38Z</time>
      </trkpt>
      <trkpt lat="50.673" lon="3.32142">
        <ele>12.011362</ele>
        <time>2018-02-06T12:56:40Z</time>
      </trkpt>
      <trkpt lat="50.67306" lon="3.32152">
        <ele>11.949512</ele>
        <time>2018-02-06T12:56:42Z</time>
      </trkpt>
      <trkpt lat="50.6731" lon="3.32164">
        <ele>11.919374</ele>
        <time>2018-02-06T12:56:44Z</time>
      </trkpt>
      <trkpt lat="50.67313" lon="3.32177">
        <ele>11.853225</ele>
        <time>2018-02-06T12:56:46Z</time>
      </trkpt>
      <trkpt lat="50.67315" lon="3.32191">
        <ele>11.76178</ele>
        <time>2018-02-06T12:56:48Z</time>
      </trkpt>
      <trkpt lat="50.67316" lon="3.32206">
        <ele>11.692629</ele>
        <time>2018-02-06T12:56:50Z</time>
      </trkpt>
      <trkpt lat="50.67316" lon="3.3222">
        <ele>11.564616</ele>
        <time>2018-02-06T12:56:52Z</time>
      </trkpt>
      <trkpt lat="50.67317" lon="3.32235">
        <ele>11.539854</ele>
        <time>2018-02-06T12:56:54Z</time>
      </trkpt>
      <trkpt lat="50.67318" lon="3.32248">
        <ele>11.511675</ele>
        <time>2018-02-06T12:56:56Z</time>
      </trkpt>
      <trkpt lat="50.67318" lon="3.32263">
        <ele>11.427343</ele>
        <time>2018-02-06T12:56:58Z</time>
      </trkpt>
      <trkpt lat="50.67319" lon="3.32277">
        <ele>11.384158</ele>
        <time>2018-02-06T12:57:00Z</time>
      </trkpt>
      <trkpt lat="50.6732" lon="3.32292">
        <ele>11.337241</ele>
        <time>2018-02-06T12:57:02Z</time>
      </trkpt>
      <trkpt lat="50.67321" lon="3.32306">
        <ele>11.343879</ele>
        <time>2018-02-06T12:57:04Z</time>
      </trkpt>
      <trkpt lat="50.67321" lon="3.3232">
        <ele>11.329879</ele>
        <time>2018-02-06T12:57:06Z</time>
      </trkpt>
      <trkpt lat="50.67321" lon="3.32333">
        <ele>11.288031</ele>
        <time>2018-02-06T12:57:08Z</time>
      </trkpt>
      <trkpt lat="50.67318" lon="3.32347">
        <ele>11.249274</ele>
        <time>2018-02-06T12:57:10Z</time>
      </trkpt>
      <trkpt lat="50.67312" lon="3.32356">
        <ele>11.228734</ele>
        <time>2018-02-06T12:57:12Z</time>
      </trkpt>
      <trkpt lat="50.67302" lon="3.32358">
        <ele>11.227781</ele>
        <time>2018-02-06T12:57:14Z</time>
      </trkpt>
      <trkpt lat="50.67292" lon="3.32357">
        <ele>11.187548</ele>
        <time>2018-02-06T12:57:16Z</time>
      </trkpt>
      <trkpt lat="50.67283" lon="3.32355">
        <ele>11.191525</ele>
        <time>2018-02-06T12:57:18Z</time>
      </trkpt>
      <trkpt lat="50.67273" lon="3.32354">
        <ele>11.196922</ele>
        <time>2018-02-06T12:57:20Z</time>
      </trkpt>
      <trkpt lat="50.67264" lon="3.32356">
        <ele>11.187506</ele>
        <time>2018-02-06T12:57:22Z</time>
      </trkpt>
      <trkpt lat="50.67256" lon="3.32363">
        <ele>11.148083</ele>
        <time>2018-02-06T12:57:24Z</time>
      </trkpt>
      <trkpt lat="50.6725" lon="3.32375">
        <ele>11.154017</ele>
        <time>2018-02-06T12:57:26Z</time>
      </trkpt>
      <trkpt lat="50.67247" lon="3.32389">
        <ele>11.171926</ele>
        <time>2018-02-06T12:57:28Z</time>
      </trkpt>
      <trkpt lat="50.67245" lon="3.32404">
        <ele>11.221526</ele>
        <time>2018-02-06T12:57:30Z</time>
      </trkpt>
      <trkpt lat="50.67242" lon="3.32418">
        <ele>11.3194</ele>
        <time>2018-02-06T12:57:32Z</time>
      </trkpt>
      <trkpt lat="50.67239" lon="3.32432">
        <ele>11.340063</ele>
        <time>2018-02-06T12:57:34Z</time>
      </trkpt>
      <trkpt lat="50.67237" lon="3.32446">
        <ele>11.399961</ele>
        <time>2018-02-06T12:57:36Z</time>
      </trkpt>
      <trkpt lat="50.67234" lon="3.3246">
        <ele>11.411164</ele>
        <time>2018-02-06T12:57:38Z</time>
      </trkpt>
      <trkpt lat="50.67232" lon="3.32474">
        <ele>11.426897</ele>
        <time>2018-02-06T12:57:40Z</time>
      </trkpt>
      <trkpt lat="50.6723" lon="3.32489">
        <ele>11.44653</ele>
        <time>2018-02-06T12:57:42Z</time>
      </trkpt>
      <trkpt lat="50.67227" lon="3.32503">
        <ele>11.469852</ele>
        <time>2018-02-06T12:57:44Z</time>
      </trkpt>
      <trkpt lat="50.67225" lon="3.32517">
        <ele>11.485008</ele>
        <time>2018-02-06T12:57:46Z</time>
      </trkpt>
      <trkpt lat="50.67223" lon="3.32531">
        <ele>11.523587</ele>
        <time>2018-02-06T12:57:48Z</time>
      </trkpt>
      <trkpt lat="50.6722" lon="3.32546">
        <ele>11.53593</ele>
        <time>2018-02-06T12:57:50Z</time>
      </trkpt>
      <trkpt lat="50.67218" lon="3.3256">
        <ele>11.54952</ele>
        <time>2018-02-06T12:57:52Z</time>
      </trkpt>
      <trkpt lat="50.67215" lon="3.32574">
        <ele>11.570266</ele>
        <time>2018-02-06T12:57:54Z</time>
      </trkpt>
      <trkpt lat="50.67213" lon="3.32589">
        <ele>11.639016</ele>
        <time>2018-02-06T12:57:56Z</time>
      </trkpt>
      <trkpt lat="50.6721" lon="3.32603">
        <ele>11.694318</ele>
        <time>2018-02-06T12:57:58Z</time>
      </trkpt>
      <trkpt lat="50.67209" lon="3.32616">
        <ele>11.796392</ele>
        <time>2018-02-06T12:58:00Z</time>
      </trkpt>
      <trkpt lat="50.67209" lon="3.3263">
        <ele>11.877516</ele>
        <time>2018-02-06T12:58:02Z</time>
      </trkpt>
      <trkpt lat="50.67208" lon="3.32644">
        <ele>11.926141</ele>
        <time>2018-02-06T12:58:04Z</time>
      </trkpt>
      <trkpt lat="50.67207" lon="3.32658">
        <ele>12.010008</ele>
        <time>2018-02-06T12:58:06Z</time>
      </trkpt>
      <trkpt lat="50.67207" lon="3.32673">
        <ele>12.08443</ele>
        <time>2018-02-06T12:58:08Z</time>
      </trkpt>
      <trkpt lat="50.67207" lon="3.32688">
        <ele>12.084656</ele>
        <time>2018-02-06T12:58:10Z</time>
      </trkpt>
      <trkpt lat="50.67208" lon="3.32702">
        <ele>12.080191</ele>
        <time>2018-02-06T12:58:12Z</time>
      </trkpt>
      <trkpt lat="50.67209" lon="3.32717">
        <ele>12.0717</ele>
        <time>2018-02-06T12:58:14Z</time>
      </trkpt>
      <trkpt lat="50.6721" lon="3.32732">
        <ele>12.052031</ele>
        <time>2018-02-06T12:58:16Z</time>
      </trkpt>
      <trkpt lat="50.67211" lon="3.32747">
        <ele>12.013517</ele>
        <time>2018-02-06T12:58:18Z</time>
      </trkpt>
      <trkpt lat="50.67213" lon="3.32762">
        <ele>11.983084</ele>
        <time>2018-02-06T12:58:20Z</time>
      </trkpt>
      <trkpt lat="50.67214" lon="3.32777">
        <ele>11.983828</ele>
        <time>2018-02-06T12:58:22Z</time>
      </trkpt>
      <trkpt lat="50.67215" lon="3.32792">
        <ele>11.974584</ele>
        <time>2018-02-06T12:58:24Z</time>
      </trkpt>
      <trkpt lat="50.67216" lon="3.32806">
        <ele>11.951654</ele>
        <time>2018-02-06T12:58:26Z</time>
      </trkpt>
      <trkpt lat="50.67218" lon="3.32821">
        <ele>11.878557</ele>
        <time>2018-02-06T12:58:28Z</time>
      </trkpt>
      <trkpt lat="50.67219" lon="3.32835">
        <ele>11.842287</ele>
        <time>2018-02-06T12:58:30Z</time>
      </trkpt>
      <trkpt lat="50.67221" lon="3.32849">
        <ele>11.776645</ele>
        <time>2018-02-06T12:58:32Z</time>
      </trkpt>
      <trkpt lat="50.67223" lon="3.32863">
        <ele>11.745814</ele>
        <time>2018-02-06T12:58:34Z</time>
      </trkpt>
      <trkpt lat="50.67226" lon="3.32876">
        <ele>11.691896</ele>
        <time>2018-02-06T12:58:36Z</time>
      </trkpt>
      <trkpt lat="50.6723" lon="3.3289">
        <ele>11.620371</ele>
        <time>2018-02-06T12:58:38Z</time>
      </trkpt>
      <trkpt lat="50.67234" lon="3.32902">
        <ele>11.605108</ele>
        <time>2018-02-06T12:58:40Z</time>
      </trkpt>
      <trkpt lat="50.67239" lon="3.32914">
        <ele>11.489258</ele>
        <time>2018-02-06T12:58:42Z</time>
      </trkpt>
      <trkpt lat="50.67245" lon="3.32926">
        <ele>11.403358</ele>
        <time>2018-02-06T12:58:44Z</time>
      </trkpt>
      <trkpt lat="50.67251" lon="3.32937">
        <ele>11.283948</ele>
        <time>2018-02-06T12:58:46Z</time>
      </trkpt>
      <trkpt lat="50.67258" lon="3.32947">
        <ele>11.191339</ele>
        <time>2018-02-06T12:58:48Z</time>
      </trkpt>
      <trkpt lat="50.67264" lon="3.32957">
        <ele>11.080897</ele>
        <time>2018-02-06T12:58:50Z</time>
      </trkpt>
      <trkpt lat="50.6727" lon="3.32968">
        <ele>11.074438</ele>
        <time>2018-02-06T12:58:52Z</time>
      </trkpt>
      <trkpt lat="50.67276" lon="3.32979">
        <ele>11.004118</ele>
        <time>2018-02-06T12:58:54Z</time>
      </trkpt>
      <trkpt lat="50.67283" lon="3.3299">
        <ele>10.896153</ele>
        <time>2018-02-06T12:58:56Z</time>
      </trkpt>
      <trkpt lat="50.67288" lon="3.33001">
        <ele>10.833999</ele>
        <time>2018-02-06T12:58:58Z</time>
      </trkpt>
      <trkpt lat="50.67294" lon="3.33013">
        <ele>10.752089</ele>
        <time>2018-02-06T12:59:00Z</time>
      </trkpt>
      <trkpt lat="50.67299" lon="3.33026">
        <ele>10.649287</ele>
        <time>2018-02-06T12:59:02Z</time>
      </trkpt>
      <trkpt lat="50.67304" lon="3.3304">
        <ele>10.567961</ele>
        <time>2018-02-06T12:59:04Z</time>
      </trkpt>
      <trkpt lat="50.67307" lon="3.33054">
        <ele>10.445408</ele>
        <time>2018-02-06T12:59:06Z</time>
      </trkpt>
      <trkpt lat="50.67308" lon="3.33069">
        <ele>10.314841</ele>
        <time>2018-02-06T12:59:08Z</time>
      </trkpt>
      <trkpt lat="50.67308" lon="3.33085">
        <ele>10.223719</ele>
        <time>2018-02-06T12:59:10Z</time>
      </trkpt>
      <trkpt lat="50.67308" lon="3.33099">
        <ele>10.199935</ele>
        <time>2018-02-06T12:59:12Z</time>
      </trkpt>
      <trkpt lat="50.67307" lon="3.33113">
        <ele>10.155986</ele>
        <time>2018-02-06T12:59:14Z</time>
      </trkpt>
      <trkpt lat="50.67307" lon="3.33126">
        <ele>10.060165</ele>
        <time>2018-02-06T12:59:16Z</time>
      </trkpt>
      <trkpt lat="50.67306" lon="3.33139">
        <ele>10.028842</ele>
        <time>2018-02-06T12:59:18Z</time>
      </trkpt>
      <trkpt lat="50.67305" lon="3.33151">
        <ele>9.951756</ele>
        <time>2018-02-06T12:59:20Z</time>
      </trkpt>
      <trkpt lat="50.67306" lon="3.33163">
        <ele>9.8659</ele>
        <time>2018-02-06T12:59:22Z</time>
      </trkpt>
      <trkpt lat="50.67308" lon="3.33175">
        <ele>9.80631</ele>
        <time>2018-02-06T12:59:24Z</time>
      </trkpt>
      <trkpt lat="50.67313" lon="3.33186">
        <ele>9.748515</ele>
        <time>2018-02-06T12:59:26Z</time>
      </trkpt>
      <trkpt lat="50.67318" lon="3.33196">
        <ele>9.730049</ele>
        <time>2018-02-06T12:59:28Z</time>
      </trkpt>
      <trkpt lat="50.67324" lon="3.33203">
        <ele>9.688748</ele>
        <time>2018-02-06T12:59:30Z</time>
      </trkpt>
      <trkpt lat="50.67333" lon="3.33204">
        <ele>9.633482</ele>
        <time>2018-02-06T12:59:32Z</time>
      </trkpt>
      <trkpt lat="50.67342" lon="3.33203">
        <ele>9.528138</ele>
        <time>2018-02-06T12:59:34Z</time>
      </trkpt>
      <trkpt lat="50.67353" lon="3.33202">
        <ele>9.514139</ele>
        <time>2018-02-06T12:59:36Z</time>
      </trkpt>
      <trkpt lat="50.67363" lon="3.33202">
        <ele>9.416075</ele>
        <time>2018-02-06T12:59:38Z</time>
      </trkpt>
      <trkpt lat="50.67374" lon="3.33202">
        <ele>9.340173</ele>
        <time>2018-02-06T12:59:40Z</time>
      </trkpt>
      <trkpt lat="50.67385" lon="3.33202">
        <ele>9.248693</ele>
        <time>2018-02-06T12:59:42Z</time>
      </trkpt>
      <trkpt lat="50.67396" lon="3.33202">
        <ele>9.196601</ele>
        <time>2018-02-06T12:59:44Z</time>
      </trkpt>
      <trkpt lat="50.67407" lon="3.33201">
        <ele>9.169817</ele>
        <time>2018-02-06T12:59:46Z</time>
      </trkpt>
      <trkpt lat="50.67416" lon="3.33201">
        <ele>9.166166</ele>
        <time>2018-02-06T12:59:48Z</time>
      </trkpt>
      <trkpt lat="50.67426" lon="3.33203">
        <ele>9.122694</ele>
        <time>2018-02-06T12:59:50Z</time>
      </trkpt>
      <trkpt lat="50.67435" lon="3.33206">
        <ele>9.102711</ele>
        <time>2018-02-06T12:59:52Z</time>
      </trkpt>
      <trkpt lat="50.67445" lon="3.33209">
        <ele>9.002623</ele>
        <time>2018-02-06T12:59:54Z</time>
      </trkpt>
      <trkpt lat="50.67454" lon="3.33212">
        <ele>8.970564</ele>
        <time>2018-02-06T12:59:56Z</time>
      </trkpt>
      <trkpt lat="50.67463" lon="3.33213">
        <ele>8.948252</ele>
        <time>2018-02-06T12:59:58Z</time>
      </trkpt>
      <trkpt lat="50.67471" lon="3.33214">
        <ele>8.938231</ele>
        <time>2018-02-06T13:00:00Z</time>
      </trkpt>
      <trkpt lat="50.6748" lon="3.33215">
        <ele>8.947663</ele>
        <time>2018-02-06T13:00:02Z</time>
      </trkpt>
      <trkpt lat="50.67487" lon="3.33216">
        <ele>8.923435</ele>
        <time>2018-02-06T13:00:04Z</time>
      </trkpt>
      <trkpt lat="50.67495" lon="3.33217">
        <ele>8.929783</ele>
        <time>2018-02-06T13:00:06Z</time>
      </trkpt>
      <trkpt lat="50.67503" lon="3.33217">
        <ele>8.970445</ele>
        <time>2018-02-06T13:00:08Z</time>
      </trkpt>
      <trkpt lat="50.67511" lon="3.33218">
        <ele>8.946853</ele>
        <time>2018-02-06T13:00:10Z</time>
      </trkpt>
      <trkpt lat="50.67519" lon="3.33219">
        <ele>8.956286</ele>
        <time>2018-02-06T13:00:12Z</time>
      </trkpt>
      <trkpt lat="50.67528" lon="3.3322">
        <ele>9.035589</ele>
        <time>2018-02-06T13:00:14Z</time>
      </trkpt>
      <trkpt lat="50.67536" lon="3.33221">
        <ele>9.08816</ele>
        <time>2018-02-06T13:00:16Z</time>
      </trkpt>
      <trkpt lat="50.67544" lon="3.33222">
        <ele>9.23066</ele>
        <time>2018-02-06T13:00:18Z</time>
      </trkpt>
      <trkpt lat="50.67552" lon="3.33223">
        <ele>9.322691</ele>
        <time>2018-02-06T13:00:20Z</time>
      </trkpt>
      <trkpt lat="50.67561" lon="3.33224">
        <ele>9.461473</ele>
        <time>2018-02-06T13:00:22Z</time>
      </trkpt>
      <trkpt lat="50.67569" lon="3.33225">
        <ele>9.644202</ele>
        <time>2018-02-06T13:00:24Z</time>
      </trkpt>
      <trkpt lat="50.67577" lon="3.33226">
        <ele>9.758951</ele>
        <time>2018-02-06T13:00:26Z</time>
      </trkpt>
      <trkpt lat="50.67585" lon="3.33228">
        <ele>9.907311</ele>
        <time>2018-02-06T13:00:28Z</time>
      </trkpt>
      <trkpt lat="50.67593" lon="3.33229">
        <ele>10.086111</ele>
        <time>2018-02-06T13:00:30Z</time>
      </trkpt>
      <trkpt lat="50.67601" lon="3.33229">
        <ele>10.216642</ele>
        <time>2018-02-06T13:00:32Z</time>
      </trkpt>
      <trkpt lat="50.67609" lon="3.3323">
        <ele>10.407845</ele>
        <time>2018-02-06T13:00:34Z</time>
      </trkpt>
      <trkpt lat="50.67616" lon="3.3323">
        <ele>10.584528</ele>
        <time>2018-02-06T13:00:36Z</time>
      </trkpt>
      <trkpt lat="50.67624" lon="3.33231">
        <ele>10.741207</ele>
        <time>2018-02-06T13:00:38Z</time>
      </trkpt>
      <trkpt lat="50.67632" lon="3.33232">
        <ele>10.906996</ele>
        <time>2018-02-06T13:00:40Z</time>
      </trkpt>
      <trkpt lat="50.67641" lon="3.33233">
        <ele>11.057537</ele>
        <time>2018-02-06T13:00:42Z</time>
      </trkpt>
      <trkpt lat="50.67648" lon="3.33233">
        <ele>11.226421</ele>
        <time>2018-02-06T13:00:44Z</time>
      </trkpt>
      <trkpt lat="50.67656" lon="3.33233">
        <ele>11.332803</ele>
        <time>2018-02-06T13:00:46Z</time>
      </trkpt>
      <trkpt lat="50.67663" lon="3.33234">
        <ele>11.408205</ele>
        <time>2018-02-06T13:00:48Z</time>
      </trkpt>
      <trkpt lat="50.6767" lon="3.33235">
        <ele>11.51943</ele>
        <time>2018-02-06T13:00:50Z</time>
      </trkpt>
      <trkpt lat="50.67678" lon="3.33236">
        <ele>11.745172</ele>
        <time>2018-02-06T13:00:52Z</time>
      </trkpt>
      <trkpt lat="50.67684" lon="3.33238">
        <ele>11.885436</ele>
        <time>2018-02-06T13:00:54Z</time>
      </trkpt>
      <trkpt lat="50.67692" lon="3.33239">
        <ele>12.065027</ele>
        <time>2018-02-06T13:00:56Z</time>
      </trkpt>
      <trkpt lat="50.67699" lon="3.33242">
        <ele>12.218651</ele>
        <time>2018-02-06T13:00:58Z</time>
      </trkpt>
      <trkpt lat="50.67707" lon="3.33246">
        <ele>12.3158</ele>
        <time>2018-02-06T13:01:00Z</time>
      </trkpt>
      <trkpt lat="50.67714" lon="3.33254">
        <ele>12.478424</ele>
        <time>2018-02-06T13:01:02Z</time>
      </trkpt>
      <trkpt lat="50.6772" lon="3.33263">
        <ele>12.569338</ele>
        <time>2018-02-06T13:01:04Z</time>
      </trkpt>
      <trkpt lat="50.67723" lon="3.33275">
        <ele>12.673952</ele>
        <time>2018-02-06T13:01:06Z</time>
      </trkpt>
      <trkpt lat="50.67727" lon="3.33288">
        <ele>12.757692</ele>
        <time>2018-02-06T13:01:08Z</time>
      </trkpt>
      <trkpt lat="50.67729" lon="3.33301">
        <ele>12.798889</ele>
        <time>2018-02-06T13:01:10Z</time>
      </trkpt>
      <trkpt lat="50.67732" lon="3.33313">
        <ele>12.814096</ele>
        <time>2018-02-06T13:01:12Z</time>
      </trkpt>
      <trkpt lat="50.67736" lon="3.33325">
        <ele>12.883369</ele>
        <time>2018-02-06T13:01:14Z</time>
      </trkpt>
      <trkpt lat="50.67741" lon="3.33336">
        <ele>12.962224</ele>
        <time>2018-02-06T13:01:16Z</time>
      </trkpt>
      <trkpt lat="50.67748" lon="3.33344">
        <ele>13.002347</ele>
        <time>2018-02-06T13:01:18Z</time>
      </trkpt>
      <trkpt lat="50.67754" lon="3.33351">
        <ele>13.062866</ele>
        <time>2018-02-06T13:01:20Z</time>
      </trkpt>
      <trkpt lat="50.67762" lon="3.33356">
        <ele>13.12326</ele>
        <time>2018-02-06T13:01:22Z</time>
      </trkpt>
      <trkpt lat="50.67769" lon="3.33361">
        <ele>13.14049</ele>
        <time>2018-02-06T13:01:24Z</time>
      </trkpt>
      <trkpt lat="50.67776" lon="3.33366">
        <ele>13.173082</ele>
        <time>2018-02-06T13:01:26Z</time>
      </trkpt>
      <trkpt lat="50.67783" lon="3.3337">
        <ele>13.224981</ele>
        <time>2018-02-06T13:01:28Z</time>
      </trkpt>
      <trkpt lat="50.6779" lon="3.33375">
        <ele>13.215887</ele>
        <time>2018-02-06T13:01:30Z</time>
      </trkpt>
      <trkpt lat="50.67797" lon="3.33379">
        <ele>13.257489</ele>
        <time>2018-02-06T13:01:32Z</time>
      </trkpt>
      <trkpt lat="50.67804" lon="3.33384">
        <ele>13.233989</ele>
        <time>2018-02-06T13:01:34Z</time>
      </trkpt>
      <trkpt lat="50.67811" lon="3.33389">
        <ele>13.205358</ele>
        <time>2018-02-06T13:01:36Z</time>
      </trkpt>
      <trkpt lat="50.67819" lon="3.33393">
        <ele>13.215942</ele>
        <time>2018-02-06T13:01:38Z</time>
      </trkpt>
      <trkpt lat="50.67825" lon="3.33397">
        <ele>13.219213</ele>
        <time>2018-02-06T13:01:40Z</time>
      </trkpt>
      <trkpt lat="50.67833" lon="3.33402">
        <ele>13.260527</ele>
        <time>2018-02-06T13:01:42Z</time>
      </trkpt>
      <trkpt lat="50.6784" lon="3.33406">
        <ele>13.261851</ele>
        <time>2018-02-06T13:01:44Z</time>
      </trkpt>
      <trkpt lat="50.67847" lon="3.3341">
        <ele>13.271799</ele>
        <time>2018-02-06T13:01:46Z</time>
      </trkpt>
      <trkpt lat="50.67855" lon="3.33414">
        <ele>13.307068</ele>
        <time>2018-02-06T13:01:48Z</time>
      </trkpt>
      <trkpt lat="50.67862" lon="3.33417">
        <ele>13.366247</ele>
        <time>2018-02-06T13:01:50Z</time>
      </trkpt>
      <trkpt lat="50.67869" lon="3.3342">
        <ele>13.472514</ele>
        <time>2018-02-06T13:01:52Z</time>
      </trkpt>
      <trkpt lat="50.67876" lon="3.33424">
        <ele>13.549362</ele>
        <time>2018-02-06T13:01:54Z</time>
      </trkpt>
      <trkpt lat="50.67884" lon="3.33428">
        <ele>13.64106</ele>
        <time>2018-02-06T13:01:56Z</time>
      </trkpt>
      <trkpt lat="50.67891" lon="3.33432">
        <ele>13.725255</ele>
        <time>2018-02-06T13:01:58Z</time>
      </trkpt>
      <trkpt lat="50.67899" lon="3.33435">
        <ele>13.781711</ele>
        <time>2018-02-06T13:02:00Z</time>
      </trkpt>
      <trkpt lat="50.67906" lon="3.33438">
        <ele>13.868405</ele>
        <time>2018-02-06T13:02:02Z</time>
      </trkpt>
      <trkpt lat="50.67914" lon="3.33441">
        <ele>13.942594</ele>
        <time>2018-02-06T13:02:04Z</time>
      </trkpt>
      <trkpt lat="50.67921" lon="3.33443">
        <ele>14.010969</ele>
        <time>2018-02-06T13:02:06Z</time>
      </trkpt>
      <trkpt lat="50.67929" lon="3.33444">
        <ele>14.115486</ele>
        <time>2018-02-06T13:02:08Z</time>
      </trkpt>
      <trkpt lat="50.67936" lon="3.33446">
        <ele>14.262341</ele>
        <time>2018-02-06T13:02:10Z</time>
      </trkpt>
      <trkpt lat="50.67944" lon="3.33448">
        <ele>14.388782</ele>
        <time>2018-02-06T13:02:12Z</time>
      </trkpt>
      <trkpt lat="50.67952" lon="3.3345">
        <ele>14.545843</ele>
        <time>2018-02-06T13:02:14Z</time>
      </trkpt>
      <trkpt lat="50.67961" lon="3.33452">
        <ele>14.664929</ele>
        <time>2018-02-06T13:02:16Z</time>
      </trkpt>
      <trkpt lat="50.6797" lon="3.33454">
        <ele>14.769915</ele>
        <time>2018-02-06T13:02:18Z</time>
      </trkpt>
      <trkpt lat="50.67978" lon="3.33455">
        <ele>14.831144</ele>
        <time>2018-02-06T13:02:20Z</time>
      </trkpt>
      <trkpt lat="50.67987" lon="3.33456">
        <ele>14.889465</ele>
        <time>2018-02-06T13:02:22Z</time>
      </trkpt>
      <trkpt lat="50.67996" lon="3.33458">
        <ele>14.935056</ele>
        <time>2018-02-06T13:02:24Z</time>
      </trkpt>
      <trkpt lat="50.68005" lon="3.3346">
        <ele>15.057711</ele>
        <time>2018-02-06T13:02:26Z</time>
      </trkpt>
      <trkpt lat="50.68014" lon="3.33463">
        <ele>15.106845</ele>
        <time>2018-02-06T13:02:28Z</time>
      </trkpt>
      <trkpt lat="50.68024" lon="3.33465">
        <ele>15.125605</ele>
        <time>2018-02-06T13:02:30Z</time>
      </trkpt>
      <trkpt lat="50.68033" lon="3.33467">
        <ele>15.203094</ele>
        <time>2018-02-06T13:02:32Z</time>
      </trkpt>
      <trkpt lat="50.68042" lon="3.33469">
        <ele>15.240094</ele>
        <time>2018-02-06T13:02:34Z</time>
      </trkpt>
      <trkpt lat="50.68051" lon="3.33471">
        <ele>15.23329</ele>
        <time>2018-02-06T13:02:36Z</time>
      </trkpt>
      <trkpt lat="50.6806" lon="3.33474">
        <ele>15.242022</ele>
        <time>2018-02-06T13:02:38Z</time>
      </trkpt>
      <trkpt lat="50.68069" lon="3.33476">
        <ele>15.252986</ele>
        <time>2018-02-06T13:02:40Z</time>
      </trkpt>
      <trkpt lat="50.68078" lon="3.33478">
        <ele>15.315475</ele>
        <time>2018-02-06T13:02:42Z</time>
      </trkpt>
      <trkpt lat="50.68086" lon="3.33481">
        <ele>15.341742</ele>
        <time>2018-02-06T13:02:44Z</time>
      </trkpt>
      <trkpt lat="50.68094" lon="3.33483">
        <ele>15.379568</ele>
        <time>2018-02-06T13:02:46Z</time>
      </trkpt>
      <trkpt lat="50.68102" lon="3.33486">
        <ele>15.418035</ele>
        <time>2018-02-06T13:02:48Z</time>
      </trkpt>
      <trkpt lat="50.68111" lon="3.3349">
        <ele>15.488589</ele>
        <time>2018-02-06T13:02:50Z</time>
      </trkpt>
      <trkpt lat="50.68119" lon="3.33494">
        <ele>15.470838</ele>
        <time>2018-02-06T13:02:52Z</time>
      </trkpt>
      <trkpt lat="50.68127" lon="3.33499">
        <ele>15.442815</ele>
        <time>2018-02-06T13:02:54Z</time>
      </trkpt>
      <trkpt lat="50.68135" lon="3.33503">
        <ele>15.421585</ele>
        <time>2018-02-06T13:02:56Z</time>
      </trkpt>
      <trkpt lat="50.68143" lon="3.33507">
        <ele>15.445041</ele>
        <time>2018-02-06T13:02:58Z</time>
      </trkpt>
      <trkpt lat="50.68151" lon="3.33512">
        <ele>15.473173</ele>
        <time>2018-02-06T13:03:00Z</time>
      </trkpt>
      <trkpt lat="50.6816" lon="3.33516">
        <ele>15.460131</ele>
        <time>2018-02-06T13:03:02Z</time>
      </trkpt>
      <trkpt lat="50.68167" lon="3.3352">
        <ele>15.520538</ele>
        <time>2018-02-06T13:03:04Z</time>
      </trkpt>
      <trkpt lat="50.68175" lon="3.33524">
        <ele>15.532071</ele>
        <time>2018-02-06T13:03:06Z</time>
      </trkpt>
      <trkpt lat="50.68182" lon="3.33528">
        <ele>15.561058</ele>
        <time>2018-02-06T13:03:08Z</time>
      </trkpt>
      <trkpt lat="50.6819" lon="3.33532">
        <ele>15.584862</ele>
        <time>2018-02-06T13:03:10Z</time>
      </trkpt>
      <trkpt lat="50.68198" lon="3.33536">
        <ele>15.627501</ele>
        <time>2018-02-06T13:03:12Z</time>
      </trkpt>
      <trkpt lat="50.68207" lon="3.3354">
        <ele>15.626101</ele>
        <time>2018-02-06T13:03:14Z</time>
      </trkpt>
      <trkpt lat="50.68216" lon="3.33544">
        <ele>15.633952</ele>
        <time>2018-02-06T13:03:16Z</time>
      </trkpt>
      <trkpt lat="50.68224" lon="3.33548">
        <ele>15.655787</ele>
        <time>2018-02-06T13:03:18Z</time>
      </trkpt>
      <trkpt lat="50.68233" lon="3.33552">
        <ele>15.682083</ele>
        <time>2018-02-06T13:03:20Z</time>
      </trkpt>
      <trkpt lat="50.68242" lon="3.33556">
        <ele>15.599437</ele>
        <time>2018-02-06T13:03:22Z</time>
      </trkpt>
      <trkpt lat="50.6825" lon="3.3356">
        <ele>15.596321</ele>
        <time>2018-02-06T13:03:24Z</time>
      </trkpt>
      <trkpt lat="50.68257" lon="3.33564">
        <ele>15.552809</ele>
        <time>2018-02-06T13:03:26Z</time>
      </trkpt>
      <trkpt lat="50.68264" lon="3.33569">
        <ele>15.505571</ele>
        <time>2018-02-06T13:03:28Z</time>
      </trkpt>
      <trkpt lat="50.68271" lon="3.33575">
        <ele>15.448412</ele>
        <time>2018-02-06T13:03:30Z</time>
      </trkpt>
      <trkpt lat="50.68278" lon="3.33581">
        <ele>15.402631</ele>
        <time>2018-02-06T13:03:32Z</time>
      </trkpt>
      <trkpt lat="50.68285" lon="3.33587">
        <ele>15.364702</ele>
        <time>2018-02-06T13:03:34Z</time>
      </trkpt>
      <trkpt lat="50.68293" lon="3.33593">
        <ele>15.346802</ele>
        <time>2018-02-06T13:03:36Z</time>
      </trkpt>
      <trkpt lat="50.683" lon="3.33599">
        <ele>15.28681</ele>
        <time>2018-02-06T13:03:38Z</time>
      </trkpt>
      <trkpt lat="50.68308" lon="3.33605">
        <ele>15.284375</ele>
        <time>2018-02-06T13:03:40Z</time>
      </trkpt>
      <trkpt lat="50.68315" lon="3.33611">
        <ele>15.291537</ele>
        <time>2018-02-06T13:03:42Z</time>
      </trkpt>
      <trkpt lat="50.68323" lon="3.33617">
        <ele>15.272421</ele>
        <time>2018-02-06T13:03:44Z</time>
      </trkpt>
      <trkpt lat="50.6833" lon="3.33623">
        <ele>15.272974</ele>
        <time>2018-02-06T13:03:46Z</time>
      </trkpt>
      <trkpt lat="50.68338" lon="3.33629">
        <ele>15.26969</ele>
        <time>2018-02-06T13:03:48Z</time>
      </trkpt>
      <trkpt lat="50.68346" lon="3.33635">
        <ele>15.287039</ele>
        <time>2018-02-06T13:03:50Z</time>
      </trkpt>
      <trkpt lat="50.68353" lon="3.3364">
        <ele>15.325674</ele>
        <time>2018-02-06T13:03:52Z</time>
      </trkpt>
      <trkpt lat="50.68361" lon="3.33643">
        <ele>15.357724</ele>
        <time>2018-02-06T13:03:54Z</time>
      </trkpt>
      <trkpt lat="50.68368" lon="3.33648">
        <ele>15.363409</ele>
        <time>2018-02-06T13:03:56Z</time>
      </trkpt>
      <trkpt lat="50.68374" lon="3.33657">
        <ele>15.37647</ele>
        <time>2018-02-06T13:03:58Z</time>
      </trkpt>
      <trkpt lat="50.68381" lon="3.33665">
        <ele>15.420377</ele>
        <time>2018-02-06T13:04:00Z</time>
      </trkpt>
      <trkpt lat="50.68388" lon="3.33672">
        <ele>15.489769</ele>
        <time>2018-02-06T13:04:02Z</time>
      </trkpt>
      <trkpt lat="50.68396" lon="3.33679">
        <ele>15.597839</ele>
        <time>2018-02-06T13:04:04Z</time>
      </trkpt>
      <trkpt lat="50.68403" lon="3.33685">
        <ele>15.650485</ele>
        <time>2018-02-06T13:04:06Z</time>
      </trkpt>
      <trkpt lat="50.68411" lon="3.33692">
        <ele>15.729901</ele>
        <time>2018-02-06T13:04:08Z</time>
      </trkpt>
      <trkpt lat="50.68418" lon="3.33698">
        <ele>15.870229</ele>
        <time>2018-02-06T13:04:10Z</time>
      </trkpt>
      <trkpt lat="50.68425" lon="3.33704">
        <ele>15.94729</ele>
        <time>2018-02-06T13:04:12Z</time>
      </trkpt>
      <trkpt lat="50.68433" lon="3.3371">
        <ele>16.057638</ele>
        <time>2018-02-06T13:04:14Z</time>
      </trkpt>
      <trkpt lat="50.68441" lon="3.33717">
        <ele>16.127071</ele>
        <time>2018-02-06T13:04:16Z</time>
      </trkpt>
      <trkpt lat="50.68449" lon="3.33723">
        <ele>16.272455</ele>
        <time>2018-02-06T13:04:18Z</time>
      </trkpt>
      <trkpt lat="50.68456" lon="3.3373">
        <ele>16.357553</ele>
        <time>2018-02-06T13:04:20Z</time>
      </trkpt>
      <trkpt lat="50.68464" lon="3.33736">
        <ele>16.383396</ele>
        <time>2018-02-06T13:04:22Z</time>
      </trkpt>
      <trkpt lat="50.68472" lon="3.33742">
        <ele>16.480045</ele>
        <time>2018-02-06T13:04:24Z</time>
      </trkpt>
      <trkpt lat="50.6848" lon="3.33748">
        <ele>16.579359</ele>
        <time>2018-02-06T13:04:26Z</time>
      </trkpt>
      <trkpt lat="50.68487" lon="3.33754">
        <ele>16.642635</ele>
        <time>2018-02-06T13:04:28Z</time>
      </trkpt>
      <trkpt lat="50.68495" lon="3.33759">
        <ele>16.701542</ele>
        <time>2018-02-06T13:04:30Z</time>
      </trkpt>
      <trkpt lat="50.68503" lon="3.33765">
        <ele>16.747614</ele>
        <time>2018-02-06T13:04:32Z</time>
      </trkpt>
      <trkpt lat="50.6851" lon="3.33771">
        <ele>16.802097</ele>
        <time>2018-02-06T13:04:34Z</time>
      </trkpt>
      <trkpt lat="50.68518" lon="3.33776">
        <ele>16.856356</ele>
        <time>2018-02-06T13:04:36Z</time>
      </trkpt>
      <trkpt lat="50.68525" lon="3.33781">
        <ele>16.925442</ele>
        <time>2018-02-06T13:04:38Z</time>
      </trkpt>
      <trkpt lat="50.68532" lon="3.33786">
        <ele>16.976101</ele>
        <time>2018-02-06T13:04:40Z</time>
      </trkpt>
      <trkpt lat="50.68538" lon="3.3379">
        <ele>16.995934</ele>
        <time>2018-02-06T13:04:42Z</time>
      </trkpt>
      <trkpt lat="50.68543" lon="3.33793">
        <ele>17.043215</ele>
        <time>2018-02-06T13:04:44Z</time>
      </trkpt>
      <trkpt lat="50.68547" lon="3.33796">
        <ele>17.051241</ele>
        <time>2018-02-06T13:04:46Z</time>
      </trkpt>
      <trkpt lat="50.68552" lon="3.33801">
        <ele>17.096481</ele>
        <time>2018-02-06T13:04:48Z</time>
      </trkpt>
      <trkpt lat="50.68558" lon="3.33808">
        <ele>17.151722</ele>
        <time>2018-02-06T13:04:50Z</time>
      </trkpt>
      <trkpt lat="50.68561" lon="3.33816">
        <ele>17.138821</ele>
        <time>2018-02-06T13:04:52Z</time>
      </trkpt>
      <trkpt lat="50.68562" lon="3.33825">
        <ele>17.189556</ele>
        <time>2018-02-06T13:04:54Z</time>
      </trkpt>
      <trkpt lat="50.68563" lon="3.33831">
        <ele>17.224939</ele>
        <time>2018-02-06T13:04:56Z</time>
      </trkpt>
      <trkpt lat="50.68562" lon="3.33836">
        <ele>17.26252</ele>
        <time>2018-02-06T13:04:58Z</time>
      </trkpt>
      <trkpt lat="50.68562" lon="3.33841">
        <ele>17.272028</ele>
        <time>2018-02-06T13:05:00Z</time>
      </trkpt>
      <trkpt lat="50.68562" lon="3.33845">
        <ele>17.290121</ele>
        <time>2018-02-06T13:05:02Z</time>
      </trkpt>
      <trkpt lat="50.68561" lon="3.33849">
        <ele>17.440273</ele>
        <time>2018-02-06T13:05:17Z</time>
      </trkpt>
      <trkpt lat="50.68561" lon="3.33856">
        <ele>17.460579</ele>
        <time>2018-02-06T13:05:19Z</time>
      </trkpt>
      <trkpt lat="50.68558" lon="3.33865">
        <ele>17.488945</ele>
        <time>2018-02-06T13:05:21Z</time>
      </trkpt>
      <trkpt lat="50.68553" lon="3.33873">
        <ele>17.532917</ele>
        <time>2018-02-06T13:05:23Z</time>
      </trkpt>
      <trkpt lat="50.68546" lon="3.33885">
        <ele>17.535805</ele>
        <time>2018-02-06T13:05:25Z</time>
      </trkpt>
      <trkpt lat="50.68546" lon="3.33898">
        <ele>17.535507</ele>
        <time>2018-02-06T13:05:27Z</time>
      </trkpt>
      <trkpt lat="50.68548" lon="3.33912">
        <ele>17.53895</ele>
        <time>2018-02-06T13:05:29Z</time>
      </trkpt>
      <trkpt lat="50.68549" lon="3.33927">
        <ele>17.531292</ele>
        <time>2018-02-06T13:05:31Z</time>
      </trkpt>
      <trkpt lat="50.68551" lon="3.33943">
        <ele>17.551495</ele>
        <time>2018-02-06T13:05:33Z</time>
      </trkpt>
      <trkpt lat="50.68551" lon="3.33958">
        <ele>17.500351</ele>
        <time>2018-02-06T13:05:35Z</time>
      </trkpt>
      <trkpt lat="50.68551" lon="3.33973">
        <ele>17.423071</ele>
        <time>2018-02-06T13:05:37Z</time>
      </trkpt>
      <trkpt lat="50.68552" lon="3.33989">
        <ele>17.372711</ele>
        <time>2018-02-06T13:05:39Z</time>
      </trkpt>
      <trkpt lat="50.68551" lon="3.34007">
        <ele>17.31411</ele>
        <time>2018-02-06T13:05:41Z</time>
      </trkpt>
      <trkpt lat="50.68549" lon="3.34026">
        <ele>17.218292</ele>
        <time>2018-02-06T13:05:43Z</time>
      </trkpt>
      <trkpt lat="50.68544" lon="3.34045">
        <ele>17.003351</ele>
        <time>2018-02-06T13:05:45Z</time>
      </trkpt>
      <trkpt lat="50.68538" lon="3.34066">
        <ele>16.786085</ele>
        <time>2018-02-06T13:05:47Z</time>
      </trkpt>
      <trkpt lat="50.68535" lon="3.34088">
        <ele>16.664656</ele>
        <time>2018-02-06T13:05:49Z</time>
      </trkpt>
      <trkpt lat="50.68533" lon="3.3411">
        <ele>16.428078</ele>
        <time>2018-02-06T13:05:51Z</time>
      </trkpt>
      <trkpt lat="50.68532" lon="3.34133">
        <ele>16.191708</ele>
        <time>2018-02-06T13:05:53Z</time>
      </trkpt>
      <trkpt lat="50.68531" lon="3.34155">
        <ele>15.942484</ele>
        <time>2018-02-06T13:05:55Z</time>
      </trkpt>
      <trkpt lat="50.68529" lon="3.34178">
        <ele>15.694191</ele>
        <time>2018-02-06T13:05:57Z</time>
      </trkpt>
      <trkpt lat="50.68527" lon="3.34199">
        <ele>15.375493</ele>
        <time>2018-02-06T13:05:59Z</time>
      </trkpt>
      <trkpt lat="50.68527" lon="3.34221">
        <ele>15.04682</ele>
        <time>2018-02-06T13:06:01Z</time>
      </trkpt>
      <trkpt lat="50.68527" lon="3.34243">
        <ele>14.739774</ele>
        <time>2018-02-06T13:06:03Z</time>
      </trkpt>
      <trkpt lat="50.68527" lon="3.34264">
        <ele>14.434408</ele>
        <time>2018-02-06T13:06:05Z</time>
      </trkpt>
      <trkpt lat="50.68528" lon="3.34285">
        <ele>14.111249</ele>
        <time>2018-02-06T13:06:07Z</time>
      </trkpt>
      <trkpt lat="50.68529" lon="3.34306">
        <ele>13.909952</ele>
        <time>2018-02-06T13:06:09Z</time>
      </trkpt>
      <trkpt lat="50.68529" lon="3.34327">
        <ele>13.587314</ele>
        <time>2018-02-06T13:06:11Z</time>
      </trkpt>
      <trkpt lat="50.6853" lon="3.34348">
        <ele>13.209345</ele>
        <time>2018-02-06T13:06:13Z</time>
      </trkpt>
      <trkpt lat="50.68531" lon="3.34368">
        <ele>12.813235</ele>
        <time>2018-02-06T13:06:15Z</time>
      </trkpt>
      <trkpt lat="50.68527" lon="3.34388">
        <ele>12.454049</ele>
        <time>2018-02-06T13:06:17Z</time>
      </trkpt>
      <trkpt lat="50.68523" lon="3.34408">
        <ele>12.133785</ele>
        <time>2018-02-06T13:06:19Z</time>
      </trkpt>
      <trkpt lat="50.68522" lon="3.34428">
        <ele>11.780678</ele>
        <time>2018-02-06T13:06:21Z</time>
      </trkpt>
      <trkpt lat="50.68522" lon="3.34447">
        <ele>11.472399</ele>
        <time>2018-02-06T13:06:23Z</time>
      </trkpt>
      <trkpt lat="50.68521" lon="3.34467">
        <ele>11.272463</ele>
        <time>2018-02-06T13:06:25Z</time>
      </trkpt>
      <trkpt lat="50.6852" lon="3.34486">
        <ele>11.121709</ele>
        <time>2018-02-06T13:06:27Z</time>
      </trkpt>
      <trkpt lat="50.6852" lon="3.34505">
        <ele>10.917403</ele>
        <time>2018-02-06T13:06:29Z</time>
      </trkpt>
      <trkpt lat="50.6852" lon="3.34522">
        <ele>10.826262</ele>
        <time>2018-02-06T13:06:31Z</time>
      </trkpt>
      <trkpt lat="50.6852" lon="3.34541">
        <ele>10.749247</ele>
        <time>2018-02-06T13:06:33Z</time>
      </trkpt>
      <trkpt lat="50.68521" lon="3.34559">
        <ele>10.685286</ele>
        <time>2018-02-06T13:06:35Z</time>
      </trkpt>
      <trkpt lat="50.68522" lon="3.34577">
        <ele>10.631346</ele>
        <time>2018-02-06T13:06:37Z</time>
      </trkpt>
      <trkpt lat="50.68524" lon="3.34594">
        <ele>10.641109</ele>
        <time>2018-02-06T13:06:39Z</time>
      </trkpt>
      <trkpt lat="50.68528" lon="3.34611">
        <ele>10.672996</ele>
        <time>2018-02-06T13:06:41Z</time>
      </trkpt>
      <trkpt lat="50.68533" lon="3.34628">
        <ele>10.760322</ele>
        <time>2018-02-06T13:06:43Z</time>
      </trkpt>
      <trkpt lat="50.68537" lon="3.34644">
        <ele>10.845243</ele>
        <time>2018-02-06T13:06:45Z</time>
      </trkpt>
      <trkpt lat="50.6854" lon="3.34658">
        <ele>10.938386</ele>
        <time>2018-02-06T13:06:47Z</time>
      </trkpt>
      <trkpt lat="50.68543" lon="3.3467">
        <ele>11.089469</ele>
        <time>2018-02-06T13:06:49Z</time>
      </trkpt>
      <trkpt lat="50.68545" lon="3.34681">
        <ele>11.246387</ele>
        <time>2018-02-06T13:06:51Z</time>
      </trkpt>
      <trkpt lat="50.68548" lon="3.34693">
        <ele>11.36921</ele>
        <time>2018-02-06T13:06:53Z</time>
      </trkpt>
      <trkpt lat="50.68551" lon="3.34704">
        <ele>11.65703</ele>
        <time>2018-02-06T13:06:55Z</time>
      </trkpt>
      <trkpt lat="50.68554" lon="3.34717">
        <ele>11.897025</ele>
        <time>2018-02-06T13:06:57Z</time>
      </trkpt>
      <trkpt lat="50.68557" lon="3.34729">
        <ele>12.133221</ele>
        <time>2018-02-06T13:06:59Z</time>
      </trkpt>
      <trkpt lat="50.6856" lon="3.34741">
        <ele>12.394212</ele>
        <time>2018-02-06T13:07:01Z</time>
      </trkpt>
      <trkpt lat="50.68563" lon="3.34753">
        <ele>12.60427</ele>
        <time>2018-02-06T13:07:03Z</time>
      </trkpt>
      <trkpt lat="50.68566" lon="3.34765">
        <ele>12.814099</ele>
        <time>2018-02-06T13:07:05Z</time>
      </trkpt>
      <trkpt lat="50.68569" lon="3.34777">
        <ele>13.00414</ele>
        <time>2018-02-06T13:07:07Z</time>
      </trkpt>
      <trkpt lat="50.68572" lon="3.3479">
        <ele>13.134822</ele>
        <time>2018-02-06T13:07:09Z</time>
      </trkpt>
      <trkpt lat="50.68574" lon="3.34803">
        <ele>13.287977</ele>
        <time>2018-02-06T13:07:11Z</time>
      </trkpt>
      <trkpt lat="50.68576" lon="3.34816">
        <ele>13.379352</ele>
        <time>2018-02-06T13:07:13Z</time>
      </trkpt>
      <trkpt lat="50.68578" lon="3.34829">
        <ele>13.425075</ele>
        <time>2018-02-06T13:07:15Z</time>
      </trkpt>
      <trkpt lat="50.6858" lon="3.34842">
        <ele>13.414114</ele>
        <time>2018-02-06T13:07:17Z</time>
      </trkpt>
      <trkpt lat="50.68581" lon="3.34855">
        <ele>13.41126</ele>
        <time>2018-02-06T13:07:19Z</time>
      </trkpt>
      <trkpt lat="50.68582" lon="3.34869">
        <ele>13.388049</ele>
        <time>2018-02-06T13:07:21Z</time>
      </trkpt>
      <trkpt lat="50.68583" lon="3.34883">
        <ele>13.35367</ele>
        <time>2018-02-06T13:07:23Z</time>
      </trkpt>
      <trkpt lat="50.68584" lon="3.34899">
        <ele>13.309584</ele>
        <time>2018-02-06T13:07:25Z</time>
      </trkpt>
      <trkpt lat="50.68584" lon="3.34916">
        <ele>13.188252</ele>
        <time>2018-02-06T13:07:27Z</time>
      </trkpt>
      <trkpt lat="50.68585" lon="3.34932">
        <ele>13.080484</ele>
        <time>2018-02-06T13:07:29Z</time>
      </trkpt>
      <trkpt lat="50.68585" lon="3.3495">
        <ele>12.929654</ele>
        <time>2018-02-06T13:07:31Z</time>
      </trkpt>
      <trkpt lat="50.68586" lon="3.34969">
        <ele>12.760122</ele>
        <time>2018-02-06T13:07:33Z</time>
      </trkpt>
      <trkpt lat="50.68587" lon="3.34988">
        <ele>12.519902</ele>
        <time>2018-02-06T13:07:35Z</time>
      </trkpt>
      <trkpt lat="50.68588" lon="3.35006">
        <ele>12.274012</ele>
        <time>2018-02-06T13:07:37Z</time>
      </trkpt>
      <trkpt lat="50.68589" lon="3.35025">
        <ele>11.999235</ele>
        <time>2018-02-06T13:07:39Z</time>
      </trkpt>
      <trkpt lat="50.68589" lon="3.35043">
        <ele>11.711644</ele>
        <time>2018-02-06T13:07:41Z</time>
      </trkpt>
      <trkpt lat="50.6859" lon="3.35062">
        <ele>11.451039</ele>
        <time>2018-02-06T13:07:43Z</time>
      </trkpt>
      <trkpt lat="50.68591" lon="3.3508">
        <ele>11.303027</ele>
        <time>2018-02-06T13:07:45Z</time>
      </trkpt>
      <trkpt lat="50.68591" lon="3.35098">
        <ele>11.022534</ele>
        <time>2018-02-06T13:07:47Z</time>
      </trkpt>
      <trkpt lat="50.68592" lon="3.35116">
        <ele>10.753711</ele>
        <time>2018-02-06T13:07:49Z</time>
      </trkpt>
      <trkpt lat="50.68593" lon="3.35133">
        <ele>10.51921</ele>
        <time>2018-02-06T13:07:51Z</time>
      </trkpt>
      <trkpt lat="50.68594" lon="3.35151">
        <ele>10.260965</ele>
        <time>2018-02-06T13:07:53Z</time>
      </trkpt>
      <trkpt lat="50.68595" lon="3.35169">
        <ele>9.968082</ele>
        <time>2018-02-06T13:07:55Z</time>
      </trkpt>
      <trkpt lat="50.68596" lon="3.35185">
        <ele>9.803339</ele>
        <time>2018-02-06T13:07:57Z</time>
      </trkpt>
      <trkpt lat="50.68597" lon="3.35202">
        <ele>9.618333</ele>
        <time>2018-02-06T13:07:59Z</time>
      </trkpt>
      <trkpt lat="50.68597" lon="3.35217">
        <ele>9.3912</ele>
        <time>2018-02-06T13:08:01Z</time>
      </trkpt>
      <trkpt lat="50.68599" lon="3.35233">
        <ele>9.208872</ele>
        <time>2018-02-06T13:08:03Z</time>
      </trkpt>
      <trkpt lat="50.686" lon="3.35249">
        <ele>9.062003</ele>
        <time>2018-02-06T13:08:05Z</time>
      </trkpt>
      <trkpt lat="50.68601" lon="3.35265">
        <ele>8.882837</ele>
        <time>2018-02-06T13:08:07Z</time>
      </trkpt>
      <trkpt lat="50.68602" lon="3.3528">
        <ele>8.764163</ele>
        <time>2018-02-06T13:08:09Z</time>
      </trkpt>
      <trkpt lat="50.68602" lon="3.35294">
        <ele>8.63552</ele>
        <time>2018-02-06T13:08:11Z</time>
      </trkpt>
      <trkpt lat="50.68603" lon="3.35308">
        <ele>8.513565</ele>
        <time>2018-02-06T13:08:13Z</time>
      </trkpt>
      <trkpt lat="50.68604" lon="3.35323">
        <ele>8.456285</ele>
        <time>2018-02-06T13:08:15Z</time>
      </trkpt>
      <trkpt lat="50.68605" lon="3.35338">
        <ele>8.423607</ele>
        <time>2018-02-06T13:08:17Z</time>
      </trkpt>
      <trkpt lat="50.68605" lon="3.35353">
        <ele>8.419095</ele>
        <time>2018-02-06T13:08:19Z</time>
      </trkpt>
      <trkpt lat="50.68605" lon="3.35367">
        <ele>8.407139</ele>
        <time>2018-02-06T13:08:21Z</time>
      </trkpt>
      <trkpt lat="50.68606" lon="3.35382">
        <ele>8.385616</ele>
        <time>2018-02-06T13:08:23Z</time>
      </trkpt>
      <trkpt lat="50.68607" lon="3.35397">
        <ele>8.319328</ele>
        <time>2018-02-06T13:08:25Z</time>
      </trkpt>
      <trkpt lat="50.68609" lon="3.35412">
        <ele>8.285074</ele>
        <time>2018-02-06T13:08:27Z</time>
      </trkpt>
      <trkpt lat="50.68609" lon="3.35428">
        <ele>8.300951</ele>
        <time>2018-02-06T13:08:29Z</time>
      </trkpt>
      <trkpt lat="50.6861" lon="3.35443">
        <ele>8.221722</ele>
        <time>2018-02-06T13:08:31Z</time>
      </trkpt>
      <trkpt lat="50.6861" lon="3.35458">
        <ele>8.177402</ele>
        <time>2018-02-06T13:08:33Z</time>
      </trkpt>
      <trkpt lat="50.68611" lon="3.35473">
        <ele>8.192011</ele>
        <time>2018-02-06T13:08:35Z</time>
      </trkpt>
      <trkpt lat="50.68612" lon="3.35488">
        <ele>8.196805</ele>
        <time>2018-02-06T13:08:37Z</time>
      </trkpt>
      <trkpt lat="50.68613" lon="3.35502">
        <ele>8.187737</ele>
        <time>2018-02-06T13:08:39Z</time>
      </trkpt>
      <trkpt lat="50.68613" lon="3.35517">
        <ele>8.209082</ele>
        <time>2018-02-06T13:08:41Z</time>
      </trkpt>
      <trkpt lat="50.68614" lon="3.35533">
        <ele>8.235295</ele>
        <time>2018-02-06T13:08:43Z</time>
      </trkpt>
      <trkpt lat="50.68615" lon="3.35547">
        <ele>8.225991</ele>
        <time>2018-02-06T13:08:45Z</time>
      </trkpt>
      <trkpt lat="50.68616" lon="3.35562">
        <ele>8.245874</ele>
        <time>2018-02-06T13:08:47Z</time>
      </trkpt>
      <trkpt lat="50.68617" lon="3.35578">
        <ele>8.261774</ele>
        <time>2018-02-06T13:08:49Z</time>
      </trkpt>
      <trkpt lat="50.68617" lon="3.35593">
        <ele>8.234178</ele>
        <time>2018-02-06T13:08:51Z</time>
      </trkpt>
      <trkpt lat="50.68618" lon="3.35609">
        <ele>8.226012</ele>
        <time>2018-02-06T13:08:53Z</time>
      </trkpt>
      <trkpt lat="50.68619" lon="3.35623">
        <ele>8.197559</ele>
        <time>2018-02-06T13:08:55Z</time>
      </trkpt>
      <trkpt lat="50.6862" lon="3.35637">
        <ele>8.189437</ele>
        <time>2018-02-06T13:08:57Z</time>
      </trkpt>
      <trkpt lat="50.68621" lon="3.35651">
        <ele>8.186239</ele>
        <time>2018-02-06T13:08:59Z</time>
      </trkpt>
      <trkpt lat="50.68622" lon="3.35665">
        <ele>8.108486</ele>
        <time>2018-02-06T13:09:01Z</time>
      </trkpt>
      <trkpt lat="50.68623" lon="3.35679">
        <ele>8.085333</ele>
        <time>2018-02-06T13:09:03Z</time>
      </trkpt>
      <trkpt lat="50.68623" lon="3.35694">
        <ele>8.064554</ele>
        <time>2018-02-06T13:09:05Z</time>
      </trkpt>
      <trkpt lat="50.68624" lon="3.35709">
        <ele>8.050059</ele>
        <time>2018-02-06T13:09:07Z</time>
      </trkpt>
      <trkpt lat="50.68625" lon="3.35724">
        <ele>8.050577</ele>
        <time>2018-02-06T13:09:09Z</time>
      </trkpt>
      <trkpt lat="50.68625" lon="3.35738">
        <ele>8.031989</ele>
        <time>2018-02-06T13:09:11Z</time>
      </trkpt>
      <trkpt lat="50.68626" lon="3.35752">
        <ele>8.020714</ele>
        <time>2018-02-06T13:09:13Z</time>
      </trkpt>
      <trkpt lat="50.68627" lon="3.35768">
        <ele>8.018244</ele>
        <time>2018-02-06T13:09:15Z</time>
      </trkpt>
      <trkpt lat="50.68628" lon="3.35783">
        <ele>8.004999</ele>
        <time>2018-02-06T13:09:17Z</time>
      </trkpt>
      <trkpt lat="50.68629" lon="3.35798">
        <ele>7.97252</ele>
        <time>2018-02-06T13:09:19Z</time>
      </trkpt>
      <trkpt lat="50.6863" lon="3.35811">
        <ele>7.970632</ele>
        <time>2018-02-06T13:09:21Z</time>
      </trkpt>
      <trkpt lat="50.68631" lon="3.35826">
        <ele>7.961932</ele>
        <time>2018-02-06T13:09:23Z</time>
      </trkpt>
      <trkpt lat="50.68631" lon="3.3584">
        <ele>7.927461</ele>
        <time>2018-02-06T13:09:25Z</time>
      </trkpt>
      <trkpt lat="50.68632" lon="3.35853">
        <ele>7.976579</ele>
        <time>2018-02-06T13:09:27Z</time>
      </trkpt>
      <trkpt lat="50.68633" lon="3.35866">
        <ele>7.973767</ele>
        <time>2018-02-06T13:09:29Z</time>
      </trkpt>
      <trkpt lat="50.68634" lon="3.35879">
        <ele>7.979993</ele>
        <time>2018-02-06T13:09:31Z</time>
      </trkpt>
      <trkpt lat="50.68634" lon="3.35892">
        <ele>8.012864</ele>
        <time>2018-02-06T13:09:33Z</time>
      </trkpt>
      <trkpt lat="50.68635" lon="3.35905">
        <ele>8.053097</ele>
        <time>2018-02-06T13:09:35Z</time>
      </trkpt>
      <trkpt lat="50.68636" lon="3.35918">
        <ele>8.113843</ele>
        <time>2018-02-06T13:09:37Z</time>
      </trkpt>
      <trkpt lat="50.68636" lon="3.3593">
        <ele>8.17457</ele>
        <time>2018-02-06T13:09:39Z</time>
      </trkpt>
      <trkpt lat="50.68637" lon="3.35942">
        <ele>8.291254</ele>
        <time>2018-02-06T13:09:41Z</time>
      </trkpt>
      <trkpt lat="50.68637" lon="3.35953">
        <ele>8.38093</ele>
        <time>2018-02-06T13:09:43Z</time>
      </trkpt>
      <trkpt lat="50.68638" lon="3.35965">
        <ele>8.488882</ele>
        <time>2018-02-06T13:09:45Z</time>
      </trkpt>
      <trkpt lat="50.68638" lon="3.35976">
        <ele>8.656587</ele>
        <time>2018-02-06T13:09:47Z</time>
      </trkpt>
      <trkpt lat="50.68639" lon="3.35986">
        <ele>8.783514</ele>
        <time>2018-02-06T13:09:49Z</time>
      </trkpt>
      <trkpt lat="50.6864" lon="3.35994">
        <ele>8.877954</ele>
        <time>2018-02-06T13:09:51Z</time>
      </trkpt>
      <trkpt lat="50.68641" lon="3.36003">
        <ele>9.010018</ele>
        <time>2018-02-06T13:09:53Z</time>
      </trkpt>
      <trkpt lat="50.68641" lon="3.36011">
        <ele>9.179644</ele>
        <time>2018-02-06T13:09:55Z</time>
      </trkpt>
      <trkpt lat="50.68641" lon="3.36019">
        <ele>9.33212</ele>
        <time>2018-02-06T13:09:57Z</time>
      </trkpt>
      <trkpt lat="50.68642" lon="3.36026">
        <ele>9.521957</ele>
        <time>2018-02-06T13:09:59Z</time>
      </trkpt>
      <trkpt lat="50.68646" lon="3.36034">
        <ele>9.741373</ele>
        <time>2018-02-06T13:10:01Z</time>
      </trkpt>
      <trkpt lat="50.68653" lon="3.36039">
        <ele>9.912587</ele>
        <time>2018-02-06T13:10:03Z</time>
      </trkpt>
      <trkpt lat="50.68661" lon="3.36042">
        <ele>10.067121</ele>
        <time>2018-02-06T13:10:05Z</time>
      </trkpt>
      <trkpt lat="50.68669" lon="3.36045">
        <ele>10.188105</ele>
        <time>2018-02-06T13:10:07Z</time>
      </trkpt>
      <trkpt lat="50.68677" lon="3.36047">
        <ele>10.347841</ele>
        <time>2018-02-06T13:10:09Z</time>
      </trkpt>
      <trkpt lat="50.68685" lon="3.3605">
        <ele>10.487427</ele>
        <time>2018-02-06T13:10:11Z</time>
      </trkpt>
      <trkpt lat="50.68692" lon="3.36053">
        <ele>10.57236</ele>
        <time>2018-02-06T13:10:13Z</time>
      </trkpt>
      <trkpt lat="50.68699" lon="3.36055">
        <ele>10.727984</ele>
        <time>2018-02-06T13:10:15Z</time>
      </trkpt>
      <trkpt lat="50.68707" lon="3.36058">
        <ele>10.833038</ele>
        <time>2018-02-06T13:10:17Z</time>
      </trkpt>
      <trkpt lat="50.68711" lon="3.36063">
        <ele>10.981331</ele>
        <time>2018-02-06T13:10:19Z</time>
      </trkpt>
      <trkpt lat="50.68712" lon="3.36072">
        <ele>11.082306</ele>
        <time>2018-02-06T13:10:21Z</time>
      </trkpt>
      <trkpt lat="50.68711" lon="3.36082">
        <ele>11.247423</ele>
        <time>2018-02-06T13:10:23Z</time>
      </trkpt>
      <trkpt lat="50.68709" lon="3.36093">
        <ele>11.423425</ele>
        <time>2018-02-06T13:10:25Z</time>
      </trkpt>
      <trkpt lat="50.68707" lon="3.36104">
        <ele>11.501933</ele>
        <time>2018-02-06T13:10:27Z</time>
      </trkpt>
      <trkpt lat="50.68704" lon="3.36115">
        <ele>11.629728</ele>
        <time>2018-02-06T13:10:29Z</time>
      </trkpt>
      <trkpt lat="50.68702" lon="3.36125">
        <ele>11.752241</ele>
        <time>2018-02-06T13:10:31Z</time>
      </trkpt>
      <trkpt lat="50.687" lon="3.36136">
        <ele>11.932837</ele>
        <time>2018-02-06T13:10:33Z</time>
      </trkpt>
      <trkpt lat="50.68699" lon="3.36146">
        <ele>12.092601</ele>
        <time>2018-02-06T13:10:35Z</time>
      </trkpt>
      <trkpt lat="50.68697" lon="3.36156">
        <ele>12.239005</ele>
        <time>2018-02-06T13:10:37Z</time>
      </trkpt>
      <trkpt lat="50.68695" lon="3.36168">
        <ele>12.372007</ele>
        <time>2018-02-06T13:10:39Z</time>
      </trkpt>
      <trkpt lat="50.68693" lon="3.3618">
        <ele>12.440272</ele>
        <time>2018-02-06T13:10:41Z</time>
      </trkpt>
      <trkpt lat="50.68691" lon="3.36193">
        <ele>12.560798</ele>
        <time>2018-02-06T13:10:43Z</time>
      </trkpt>
      <trkpt lat="50.68689" lon="3.36205">
        <ele>12.657464</ele>
        <time>2018-02-06T13:10:45Z</time>
      </trkpt>
      <trkpt lat="50.68685" lon="3.36217">
        <ele>12.829145</ele>
        <time>2018-02-06T13:10:47Z</time>
      </trkpt>
      <trkpt lat="50.68681" lon="3.36228">
        <ele>13.029704</ele>
        <time>2018-02-06T13:10:49Z</time>
      </trkpt>
      <trkpt lat="50.68674" lon="3.36237">
        <ele>13.161822</ele>
        <time>2018-02-06T13:10:51Z</time>
      </trkpt>
      <trkpt lat="50.68668" lon="3.36245">
        <ele>13.284848</ele>
        <time>2018-02-06T13:10:53Z</time>
      </trkpt>
      <trkpt lat="50.6866" lon="3.36251">
        <ele>13.414343</ele>
        <time>2018-02-06T13:10:55Z</time>
      </trkpt>
      <trkpt lat="50.68654" lon="3.36256">
        <ele>13.50916</ele>
        <time>2018-02-06T13:10:57Z</time>
      </trkpt>
      <trkpt lat="50.68647" lon="3.36262">
        <ele>13.696994</ele>
        <time>2018-02-06T13:10:59Z</time>
      </trkpt>
      <trkpt lat="50.6864" lon="3.36267">
        <ele>13.831482</ele>
        <time>2018-02-06T13:11:01Z</time>
      </trkpt>
      <trkpt lat="50.68633" lon="3.36273">
        <ele>13.926036</ele>
        <time>2018-02-06T13:11:03Z</time>
      </trkpt>
      <trkpt lat="50.68626" lon="3.36279">
        <ele>14.037813</ele>
        <time>2018-02-06T13:11:05Z</time>
      </trkpt>
      <trkpt lat="50.68619" lon="3.36285">
        <ele>14.230879</ele>
        <time>2018-02-06T13:11:07Z</time>
      </trkpt>
      <trkpt lat="50.68612" lon="3.3629">
        <ele>14.430527</ele>
        <time>2018-02-06T13:11:09Z</time>
      </trkpt>
      <trkpt lat="50.68605" lon="3.36297">
        <ele>14.49807</ele>
        <time>2018-02-06T13:11:11Z</time>
      </trkpt>
      <trkpt lat="50.68599" lon="3.36303">
        <ele>14.683108</ele>
        <time>2018-02-06T13:11:13Z</time>
      </trkpt>
      <trkpt lat="50.68594" lon="3.3631">
        <ele>14.799235</ele>
        <time>2018-02-06T13:11:15Z</time>
      </trkpt>
      <trkpt lat="50.68588" lon="3.36318">
        <ele>14.931633</ele>
        <time>2018-02-06T13:11:17Z</time>
      </trkpt>
      <trkpt lat="50.68584" lon="3.36326">
        <ele>15.086543</ele>
        <time>2018-02-06T13:11:19Z</time>
      </trkpt>
      <trkpt lat="50.68579" lon="3.36334">
        <ele>15.223822</ele>
        <time>2018-02-06T13:11:21Z</time>
      </trkpt>
      <trkpt lat="50.68574" lon="3.36343">
        <ele>15.423918</ele>
        <time>2018-02-06T13:11:23Z</time>
      </trkpt>
      <trkpt lat="50.68569" lon="3.36351">
        <ele>15.636165</ele>
        <time>2018-02-06T13:11:25Z</time>
      </trkpt>
      <trkpt lat="50.68565" lon="3.36361">
        <ele>15.864601</ele>
        <time>2018-02-06T13:11:27Z</time>
      </trkpt>
      <trkpt lat="50.6856" lon="3.3637">
        <ele>16.036684</ele>
        <time>2018-02-06T13:11:29Z</time>
      </trkpt>
      <trkpt lat="50.68556" lon="3.3638">
        <ele>16.280359</ele>
        <time>2018-02-06T13:11:31Z</time>
      </trkpt>
      <trkpt lat="50.68552" lon="3.36389">
        <ele>16.599779</ele>
        <time>2018-02-06T13:11:33Z</time>
      </trkpt>
      <trkpt lat="50.68549" lon="3.36399">
        <ele>16.876986</ele>
        <time>2018-02-06T13:11:35Z</time>
      </trkpt>
      <trkpt lat="50.68547" lon="3.36409">
        <ele>17.183069</ele>
        <time>2018-02-06T13:11:37Z</time>
      </trkpt>
      <trkpt lat="50.68544" lon="3.36418">
        <ele>17.463703</ele>
        <time>2018-02-06T13:11:39Z</time>
      </trkpt>
      <trkpt lat="50.68541" lon="3.36427">
        <ele>17.760033</ele>
        <time>2018-02-06T13:11:41Z</time>
      </trkpt>
      <trkpt lat="50.68539" lon="3.36436">
        <ele>17.970531</ele>
        <time>2018-02-06T13:11:43Z</time>
      </trkpt>
      <trkpt lat="50.68536" lon="3.36446">
        <ele>18.316738</ele>
        <time>2018-02-06T13:11:45Z</time>
      </trkpt>
      <trkpt lat="50.68533" lon="3.36455">
        <ele>18.669399</ele>
        <time>2018-02-06T13:11:47Z</time>
      </trkpt>
      <trkpt lat="50.68531" lon="3.36465">
        <ele>18.992575</ele>
        <time>2018-02-06T13:11:49Z</time>
      </trkpt>
      <trkpt lat="50.68528" lon="3.36474">
        <ele>19.28532</ele>
        <time>2018-02-06T13:11:51Z</time>
      </trkpt>
      <trkpt lat="50.68525" lon="3.36483">
        <ele>19.665045</ele>
        <time>2018-02-06T13:11:53Z</time>
      </trkpt>
      <trkpt lat="50.68523" lon="3.36492">
        <ele>20.085155</ele>
        <time>2018-02-06T13:11:55Z</time>
      </trkpt>
      <trkpt lat="50.6852" lon="3.36502">
        <ele>20.562172</ele>
        <time>2018-02-06T13:11:57Z</time>
      </trkpt>
      <trkpt lat="50.68517" lon="3.36511">
        <ele>20.97049</ele>
        <time>2018-02-06T13:11:59Z</time>
      </trkpt>
      <trkpt lat="50.68512" lon="3.36518">
        <ele>21.505449</ele>
        <time>2018-02-06T13:12:01Z</time>
      </trkpt>
      <trkpt lat="50.68507" lon="3.36523">
        <ele>21.974255</ele>
        <time>2018-02-06T13:12:03Z</time>
      </trkpt>
      <trkpt lat="50.68502" lon="3.36526">
        <ele>22.37627</ele>
        <time>2018-02-06T13:12:05Z</time>
      </trkpt>
      <trkpt lat="50.68496" lon="3.3653">
        <ele>22.917067</ele>
        <time>2018-02-06T13:12:07Z</time>
      </trkpt>
      <trkpt lat="50.68491" lon="3.36535">
        <ele>23.396381</ele>
        <time>2018-02-06T13:12:09Z</time>
      </trkpt>
      <trkpt lat="50.68488" lon="3.36544">
        <ele>23.853994</ele>
        <time>2018-02-06T13:12:11Z</time>
      </trkpt>
      <trkpt lat="50.68486" lon="3.36554">
        <ele>24.380762</ele>
        <time>2018-02-06T13:12:13Z</time>
      </trkpt>
      <trkpt lat="50.68485" lon="3.36565">
        <ele>24.579609</ele>
        <time>2018-02-06T13:12:15Z</time>
      </trkpt>
      <trkpt lat="50.68485" lon="3.36576">
        <ele>25.10705</ele>
        <time>2018-02-06T13:12:17Z</time>
      </trkpt>
      <trkpt lat="50.68485" lon="3.36586">
        <ele>25.642151</ele>
        <time>2018-02-06T13:12:19Z</time>
      </trkpt>
      <trkpt lat="50.68485" lon="3.36595">
        <ele>26.190907</ele>
        <time>2018-02-06T13:12:21Z</time>
      </trkpt>
      <trkpt lat="50.68485" lon="3.36603">
        <ele>26.733648</ele>
        <time>2018-02-06T13:12:23Z</time>
      </trkpt>
      <trkpt lat="50.68485" lon="3.36611">
        <ele>27.221323</ele>
        <time>2018-02-06T13:12:25Z</time>
      </trkpt>
      <trkpt lat="50.68485" lon="3.36619">
        <ele>27.764408</ele>
        <time>2018-02-06T13:12:27Z</time>
      </trkpt>
      <trkpt lat="50.68486" lon="3.36627">
        <ele>28.257435</ele>
        <time>2018-02-06T13:12:29Z</time>
      </trkpt>
      <trkpt lat="50.68488" lon="3.36634">
        <ele>28.86861</ele>
        <time>2018-02-06T13:12:31Z</time>
      </trkpt>
      <trkpt lat="50.6849" lon="3.36642">
        <ele>29.410131</ele>
        <time>2018-02-06T13:12:33Z</time>
      </trkpt>
      <trkpt lat="50.68492" lon="3.3665">
        <ele>29.957663</ele>
        <time>2018-02-06T13:12:35Z</time>
      </trkpt>
      <trkpt lat="50.68494" lon="3.36657">
        <ele>30.481668</ele>
        <time>2018-02-06T13:12:37Z</time>
      </trkpt>
      <trkpt lat="50.68496" lon="3.36665">
        <ele>30.974316</ele>
        <time>2018-02-06T13:12:39Z</time>
      </trkpt>
      <trkpt lat="50.68498" lon="3.36672">
        <ele>31.233051</ele>
        <time>2018-02-06T13:12:41Z</time>
      </trkpt>
      <trkpt lat="50.68501" lon="3.36679">
        <ele>31.688641</ele>
        <time>2018-02-06T13:12:43Z</time>
      </trkpt>
      <trkpt lat="50.68504" lon="3.36686">
        <ele>32.258301</ele>
        <time>2018-02-06T13:12:45Z</time>
      </trkpt>
      <trkpt lat="50.68507" lon="3.36694">
        <ele>32.806274</ele>
        <time>2018-02-06T13:12:47Z</time>
      </trkpt>
      <trkpt lat="50.6851" lon="3.36702">
        <ele>33.301105</ele>
        <time>2018-02-06T13:12:49Z</time>
      </trkpt>
      <trkpt lat="50.68512" lon="3.3671">
        <ele>33.777477</ele>
        <time>2018-02-06T13:12:51Z</time>
      </trkpt>
      <trkpt lat="50.68515" lon="3.36719">
        <ele>34.258015</ele>
        <time>2018-02-06T13:12:53Z</time>
      </trkpt>
      <trkpt lat="50.68518" lon="3.36726">
        <ele>34.720387</ele>
        <time>2018-02-06T13:12:55Z</time>
      </trkpt>
      <trkpt lat="50.68522" lon="3.36734">
        <ele>35.187675</ele>
        <time>2018-02-06T13:12:57Z</time>
      </trkpt>
      <trkpt lat="50.68527" lon="3.36742">
        <ele>35.598083</ele>
        <time>2018-02-06T13:12:59Z</time>
      </trkpt>
      <trkpt lat="50.68531" lon="3.36749">
        <ele>35.983227</ele>
        <time>2018-02-06T13:13:01Z</time>
      </trkpt>
      <trkpt lat="50.68535" lon="3.36757">
        <ele>36.369495</ele>
        <time>2018-02-06T13:13:03Z</time>
      </trkpt>
      <trkpt lat="50.68539" lon="3.36764">
        <ele>36.751381</ele>
        <time>2018-02-06T13:13:05Z</time>
      </trkpt>
      <trkpt lat="50.68541" lon="3.36773">
        <ele>37.076824</ele>
        <time>2018-02-06T13:13:07Z</time>
      </trkpt>
      <trkpt lat="50.68538" lon="3.36782">
        <ele>37.359276</ele>
        <time>2018-02-06T13:13:09Z</time>
      </trkpt>
      <trkpt lat="50.6854" lon="3.36791">
        <ele>37.561451</ele>
        <time>2018-02-06T13:13:11Z</time>
      </trkpt>
      <trkpt lat="50.68541" lon="3.368">
        <ele>37.762157</ele>
        <time>2018-02-06T13:13:13Z</time>
      </trkpt>
      <trkpt lat="50.68543" lon="3.36809">
        <ele>38.007751</ele>
        <time>2018-02-06T13:13:15Z</time>
      </trkpt>
      <trkpt lat="50.68545" lon="3.36818">
        <ele>38.250214</ele>
        <time>2018-02-06T13:13:17Z</time>
      </trkpt>
      <trkpt lat="50.68547" lon="3.36828">
        <ele>38.494713</ele>
        <time>2018-02-06T13:13:19Z</time>
      </trkpt>
      <trkpt lat="50.68549" lon="3.36839">
        <ele>38.674236</ele>
        <time>2018-02-06T13:13:21Z</time>
      </trkpt>
      <trkpt lat="50.68549" lon="3.3685">
        <ele>38.906616</ele>
        <time>2018-02-06T13:13:23Z</time>
      </trkpt>
      <trkpt lat="50.6855" lon="3.36861">
        <ele>39.022411</ele>
        <time>2018-02-06T13:13:25Z</time>
      </trkpt>
      <trkpt lat="50.68551" lon="3.36872">
        <ele>39.100861</ele>
        <time>2018-02-06T13:13:27Z</time>
      </trkpt>
      <trkpt lat="50.68551" lon="3.36884">
        <ele>39.206852</ele>
        <time>2018-02-06T13:13:29Z</time>
      </trkpt>
      <trkpt lat="50.68551" lon="3.36896">
        <ele>39.287853</ele>
        <time>2018-02-06T13:13:31Z</time>
      </trkpt>
      <trkpt lat="50.68551" lon="3.36907">
        <ele>39.309441</ele>
        <time>2018-02-06T13:13:33Z</time>
      </trkpt>
      <trkpt lat="50.68553" lon="3.36919">
        <ele>39.290688</ele>
        <time>2018-02-06T13:13:35Z</time>
      </trkpt>
      <trkpt lat="50.68554" lon="3.36931">
        <ele>39.312691</ele>
        <time>2018-02-06T13:13:37Z</time>
      </trkpt>
      <trkpt lat="50.68555" lon="3.36942">
        <ele>39.290813</ele>
        <time>2018-02-06T13:13:39Z</time>
      </trkpt>
      <trkpt lat="50.68556" lon="3.36954">
        <ele>39.252659</ele>
        <time>2018-02-06T13:13:41Z</time>
      </trkpt>
      <trkpt lat="50.68557" lon="3.36965">
        <ele>39.148548</ele>
        <time>2018-02-06T13:13:43Z</time>
      </trkpt>
      <trkpt lat="50.68559" lon="3.36976">
        <ele>39.056786</ele>
        <time>2018-02-06T13:13:45Z</time>
      </trkpt>
      <trkpt lat="50.68559" lon="3.36987">
        <ele>39.009239</ele>
        <time>2018-02-06T13:13:47Z</time>
      </trkpt>
      <trkpt lat="50.68558" lon="3.36999">
        <ele>38.942707</ele>
        <time>2018-02-06T13:13:49Z</time>
      </trkpt>
      <trkpt lat="50.68556" lon="3.37011">
        <ele>38.842361</ele>
        <time>2018-02-06T13:13:51Z</time>
      </trkpt>
      <trkpt lat="50.68556" lon="3.37024">
        <ele>38.693253</ele>
        <time>2018-02-06T13:13:53Z</time>
      </trkpt>
      <trkpt lat="50.68554" lon="3.37039">
        <ele>38.592842</ele>
        <time>2018-02-06T13:13:55Z</time>
      </trkpt>
      <trkpt lat="50.68554" lon="3.37053">
        <ele>38.502659</ele>
        <time>2018-02-06T13:13:57Z</time>
      </trkpt>
      <trkpt lat="50.68553" lon="3.37068">
        <ele>38.320484</ele>
        <time>2018-02-06T13:13:59Z</time>
      </trkpt>
      <trkpt lat="50.68552" lon="3.37081">
        <ele>38.158253</ele>
        <time>2018-02-06T13:14:01Z</time>
      </trkpt>
      <trkpt lat="50.68552" lon="3.37093">
        <ele>37.986671</ele>
        <time>2018-02-06T13:14:03Z</time>
      </trkpt>
      <trkpt lat="50.68552" lon="3.37107">
        <ele>37.839485</ele>
        <time>2018-02-06T13:14:05Z</time>
      </trkpt>
      <trkpt lat="50.68552" lon="3.37121">
        <ele>37.725475</ele>
        <time>2018-02-06T13:14:07Z</time>
      </trkpt>
      <trkpt lat="50.68551" lon="3.37135">
        <ele>37.613396</ele>
        <time>2018-02-06T13:14:09Z</time>
      </trkpt>
      <trkpt lat="50.68552" lon="3.3715">
        <ele>37.478031</ele>
        <time>2018-02-06T13:14:11Z</time>
      </trkpt>
      <trkpt lat="50.68551" lon="3.37166">
        <ele>37.361179</ele>
        <time>2018-02-06T13:14:13Z</time>
      </trkpt>
      <trkpt lat="50.68551" lon="3.37182">
        <ele>37.235176</ele>
        <time>2018-02-06T13:14:15Z</time>
      </trkpt>
      <trkpt lat="50.68551" lon="3.37196">
        <ele>37.0835</ele>
        <time>2018-02-06T13:14:17Z</time>
      </trkpt>
      <trkpt lat="50.6855" lon="3.37208">
        <ele>36.927483</ele>
        <time>2018-02-06T13:14:19Z</time>
      </trkpt>
      <trkpt lat="50.68548" lon="3.3722">
        <ele>36.855602</ele>
        <time>2018-02-06T13:14:21Z</time>
      </trkpt>
      <trkpt lat="50.68547" lon="3.37234">
        <ele>36.723164</ele>
        <time>2018-02-06T13:14:23Z</time>
      </trkpt>
      <trkpt lat="50.68547" lon="3.37249">
        <ele>36.601791</ele>
        <time>2018-02-06T13:14:25Z</time>
      </trkpt>
      <trkpt lat="50.68547" lon="3.37265">
        <ele>36.459126</ele>
        <time>2018-02-06T13:14:27Z</time>
      </trkpt>
      <trkpt lat="50.68547" lon="3.37281">
        <ele>36.331459</ele>
        <time>2018-02-06T13:14:29Z</time>
      </trkpt>
      <trkpt lat="50.68547" lon="3.37297">
        <ele>36.206696</ele>
        <time>2018-02-06T13:14:31Z</time>
      </trkpt>
      <trkpt lat="50.68547" lon="3.37312">
        <ele>36.086979</ele>
        <time>2018-02-06T13:14:33Z</time>
      </trkpt>
      <trkpt lat="50.68547" lon="3.37329">
        <ele>35.968334</ele>
        <time>2018-02-06T13:14:35Z</time>
      </trkpt>
      <trkpt lat="50.68547" lon="3.37345">
        <ele>35.811317</ele>
        <time>2018-02-06T13:14:37Z</time>
      </trkpt>
      <trkpt lat="50.68547" lon="3.37361">
        <ele>35.674156</ele>
        <time>2018-02-06T13:14:39Z</time>
      </trkpt>
      <trkpt lat="50.68547" lon="3.37377">
        <ele>35.574638</ele>
        <time>2018-02-06T13:14:41Z</time>
      </trkpt>
      <trkpt lat="50.68546" lon="3.37393">
        <ele>35.490501</ele>
        <time>2018-02-06T13:14:43Z</time>
      </trkpt>
      <trkpt lat="50.68547" lon="3.3741">
        <ele>35.3783</ele>
        <time>2018-02-06T13:14:45Z</time>
      </trkpt>
      <trkpt lat="50.68547" lon="3.37427">
        <ele>35.268539</ele>
        <time>2018-02-06T13:14:47Z</time>
      </trkpt>
      <trkpt lat="50.68547" lon="3.37444">
        <ele>35.110775</ele>
        <time>2018-02-06T13:14:49Z</time>
      </trkpt>
      <trkpt lat="50.68546" lon="3.37461">
        <ele>34.996162</ele>
        <time>2018-02-06T13:14:51Z</time>
      </trkpt>
      <trkpt lat="50.68546" lon="3.37478">
        <ele>34.800014</ele>
        <time>2018-02-06T13:14:53Z</time>
      </trkpt>
      <trkpt lat="50.68546" lon="3.37496">
        <ele>34.680676</ele>
        <time>2018-02-06T13:14:55Z</time>
      </trkpt>
      <trkpt lat="50.68546" lon="3.37513">
        <ele>34.568947</ele>
        <time>2018-02-06T13:14:57Z</time>
      </trkpt>
      <trkpt lat="50.68546" lon="3.37531">
        <ele>34.494202</ele>
        <time>2018-02-06T13:14:59Z</time>
      </trkpt>
      <trkpt lat="50.68546" lon="3.37549">
        <ele>34.401703</ele>
        <time>2018-02-06T13:15:01Z</time>
      </trkpt>
      <trkpt lat="50.68545" lon="3.37567">
        <ele>34.350853</ele>
        <time>2018-02-06T13:15:03Z</time>
      </trkpt>
      <trkpt lat="50.68545" lon="3.37584">
        <ele>34.301247</ele>
        <time>2018-02-06T13:15:05Z</time>
      </trkpt>
      <trkpt lat="50.68545" lon="3.37602">
        <ele>34.273895</ele>
        <time>2018-02-06T13:15:07Z</time>
      </trkpt>
      <trkpt lat="50.68544" lon="3.3762">
        <ele>34.241333</ele>
        <time>2018-02-06T13:15:09Z</time>
      </trkpt>
      <trkpt lat="50.68544" lon="3.37637">
        <ele>34.159081</ele>
        <time>2018-02-06T13:15:11Z</time>
      </trkpt>
      <trkpt lat="50.68544" lon="3.37654">
        <ele>34.14386</ele>
        <time>2018-02-06T13:15:13Z</time>
      </trkpt>
      <trkpt lat="50.68544" lon="3.37671">
        <ele>34.110161</ele>
        <time>2018-02-06T13:15:15Z</time>
      </trkpt>
      <trkpt lat="50.68545" lon="3.37688">
        <ele>34.130878</ele>
        <time>2018-02-06T13:15:17Z</time>
      </trkpt>
      <trkpt lat="50.68545" lon="3.37704">
        <ele>34.134541</ele>
        <time>2018-02-06T13:15:19Z</time>
      </trkpt>
      <trkpt lat="50.68545" lon="3.37721">
        <ele>34.089142</ele>
        <time>2018-02-06T13:15:21Z</time>
      </trkpt>
      <trkpt lat="50.68546" lon="3.37737">
        <ele>34.055508</ele>
        <time>2018-02-06T13:15:23Z</time>
      </trkpt>
      <trkpt lat="50.68546" lon="3.37752">
        <ele>33.993889</ele>
        <time>2018-02-06T13:15:25Z</time>
      </trkpt>
      <trkpt lat="50.68546" lon="3.37767">
        <ele>33.941376</ele>
        <time>2018-02-06T13:15:27Z</time>
      </trkpt>
      <trkpt lat="50.68547" lon="3.37782">
        <ele>33.931316</ele>
        <time>2018-02-06T13:15:29Z</time>
      </trkpt>
      <trkpt lat="50.68547" lon="3.37797">
        <ele>33.898903</ele>
        <time>2018-02-06T13:15:31Z</time>
      </trkpt>
      <trkpt lat="50.68547" lon="3.37812">
        <ele>33.875957</ele>
        <time>2018-02-06T13:15:33Z</time>
      </trkpt>
      <trkpt lat="50.68547" lon="3.37826">
        <ele>33.990639</ele>
        <time>2018-02-06T13:15:35Z</time>
      </trkpt>
      <trkpt lat="50.68547" lon="3.3784">
        <ele>33.996231</ele>
        <time>2018-02-06T13:15:37Z</time>
      </trkpt>
      <trkpt lat="50.68548" lon="3.37854">
        <ele>34.049831</ele>
        <time>2018-02-06T13:15:39Z</time>
      </trkpt>
      <trkpt lat="50.68548" lon="3.37867">
        <ele>34.097626</ele>
        <time>2018-02-06T13:15:41Z</time>
      </trkpt>
      <trkpt lat="50.68548" lon="3.37881">
        <ele>34.140747</ele>
        <time>2018-02-06T13:15:43Z</time>
      </trkpt>
      <trkpt lat="50.68548" lon="3.37894">
        <ele>34.186317</ele>
        <time>2018-02-06T13:15:45Z</time>
      </trkpt>
      <trkpt lat="50.68549" lon="3.37907">
        <ele>34.215633</ele>
        <time>2018-02-06T13:15:47Z</time>
      </trkpt>
      <trkpt lat="50.68549" lon="3.3792">
        <ele>34.256416</ele>
        <time>2018-02-06T13:15:49Z</time>
      </trkpt>
      <trkpt lat="50.68551" lon="3.37932">
        <ele>34.309006</ele>
        <time>2018-02-06T13:15:51Z</time>
      </trkpt>
      <trkpt lat="50.68552" lon="3.37944">
        <ele>34.384113</ele>
        <time>2018-02-06T13:15:53Z</time>
      </trkpt>
      <trkpt lat="50.68555" lon="3.37957">
        <ele>34.414719</ele>
        <time>2018-02-06T13:15:55Z</time>
      </trkpt>
      <trkpt lat="50.68557" lon="3.37968">
        <ele>34.460484</ele>
        <time>2018-02-06T13:15:57Z</time>
      </trkpt>
      <trkpt lat="50.6856" lon="3.3798">
        <ele>34.42807</ele>
        <time>2018-02-06T13:15:59Z</time>
      </trkpt>
      <trkpt lat="50.68563" lon="3.37992">
        <ele>34.470894</ele>
        <time>2018-02-06T13:16:01Z</time>
      </trkpt>
      <trkpt lat="50.68566" lon="3.38004">
        <ele>34.52462</ele>
        <time>2018-02-06T13:16:03Z</time>
      </trkpt>
      <trkpt lat="50.68568" lon="3.38016">
        <ele>34.641556</ele>
        <time>2018-02-06T13:16:05Z</time>
      </trkpt>
      <trkpt lat="50.68571" lon="3.38027">
        <ele>34.733181</ele>
        <time>2018-02-06T13:16:07Z</time>
      </trkpt>
      <trkpt lat="50.68574" lon="3.38039">
        <ele>34.753117</ele>
        <time>2018-02-06T13:16:09Z</time>
      </trkpt>
      <trkpt lat="50.68577" lon="3.38051">
        <ele>34.841129</ele>
        <time>2018-02-06T13:16:11Z</time>
      </trkpt>
      <trkpt lat="50.6858" lon="3.38062">
        <ele>34.920006</ele>
        <time>2018-02-06T13:16:13Z</time>
      </trkpt>
      <trkpt lat="50.68583" lon="3.38075">
        <ele>35.022343</ele>
        <time>2018-02-06T13:16:15Z</time>
      </trkpt>
      <trkpt lat="50.68586" lon="3.38087">
        <ele>35.051178</ele>
        <time>2018-02-06T13:16:17Z</time>
      </trkpt>
      <trkpt lat="50.68588" lon="3.381">
        <ele>35.157993</ele>
        <time>2018-02-06T13:16:19Z</time>
      </trkpt>
      <trkpt lat="50.68591" lon="3.38114">
        <ele>35.24337</ele>
        <time>2018-02-06T13:16:21Z</time>
      </trkpt>
      <trkpt lat="50.68594" lon="3.38127">
        <ele>35.320591</ele>
        <time>2018-02-06T13:16:23Z</time>
      </trkpt>
      <trkpt lat="50.68597" lon="3.38142">
        <ele>35.372032</ele>
        <time>2018-02-06T13:16:25Z</time>
      </trkpt>
      <trkpt lat="50.68601" lon="3.38156">
        <ele>35.4519</ele>
        <time>2018-02-06T13:16:27Z</time>
      </trkpt>
      <trkpt lat="50.68604" lon="3.3817">
        <ele>35.474724</ele>
        <time>2018-02-06T13:16:29Z</time>
      </trkpt>
      <trkpt lat="50.68606" lon="3.38185">
        <ele>35.488705</ele>
        <time>2018-02-06T13:16:31Z</time>
      </trkpt>
      <trkpt lat="50.6861" lon="3.38201">
        <ele>35.461643</ele>
        <time>2018-02-06T13:16:33Z</time>
      </trkpt>
      <trkpt lat="50.68613" lon="3.38217">
        <ele>35.427364</ele>
        <time>2018-02-06T13:16:35Z</time>
      </trkpt>
      <trkpt lat="50.68617" lon="3.38234">
        <ele>35.394615</ele>
        <time>2018-02-06T13:16:37Z</time>
      </trkpt>
      <trkpt lat="50.68621" lon="3.3825">
        <ele>35.272301</ele>
        <time>2018-02-06T13:16:39Z</time>
      </trkpt>
      <trkpt lat="50.68624" lon="3.38266">
        <ele>35.154881</ele>
        <time>2018-02-06T13:16:41Z</time>
      </trkpt>
      <trkpt lat="50.68628" lon="3.38283">
        <ele>35.095345</ele>
        <time>2018-02-06T13:16:43Z</time>
      </trkpt>
      <trkpt lat="50.68631" lon="3.383">
        <ele>34.96056</ele>
        <time>2018-02-06T13:16:45Z</time>
      </trkpt>
      <trkpt lat="50.68635" lon="3.38317">
        <ele>34.769489</ele>
        <time>2018-02-06T13:16:47Z</time>
      </trkpt>
      <trkpt lat="50.68639" lon="3.38335">
        <ele>34.570923</ele>
        <time>2018-02-06T13:16:49Z</time>
      </trkpt>
      <trkpt lat="50.68642" lon="3.38352">
        <ele>34.360065</ele>
        <time>2018-02-06T13:16:51Z</time>
      </trkpt>
      <trkpt lat="50.68646" lon="3.38369">
        <ele>34.060192</ele>
        <time>2018-02-06T13:16:53Z</time>
      </trkpt>
      <trkpt lat="50.68649" lon="3.38387">
        <ele>33.793663</ele>
        <time>2018-02-06T13:16:55Z</time>
      </trkpt>
      <trkpt lat="50.68654" lon="3.38404">
        <ele>33.540356</ele>
        <time>2018-02-06T13:16:57Z</time>
      </trkpt>
      <trkpt lat="50.68657" lon="3.38422">
        <ele>33.168713</ele>
        <time>2018-02-06T13:16:59Z</time>
      </trkpt>
      <trkpt lat="50.6866" lon="3.38438">
        <ele>32.816734</ele>
        <time>2018-02-06T13:17:01Z</time>
      </trkpt>
      <trkpt lat="50.68665" lon="3.38455">
        <ele>32.421227</ele>
        <time>2018-02-06T13:17:03Z</time>
      </trkpt>
      <trkpt lat="50.6867" lon="3.3847">
        <ele>32.060474</ele>
        <time>2018-02-06T13:17:05Z</time>
      </trkpt>
      <trkpt lat="50.68675" lon="3.38485">
        <ele>31.704187</ele>
        <time>2018-02-06T13:17:07Z</time>
      </trkpt>
      <trkpt lat="50.68679" lon="3.38501">
        <ele>31.343281</ele>
        <time>2018-02-06T13:17:09Z</time>
      </trkpt>
      <trkpt lat="50.68682" lon="3.38518">
        <ele>30.999279</ele>
        <time>2018-02-06T13:17:11Z</time>
      </trkpt>
      <trkpt lat="50.68684" lon="3.38536">
        <ele>30.682459</ele>
        <time>2018-02-06T13:17:13Z</time>
      </trkpt>
      <trkpt lat="50.68685" lon="3.38553">
        <ele>30.513037</ele>
        <time>2018-02-06T13:17:15Z</time>
      </trkpt>
      <trkpt lat="50.68686" lon="3.38569">
        <ele>30.225529</ele>
        <time>2018-02-06T13:17:17Z</time>
      </trkpt>
      <trkpt lat="50.68687" lon="3.38586">
        <ele>29.903656</ele>
        <time>2018-02-06T13:17:19Z</time>
      </trkpt>
      <trkpt lat="50.68689" lon="3.38603">
        <ele>29.669977</ele>
        <time>2018-02-06T13:17:21Z</time>
      </trkpt>
      <trkpt lat="50.68691" lon="3.3862">
        <ele>29.497463</ele>
        <time>2018-02-06T13:17:23Z</time>
      </trkpt>
      <trkpt lat="50.68692" lon="3.38636">
        <ele>29.229553</ele>
        <time>2018-02-06T13:17:25Z</time>
      </trkpt>
      <trkpt lat="50.68691" lon="3.38652">
        <ele>29.016577</ele>
        <time>2018-02-06T13:17:27Z</time>
      </trkpt>
      <trkpt lat="50.68689" lon="3.38667">
        <ele>28.780331</ele>
        <time>2018-02-06T13:17:29Z</time>
      </trkpt>
      <trkpt lat="50.68686" lon="3.38682">
        <ele>28.605032</ele>
        <time>2018-02-06T13:17:31Z</time>
      </trkpt>
      <trkpt lat="50.68683" lon="3.38696">
        <ele>28.482479</ele>
        <time>2018-02-06T13:17:33Z</time>
      </trkpt>
      <trkpt lat="50.68679" lon="3.38709">
        <ele>28.382648</ele>
        <time>2018-02-06T13:17:35Z</time>
      </trkpt>
      <trkpt lat="50.68676" lon="3.38723">
        <ele>28.251337</ele>
        <time>2018-02-06T13:17:37Z</time>
      </trkpt>
      <trkpt lat="50.68673" lon="3.38736">
        <ele>28.224777</ele>
        <time>2018-02-06T13:17:39Z</time>
      </trkpt>
      <trkpt lat="50.6867" lon="3.38749">
        <ele>28.200872</ele>
        <time>2018-02-06T13:17:41Z</time>
      </trkpt>
      <trkpt lat="50.68667" lon="3.3876">
        <ele>28.302319</ele>
        <time>2018-02-06T13:17:43Z</time>
      </trkpt>
      <trkpt lat="50.68664" lon="3.38771">
        <ele>28.420437</ele>
        <time>2018-02-06T13:17:45Z</time>
      </trkpt>
      <trkpt lat="50.68662" lon="3.38782">
        <ele>28.529337</ele>
        <time>2018-02-06T13:17:47Z</time>
      </trkpt>
      <trkpt lat="50.68663" lon="3.38792">
        <ele>28.632492</ele>
        <time>2018-02-06T13:17:49Z</time>
      </trkpt>
      <trkpt lat="50.68668" lon="3.388">
        <ele>28.736643</ele>
        <time>2018-02-06T13:17:51Z</time>
      </trkpt>
      <trkpt lat="50.68675" lon="3.38807">
        <ele>28.951359</ele>
        <time>2018-02-06T13:17:53Z</time>
      </trkpt>
      <trkpt lat="50.68681" lon="3.38814">
        <ele>29.145212</ele>
        <time>2018-02-06T13:17:55Z</time>
      </trkpt>
      <trkpt lat="50.68687" lon="3.38819">
        <ele>29.399857</ele>
        <time>2018-02-06T13:17:57Z</time>
      </trkpt>
      <trkpt lat="50.68693" lon="3.38825">
        <ele>29.637112</ele>
        <time>2018-02-06T13:17:59Z</time>
      </trkpt>
      <trkpt lat="50.687" lon="3.38832">
        <ele>29.960373</ele>
        <time>2018-02-06T13:18:01Z</time>
      </trkpt>
      <trkpt lat="50.68706" lon="3.38839">
        <ele>30.206522</ele>
        <time>2018-02-06T13:18:03Z</time>
      </trkpt>
      <trkpt lat="50.6871" lon="3.38849">
        <ele>30.509531</ele>
        <time>2018-02-06T13:18:05Z</time>
      </trkpt>
      <trkpt lat="50.68711" lon="3.3886">
        <ele>30.782436</ele>
        <time>2018-02-06T13:18:07Z</time>
      </trkpt>
      <trkpt lat="50.6871" lon="3.38871">
        <ele>31.109991</ele>
        <time>2018-02-06T13:18:09Z</time>
      </trkpt>
      <trkpt lat="50.68708" lon="3.38881">
        <ele>31.44985</ele>
        <time>2018-02-06T13:18:11Z</time>
      </trkpt>
      <trkpt lat="50.68705" lon="3.38891">
        <ele>31.77566</ele>
        <time>2018-02-06T13:18:13Z</time>
      </trkpt>
      <trkpt lat="50.68703" lon="3.38901">
        <ele>32.111855</ele>
        <time>2018-02-06T13:18:15Z</time>
      </trkpt>
      <trkpt lat="50.687" lon="3.38911">
        <ele>32.49424</ele>
        <time>2018-02-06T13:18:17Z</time>
      </trkpt>
      <trkpt lat="50.68697" lon="3.38921">
        <ele>32.661049</ele>
        <time>2018-02-06T13:18:19Z</time>
      </trkpt>
      <trkpt lat="50.68694" lon="3.38931">
        <ele>33.023804</ele>
        <time>2018-02-06T13:18:21Z</time>
      </trkpt>
      <trkpt lat="50.68692" lon="3.38941">
        <ele>33.349537</ele>
        <time>2018-02-06T13:18:23Z</time>
      </trkpt>
      <trkpt lat="50.68689" lon="3.38951">
        <ele>33.647331</ele>
        <time>2018-02-06T13:18:25Z</time>
      </trkpt>
      <trkpt lat="50.68686" lon="3.38962">
        <ele>33.927292</ele>
        <time>2018-02-06T13:18:27Z</time>
      </trkpt>
      <trkpt lat="50.68684" lon="3.38972">
        <ele>34.202702</ele>
        <time>2018-02-06T13:18:29Z</time>
      </trkpt>
      <trkpt lat="50.68681" lon="3.38982">
        <ele>34.524403</ele>
        <time>2018-02-06T13:18:31Z</time>
      </trkpt>
      <trkpt lat="50.6868" lon="3.38993">
        <ele>34.85157</ele>
        <time>2018-02-06T13:18:33Z</time>
      </trkpt>
      <trkpt lat="50.68679" lon="3.39004">
        <ele>35.152184</ele>
        <time>2018-02-06T13:18:35Z</time>
      </trkpt>
      <trkpt lat="50.6868" lon="3.39015">
        <ele>35.409393</ele>
        <time>2018-02-06T13:18:37Z</time>
      </trkpt>
      <trkpt lat="50.68682" lon="3.39026">
        <ele>35.657627</ele>
        <time>2018-02-06T13:18:39Z</time>
      </trkpt>
      <trkpt lat="50.68684" lon="3.39037">
        <ele>35.974098</ele>
        <time>2018-02-06T13:18:41Z</time>
      </trkpt>
      <trkpt lat="50.68687" lon="3.39048">
        <ele>36.279526</ele>
        <time>2018-02-06T13:18:43Z</time>
      </trkpt>
      <trkpt lat="50.68689" lon="3.39059">
        <ele>36.450012</ele>
        <time>2018-02-06T13:18:45Z</time>
      </trkpt>
      <trkpt lat="50.68692" lon="3.3907">
        <ele>36.777431</ele>
        <time>2018-02-06T13:18:47Z</time>
      </trkpt>
      <trkpt lat="50.68693" lon="3.39082">
        <ele>37.125118</ele>
        <time>2018-02-06T13:18:49Z</time>
      </trkpt>
      <trkpt lat="50.68694" lon="3.39094">
        <ele>37.454472</ele>
        <time>2018-02-06T13:18:51Z</time>
      </trkpt>
      <trkpt lat="50.68694" lon="3.39106">
        <ele>37.706093</ele>
        <time>2018-02-06T13:18:53Z</time>
      </trkpt>
      <trkpt lat="50.68692" lon="3.39118">
        <ele>37.977005</ele>
        <time>2018-02-06T13:18:55Z</time>
      </trkpt>
      <trkpt lat="50.68689" lon="3.39129">
        <ele>38.232349</ele>
        <time>2018-02-06T13:18:57Z</time>
      </trkpt>
      <trkpt lat="50.68686" lon="3.3914">
        <ele>38.463638</ele>
        <time>2018-02-06T13:18:59Z</time>
      </trkpt>
      <trkpt lat="50.68681" lon="3.3915">
        <ele>38.663261</ele>
        <time>2018-02-06T13:19:01Z</time>
      </trkpt>
      <trkpt lat="50.68677" lon="3.3916">
        <ele>38.903263</ele>
        <time>2018-02-06T13:19:03Z</time>
      </trkpt>
      <trkpt lat="50.68673" lon="3.39171">
        <ele>39.100521</ele>
        <time>2018-02-06T13:19:05Z</time>
      </trkpt>
      <trkpt lat="50.68669" lon="3.39182">
        <ele>39.273499</ele>
        <time>2018-02-06T13:19:07Z</time>
      </trkpt>
      <trkpt lat="50.68665" lon="3.39194">
        <ele>39.426186</ele>
        <time>2018-02-06T13:19:09Z</time>
      </trkpt>
      <trkpt lat="50.68663" lon="3.39207">
        <ele>39.601368</ele>
        <time>2018-02-06T13:19:11Z</time>
      </trkpt>
      <trkpt lat="50.68662" lon="3.3922">
        <ele>39.701485</ele>
        <time>2018-02-06T13:19:13Z</time>
      </trkpt>
      <trkpt lat="50.68661" lon="3.39233">
        <ele>39.784145</ele>
        <time>2018-02-06T13:19:15Z</time>
      </trkpt>
      <trkpt lat="50.68662" lon="3.39246">
        <ele>39.845016</ele>
        <time>2018-02-06T13:19:17Z</time>
      </trkpt>
      <trkpt lat="50.68663" lon="3.39258">
        <ele>39.847878</ele>
        <time>2018-02-06T13:19:19Z</time>
      </trkpt>
      <trkpt lat="50.68665" lon="3.3927">
        <ele>39.852455</ele>
        <time>2018-02-06T13:19:21Z</time>
      </trkpt>
      <trkpt lat="50.68668" lon="3.39281">
        <ele>39.858879</ele>
        <time>2018-02-06T13:19:23Z</time>
      </trkpt>
      <trkpt lat="50.68671" lon="3.39292">
        <ele>39.868435</ele>
        <time>2018-02-06T13:19:25Z</time>
      </trkpt>
      <trkpt lat="50.68675" lon="3.39302">
        <ele>39.829819</ele>
        <time>2018-02-06T13:19:27Z</time>
      </trkpt>
      <trkpt lat="50.68679" lon="3.39312">
        <ele>39.777607</ele>
        <time>2018-02-06T13:19:29Z</time>
      </trkpt>
      <trkpt lat="50.68683" lon="3.39321">
        <ele>39.721779</ele>
        <time>2018-02-06T13:19:31Z</time>
      </trkpt>
      <trkpt lat="50.68686" lon="3.3933">
        <ele>39.723518</ele>
        <time>2018-02-06T13:19:33Z</time>
      </trkpt>
      <trkpt lat="50.68689" lon="3.39339">
        <ele>39.684811</ele>
        <time>2018-02-06T13:19:35Z</time>
      </trkpt>
      <trkpt lat="50.68693" lon="3.39349">
        <ele>39.689537</ele>
        <time>2018-02-06T13:19:37Z</time>
      </trkpt>
      <trkpt lat="50.68696" lon="3.39361">
        <ele>39.570934</ele>
        <time>2018-02-06T13:19:39Z</time>
      </trkpt>
      <trkpt lat="50.68699" lon="3.39374">
        <ele>39.450886</ele>
        <time>2018-02-06T13:19:41Z</time>
      </trkpt>
      <trkpt lat="50.68701" lon="3.39389">
        <ele>39.341408</ele>
        <time>2018-02-06T13:19:43Z</time>
      </trkpt>
      <trkpt lat="50.68704" lon="3.39405">
        <ele>39.129211</ele>
        <time>2018-02-06T13:19:45Z</time>
      </trkpt>
      <trkpt lat="50.68709" lon="3.39419">
        <ele>38.935696</ele>
        <time>2018-02-06T13:19:47Z</time>
      </trkpt>
      <trkpt lat="50.68715" lon="3.39432">
        <ele>38.766666</ele>
        <time>2018-02-06T13:19:49Z</time>
      </trkpt>
      <trkpt lat="50.68723" lon="3.39443">
        <ele>38.494156</ele>
        <time>2018-02-06T13:19:51Z</time>
      </trkpt>
      <trkpt lat="50.68732" lon="3.39452">
        <ele>38.261021</ele>
        <time>2018-02-06T13:19:53Z</time>
      </trkpt>
      <trkpt lat="50.6874" lon="3.39461">
        <ele>38.041348</ele>
        <time>2018-02-06T13:19:55Z</time>
      </trkpt>
      <trkpt lat="50.68749" lon="3.39469">
        <ele>37.746994</ele>
        <time>2018-02-06T13:19:57Z</time>
      </trkpt>
      <trkpt lat="50.68757" lon="3.39478">
        <ele>37.643639</ele>
        <time>2018-02-06T13:19:59Z</time>
      </trkpt>
      <trkpt lat="50.68764" lon="3.39487">
        <ele>37.427788</ele>
        <time>2018-02-06T13:20:01Z</time>
      </trkpt>
      <trkpt lat="50.68771" lon="3.39496">
        <ele>37.183525</ele>
        <time>2018-02-06T13:20:03Z</time>
      </trkpt>
      <trkpt lat="50.68778" lon="3.39506">
        <ele>36.889313</ele>
        <time>2018-02-06T13:20:05Z</time>
      </trkpt>
      <trkpt lat="50.68782" lon="3.39517">
        <ele>36.582024</ele>
        <time>2018-02-06T13:20:07Z</time>
      </trkpt>
      <trkpt lat="50.68784" lon="3.39529">
        <ele>36.325619</ele>
        <time>2018-02-06T13:20:09Z</time>
      </trkpt>
      <trkpt lat="50.68781" lon="3.39541">
        <ele>36.116516</ele>
        <time>2018-02-06T13:20:11Z</time>
      </trkpt>
      <trkpt lat="50.68778" lon="3.39554">
        <ele>35.930584</ele>
        <time>2018-02-06T13:20:13Z</time>
      </trkpt>
      <trkpt lat="50.68774" lon="3.39566">
        <ele>35.660027</ele>
        <time>2018-02-06T13:20:15Z</time>
      </trkpt>
      <trkpt lat="50.68771" lon="3.39578">
        <ele>35.460358</ele>
        <time>2018-02-06T13:20:17Z</time>
      </trkpt>
      <trkpt lat="50.68768" lon="3.3959">
        <ele>35.328888</ele>
        <time>2018-02-06T13:20:19Z</time>
      </trkpt>
      <trkpt lat="50.68766" lon="3.39601">
        <ele>35.192158</ele>
        <time>2018-02-06T13:20:21Z</time>
      </trkpt>
      <trkpt lat="50.68763" lon="3.39613">
        <ele>35.119125</ele>
        <time>2018-02-06T13:20:23Z</time>
      </trkpt>
      <trkpt lat="50.6876" lon="3.39624">
        <ele>35.043739</ele>
        <time>2018-02-06T13:20:25Z</time>
      </trkpt>
      <trkpt lat="50.68757" lon="3.39635">
        <ele>35.067242</ele>
        <time>2018-02-06T13:20:27Z</time>
      </trkpt>
      <trkpt lat="50.68754" lon="3.39645">
        <ele>35.06535</ele>
        <time>2018-02-06T13:20:29Z</time>
      </trkpt>
      <trkpt lat="50.68752" lon="3.39656">
        <ele>35.188709</ele>
        <time>2018-02-06T13:20:31Z</time>
      </trkpt>
      <trkpt lat="50.68749" lon="3.39667">
        <ele>35.377647</ele>
        <time>2018-02-06T13:20:33Z</time>
      </trkpt>
      <trkpt lat="50.68747" lon="3.39679">
        <ele>35.437073</ele>
        <time>2018-02-06T13:20:35Z</time>
      </trkpt>
      <trkpt lat="50.68744" lon="3.3969">
        <ele>35.585594</ele>
        <time>2018-02-06T13:20:37Z</time>
      </trkpt>
      <trkpt lat="50.68741" lon="3.39701">
        <ele>35.844597</ele>
        <time>2018-02-06T13:20:39Z</time>
      </trkpt>
      <trkpt lat="50.68738" lon="3.39712">
        <ele>36.108479</ele>
        <time>2018-02-06T13:20:41Z</time>
      </trkpt>
      <trkpt lat="50.68736" lon="3.39723">
        <ele>36.40419</ele>
        <time>2018-02-06T13:20:43Z</time>
      </trkpt>
      <trkpt lat="50.68733" lon="3.39734">
        <ele>36.690094</ele>
        <time>2018-02-06T13:20:45Z</time>
      </trkpt>
      <trkpt lat="50.68729" lon="3.39745">
        <ele>36.998161</ele>
        <time>2018-02-06T13:20:47Z</time>
      </trkpt>
      <trkpt lat="50.68724" lon="3.39754">
        <ele>37.352489</ele>
        <time>2018-02-06T13:20:49Z</time>
      </trkpt>
      <trkpt lat="50.68719" lon="3.39763">
        <ele>37.660301</ele>
        <time>2018-02-06T13:20:51Z</time>
      </trkpt>
      <trkpt lat="50.68715" lon="3.39772">
        <ele>37.989784</ele>
        <time>2018-02-06T13:20:53Z</time>
      </trkpt>
      <trkpt lat="50.68709" lon="3.3978">
        <ele>38.335075</ele>
        <time>2018-02-06T13:20:55Z</time>
      </trkpt>
      <trkpt lat="50.68703" lon="3.39789">
        <ele>38.630527</ele>
        <time>2018-02-06T13:20:57Z</time>
      </trkpt>
      <trkpt lat="50.68697" lon="3.39798">
        <ele>38.869656</ele>
        <time>2018-02-06T13:20:59Z</time>
      </trkpt>
      <trkpt lat="50.68691" lon="3.39808">
        <ele>39.145943</ele>
        <time>2018-02-06T13:21:01Z</time>
      </trkpt>
      <trkpt lat="50.68687" lon="3.39818">
        <ele>39.423458</ele>
        <time>2018-02-06T13:21:03Z</time>
      </trkpt>
      <trkpt lat="50.68683" lon="3.3983">
        <ele>39.520412</ele>
        <time>2018-02-06T13:21:05Z</time>
      </trkpt>
      <trkpt lat="50.6868" lon="3.39842">
        <ele>39.807808</ele>
        <time>2018-02-06T13:21:07Z</time>
      </trkpt>
      <trkpt lat="50.68678" lon="3.39855">
        <ele>40.022148</ele>
        <time>2018-02-06T13:21:09Z</time>
      </trkpt>
      <trkpt lat="50.68675" lon="3.39869">
        <ele>40.294144</ele>
        <time>2018-02-06T13:21:11Z</time>
      </trkpt>
      <trkpt lat="50.68674" lon="3.39883">
        <ele>40.457058</ele>
        <time>2018-02-06T13:21:13Z</time>
      </trkpt>
      <trkpt lat="50.68673" lon="3.39898">
        <ele>40.621193</ele>
        <time>2018-02-06T13:21:15Z</time>
      </trkpt>
      <trkpt lat="50.68675" lon="3.39913">
        <ele>40.775368</ele>
        <time>2018-02-06T13:21:17Z</time>
      </trkpt>
      <trkpt lat="50.68679" lon="3.39927">
        <ele>40.863838</ele>
        <time>2018-02-06T13:21:19Z</time>
      </trkpt>
      <trkpt lat="50.68685" lon="3.39938">
        <ele>40.931587</ele>
        <time>2018-02-06T13:21:21Z</time>
      </trkpt>
      <trkpt lat="50.68691" lon="3.39949">
        <ele>40.906807</ele>
        <time>2018-02-06T13:21:23Z</time>
      </trkpt>
      <trkpt lat="50.68697" lon="3.3996">
        <ele>40.886478</ele>
        <time>2018-02-06T13:21:25Z</time>
      </trkpt>
      <trkpt lat="50.68704" lon="3.3997">
        <ele>40.824654</ele>
        <time>2018-02-06T13:21:27Z</time>
      </trkpt>
      <trkpt lat="50.68709" lon="3.39982">
        <ele>40.778038</ele>
        <time>2018-02-06T13:21:29Z</time>
      </trkpt>
      <trkpt lat="50.68715" lon="3.39993">
        <ele>40.66618</ele>
        <time>2018-02-06T13:21:31Z</time>
      </trkpt>
      <trkpt lat="50.68721" lon="3.40005">
        <ele>40.559177</ele>
        <time>2018-02-06T13:21:33Z</time>
      </trkpt>
      <trkpt lat="50.68728" lon="3.40017">
        <ele>40.451981</ele>
        <time>2018-02-06T13:21:35Z</time>
      </trkpt>
      <trkpt lat="50.68734" lon="3.40028">
        <ele>40.30751</ele>
        <time>2018-02-06T13:21:37Z</time>
      </trkpt>
      <trkpt lat="50.6874" lon="3.40039">
        <ele>40.097702</ele>
        <time>2018-02-06T13:21:39Z</time>
      </trkpt>
      <trkpt lat="50.68746" lon="3.4005">
        <ele>39.980598</ele>
        <time>2018-02-06T13:21:41Z</time>
      </trkpt>
      <trkpt lat="50.68752" lon="3.40061">
        <ele>39.799408</ele>
        <time>2018-02-06T13:21:43Z</time>
      </trkpt>
      <trkpt lat="50.68759" lon="3.40073">
        <ele>39.592075</ele>
        <time>2018-02-06T13:21:45Z</time>
      </trkpt>
      <trkpt lat="50.68765" lon="3.40085">
        <ele>39.401905</ele>
        <time>2018-02-06T13:21:47Z</time>
      </trkpt>
      <trkpt lat="50.68772" lon="3.40098">
        <ele>39.152832</ele>
        <time>2018-02-06T13:21:49Z</time>
      </trkpt>
      <trkpt lat="50.68779" lon="3.40112">
        <ele>38.919044</ele>
        <time>2018-02-06T13:21:51Z</time>
      </trkpt>
      <trkpt lat="50.68786" lon="3.40126">
        <ele>38.69416</ele>
        <time>2018-02-06T13:21:53Z</time>
      </trkpt>
      <trkpt lat="50.68792" lon="3.40141">
        <ele>38.398365</ele>
        <time>2018-02-06T13:21:55Z</time>
      </trkpt>
      <trkpt lat="50.68798" lon="3.40156">
        <ele>38.154438</ele>
        <time>2018-02-06T13:21:57Z</time>
      </trkpt>
      <trkpt lat="50.68805" lon="3.4017">
        <ele>37.814178</ele>
        <time>2018-02-06T13:21:59Z</time>
      </trkpt>
      <trkpt lat="50.68811" lon="3.40185">
        <ele>37.566673</ele>
        <time>2018-02-06T13:22:01Z</time>
      </trkpt>
      <trkpt lat="50.68818" lon="3.402">
        <ele>37.316467</ele>
        <time>2018-02-06T13:22:03Z</time>
      </trkpt>
      <trkpt lat="50.68825" lon="3.40215">
        <ele>37.074532</ele>
        <time>2018-02-06T13:22:05Z</time>
      </trkpt>
      <trkpt lat="50.68832" lon="3.40231">
        <ele>36.941139</ele>
        <time>2018-02-06T13:22:07Z</time>
      </trkpt>
      <trkpt lat="50.68839" lon="3.40246">
        <ele>36.73933</ele>
        <time>2018-02-06T13:22:09Z</time>
      </trkpt>
      <trkpt lat="50.68847" lon="3.40261">
        <ele>36.54496</ele>
        <time>2018-02-06T13:22:11Z</time>
      </trkpt>
      <trkpt lat="50.68853" lon="3.40276">
        <ele>36.371422</ele>
        <time>2018-02-06T13:22:13Z</time>
      </trkpt>
      <trkpt lat="50.6886" lon="3.40292">
        <ele>36.117737</ele>
        <time>2018-02-06T13:22:15Z</time>
      </trkpt>
      <trkpt lat="50.68867" lon="3.40307">
        <ele>35.968636</ele>
        <time>2018-02-06T13:22:17Z</time>
      </trkpt>
      <trkpt lat="50.68874" lon="3.40322">
        <ele>35.822517</ele>
        <time>2018-02-06T13:22:19Z</time>
      </trkpt>
      <trkpt lat="50.68881" lon="3.40336">
        <ele>35.725605</ele>
        <time>2018-02-06T13:22:21Z</time>
      </trkpt>
      <trkpt lat="50.68887" lon="3.40351">
        <ele>35.554207</ele>
        <time>2018-02-06T13:22:23Z</time>
      </trkpt>
      <trkpt lat="50.68894" lon="3.40366">
        <ele>35.350975</ele>
        <time>2018-02-06T13:22:25Z</time>
      </trkpt>
      <trkpt lat="50.689" lon="3.40381">
        <ele>35.199188</ele>
        <time>2018-02-06T13:22:27Z</time>
      </trkpt>
      <trkpt lat="50.68906" lon="3.40396">
        <ele>35.046288</ele>
        <time>2018-02-06T13:22:29Z</time>
      </trkpt>
      <trkpt lat="50.68913" lon="3.40412">
        <ele>34.909782</ele>
        <time>2018-02-06T13:22:31Z</time>
      </trkpt>
      <trkpt lat="50.68919" lon="3.40427">
        <ele>34.752193</ele>
        <time>2018-02-06T13:22:33Z</time>
      </trkpt>
      <trkpt lat="50.68924" lon="3.40442">
        <ele>34.580669</ele>
        <time>2018-02-06T13:22:35Z</time>
      </trkpt>
      <trkpt lat="50.68931" lon="3.40458">
        <ele>34.390289</ele>
        <time>2018-02-06T13:22:37Z</time>
      </trkpt>
      <trkpt lat="50.68937" lon="3.40473">
        <ele>34.288239</ele>
        <time>2018-02-06T13:22:39Z</time>
      </trkpt>
      <trkpt lat="50.68943" lon="3.40489">
        <ele>34.14246</ele>
        <time>2018-02-06T13:22:41Z</time>
      </trkpt>
      <trkpt lat="50.6895" lon="3.40505">
        <ele>33.996311</ele>
        <time>2018-02-06T13:22:43Z</time>
      </trkpt>
      <trkpt lat="50.68956" lon="3.40521">
        <ele>33.897072</ele>
        <time>2018-02-06T13:22:45Z</time>
      </trkpt>
      <trkpt lat="50.68963" lon="3.40539">
        <ele>33.770256</ele>
        <time>2018-02-06T13:22:47Z</time>
      </trkpt>
      <trkpt lat="50.68969" lon="3.40555">
        <ele>33.617195</ele>
        <time>2018-02-06T13:22:49Z</time>
      </trkpt>
      <trkpt lat="50.68976" lon="3.40571">
        <ele>33.544899</ele>
        <time>2018-02-06T13:22:51Z</time>
      </trkpt>
      <trkpt lat="50.68982" lon="3.40588">
        <ele>33.354881</ele>
        <time>2018-02-06T13:22:53Z</time>
      </trkpt>
      <trkpt lat="50.68988" lon="3.40603">
        <ele>33.235909</ele>
        <time>2018-02-06T13:22:55Z</time>
      </trkpt>
      <trkpt lat="50.68993" lon="3.40619">
        <ele>33.065472</ele>
        <time>2018-02-06T13:22:57Z</time>
      </trkpt>
      <trkpt lat="50.69" lon="3.40634">
        <ele>32.9137</ele>
        <time>2018-02-06T13:22:59Z</time>
      </trkpt>
      <trkpt lat="50.69005" lon="3.40649">
        <ele>32.741772</ele>
        <time>2018-02-06T13:23:01Z</time>
      </trkpt>
      <trkpt lat="50.69011" lon="3.40664">
        <ele>32.635506</ele>
        <time>2018-02-06T13:23:03Z</time>
      </trkpt>
      <trkpt lat="50.69017" lon="3.40678">
        <ele>32.524071</ele>
        <time>2018-02-06T13:23:05Z</time>
      </trkpt>
      <trkpt lat="50.69022" lon="3.40692">
        <ele>32.403576</ele>
        <time>2018-02-06T13:23:07Z</time>
      </trkpt>
      <trkpt lat="50.69028" lon="3.40707">
        <ele>32.219421</ele>
        <time>2018-02-06T13:23:09Z</time>
      </trkpt>
      <trkpt lat="50.69034" lon="3.40721">
        <ele>32.114895</ele>
        <time>2018-02-06T13:23:11Z</time>
      </trkpt>
      <trkpt lat="50.69039" lon="3.40736">
        <ele>32.012707</ele>
        <time>2018-02-06T13:23:13Z</time>
      </trkpt>
      <trkpt lat="50.69045" lon="3.40751">
        <ele>31.932699</ele>
        <time>2018-02-06T13:23:15Z</time>
      </trkpt>
      <trkpt lat="50.6905" lon="3.40765">
        <ele>31.854706</ele>
        <time>2018-02-06T13:23:17Z</time>
      </trkpt>
      <trkpt lat="50.69056" lon="3.40779">
        <ele>31.785669</ele>
        <time>2018-02-06T13:23:19Z</time>
      </trkpt>
      <trkpt lat="50.69061" lon="3.40792">
        <ele>31.730366</ele>
        <time>2018-02-06T13:23:21Z</time>
      </trkpt>
      <trkpt lat="50.69066" lon="3.40806">
        <ele>31.727879</ele>
        <time>2018-02-06T13:23:23Z</time>
      </trkpt>
      <trkpt lat="50.69072" lon="3.40819">
        <ele>31.669306</ele>
        <time>2018-02-06T13:23:25Z</time>
      </trkpt>
      <trkpt lat="50.69077" lon="3.40832">
        <ele>31.62756</ele>
        <time>2018-02-06T13:23:27Z</time>
      </trkpt>
      <trkpt lat="50.69082" lon="3.40845">
        <ele>31.614819</ele>
        <time>2018-02-06T13:23:29Z</time>
      </trkpt>
      <trkpt lat="50.69087" lon="3.40858">
        <ele>31.596912</ele>
        <time>2018-02-06T13:23:31Z</time>
      </trkpt>
      <trkpt lat="50.69092" lon="3.40872">
        <ele>31.532984</ele>
        <time>2018-02-06T13:23:33Z</time>
      </trkpt>
      <trkpt lat="50.69098" lon="3.40886">
        <ele>31.493443</ele>
        <time>2018-02-06T13:23:35Z</time>
      </trkpt>
      <trkpt lat="50.69103" lon="3.40899">
        <ele>31.516758</ele>
        <time>2018-02-06T13:23:37Z</time>
      </trkpt>
      <trkpt lat="50.69108" lon="3.40911">
        <ele>31.502314</ele>
        <time>2018-02-06T13:23:39Z</time>
      </trkpt>
      <trkpt lat="50.69112" lon="3.40923">
        <ele>31.492229</ele>
        <time>2018-02-06T13:23:41Z</time>
      </trkpt>
      <trkpt lat="50.69117" lon="3.40935">
        <ele>31.499044</ele>
        <time>2018-02-06T13:23:43Z</time>
      </trkpt>
      <trkpt lat="50.69122" lon="3.40947">
        <ele>31.451197</ele>
        <time>2018-02-06T13:23:45Z</time>
      </trkpt>
      <trkpt lat="50.69127" lon="3.40959">
        <ele>31.429932</ele>
        <time>2018-02-06T13:23:47Z</time>
      </trkpt>
      <trkpt lat="50.69132" lon="3.40973">
        <ele>31.44096</ele>
        <time>2018-02-06T13:23:49Z</time>
      </trkpt>
      <trkpt lat="50.69138" lon="3.40987">
        <ele>31.416195</ele>
        <time>2018-02-06T13:23:51Z</time>
      </trkpt>
      <trkpt lat="50.69143" lon="3.41001">
        <ele>31.368973</ele>
        <time>2018-02-06T13:23:53Z</time>
      </trkpt>
      <trkpt lat="50.69149" lon="3.41015">
        <ele>31.330118</ele>
        <time>2018-02-06T13:23:55Z</time>
      </trkpt>
      <trkpt lat="50.69154" lon="3.41028">
        <ele>31.336258</ele>
        <time>2018-02-06T13:23:57Z</time>
      </trkpt>
      <trkpt lat="50.6916" lon="3.41041">
        <ele>31.342373</ele>
        <time>2018-02-06T13:23:59Z</time>
      </trkpt>
      <trkpt lat="50.69165" lon="3.41054">
        <ele>31.301453</ele>
        <time>2018-02-06T13:24:01Z</time>
      </trkpt>
      <trkpt lat="50.69171" lon="3.41067">
        <ele>31.206623</ele>
        <time>2018-02-06T13:24:03Z</time>
      </trkpt>
      <trkpt lat="50.69177" lon="3.41081">
        <ele>31.13184</ele>
        <time>2018-02-06T13:24:05Z</time>
      </trkpt>
      <trkpt lat="50.69182" lon="3.41094">
        <ele>31.096003</ele>
        <time>2018-02-06T13:24:07Z</time>
      </trkpt>
      <trkpt lat="50.69188" lon="3.41107">
        <ele>31.087643</ele>
        <time>2018-02-06T13:24:09Z</time>
      </trkpt>
      <trkpt lat="50.69193" lon="3.4112">
        <ele>31.045666</ele>
        <time>2018-02-06T13:24:11Z</time>
      </trkpt>
      <trkpt lat="50.69199" lon="3.41133">
        <ele>31.028473</ele>
        <time>2018-02-06T13:24:13Z</time>
      </trkpt>
      <trkpt lat="50.69204" lon="3.41146">
        <ele>31.057089</ele>
        <time>2018-02-06T13:24:15Z</time>
      </trkpt>
      <trkpt lat="50.6921" lon="3.41159">
        <ele>31.010075</ele>
        <time>2018-02-06T13:24:17Z</time>
      </trkpt>
      <trkpt lat="50.69216" lon="3.41172">
        <ele>31.012411</ele>
        <time>2018-02-06T13:24:19Z</time>
      </trkpt>
      <trkpt lat="50.69221" lon="3.41186">
        <ele>30.914089</ele>
        <time>2018-02-06T13:24:21Z</time>
      </trkpt>
      <trkpt lat="50.69227" lon="3.412">
        <ele>30.845865</ele>
        <time>2018-02-06T13:24:23Z</time>
      </trkpt>
      <trkpt lat="50.69232" lon="3.41214">
        <ele>30.802368</ele>
        <time>2018-02-06T13:24:25Z</time>
      </trkpt>
      <trkpt lat="50.69238" lon="3.41228">
        <ele>30.736771</ele>
        <time>2018-02-06T13:24:27Z</time>
      </trkpt>
      <trkpt lat="50.69243" lon="3.41241">
        <ele>30.705622</ele>
        <time>2018-02-06T13:24:29Z</time>
      </trkpt>
      <trkpt lat="50.69249" lon="3.41254">
        <ele>30.630402</ele>
        <time>2018-02-06T13:24:31Z</time>
      </trkpt>
      <trkpt lat="50.69254" lon="3.41267">
        <ele>30.618093</ele>
        <time>2018-02-06T13:24:33Z</time>
      </trkpt>
      <trkpt lat="50.6926" lon="3.41279">
        <ele>30.586782</ele>
        <time>2018-02-06T13:24:35Z</time>
      </trkpt>
      <trkpt lat="50.69266" lon="3.41291">
        <ele>30.567114</ele>
        <time>2018-02-06T13:24:37Z</time>
      </trkpt>
      <trkpt lat="50.69273" lon="3.41302">
        <ele>30.527863</ele>
        <time>2018-02-06T13:24:39Z</time>
      </trkpt>
      <trkpt lat="50.6928" lon="3.41313">
        <ele>30.536463</ele>
        <time>2018-02-06T13:24:41Z</time>
      </trkpt>
      <trkpt lat="50.69287" lon="3.41323">
        <ele>30.560978</ele>
        <time>2018-02-06T13:24:43Z</time>
      </trkpt>
      <trkpt lat="50.69294" lon="3.41333">
        <ele>30.566229</ele>
        <time>2018-02-06T13:24:45Z</time>
      </trkpt>
      <trkpt lat="50.69301" lon="3.41342">
        <ele>30.530737</ele>
        <time>2018-02-06T13:24:47Z</time>
      </trkpt>
      <trkpt lat="50.69309" lon="3.41352">
        <ele>30.515738</ele>
        <time>2018-02-06T13:24:49Z</time>
      </trkpt>
      <trkpt lat="50.69315" lon="3.41362">
        <ele>30.478903</ele>
        <time>2018-02-06T13:24:51Z</time>
      </trkpt>
      <trkpt lat="50.6932" lon="3.41371">
        <ele>30.475958</ele>
        <time>2018-02-06T13:24:53Z</time>
      </trkpt>
      <trkpt lat="50.69326" lon="3.4138">
        <ele>30.471554</ele>
        <time>2018-02-06T13:24:55Z</time>
      </trkpt>
      <trkpt lat="50.69331" lon="3.4139">
        <ele>30.462183</ele>
        <time>2018-02-06T13:24:57Z</time>
      </trkpt>
      <trkpt lat="50.69336" lon="3.41402">
        <ele>30.434244</ele>
        <time>2018-02-06T13:24:59Z</time>
      </trkpt>
      <trkpt lat="50.6934" lon="3.41414">
        <ele>30.427639</ele>
        <time>2018-02-06T13:25:01Z</time>
      </trkpt>
      <trkpt lat="50.69345" lon="3.41427">
        <ele>30.43252</ele>
        <time>2018-02-06T13:25:03Z</time>
      </trkpt>
      <trkpt lat="50.69349" lon="3.41439">
        <ele>30.422043</ele>
        <time>2018-02-06T13:25:05Z</time>
      </trkpt>
      <trkpt lat="50.69353" lon="3.41451">
        <ele>30.407909</ele>
        <time>2018-02-06T13:25:07Z</time>
      </trkpt>
      <trkpt lat="50.69358" lon="3.41463">
        <ele>30.410015</ele>
        <time>2018-02-06T13:25:09Z</time>
      </trkpt>
      <trkpt lat="50.69363" lon="3.41473">
        <ele>30.440922</ele>
        <time>2018-02-06T13:25:11Z</time>
      </trkpt>
      <trkpt lat="50.69368" lon="3.41483">
        <ele>30.441687</ele>
        <time>2018-02-06T13:25:13Z</time>
      </trkpt>
      <trkpt lat="50.69374" lon="3.41493">
        <ele>30.464605</ele>
        <time>2018-02-06T13:25:15Z</time>
      </trkpt>
      <trkpt lat="50.6938" lon="3.41503">
        <ele>30.511814</ele>
        <time>2018-02-06T13:25:17Z</time>
      </trkpt>
      <trkpt lat="50.69385" lon="3.41513">
        <ele>30.500942</ele>
        <time>2018-02-06T13:25:19Z</time>
      </trkpt>
      <trkpt lat="50.69391" lon="3.41522">
        <ele>30.501682</ele>
        <time>2018-02-06T13:25:21Z</time>
      </trkpt>
      <trkpt lat="50.69396" lon="3.41532">
        <ele>30.484634</ele>
        <time>2018-02-06T13:25:23Z</time>
      </trkpt>
      <trkpt lat="50.69402" lon="3.41542">
        <ele>30.472132</ele>
        <time>2018-02-06T13:25:25Z</time>
      </trkpt>
      <trkpt lat="50.69408" lon="3.41552">
        <ele>30.490986</ele>
        <time>2018-02-06T13:25:27Z</time>
      </trkpt>
      <trkpt lat="50.69414" lon="3.41562">
        <ele>30.540958</ele>
        <time>2018-02-06T13:25:29Z</time>
      </trkpt>
      <trkpt lat="50.6942" lon="3.41572">
        <ele>30.528324</ele>
        <time>2018-02-06T13:25:31Z</time>
      </trkpt>
      <trkpt lat="50.69426" lon="3.41582">
        <ele>30.491795</ele>
        <time>2018-02-06T13:25:33Z</time>
      </trkpt>
      <trkpt lat="50.69432" lon="3.41593">
        <ele>30.449747</ele>
        <time>2018-02-06T13:25:35Z</time>
      </trkpt>
      <trkpt lat="50.69439" lon="3.41603">
        <ele>30.431187</ele>
        <time>2018-02-06T13:25:37Z</time>
      </trkpt>
      <trkpt lat="50.69445" lon="3.41613">
        <ele>30.417002</ele>
        <time>2018-02-06T13:25:39Z</time>
      </trkpt>
      <trkpt lat="50.69451" lon="3.41623">
        <ele>30.411825</ele>
        <time>2018-02-06T13:25:41Z</time>
      </trkpt>
      <trkpt lat="50.69457" lon="3.41633">
        <ele>30.394861</ele>
        <time>2018-02-06T13:25:43Z</time>
      </trkpt>
      <trkpt lat="50.69463" lon="3.41642">
        <ele>30.361012</ele>
        <time>2018-02-06T13:25:45Z</time>
      </trkpt>
      <trkpt lat="50.6947" lon="3.41651">
        <ele>30.35499</ele>
        <time>2018-02-06T13:25:47Z</time>
      </trkpt>
      <trkpt lat="50.69476" lon="3.4166">
        <ele>30.367889</ele>
        <time>2018-02-06T13:25:49Z</time>
      </trkpt>
      <trkpt lat="50.69483" lon="3.41668">
        <ele>30.386547</ele>
        <time>2018-02-06T13:25:51Z</time>
      </trkpt>
      <trkpt lat="50.6949" lon="3.41676">
        <ele>30.379696</ele>
        <time>2018-02-06T13:25:53Z</time>
      </trkpt>
      <trkpt lat="50.69497" lon="3.41684">
        <ele>30.35397</ele>
        <time>2018-02-06T13:25:55Z</time>
      </trkpt>
      <trkpt lat="50.69503" lon="3.41693">
        <ele>30.335169</ele>
        <time>2018-02-06T13:25:57Z</time>
      </trkpt>
      <trkpt lat="50.6951" lon="3.41701">
        <ele>30.324396</ele>
        <time>2018-02-06T13:25:59Z</time>
      </trkpt>
      <trkpt lat="50.69516" lon="3.41709">
        <ele>30.323257</ele>
        <time>2018-02-06T13:26:01Z</time>
      </trkpt>
      <trkpt lat="50.69523" lon="3.41717">
        <ele>30.300842</ele>
        <time>2018-02-06T13:26:03Z</time>
      </trkpt>
      <trkpt lat="50.69529" lon="3.41725">
        <ele>30.26836</ele>
        <time>2018-02-06T13:26:05Z</time>
      </trkpt>
      <trkpt lat="50.69536" lon="3.41733">
        <ele>30.278116</ele>
        <time>2018-02-06T13:26:07Z</time>
      </trkpt>
      <trkpt lat="50.69542" lon="3.41741">
        <ele>30.272879</ele>
        <time>2018-02-06T13:26:09Z</time>
      </trkpt>
      <trkpt lat="50.69549" lon="3.41749">
        <ele>30.214853</ele>
        <time>2018-02-06T13:26:11Z</time>
      </trkpt>
      <trkpt lat="50.69556" lon="3.41758">
        <ele>30.230679</ele>
        <time>2018-02-06T13:26:13Z</time>
      </trkpt>
      <trkpt lat="50.69563" lon="3.41766">
        <ele>30.283545</ele>
        <time>2018-02-06T13:26:15Z</time>
      </trkpt>
      <trkpt lat="50.6957" lon="3.41775">
        <ele>30.274851</ele>
        <time>2018-02-06T13:26:17Z</time>
      </trkpt>
      <trkpt lat="50.69577" lon="3.41783">
        <ele>30.341152</ele>
        <time>2018-02-06T13:26:19Z</time>
      </trkpt>
      <trkpt lat="50.69584" lon="3.41792">
        <ele>30.338306</ele>
        <time>2018-02-06T13:26:21Z</time>
      </trkpt>
      <trkpt lat="50.6959" lon="3.41802">
        <ele>30.34724</ele>
        <time>2018-02-06T13:26:23Z</time>
      </trkpt>
      <trkpt lat="50.69597" lon="3.41811">
        <ele>30.377529</ele>
        <time>2018-02-06T13:26:25Z</time>
      </trkpt>
      <trkpt lat="50.69603" lon="3.41821">
        <ele>30.471731</ele>
        <time>2018-02-06T13:26:27Z</time>
      </trkpt>
      <trkpt lat="50.69608" lon="3.41831">
        <ele>30.516026</ele>
        <time>2018-02-06T13:26:29Z</time>
      </trkpt>
      <trkpt lat="50.69614" lon="3.41841">
        <ele>30.497082</ele>
        <time>2018-02-06T13:26:31Z</time>
      </trkpt>
      <trkpt lat="50.6962" lon="3.4185">
        <ele>30.623617</ele>
        <time>2018-02-06T13:26:33Z</time>
      </trkpt>
      <trkpt lat="50.69626" lon="3.41858">
        <ele>30.740627</ele>
        <time>2018-02-06T13:26:35Z</time>
      </trkpt>
      <trkpt lat="50.6963" lon="3.41867">
        <ele>30.898258</ele>
        <time>2018-02-06T13:26:37Z</time>
      </trkpt>
      <trkpt lat="50.69636" lon="3.41876">
        <ele>30.982349</ele>
        <time>2018-02-06T13:26:39Z</time>
      </trkpt>
      <trkpt lat="50.69642" lon="3.41884">
        <ele>31.087231</ele>
        <time>2018-02-06T13:26:41Z</time>
      </trkpt>
      <trkpt lat="50.69647" lon="3.41893">
        <ele>31.191235</ele>
        <time>2018-02-06T13:26:43Z</time>
      </trkpt>
      <trkpt lat="50.69652" lon="3.41902">
        <ele>31.354807</ele>
        <time>2018-02-06T13:26:45Z</time>
      </trkpt>
      <trkpt lat="50.69658" lon="3.4191">
        <ele>31.513147</ele>
        <time>2018-02-06T13:26:47Z</time>
      </trkpt>
      <trkpt lat="50.69663" lon="3.41919">
        <ele>31.647104</ele>
        <time>2018-02-06T13:26:49Z</time>
      </trkpt>
      <trkpt lat="50.69668" lon="3.41928">
        <ele>31.840754</ele>
        <time>2018-02-06T13:26:51Z</time>
      </trkpt>
      <trkpt lat="50.69673" lon="3.41937">
        <ele>32.000332</ele>
        <time>2018-02-06T13:26:53Z</time>
      </trkpt>
      <trkpt lat="50.69679" lon="3.41945">
        <ele>32.062447</ele>
        <time>2018-02-06T13:26:55Z</time>
      </trkpt>
      <trkpt lat="50.69685" lon="3.41954">
        <ele>32.223602</ele>
        <time>2018-02-06T13:26:57Z</time>
      </trkpt>
      <trkpt lat="50.69689" lon="3.41963">
        <ele>32.416908</ele>
        <time>2018-02-06T13:26:59Z</time>
      </trkpt>
      <trkpt lat="50.69695" lon="3.41972">
        <ele>32.503906</ele>
        <time>2018-02-06T13:27:01Z</time>
      </trkpt>
      <trkpt lat="50.697" lon="3.41981">
        <ele>32.669071</ele>
        <time>2018-02-06T13:27:03Z</time>
      </trkpt>
      <trkpt lat="50.69705" lon="3.4199">
        <ele>32.885368</ele>
        <time>2018-02-06T13:27:05Z</time>
      </trkpt>
      <trkpt lat="50.6971" lon="3.41999">
        <ele>33.161263</ele>
        <time>2018-02-06T13:27:07Z</time>
      </trkpt>
      <trkpt lat="50.69715" lon="3.42009">
        <ele>33.34922</ele>
        <time>2018-02-06T13:27:09Z</time>
      </trkpt>
      <trkpt lat="50.6972" lon="3.42018">
        <ele>33.559612</ele>
        <time>2018-02-06T13:27:11Z</time>
      </trkpt>
      <trkpt lat="50.69725" lon="3.42027">
        <ele>33.785954</ele>
        <time>2018-02-06T13:27:13Z</time>
      </trkpt>
      <trkpt lat="50.69731" lon="3.42035">
        <ele>33.963223</ele>
        <time>2018-02-06T13:27:15Z</time>
      </trkpt>
      <trkpt lat="50.69737" lon="3.42044">
        <ele>34.159023</ele>
        <time>2018-02-06T13:27:17Z</time>
      </trkpt>
      <trkpt lat="50.69742" lon="3.42052">
        <ele>34.42337</ele>
        <time>2018-02-06T13:27:19Z</time>
      </trkpt>
      <trkpt lat="50.69747" lon="3.4206">
        <ele>34.690422</ele>
        <time>2018-02-06T13:27:21Z</time>
      </trkpt>
      <trkpt lat="50.69751" lon="3.42069">
        <ele>35.011208</ele>
        <time>2018-02-06T13:27:23Z</time>
      </trkpt>
      <trkpt lat="50.69756" lon="3.42079">
        <ele>35.286354</ele>
        <time>2018-02-06T13:27:25Z</time>
      </trkpt>
      <trkpt lat="50.69761" lon="3.4209">
        <ele>35.577042</ele>
        <time>2018-02-06T13:27:27Z</time>
      </trkpt>
      <trkpt lat="50.69764" lon="3.421">
        <ele>35.724724</ele>
        <time>2018-02-06T13:27:29Z</time>
      </trkpt>
      <trkpt lat="50.69767" lon="3.42109">
        <ele>36.055656</ele>
        <time>2018-02-06T13:27:31Z</time>
      </trkpt>
      <trkpt lat="50.69771" lon="3.42118">
        <ele>36.335701</ele>
        <time>2018-02-06T13:27:33Z</time>
      </trkpt>
      <trkpt lat="50.69777" lon="3.42126">
        <ele>36.620316</ele>
        <time>2018-02-06T13:27:35Z</time>
      </trkpt>
      <trkpt lat="50.69783" lon="3.42134">
        <ele>36.963764</ele>
        <time>2018-02-06T13:27:37Z</time>
      </trkpt>
      <trkpt lat="50.69788" lon="3.42142">
        <ele>37.263943</ele>
        <time>2018-02-06T13:27:39Z</time>
      </trkpt>
      <trkpt lat="50.69792" lon="3.42149">
        <ele>37.564445</ele>
        <time>2018-02-06T13:27:41Z</time>
      </trkpt>
      <trkpt lat="50.69797" lon="3.42156">
        <ele>37.86837</ele>
        <time>2018-02-06T13:27:43Z</time>
      </trkpt>
      <trkpt lat="50.69801" lon="3.42162">
        <ele>38.183594</ele>
        <time>2018-02-06T13:27:45Z</time>
      </trkpt>
      <trkpt lat="50.69806" lon="3.4217">
        <ele>38.394772</ele>
        <time>2018-02-06T13:27:47Z</time>
      </trkpt>
      <trkpt lat="50.69807" lon="3.42179">
        <ele>38.647358</ele>
        <time>2018-02-06T13:27:49Z</time>
      </trkpt>
      <trkpt lat="50.69803" lon="3.4219">
        <ele>38.890652</ele>
        <time>2018-02-06T13:27:51Z</time>
      </trkpt>
      <trkpt lat="50.69799" lon="3.422">
        <ele>39.068947</ele>
        <time>2018-02-06T13:27:53Z</time>
      </trkpt>
      <trkpt lat="50.69794" lon="3.4221">
        <ele>39.289764</ele>
        <time>2018-02-06T13:27:55Z</time>
      </trkpt>
      <trkpt lat="50.69788" lon="3.4222">
        <ele>39.457108</ele>
        <time>2018-02-06T13:27:57Z</time>
      </trkpt>
      <trkpt lat="50.69783" lon="3.42232">
        <ele>39.599079</ele>
        <time>2018-02-06T13:27:59Z</time>
      </trkpt>
      <trkpt lat="50.69777" lon="3.42244">
        <ele>39.667015</ele>
        <time>2018-02-06T13:28:01Z</time>
      </trkpt>
      <trkpt lat="50.69771" lon="3.42256">
        <ele>39.672874</ele>
        <time>2018-02-06T13:28:03Z</time>
      </trkpt>
      <trkpt lat="50.69766" lon="3.42267">
        <ele>39.729885</ele>
        <time>2018-02-06T13:28:05Z</time>
      </trkpt>
      <trkpt lat="50.69761" lon="3.42279">
        <ele>39.708214</ele>
        <time>2018-02-06T13:28:07Z</time>
      </trkpt>
      <trkpt lat="50.69757" lon="3.42289">
        <ele>39.684448</ele>
        <time>2018-02-06T13:28:09Z</time>
      </trkpt>
      <trkpt lat="50.69754" lon="3.423">
        <ele>39.61517</ele>
        <time>2018-02-06T13:28:11Z</time>
      </trkpt>
      <trkpt lat="50.6975" lon="3.42311">
        <ele>39.580738</ele>
        <time>2018-02-06T13:28:13Z</time>
      </trkpt>
      <trkpt lat="50.69747" lon="3.42321">
        <ele>39.480598</ele>
        <time>2018-02-06T13:28:15Z</time>
      </trkpt>
      <trkpt lat="50.69745" lon="3.42332">
        <ele>39.414284</ele>
        <time>2018-02-06T13:28:17Z</time>
      </trkpt>
      <trkpt lat="50.69741" lon="3.42344">
        <ele>39.337265</ele>
        <time>2018-02-06T13:28:19Z</time>
      </trkpt>
      <trkpt lat="50.69737" lon="3.42355">
        <ele>39.214714</ele>
        <time>2018-02-06T13:28:21Z</time>
      </trkpt>
      <trkpt lat="50.69732" lon="3.42367">
        <ele>39.032551</ele>
        <time>2018-02-06T13:28:23Z</time>
      </trkpt>
      <trkpt lat="50.69727" lon="3.4238">
        <ele>38.809597</ele>
        <time>2018-02-06T13:28:25Z</time>
      </trkpt>
      <trkpt lat="50.69721" lon="3.42394">
        <ele>38.639202</ele>
        <time>2018-02-06T13:28:27Z</time>
      </trkpt>
      <trkpt lat="50.69716" lon="3.42407">
        <ele>38.418884</ele>
        <time>2018-02-06T13:28:29Z</time>
      </trkpt>
      <trkpt lat="50.6971" lon="3.42421">
        <ele>38.113728</ele>
        <time>2018-02-06T13:28:31Z</time>
      </trkpt>
      <trkpt lat="50.69704" lon="3.42435">
        <ele>37.85688</ele>
        <time>2018-02-06T13:28:33Z</time>
      </trkpt>
      <trkpt lat="50.69698" lon="3.42451">
        <ele>37.728615</ele>
        <time>2018-02-06T13:28:35Z</time>
      </trkpt>
      <trkpt lat="50.69691" lon="3.42466">
        <ele>37.423927</ele>
        <time>2018-02-06T13:28:37Z</time>
      </trkpt>
      <trkpt lat="50.69684" lon="3.42482">
        <ele>37.013939</ele>
        <time>2018-02-06T13:28:39Z</time>
      </trkpt>
      <trkpt lat="50.69676" lon="3.425">
        <ele>36.627235</ele>
        <time>2018-02-06T13:28:41Z</time>
      </trkpt>
      <trkpt lat="50.69668" lon="3.42518">
        <ele>36.156414</ele>
        <time>2018-02-06T13:28:43Z</time>
      </trkpt>
      <trkpt lat="50.69659" lon="3.42535">
        <ele>35.758526</ele>
        <time>2018-02-06T13:28:45Z</time>
      </trkpt>
      <trkpt lat="50.69651" lon="3.42552">
        <ele>35.33036</ele>
        <time>2018-02-06T13:28:47Z</time>
      </trkpt>
      <trkpt lat="50.69643" lon="3.4257">
        <ele>34.83033</ele>
        <time>2018-02-06T13:28:49Z</time>
      </trkpt>
      <trkpt lat="50.69634" lon="3.42588">
        <ele>34.330681</ele>
        <time>2018-02-06T13:28:51Z</time>
      </trkpt>
      <trkpt lat="50.69623" lon="3.42605">
        <ele>33.700775</ele>
        <time>2018-02-06T13:28:53Z</time>
      </trkpt>
      <trkpt lat="50.69613" lon="3.42623">
        <ele>33.107765</ele>
        <time>2018-02-06T13:28:55Z</time>
      </trkpt>
      <trkpt lat="50.69603" lon="3.42641">
        <ele>32.817993</ele>
        <time>2018-02-06T13:28:57Z</time>
      </trkpt>
      <trkpt lat="50.69593" lon="3.42659">
        <ele>32.206097</ele>
        <time>2018-02-06T13:28:59Z</time>
      </trkpt>
      <trkpt lat="50.69583" lon="3.42677">
        <ele>31.586828</ele>
        <time>2018-02-06T13:29:01Z</time>
      </trkpt>
      <trkpt lat="50.69573" lon="3.42695">
        <ele>30.950323</ele>
        <time>2018-02-06T13:29:03Z</time>
      </trkpt>
      <trkpt lat="50.69564" lon="3.42712">
        <ele>30.288538</ele>
        <time>2018-02-06T13:29:05Z</time>
      </trkpt>
      <trkpt lat="50.69557" lon="3.42725">
        <ele>29.687311</ele>
        <time>2018-02-06T13:29:07Z</time>
      </trkpt>
      <trkpt lat="50.6955" lon="3.42736">
        <ele>28.995007</ele>
        <time>2018-02-06T13:29:09Z</time>
      </trkpt>
      <trkpt lat="50.69544" lon="3.42747">
        <ele>28.361324</ele>
        <time>2018-02-06T13:29:11Z</time>
      </trkpt>
      <trkpt lat="50.69539" lon="3.42759">
        <ele>27.752985</ele>
        <time>2018-02-06T13:29:13Z</time>
      </trkpt>
      <trkpt lat="50.69532" lon="3.4277">
        <ele>27.162327</ele>
        <time>2018-02-06T13:29:15Z</time>
      </trkpt>
      <trkpt lat="50.69526" lon="3.42782">
        <ele>26.57373</ele>
        <time>2018-02-06T13:29:17Z</time>
      </trkpt>
      <trkpt lat="50.69519" lon="3.42794">
        <ele>26.082184</ele>
        <time>2018-02-06T13:29:19Z</time>
      </trkpt>
      <trkpt lat="50.69512" lon="3.42807">
        <ele>25.633057</ele>
        <time>2018-02-06T13:29:21Z</time>
      </trkpt>
      <trkpt lat="50.69504" lon="3.4282">
        <ele>25.145407</ele>
        <time>2018-02-06T13:29:23Z</time>
      </trkpt>
      <trkpt lat="50.69496" lon="3.42834">
        <ele>24.618792</ele>
        <time>2018-02-06T13:29:25Z</time>
      </trkpt>
      <trkpt lat="50.69488" lon="3.42848">
        <ele>24.422604</ele>
        <time>2018-02-06T13:29:27Z</time>
      </trkpt>
      <trkpt lat="50.69479" lon="3.42861">
        <ele>23.939623</ele>
        <time>2018-02-06T13:29:29Z</time>
      </trkpt>
      <trkpt lat="50.69468" lon="3.42873">
        <ele>23.517382</ele>
        <time>2018-02-06T13:29:31Z</time>
      </trkpt>
      <trkpt lat="50.69458" lon="3.42885">
        <ele>23.102488</ele>
        <time>2018-02-06T13:29:33Z</time>
      </trkpt>
      <trkpt lat="50.69447" lon="3.42896">
        <ele>22.754902</ele>
        <time>2018-02-06T13:29:35Z</time>
      </trkpt>
      <trkpt lat="50.69437" lon="3.42907">
        <ele>22.454124</ele>
        <time>2018-02-06T13:29:37Z</time>
      </trkpt>
      <trkpt lat="50.69426" lon="3.42919">
        <ele>22.108027</ele>
        <time>2018-02-06T13:29:39Z</time>
      </trkpt>
      <trkpt lat="50.69415" lon="3.4293">
        <ele>21.771429</ele>
        <time>2018-02-06T13:29:41Z</time>
      </trkpt>
      <trkpt lat="50.69404" lon="3.4294">
        <ele>21.473484</ele>
        <time>2018-02-06T13:29:43Z</time>
      </trkpt>
      <trkpt lat="50.69392" lon="3.42948">
        <ele>21.175823</ele>
        <time>2018-02-06T13:29:45Z</time>
      </trkpt>
      <trkpt lat="50.69381" lon="3.42955">
        <ele>20.941078</ele>
        <time>2018-02-06T13:29:47Z</time>
      </trkpt>
      <trkpt lat="50.6937" lon="3.42961">
        <ele>20.697086</ele>
        <time>2018-02-06T13:29:49Z</time>
      </trkpt>
      <trkpt lat="50.69359" lon="3.42967">
        <ele>20.486721</ele>
        <time>2018-02-06T13:29:51Z</time>
      </trkpt>
      <trkpt lat="50.69349" lon="3.42974">
        <ele>20.297022</ele>
        <time>2018-02-06T13:29:53Z</time>
      </trkpt>
      <trkpt lat="50.69339" lon="3.4298">
        <ele>20.071867</ele>
        <time>2018-02-06T13:29:55Z</time>
      </trkpt>
      <trkpt lat="50.69329" lon="3.42986">
        <ele>19.842468</ele>
        <time>2018-02-06T13:29:57Z</time>
      </trkpt>
      <trkpt lat="50.69321" lon="3.42993">
        <ele>19.599838</ele>
        <time>2018-02-06T13:29:59Z</time>
      </trkpt>
      <trkpt lat="50.69312" lon="3.42999">
        <ele>19.476271</ele>
        <time>2018-02-06T13:30:01Z</time>
      </trkpt>
      <trkpt lat="50.69302" lon="3.43005">
        <ele>19.278976</ele>
        <time>2018-02-06T13:30:03Z</time>
      </trkpt>
      <trkpt lat="50.69292" lon="3.43008">
        <ele>19.128824</ele>
        <time>2018-02-06T13:30:05Z</time>
      </trkpt>
      <trkpt lat="50.69282" lon="3.43006">
        <ele>19.071543</ele>
        <time>2018-02-06T13:30:07Z</time>
      </trkpt>
      <trkpt lat="50.69274" lon="3.43002">
        <ele>18.963787</ele>
        <time>2018-02-06T13:30:09Z</time>
      </trkpt>
      <trkpt lat="50.69267" lon="3.42999">
        <ele>18.868498</ele>
        <time>2018-02-06T13:30:11Z</time>
      </trkpt>
      <trkpt lat="50.69263" lon="3.42994">
        <ele>18.766409</ele>
        <time>2018-02-06T13:30:13Z</time>
      </trkpt>
      <trkpt lat="50.69259" lon="3.42989">
        <ele>18.752941</ele>
        <time>2018-02-06T13:30:15Z</time>
      </trkpt>
      <trkpt lat="50.6926" lon="3.42981">
        <ele>18.664433</ele>
        <time>2018-02-06T13:30:17Z</time>
      </trkpt>
      <trkpt lat="50.69258" lon="3.42975">
        <ele>22.512161</ele>
        <time>2018-02-06T13:36:33Z</time>
      </trkpt>
      <trkpt lat="50.69255" lon="3.42968">
        <ele>22.621975</ele>
        <time>2018-02-06T13:36:35Z</time>
      </trkpt>
      <trkpt lat="50.69249" lon="3.42959">
        <ele>22.744621</ele>
        <time>2018-02-06T13:36:37Z</time>
      </trkpt>
      <trkpt lat="50.69245" lon="3.42953">
        <ele>22.796738</ele>
        <time>2018-02-06T13:36:39Z</time>
      </trkpt>
      <trkpt lat="50.69239" lon="3.42947">
        <ele>22.889078</ele>
        <time>2018-02-06T13:36:41Z</time>
      </trkpt>
      <trkpt lat="50.69233" lon="3.42941">
        <ele>22.936504</ele>
        <time>2018-02-06T13:36:43Z</time>
      </trkpt>
      <trkpt lat="50.69227" lon="3.42934">
        <ele>23.035208</ele>
        <time>2018-02-06T13:36:45Z</time>
      </trkpt>
      <trkpt lat="50.69222" lon="3.42927">
        <ele>23.109924</ele>
        <time>2018-02-06T13:36:47Z</time>
      </trkpt>
      <trkpt lat="50.69215" lon="3.4292">
        <ele>23.191195</ele>
        <time>2018-02-06T13:36:49Z</time>
      </trkpt>
      <trkpt lat="50.69209" lon="3.42913">
        <ele>23.310999</ele>
        <time>2018-02-06T13:36:51Z</time>
      </trkpt>
      <trkpt lat="50.69202" lon="3.42906">
        <ele>23.460075</ele>
        <time>2018-02-06T13:36:53Z</time>
      </trkpt>
      <trkpt lat="50.69196" lon="3.42899">
        <ele>23.565077</ele>
        <time>2018-02-06T13:36:55Z</time>
      </trkpt>
      <trkpt lat="50.6919" lon="3.42892">
        <ele>23.701153</ele>
        <time>2018-02-06T13:36:57Z</time>
      </trkpt>
      <trkpt lat="50.69183" lon="3.42885">
        <ele>23.787832</ele>
        <time>2018-02-06T13:36:59Z</time>
      </trkpt>
      <trkpt lat="50.69177" lon="3.42878">
        <ele>23.88464</ele>
        <time>2018-02-06T13:37:01Z</time>
      </trkpt>
      <trkpt lat="50.6917" lon="3.4287">
        <ele>23.918291</ele>
        <time>2018-02-06T13:37:03Z</time>
      </trkpt>
      <trkpt lat="50.69164" lon="3.42863">
        <ele>24.018269</ele>
        <time>2018-02-06T13:37:05Z</time>
      </trkpt>
      <trkpt lat="50.69157" lon="3.42856">
        <ele>24.128038</ele>
        <time>2018-02-06T13:37:07Z</time>
      </trkpt>
      <trkpt lat="50.69149" lon="3.42848">
        <ele>24.221697</ele>
        <time>2018-02-06T13:37:09Z</time>
      </trkpt>
      <trkpt lat="50.69143" lon="3.42841">
        <ele>24.322033</ele>
        <time>2018-02-06T13:37:11Z</time>
      </trkpt>
      <trkpt lat="50.69136" lon="3.42833">
        <ele>24.437719</ele>
        <time>2018-02-06T13:37:13Z</time>
      </trkpt>
      <trkpt lat="50.69129" lon="3.42826">
        <ele>24.571247</ele>
        <time>2018-02-06T13:37:15Z</time>
      </trkpt>
      <trkpt lat="50.69122" lon="3.42819">
        <ele>24.619404</ele>
        <time>2018-02-06T13:37:17Z</time>
      </trkpt>
      <trkpt lat="50.69115" lon="3.42811">
        <ele>24.706142</ele>
        <time>2018-02-06T13:37:19Z</time>
      </trkpt>
      <trkpt lat="50.69109" lon="3.42803">
        <ele>24.754414</ele>
        <time>2018-02-06T13:37:21Z</time>
      </trkpt>
      <trkpt lat="50.69101" lon="3.42795">
        <ele>24.879625</ele>
        <time>2018-02-06T13:37:23Z</time>
      </trkpt>
      <trkpt lat="50.69095" lon="3.42789">
        <ele>25.026873</ele>
        <time>2018-02-06T13:37:25Z</time>
      </trkpt>
      <trkpt lat="50.69089" lon="3.42782">
        <ele>25.133389</ele>
        <time>2018-02-06T13:37:27Z</time>
      </trkpt>
      <trkpt lat="50.69082" lon="3.42774">
        <ele>25.318489</ele>
        <time>2018-02-06T13:37:29Z</time>
      </trkpt>
      <trkpt lat="50.69076" lon="3.42766">
        <ele>25.497242</ele>
        <time>2018-02-06T13:37:31Z</time>
      </trkpt>
      <trkpt lat="50.69069" lon="3.42759">
        <ele>25.639576</ele>
        <time>2018-02-06T13:37:33Z</time>
      </trkpt>
      <trkpt lat="50.69061" lon="3.42753">
        <ele>25.735596</ele>
        <time>2018-02-06T13:37:35Z</time>
      </trkpt>
      <trkpt lat="50.69053" lon="3.42749">
        <ele>25.855988</ele>
        <time>2018-02-06T13:37:37Z</time>
      </trkpt>
      <trkpt lat="50.69045" lon="3.42745">
        <ele>25.985498</ele>
        <time>2018-02-06T13:37:39Z</time>
      </trkpt>
      <trkpt lat="50.69036" lon="3.42742">
        <ele>26.11558</ele>
        <time>2018-02-06T13:37:41Z</time>
      </trkpt>
      <trkpt lat="50.69027" lon="3.4274">
        <ele>26.254791</ele>
        <time>2018-02-06T13:37:43Z</time>
      </trkpt>
      <trkpt lat="50.69018" lon="3.42737">
        <ele>26.399155</ele>
        <time>2018-02-06T13:37:45Z</time>
      </trkpt>
      <trkpt lat="50.69009" lon="3.42735">
        <ele>26.492813</ele>
        <time>2018-02-06T13:37:47Z</time>
      </trkpt>
      <trkpt lat="50.69" lon="3.42732">
        <ele>26.629379</ele>
        <time>2018-02-06T13:37:49Z</time>
      </trkpt>
      <trkpt lat="50.68991" lon="3.42729">
        <ele>26.716227</ele>
        <time>2018-02-06T13:37:51Z</time>
      </trkpt>
      <trkpt lat="50.68982" lon="3.42727">
        <ele>26.78558</ele>
        <time>2018-02-06T13:37:53Z</time>
      </trkpt>
      <trkpt lat="50.68974" lon="3.42724">
        <ele>26.897177</ele>
        <time>2018-02-06T13:37:55Z</time>
      </trkpt>
      <trkpt lat="50.68965" lon="3.42722">
        <ele>26.961206</ele>
        <time>2018-02-06T13:37:57Z</time>
      </trkpt>
      <trkpt lat="50.68956" lon="3.42719">
        <ele>27.105213</ele>
        <time>2018-02-06T13:37:59Z</time>
      </trkpt>
      <trkpt lat="50.68947" lon="3.42716">
        <ele>27.188335</ele>
        <time>2018-02-06T13:38:01Z</time>
      </trkpt>
      <trkpt lat="50.68937" lon="3.42713">
        <ele>27.332479</ele>
        <time>2018-02-06T13:38:03Z</time>
      </trkpt>
      <trkpt lat="50.68928" lon="3.4271">
        <ele>27.444775</ele>
        <time>2018-02-06T13:38:05Z</time>
      </trkpt>
      <trkpt lat="50.68918" lon="3.42707">
        <ele>27.5061</ele>
        <time>2018-02-06T13:38:07Z</time>
      </trkpt>
      <trkpt lat="50.68909" lon="3.42704">
        <ele>27.618423</ele>
        <time>2018-02-06T13:38:09Z</time>
      </trkpt>
      <trkpt lat="50.689" lon="3.42701">
        <ele>27.727551</ele>
        <time>2018-02-06T13:38:11Z</time>
      </trkpt>
      <trkpt lat="50.6889" lon="3.42698">
        <ele>27.837713</ele>
        <time>2018-02-06T13:38:13Z</time>
      </trkpt>
      <trkpt lat="50.68881" lon="3.42695">
        <ele>27.955542</ele>
        <time>2018-02-06T13:38:15Z</time>
      </trkpt>
      <trkpt lat="50.68872" lon="3.42692">
        <ele>28.067139</ele>
        <time>2018-02-06T13:38:17Z</time>
      </trkpt>
      <trkpt lat="50.68862" lon="3.42689">
        <ele>28.172617</ele>
        <time>2018-02-06T13:38:19Z</time>
      </trkpt>
      <trkpt lat="50.68853" lon="3.42686">
        <ele>28.252298</ele>
        <time>2018-02-06T13:38:21Z</time>
      </trkpt>
      <trkpt lat="50.68844" lon="3.42682">
        <ele>28.368841</ele>
        <time>2018-02-06T13:38:23Z</time>
      </trkpt>
      <trkpt lat="50.68834" lon="3.4268">
        <ele>28.447601</ele>
        <time>2018-02-06T13:38:25Z</time>
      </trkpt>
      <trkpt lat="50.68824" lon="3.42676">
        <ele>28.533087</ele>
        <time>2018-02-06T13:38:27Z</time>
      </trkpt>
      <trkpt lat="50.68814" lon="3.42673">
        <ele>28.588657</ele>
        <time>2018-02-06T13:38:29Z</time>
      </trkpt>
      <trkpt lat="50.68804" lon="3.4267">
        <ele>28.5807</ele>
        <time>2018-02-06T13:38:31Z</time>
      </trkpt>
      <trkpt lat="50.68794" lon="3.42667">
        <ele>28.628366</ele>
        <time>2018-02-06T13:38:33Z</time>
      </trkpt>
      <trkpt lat="50.68785" lon="3.42664">
        <ele>28.689758</ele>
        <time>2018-02-06T13:38:35Z</time>
      </trkpt>
      <trkpt lat="50.68775" lon="3.42661">
        <ele>28.723267</ele>
        <time>2018-02-06T13:38:37Z</time>
      </trkpt>
      <trkpt lat="50.68765" lon="3.42658">
        <ele>28.757059</ele>
        <time>2018-02-06T13:38:39Z</time>
      </trkpt>
      <trkpt lat="50.68756" lon="3.42654">
        <ele>28.843908</ele>
        <time>2018-02-06T13:38:41Z</time>
      </trkpt>
      <trkpt lat="50.68746" lon="3.42651">
        <ele>28.879074</ele>
        <time>2018-02-06T13:38:43Z</time>
      </trkpt>
      <trkpt lat="50.68737" lon="3.42648">
        <ele>28.911404</ele>
        <time>2018-02-06T13:38:45Z</time>
      </trkpt>
      <trkpt lat="50.68727" lon="3.42645">
        <ele>28.997616</ele>
        <time>2018-02-06T13:38:47Z</time>
      </trkpt>
      <trkpt lat="50.68718" lon="3.42641">
        <ele>29.037725</ele>
        <time>2018-02-06T13:38:49Z</time>
      </trkpt>
      <trkpt lat="50.68708" lon="3.42635">
        <ele>29.054688</ele>
        <time>2018-02-06T13:38:51Z</time>
      </trkpt>
      <trkpt lat="50.687" lon="3.42627">
        <ele>29.045925</ele>
        <time>2018-02-06T13:38:53Z</time>
      </trkpt>
      <trkpt lat="50.68692" lon="3.42617">
        <ele>29.114481</ele>
        <time>2018-02-06T13:38:55Z</time>
      </trkpt>
      <trkpt lat="50.68686" lon="3.42606">
        <ele>29.172079</ele>
        <time>2018-02-06T13:38:57Z</time>
      </trkpt>
      <trkpt lat="50.68679" lon="3.42594">
        <ele>29.217855</ele>
        <time>2018-02-06T13:38:59Z</time>
      </trkpt>
      <trkpt lat="50.68673" lon="3.42584">
        <ele>29.32497</ele>
        <time>2018-02-06T13:39:01Z</time>
      </trkpt>
      <trkpt lat="50.68665" lon="3.42574">
        <ele>29.37468</ele>
        <time>2018-02-06T13:39:03Z</time>
      </trkpt>
      <trkpt lat="50.68657" lon="3.42567">
        <ele>29.497131</ele>
        <time>2018-02-06T13:39:05Z</time>
      </trkpt>
      <trkpt lat="50.68647" lon="3.42562">
        <ele>29.551937</ele>
        <time>2018-02-06T13:39:07Z</time>
      </trkpt>
      <trkpt lat="50.68638" lon="3.4256">
        <ele>29.669292</ele>
        <time>2018-02-06T13:39:09Z</time>
      </trkpt>
      <trkpt lat="50.68628" lon="3.42558">
        <ele>29.857533</ele>
        <time>2018-02-06T13:39:11Z</time>
      </trkpt>
      <trkpt lat="50.68618" lon="3.42556">
        <ele>30.068928</ele>
        <time>2018-02-06T13:39:13Z</time>
      </trkpt>
      <trkpt lat="50.68609" lon="3.42555">
        <ele>30.268702</ele>
        <time>2018-02-06T13:39:15Z</time>
      </trkpt>
      <trkpt lat="50.68599" lon="3.42554">
        <ele>30.468435</ele>
        <time>2018-02-06T13:39:17Z</time>
      </trkpt>
      <trkpt lat="50.68589" lon="3.42553">
        <ele>30.675119</ele>
        <time>2018-02-06T13:39:19Z</time>
      </trkpt>
      <trkpt lat="50.6858" lon="3.42552">
        <ele>30.871841</ele>
        <time>2018-02-06T13:39:21Z</time>
      </trkpt>
      <trkpt lat="50.6857" lon="3.42551">
        <ele>31.100552</ele>
        <time>2018-02-06T13:39:23Z</time>
      </trkpt>
      <trkpt lat="50.6856" lon="3.4255">
        <ele>31.301224</ele>
        <time>2018-02-06T13:39:25Z</time>
      </trkpt>
      <trkpt lat="50.68551" lon="3.42549">
        <ele>31.495819</ele>
        <time>2018-02-06T13:39:27Z</time>
      </trkpt>
      <trkpt lat="50.68541" lon="3.42548">
        <ele>31.718439</ele>
        <time>2018-02-06T13:39:29Z</time>
      </trkpt>
      <trkpt lat="50.68531" lon="3.42547">
        <ele>31.9431</ele>
        <time>2018-02-06T13:39:31Z</time>
      </trkpt>
      <trkpt lat="50.68522" lon="3.42545">
        <ele>32.181934</ele>
        <time>2018-02-06T13:39:33Z</time>
      </trkpt>
      <trkpt lat="50.68513" lon="3.42544">
        <ele>32.362473</ele>
        <time>2018-02-06T13:39:35Z</time>
      </trkpt>
      <trkpt lat="50.68503" lon="3.42542">
        <ele>32.531155</ele>
        <time>2018-02-06T13:39:37Z</time>
      </trkpt>
      <trkpt lat="50.68494" lon="3.42541">
        <ele>32.711418</ele>
        <time>2018-02-06T13:39:39Z</time>
      </trkpt>
      <trkpt lat="50.68485" lon="3.42538">
        <ele>32.889473</ele>
        <time>2018-02-06T13:39:41Z</time>
      </trkpt>
      <trkpt lat="50.68475" lon="3.42535">
        <ele>33.077454</ele>
        <time>2018-02-06T13:39:43Z</time>
      </trkpt>
      <trkpt lat="50.68466" lon="3.42533">
        <ele>33.253101</ele>
        <time>2018-02-06T13:39:45Z</time>
      </trkpt>
      <trkpt lat="50.68457" lon="3.4253">
        <ele>33.413864</ele>
        <time>2018-02-06T13:39:47Z</time>
      </trkpt>
      <trkpt lat="50.68448" lon="3.42527">
        <ele>33.642899</ele>
        <time>2018-02-06T13:39:49Z</time>
      </trkpt>
      <trkpt lat="50.68439" lon="3.42524">
        <ele>33.75293</ele>
        <time>2018-02-06T13:39:51Z</time>
      </trkpt>
      <trkpt lat="50.6843" lon="3.42521">
        <ele>33.894348</ele>
        <time>2018-02-06T13:39:53Z</time>
      </trkpt>
      <trkpt lat="50.6842" lon="3.42518">
        <ele>34.036125</ele>
        <time>2018-02-06T13:39:55Z</time>
      </trkpt>
      <trkpt lat="50.68411" lon="3.42516">
        <ele>34.110847</ele>
        <time>2018-02-06T13:39:57Z</time>
      </trkpt>
      <trkpt lat="50.68402" lon="3.42513">
        <ele>34.269985</ele>
        <time>2018-02-06T13:39:59Z</time>
      </trkpt>
      <trkpt lat="50.68393" lon="3.4251">
        <ele>34.372955</ele>
        <time>2018-02-06T13:40:01Z</time>
      </trkpt>
      <trkpt lat="50.68384" lon="3.42507">
        <ele>34.506859</ele>
        <time>2018-02-06T13:40:03Z</time>
      </trkpt>
      <trkpt lat="50.68375" lon="3.42504">
        <ele>34.658367</ele>
        <time>2018-02-06T13:40:05Z</time>
      </trkpt>
      <trkpt lat="50.68366" lon="3.42501">
        <ele>34.825947</ele>
        <time>2018-02-06T13:40:07Z</time>
      </trkpt>
      <trkpt lat="50.68356" lon="3.42499">
        <ele>34.969612</ele>
        <time>2018-02-06T13:40:09Z</time>
      </trkpt>
      <trkpt lat="50.68347" lon="3.42496">
        <ele>35.141014</ele>
        <time>2018-02-06T13:40:11Z</time>
      </trkpt>
      <trkpt lat="50.68338" lon="3.42493">
        <ele>35.306713</ele>
        <time>2018-02-06T13:40:13Z</time>
      </trkpt>
      <trkpt lat="50.68328" lon="3.4249">
        <ele>35.460625</ele>
        <time>2018-02-06T13:40:15Z</time>
      </trkpt>
      <trkpt lat="50.68319" lon="3.42487">
        <ele>35.67651</ele>
        <time>2018-02-06T13:40:17Z</time>
      </trkpt>
      <trkpt lat="50.68309" lon="3.42484">
        <ele>35.82909</ele>
        <time>2018-02-06T13:40:19Z</time>
      </trkpt>
      <trkpt lat="50.683" lon="3.42481">
        <ele>35.980831</ele>
        <time>2018-02-06T13:40:21Z</time>
      </trkpt>
      <trkpt lat="50.68291" lon="3.42478">
        <ele>36.116413</ele>
        <time>2018-02-06T13:40:23Z</time>
      </trkpt>
      <trkpt lat="50.68281" lon="3.42475">
        <ele>36.240265</ele>
        <time>2018-02-06T13:40:25Z</time>
      </trkpt>
      <trkpt lat="50.68272" lon="3.42473">
        <ele>36.410519</ele>
        <time>2018-02-06T13:40:27Z</time>
      </trkpt>
      <trkpt lat="50.68263" lon="3.42469">
        <ele>36.456585</ele>
        <time>2018-02-06T13:40:29Z</time>
      </trkpt>
      <trkpt lat="50.68253" lon="3.42466">
        <ele>36.512901</ele>
        <time>2018-02-06T13:40:31Z</time>
      </trkpt>
      <trkpt lat="50.68243" lon="3.42463">
        <ele>36.65641</ele>
        <time>2018-02-06T13:40:33Z</time>
      </trkpt>
      <trkpt lat="50.68234" lon="3.42459">
        <ele>36.807823</ele>
        <time>2018-02-06T13:40:35Z</time>
      </trkpt>
      <trkpt lat="50.68224" lon="3.42455">
        <ele>36.940998</ele>
        <time>2018-02-06T13:40:37Z</time>
      </trkpt>
      <trkpt lat="50.68215" lon="3.42451">
        <ele>37.013142</ele>
        <time>2018-02-06T13:40:39Z</time>
      </trkpt>
      <trkpt lat="50.68206" lon="3.42447">
        <ele>37.142532</ele>
        <time>2018-02-06T13:40:41Z</time>
      </trkpt>
      <trkpt lat="50.68197" lon="3.42442">
        <ele>37.24604</ele>
        <time>2018-02-06T13:40:43Z</time>
      </trkpt>
      <trkpt lat="50.68187" lon="3.42438">
        <ele>37.35136</ele>
        <time>2018-02-06T13:40:45Z</time>
      </trkpt>
      <trkpt lat="50.68178" lon="3.42433">
        <ele>37.385948</ele>
        <time>2018-02-06T13:40:47Z</time>
      </trkpt>
      <trkpt lat="50.68169" lon="3.42429">
        <ele>37.47134</ele>
        <time>2018-02-06T13:40:49Z</time>
      </trkpt>
      <trkpt lat="50.6816" lon="3.42425">
        <ele>37.496311</ele>
        <time>2018-02-06T13:40:51Z</time>
      </trkpt>
      <trkpt lat="50.6815" lon="3.4242">
        <ele>37.531853</ele>
        <time>2018-02-06T13:40:53Z</time>
      </trkpt>
      <trkpt lat="50.68141" lon="3.42415">
        <ele>37.536167</ele>
        <time>2018-02-06T13:40:55Z</time>
      </trkpt>
      <trkpt lat="50.68131" lon="3.42411">
        <ele>37.566978</ele>
        <time>2018-02-06T13:40:57Z</time>
      </trkpt>
      <trkpt lat="50.68122" lon="3.42407">
        <ele>37.625107</ele>
        <time>2018-02-06T13:40:59Z</time>
      </trkpt>
      <trkpt lat="50.68113" lon="3.42403">
        <ele>37.672623</ele>
        <time>2018-02-06T13:41:01Z</time>
      </trkpt>
      <trkpt lat="50.68103" lon="3.42398">
        <ele>37.724819</ele>
        <time>2018-02-06T13:41:03Z</time>
      </trkpt>
      <trkpt lat="50.68094" lon="3.42393">
        <ele>37.747078</ele>
        <time>2018-02-06T13:41:05Z</time>
      </trkpt>
      <trkpt lat="50.68084" lon="3.42388">
        <ele>37.830605</ele>
        <time>2018-02-06T13:41:07Z</time>
      </trkpt>
      <trkpt lat="50.68074" lon="3.42383">
        <ele>37.882565</ele>
        <time>2018-02-06T13:41:09Z</time>
      </trkpt>
      <trkpt lat="50.68065" lon="3.42377">
        <ele>37.961056</ele>
        <time>2018-02-06T13:41:11Z</time>
      </trkpt>
      <trkpt lat="50.68056" lon="3.42371">
        <ele>37.987373</ele>
        <time>2018-02-06T13:41:13Z</time>
      </trkpt>
      <trkpt lat="50.68046" lon="3.42366">
        <ele>38.01976</ele>
        <time>2018-02-06T13:41:15Z</time>
      </trkpt>
      <trkpt lat="50.68037" lon="3.4236">
        <ele>38.071297</ele>
        <time>2018-02-06T13:41:17Z</time>
      </trkpt>
      <trkpt lat="50.68027" lon="3.42354">
        <ele>38.195095</ele>
        <time>2018-02-06T13:41:19Z</time>
      </trkpt>
      <trkpt lat="50.68018" lon="3.42348">
        <ele>38.252335</ele>
        <time>2018-02-06T13:41:21Z</time>
      </trkpt>
      <trkpt lat="50.68009" lon="3.42343">
        <ele>38.310623</ele>
        <time>2018-02-06T13:41:23Z</time>
      </trkpt>
      <trkpt lat="50.68" lon="3.42337">
        <ele>38.344833</ele>
        <time>2018-02-06T13:41:25Z</time>
      </trkpt>
      <trkpt lat="50.67991" lon="3.42332">
        <ele>38.409718</ele>
        <time>2018-02-06T13:41:27Z</time>
      </trkpt>
      <trkpt lat="50.67982" lon="3.42327">
        <ele>38.493599</ele>
        <time>2018-02-06T13:41:29Z</time>
      </trkpt>
      <trkpt lat="50.67973" lon="3.42321">
        <ele>38.559025</ele>
        <time>2018-02-06T13:41:31Z</time>
      </trkpt>
      <trkpt lat="50.67965" lon="3.42315">
        <ele>38.639656</ele>
        <time>2018-02-06T13:41:33Z</time>
      </trkpt>
      <trkpt lat="50.67956" lon="3.42309">
        <ele>38.760612</ele>
        <time>2018-02-06T13:41:35Z</time>
      </trkpt>
      <trkpt lat="50.67947" lon="3.42303">
        <ele>38.884537</ele>
        <time>2018-02-06T13:41:37Z</time>
      </trkpt>
      <trkpt lat="50.67938" lon="3.42296">
        <ele>38.951214</ele>
        <time>2018-02-06T13:41:39Z</time>
      </trkpt>
      <trkpt lat="50.6793" lon="3.42288">
        <ele>38.999344</ele>
        <time>2018-02-06T13:41:41Z</time>
      </trkpt>
      <trkpt lat="50.67921" lon="3.42281">
        <ele>39.084538</ele>
        <time>2018-02-06T13:41:43Z</time>
      </trkpt>
      <trkpt lat="50.67912" lon="3.42274">
        <ele>39.16256</ele>
        <time>2018-02-06T13:41:45Z</time>
      </trkpt>
      <trkpt lat="50.67903" lon="3.42267">
        <ele>39.234818</ele>
        <time>2018-02-06T13:41:47Z</time>
      </trkpt>
      <trkpt lat="50.67894" lon="3.42261">
        <ele>39.305832</ele>
        <time>2018-02-06T13:41:49Z</time>
      </trkpt>
      <trkpt lat="50.67886" lon="3.42254">
        <ele>39.367699</ele>
        <time>2018-02-06T13:41:51Z</time>
      </trkpt>
      <trkpt lat="50.67878" lon="3.42248">
        <ele>39.479721</ele>
        <time>2018-02-06T13:41:53Z</time>
      </trkpt>
      <trkpt lat="50.6787" lon="3.42243">
        <ele>39.628262</ele>
        <time>2018-02-06T13:41:55Z</time>
      </trkpt>
      <trkpt lat="50.67862" lon="3.42236">
        <ele>39.739197</ele>
        <time>2018-02-06T13:41:57Z</time>
      </trkpt>
      <trkpt lat="50.67853" lon="3.4223">
        <ele>39.806114</ele>
        <time>2018-02-06T13:41:59Z</time>
      </trkpt>
      <trkpt lat="50.67845" lon="3.42225">
        <ele>39.874477</ele>
        <time>2018-02-06T13:42:01Z</time>
      </trkpt>
      <trkpt lat="50.67837" lon="3.42219">
        <ele>39.963673</ele>
        <time>2018-02-06T13:42:03Z</time>
      </trkpt>
      <trkpt lat="50.67828" lon="3.42213">
        <ele>40.062847</ele>
        <time>2018-02-06T13:42:05Z</time>
      </trkpt>
      <trkpt lat="50.6782" lon="3.42207">
        <ele>40.098812</ele>
        <time>2018-02-06T13:42:07Z</time>
      </trkpt>
      <trkpt lat="50.67813" lon="3.42199">
        <ele>40.205772</ele>
        <time>2018-02-06T13:42:09Z</time>
      </trkpt>
      <trkpt lat="50.67806" lon="3.4219">
        <ele>40.271667</ele>
        <time>2018-02-06T13:42:11Z</time>
      </trkpt>
      <trkpt lat="50.67801" lon="3.42179">
        <ele>40.370888</ele>
        <time>2018-02-06T13:42:13Z</time>
      </trkpt>
      <trkpt lat="50.67795" lon="3.42168">
        <ele>40.443836</ele>
        <time>2018-02-06T13:42:15Z</time>
      </trkpt>
      <trkpt lat="50.6779" lon="3.42157">
        <ele>40.519135</ele>
        <time>2018-02-06T13:42:17Z</time>
      </trkpt>
      <trkpt lat="50.67785" lon="3.42146">
        <ele>40.616669</ele>
        <time>2018-02-06T13:42:19Z</time>
      </trkpt>
      <trkpt lat="50.67779" lon="3.42135">
        <ele>40.772289</ele>
        <time>2018-02-06T13:42:21Z</time>
      </trkpt>
      <trkpt lat="50.67774" lon="3.42124">
        <ele>40.902782</ele>
        <time>2018-02-06T13:42:23Z</time>
      </trkpt>
      <trkpt lat="50.67769" lon="3.42113">
        <ele>41.031273</ele>
        <time>2018-02-06T13:42:25Z</time>
      </trkpt>
      <trkpt lat="50.67762" lon="3.42103">
        <ele>41.187634</ele>
        <time>2018-02-06T13:42:27Z</time>
      </trkpt>
      <trkpt lat="50.67755" lon="3.42096">
        <ele>41.319744</ele>
        <time>2018-02-06T13:42:29Z</time>
      </trkpt>
      <trkpt lat="50.67747" lon="3.42091">
        <ele>41.487602</ele>
        <time>2018-02-06T13:42:31Z</time>
      </trkpt>
      <trkpt lat="50.67738" lon="3.42088">
        <ele>41.591206</ele>
        <time>2018-02-06T13:42:33Z</time>
      </trkpt>
      <trkpt lat="50.6773" lon="3.42087">
        <ele>41.715034</ele>
        <time>2018-02-06T13:42:35Z</time>
      </trkpt>
      <trkpt lat="50.67721" lon="3.42086">
        <ele>41.877129</ele>
        <time>2018-02-06T13:42:37Z</time>
      </trkpt>
      <trkpt lat="50.67713" lon="3.42085">
        <ele>42.005226</ele>
        <time>2018-02-06T13:42:39Z</time>
      </trkpt>
      <trkpt lat="50.67704" lon="3.42085">
        <ele>42.140007</ele>
        <time>2018-02-06T13:42:41Z</time>
      </trkpt>
      <trkpt lat="50.67695" lon="3.42085">
        <ele>42.296753</ele>
        <time>2018-02-06T13:42:43Z</time>
      </trkpt>
      <trkpt lat="50.67686" lon="3.42085">
        <ele>42.471931</ele>
        <time>2018-02-06T13:42:45Z</time>
      </trkpt>
      <trkpt lat="50.67676" lon="3.42086">
        <ele>42.675697</ele>
        <time>2018-02-06T13:42:47Z</time>
      </trkpt>
      <trkpt lat="50.67666" lon="3.42086">
        <ele>42.870983</ele>
        <time>2018-02-06T13:42:49Z</time>
      </trkpt>
      <trkpt lat="50.67656" lon="3.42087">
        <ele>42.948097</ele>
        <time>2018-02-06T13:42:51Z</time>
      </trkpt>
      <trkpt lat="50.67646" lon="3.42089">
        <ele>43.117653</ele>
        <time>2018-02-06T13:42:53Z</time>
      </trkpt>
      <trkpt lat="50.67636" lon="3.4209">
        <ele>43.229462</ele>
        <time>2018-02-06T13:42:55Z</time>
      </trkpt>
      <trkpt lat="50.67626" lon="3.42092">
        <ele>43.36216</ele>
        <time>2018-02-06T13:42:57Z</time>
      </trkpt>
      <trkpt lat="50.67617" lon="3.42095">
        <ele>43.427776</ele>
        <time>2018-02-06T13:42:59Z</time>
      </trkpt>
      <trkpt lat="50.67609" lon="3.42099">
        <ele>43.44458</ele>
        <time>2018-02-06T13:43:01Z</time>
      </trkpt>
      <trkpt lat="50.67601" lon="3.42104">
        <ele>43.500221</ele>
        <time>2018-02-06T13:43:03Z</time>
      </trkpt>
      <trkpt lat="50.67595" lon="3.42107">
        <ele>43.465954</ele>
        <time>2018-02-06T13:43:05Z</time>
      </trkpt>
      <trkpt lat="50.67588" lon="3.42108">
        <ele>43.497108</ele>
        <time>2018-02-06T13:43:07Z</time>
      </trkpt>
      <trkpt lat="50.67582" lon="3.42108">
        <ele>43.454651</ele>
        <time>2018-02-06T13:43:09Z</time>
      </trkpt>
      <trkpt lat="50.67575" lon="3.42103">
        <ele>43.422523</ele>
        <time>2018-02-06T13:43:11Z</time>
      </trkpt>
      <trkpt lat="50.67568" lon="3.42094">
        <ele>43.387817</ele>
        <time>2018-02-06T13:43:13Z</time>
      </trkpt>
      <trkpt lat="50.67563" lon="3.42079">
        <ele>43.30172</ele>
        <time>2018-02-06T13:43:15Z</time>
      </trkpt>
      <trkpt lat="50.67557" lon="3.42062">
        <ele>43.199024</ele>
        <time>2018-02-06T13:43:17Z</time>
      </trkpt>
      <trkpt lat="50.67552" lon="3.42044">
        <ele>43.043072</ele>
        <time>2018-02-06T13:43:19Z</time>
      </trkpt>
      <trkpt lat="50.67547" lon="3.42025">
        <ele>42.829803</ele>
        <time>2018-02-06T13:43:21Z</time>
      </trkpt>
      <trkpt lat="50.6754" lon="3.42005">
        <ele>42.619549</ele>
        <time>2018-02-06T13:43:23Z</time>
      </trkpt>
      <trkpt lat="50.67533" lon="3.41986">
        <ele>42.277355</ele>
        <time>2018-02-06T13:43:25Z</time>
      </trkpt>
      <trkpt lat="50.67525" lon="3.41967">
        <ele>41.960381</ele>
        <time>2018-02-06T13:43:27Z</time>
      </trkpt>
      <trkpt lat="50.67516" lon="3.41947">
        <ele>41.52412</ele>
        <time>2018-02-06T13:43:29Z</time>
      </trkpt>
      <trkpt lat="50.67507" lon="3.41928">
        <ele>41.377174</ele>
        <time>2018-02-06T13:43:31Z</time>
      </trkpt>
      <trkpt lat="50.675" lon="3.41908">
        <ele>40.946136</ele>
        <time>2018-02-06T13:43:33Z</time>
      </trkpt>
      <trkpt lat="50.67494" lon="3.41888">
        <ele>40.564949</ele>
        <time>2018-02-06T13:43:35Z</time>
      </trkpt>
      <trkpt lat="50.67491" lon="3.41868">
        <ele>40.105263</ele>
        <time>2018-02-06T13:43:37Z</time>
      </trkpt>
      <trkpt lat="50.67487" lon="3.41849">
        <ele>39.686859</ele>
        <time>2018-02-06T13:43:39Z</time>
      </trkpt>
      <trkpt lat="50.67483" lon="3.4183">
        <ele>39.283394</ele>
        <time>2018-02-06T13:43:41Z</time>
      </trkpt>
      <trkpt lat="50.6748" lon="3.41812">
        <ele>38.86441</ele>
        <time>2018-02-06T13:43:43Z</time>
      </trkpt>
      <trkpt lat="50.67476" lon="3.41797">
        <ele>38.458485</ele>
        <time>2018-02-06T13:43:45Z</time>
      </trkpt>
      <trkpt lat="50.67469" lon="3.41785">
        <ele>38.070076</ele>
        <time>2018-02-06T13:43:47Z</time>
      </trkpt>
      <trkpt lat="50.6746" lon="3.41778">
        <ele>37.663422</ele>
        <time>2018-02-06T13:43:49Z</time>
      </trkpt>
      <trkpt lat="50.6745" lon="3.41774">
        <ele>37.246906</ele>
        <time>2018-02-06T13:43:51Z</time>
      </trkpt>
      <trkpt lat="50.67439" lon="3.4177">
        <ele>36.864388</ele>
        <time>2018-02-06T13:43:53Z</time>
      </trkpt>
      <trkpt lat="50.67429" lon="3.41767">
        <ele>36.507153</ele>
        <time>2018-02-06T13:43:55Z</time>
      </trkpt>
      <trkpt lat="50.67418" lon="3.41763">
        <ele>36.158195</ele>
        <time>2018-02-06T13:43:57Z</time>
      </trkpt>
      <trkpt lat="50.67407" lon="3.41761">
        <ele>35.844135</ele>
        <time>2018-02-06T13:43:59Z</time>
      </trkpt>
      <trkpt lat="50.67396" lon="3.4176">
        <ele>35.572128</ele>
        <time>2018-02-06T13:44:01Z</time>
      </trkpt>
      <trkpt lat="50.67384" lon="3.4176">
        <ele>35.261742</ele>
        <time>2018-02-06T13:44:03Z</time>
      </trkpt>
      <trkpt lat="50.67374" lon="3.41763">
        <ele>35.101364</ele>
        <time>2018-02-06T13:44:05Z</time>
      </trkpt>
      <trkpt lat="50.67364" lon="3.41766">
        <ele>34.908943</ele>
        <time>2018-02-06T13:44:07Z</time>
      </trkpt>
      <trkpt lat="50.67353" lon="3.41767">
        <ele>34.773426</ele>
        <time>2018-02-06T13:44:09Z</time>
      </trkpt>
      <trkpt lat="50.67343" lon="3.41766">
        <ele>34.652809</ele>
        <time>2018-02-06T13:44:11Z</time>
      </trkpt>
      <trkpt lat="50.67333" lon="3.41762">
        <ele>34.613808</ele>
        <time>2018-02-06T13:44:13Z</time>
      </trkpt>
      <trkpt lat="50.67323" lon="3.41757">
        <ele>34.567589</ele>
        <time>2018-02-06T13:44:15Z</time>
      </trkpt>
      <trkpt lat="50.67313" lon="3.41751">
        <ele>34.482182</ele>
        <time>2018-02-06T13:44:17Z</time>
      </trkpt>
      <trkpt lat="50.67305" lon="3.41744">
        <ele>34.430065</ele>
        <time>2018-02-06T13:44:19Z</time>
      </trkpt>
      <trkpt lat="50.67295" lon="3.41738">
        <ele>34.387276</ele>
        <time>2018-02-06T13:44:21Z</time>
      </trkpt>
      <trkpt lat="50.67286" lon="3.41732">
        <ele>34.322796</ele>
        <time>2018-02-06T13:44:23Z</time>
      </trkpt>
      <trkpt lat="50.67277" lon="3.41726">
        <ele>34.383804</ele>
        <time>2018-02-06T13:44:25Z</time>
      </trkpt>
      <trkpt lat="50.67268" lon="3.41719">
        <ele>34.381462</ele>
        <time>2018-02-06T13:44:27Z</time>
      </trkpt>
      <trkpt lat="50.67259" lon="3.41713">
        <ele>34.378624</ele>
        <time>2018-02-06T13:44:29Z</time>
      </trkpt>
      <trkpt lat="50.6725" lon="3.41707">
        <ele>34.436684</ele>
        <time>2018-02-06T13:44:31Z</time>
      </trkpt>
      <trkpt lat="50.67241" lon="3.417">
        <ele>34.455589</ele>
        <time>2018-02-06T13:44:33Z</time>
      </trkpt>
      <trkpt lat="50.67232" lon="3.41694">
        <ele>34.479042</ele>
        <time>2018-02-06T13:44:35Z</time>
      </trkpt>
      <trkpt lat="50.67224" lon="3.41687">
        <ele>34.492306</ele>
        <time>2018-02-06T13:44:37Z</time>
      </trkpt>
      <trkpt lat="50.67215" lon="3.41681">
        <ele>34.527702</ele>
        <time>2018-02-06T13:44:39Z</time>
      </trkpt>
      <trkpt lat="50.67207" lon="3.41675">
        <ele>34.527069</ele>
        <time>2018-02-06T13:44:41Z</time>
      </trkpt>
      <trkpt lat="50.67199" lon="3.41669">
        <ele>34.533562</ele>
        <time>2018-02-06T13:44:43Z</time>
      </trkpt>
      <trkpt lat="50.6719" lon="3.41662">
        <ele>34.588528</ele>
        <time>2018-02-06T13:44:45Z</time>
      </trkpt>
      <trkpt lat="50.67181" lon="3.41656">
        <ele>34.595219</ele>
        <time>2018-02-06T13:44:47Z</time>
      </trkpt>
      <trkpt lat="50.67173" lon="3.4165">
        <ele>34.572002</ele>
        <time>2018-02-06T13:44:49Z</time>
      </trkpt>
      <trkpt lat="50.67165" lon="3.41644">
        <ele>34.562294</ele>
        <time>2018-02-06T13:44:51Z</time>
      </trkpt>
      <trkpt lat="50.67158" lon="3.41639">
        <ele>34.577133</ele>
        <time>2018-02-06T13:44:53Z</time>
      </trkpt>
      <trkpt lat="50.67151" lon="3.41633">
        <ele>34.576084</ele>
        <time>2018-02-06T13:44:55Z</time>
      </trkpt>
      <trkpt lat="50.67144" lon="3.41624">
        <ele>34.588844</ele>
        <time>2018-02-06T13:44:57Z</time>
      </trkpt>
      <trkpt lat="50.67141" lon="3.41611">
        <ele>34.636436</ele>
        <time>2018-02-06T13:44:59Z</time>
      </trkpt>
      <trkpt lat="50.67141" lon="3.41597">
        <ele>34.715313</ele>
        <time>2018-02-06T13:45:01Z</time>
      </trkpt>
      <trkpt lat="50.67141" lon="3.41583">
        <ele>34.777283</ele>
        <time>2018-02-06T13:45:03Z</time>
      </trkpt>
      <trkpt lat="50.67139" lon="3.4157">
        <ele>34.830948</ele>
        <time>2018-02-06T13:45:05Z</time>
      </trkpt>
      <trkpt lat="50.67132" lon="3.4156">
        <ele>34.865074</ele>
        <time>2018-02-06T13:45:07Z</time>
      </trkpt>
      <trkpt lat="50.67124" lon="3.41555">
        <ele>34.935612</ele>
        <time>2018-02-06T13:45:09Z</time>
      </trkpt>
      <trkpt lat="50.67115" lon="3.41551">
        <ele>34.99934</ele>
        <time>2018-02-06T13:45:11Z</time>
      </trkpt>
      <trkpt lat="50.67106" lon="3.41547">
        <ele>35.029564</ele>
        <time>2018-02-06T13:45:13Z</time>
      </trkpt>
      <trkpt lat="50.67097" lon="3.41543">
        <ele>35.139862</ele>
        <time>2018-02-06T13:45:15Z</time>
      </trkpt>
      <trkpt lat="50.67088" lon="3.41538">
        <ele>35.240471</ele>
        <time>2018-02-06T13:45:17Z</time>
      </trkpt>
      <trkpt lat="50.6708" lon="3.41534">
        <ele>35.322491</ele>
        <time>2018-02-06T13:45:19Z</time>
      </trkpt>
      <trkpt lat="50.67072" lon="3.41528">
        <ele>35.378639</ele>
        <time>2018-02-06T13:45:21Z</time>
      </trkpt>
      <trkpt lat="50.67063" lon="3.41523">
        <ele>35.522911</ele>
        <time>2018-02-06T13:45:23Z</time>
      </trkpt>
      <trkpt lat="50.67056" lon="3.41518">
        <ele>35.651237</ele>
        <time>2018-02-06T13:45:25Z</time>
      </trkpt>
      <trkpt lat="50.67048" lon="3.41512">
        <ele>35.734138</ele>
        <time>2018-02-06T13:45:27Z</time>
      </trkpt>
      <trkpt lat="50.6704" lon="3.41507">
        <ele>35.890388</ele>
        <time>2018-02-06T13:45:29Z</time>
      </trkpt>
      <trkpt lat="50.67032" lon="3.41501">
        <ele>36.059471</ele>
        <time>2018-02-06T13:45:31Z</time>
      </trkpt>
      <trkpt lat="50.67025" lon="3.41496">
        <ele>36.226799</ele>
        <time>2018-02-06T13:45:33Z</time>
      </trkpt>
      <trkpt lat="50.67017" lon="3.41489">
        <ele>36.276878</ele>
        <time>2018-02-06T13:45:35Z</time>
      </trkpt>
      <trkpt lat="50.67011" lon="3.41479">
        <ele>36.423878</ele>
        <time>2018-02-06T13:45:37Z</time>
      </trkpt>
      <trkpt lat="50.67007" lon="3.41466">
        <ele>36.54493</ele>
        <time>2018-02-06T13:45:39Z</time>
      </trkpt>
      <trkpt lat="50.67004" lon="3.41452">
        <ele>36.705109</ele>
        <time>2018-02-06T13:45:41Z</time>
      </trkpt>
      <trkpt lat="50.67002" lon="3.41438">
        <ele>36.856281</ele>
        <time>2018-02-06T13:45:43Z</time>
      </trkpt>
      <trkpt lat="50.67" lon="3.41424">
        <ele>36.948845</ele>
        <time>2018-02-06T13:45:45Z</time>
      </trkpt>
      <trkpt lat="50.66997" lon="3.4141">
        <ele>37.07296</ele>
        <time>2018-02-06T13:45:47Z</time>
      </trkpt>
      <trkpt lat="50.66995" lon="3.41396">
        <ele>37.188396</ele>
        <time>2018-02-06T13:45:49Z</time>
      </trkpt>
      <trkpt lat="50.66992" lon="3.41382">
        <ele>37.327179</ele>
        <time>2018-02-06T13:45:51Z</time>
      </trkpt>
      <trkpt lat="50.6699" lon="3.41369">
        <ele>37.456318</ele>
        <time>2018-02-06T13:45:53Z</time>
      </trkpt>
      <trkpt lat="50.66988" lon="3.41355">
        <ele>37.599884</ele>
        <time>2018-02-06T13:45:55Z</time>
      </trkpt>
      <trkpt lat="50.66985" lon="3.41342">
        <ele>37.697578</ele>
        <time>2018-02-06T13:45:57Z</time>
      </trkpt>
      <trkpt lat="50.66983" lon="3.41328">
        <ele>37.789753</ele>
        <time>2018-02-06T13:45:59Z</time>
      </trkpt>
      <trkpt lat="50.66981" lon="3.41315">
        <ele>37.916359</ele>
        <time>2018-02-06T13:46:01Z</time>
      </trkpt>
      <trkpt lat="50.66979" lon="3.41301">
        <ele>38.025146</ele>
        <time>2018-02-06T13:46:03Z</time>
      </trkpt>
      <trkpt lat="50.66976" lon="3.41288">
        <ele>38.155926</ele>
        <time>2018-02-06T13:46:05Z</time>
      </trkpt>
      <trkpt lat="50.66974" lon="3.41275">
        <ele>38.250816</ele>
        <time>2018-02-06T13:46:07Z</time>
      </trkpt>
      <trkpt lat="50.66971" lon="3.41262">
        <ele>38.326221</ele>
        <time>2018-02-06T13:46:09Z</time>
      </trkpt>
      <trkpt lat="50.66969" lon="3.4125">
        <ele>38.48188</ele>
        <time>2018-02-06T13:46:11Z</time>
      </trkpt>
      <trkpt lat="50.66967" lon="3.41237">
        <ele>38.653545</ele>
        <time>2018-02-06T13:46:13Z</time>
      </trkpt>
      <trkpt lat="50.66964" lon="3.41224">
        <ele>38.776268</ele>
        <time>2018-02-06T13:46:15Z</time>
      </trkpt>
      <trkpt lat="50.66962" lon="3.41212">
        <ele>38.963902</ele>
        <time>2018-02-06T13:46:17Z</time>
      </trkpt>
      <trkpt lat="50.66956" lon="3.41202">
        <ele>39.1399</ele>
        <time>2018-02-06T13:46:19Z</time>
      </trkpt>
      <trkpt lat="50.6695" lon="3.41195">
        <ele>39.329201</ele>
        <time>2018-02-06T13:46:21Z</time>
      </trkpt>
      <trkpt lat="50.66942" lon="3.41189">
        <ele>39.530441</ele>
        <time>2018-02-06T13:46:23Z</time>
      </trkpt>
      <trkpt lat="50.66935" lon="3.41186">
        <ele>39.760078</ele>
        <time>2018-02-06T13:46:25Z</time>
      </trkpt>
      <trkpt lat="50.66927" lon="3.41182">
        <ele>39.98806</ele>
        <time>2018-02-06T13:46:27Z</time>
      </trkpt>
      <trkpt lat="50.66919" lon="3.41178">
        <ele>40.256912</ele>
        <time>2018-02-06T13:46:29Z</time>
      </trkpt>
      <trkpt lat="50.66911" lon="3.41175">
        <ele>40.536819</ele>
        <time>2018-02-06T13:46:31Z</time>
      </trkpt>
      <trkpt lat="50.66903" lon="3.41171">
        <ele>40.799747</ele>
        <time>2018-02-06T13:46:33Z</time>
      </trkpt>
      <trkpt lat="50.66895" lon="3.41168">
        <ele>41.073898</ele>
        <time>2018-02-06T13:46:35Z</time>
      </trkpt>
      <trkpt lat="50.66887" lon="3.41165">
        <ele>41.345882</ele>
        <time>2018-02-06T13:46:37Z</time>
      </trkpt>
      <trkpt lat="50.66879" lon="3.41162">
        <ele>41.657658</ele>
        <time>2018-02-06T13:46:39Z</time>
      </trkpt>
      <trkpt lat="50.66871" lon="3.4116">
        <ele>41.970219</ele>
        <time>2018-02-06T13:46:41Z</time>
      </trkpt>
      <trkpt lat="50.66863" lon="3.41157">
        <ele>42.266121</ele>
        <time>2018-02-06T13:46:43Z</time>
      </trkpt>
      <trkpt lat="50.66855" lon="3.41155">
        <ele>42.559517</ele>
        <time>2018-02-06T13:46:45Z</time>
      </trkpt>
      <trkpt lat="50.66846" lon="3.41152">
        <ele>42.69305</ele>
        <time>2018-02-06T13:46:47Z</time>
      </trkpt>
      <trkpt lat="50.66838" lon="3.4115">
        <ele>42.990536</ele>
        <time>2018-02-06T13:46:49Z</time>
      </trkpt>
      <trkpt lat="50.6683" lon="3.41148">
        <ele>43.238461</ele>
        <time>2018-02-06T13:46:51Z</time>
      </trkpt>
      <trkpt lat="50.66822" lon="3.41146">
        <ele>43.46035</ele>
        <time>2018-02-06T13:46:53Z</time>
      </trkpt>
      <trkpt lat="50.66813" lon="3.41144">
        <ele>43.709534</ele>
        <time>2018-02-06T13:46:55Z</time>
      </trkpt>
      <trkpt lat="50.66805" lon="3.41142">
        <ele>43.926552</ele>
        <time>2018-02-06T13:46:57Z</time>
      </trkpt>
      <trkpt lat="50.66795" lon="3.41141">
        <ele>44.138313</ele>
        <time>2018-02-06T13:46:59Z</time>
      </trkpt>
      <trkpt lat="50.66786" lon="3.41139">
        <ele>44.285095</ele>
        <time>2018-02-06T13:47:01Z</time>
      </trkpt>
      <trkpt lat="50.66777" lon="3.4114">
        <ele>44.446739</ele>
        <time>2018-02-06T13:47:03Z</time>
      </trkpt>
      <trkpt lat="50.66768" lon="3.41142">
        <ele>44.587658</ele>
        <time>2018-02-06T13:47:05Z</time>
      </trkpt>
      <trkpt lat="50.6676" lon="3.41146">
        <ele>44.740559</ele>
        <time>2018-02-06T13:47:07Z</time>
      </trkpt>
      <trkpt lat="50.66752" lon="3.41153">
        <ele>44.877083</ele>
        <time>2018-02-06T13:47:09Z</time>
      </trkpt>
      <trkpt lat="50.66744" lon="3.41159">
        <ele>45.011017</ele>
        <time>2018-02-06T13:47:11Z</time>
      </trkpt>
      <trkpt lat="50.66735" lon="3.41162">
        <ele>45.073463</ele>
        <time>2018-02-06T13:47:13Z</time>
      </trkpt>
      <trkpt lat="50.66727" lon="3.41161">
        <ele>45.190826</ele>
        <time>2018-02-06T13:47:15Z</time>
      </trkpt>
      <trkpt lat="50.66719" lon="3.41156">
        <ele>45.244667</ele>
        <time>2018-02-06T13:47:17Z</time>
      </trkpt>
      <trkpt lat="50.66711" lon="3.4115">
        <ele>45.276543</ele>
        <time>2018-02-06T13:47:19Z</time>
      </trkpt>
      <trkpt lat="50.66702" lon="3.41143">
        <ele>45.336109</ele>
        <time>2018-02-06T13:47:21Z</time>
      </trkpt>
      <trkpt lat="50.66694" lon="3.41136">
        <ele>45.363171</ele>
        <time>2018-02-06T13:47:23Z</time>
      </trkpt>
      <trkpt lat="50.66687" lon="3.41129">
        <ele>45.400566</ele>
        <time>2018-02-06T13:47:25Z</time>
      </trkpt>
      <trkpt lat="50.66679" lon="3.41122">
        <ele>45.425056</ele>
        <time>2018-02-06T13:47:27Z</time>
      </trkpt>
      <trkpt lat="50.66671" lon="3.41115">
        <ele>45.512386</ele>
        <time>2018-02-06T13:47:29Z</time>
      </trkpt>
      <trkpt lat="50.66663" lon="3.41107">
        <ele>45.544228</ele>
        <time>2018-02-06T13:47:31Z</time>
      </trkpt>
      <trkpt lat="50.66655" lon="3.411">
        <ele>45.610756</ele>
        <time>2018-02-06T13:47:33Z</time>
      </trkpt>
      <trkpt lat="50.66647" lon="3.41092">
        <ele>45.712578</ele>
        <time>2018-02-06T13:47:35Z</time>
      </trkpt>
      <trkpt lat="50.6664" lon="3.41085">
        <ele>45.800179</ele>
        <time>2018-02-06T13:47:37Z</time>
      </trkpt>
      <trkpt lat="50.66632" lon="3.41078">
        <ele>45.872932</ele>
        <time>2018-02-06T13:47:39Z</time>
      </trkpt>
      <trkpt lat="50.66625" lon="3.41071">
        <ele>45.985191</ele>
        <time>2018-02-06T13:47:41Z</time>
      </trkpt>
      <trkpt lat="50.66617" lon="3.41064">
        <ele>46.076321</ele>
        <time>2018-02-06T13:47:43Z</time>
      </trkpt>
      <trkpt lat="50.6661" lon="3.41056">
        <ele>46.178074</ele>
        <time>2018-02-06T13:47:45Z</time>
      </trkpt>
      <trkpt lat="50.66602" lon="3.41048">
        <ele>46.232876</ele>
        <time>2018-02-06T13:47:47Z</time>
      </trkpt>
      <trkpt lat="50.66596" lon="3.4104">
        <ele>46.308083</ele>
        <time>2018-02-06T13:47:49Z</time>
      </trkpt>
      <trkpt lat="50.66589" lon="3.41031">
        <ele>46.430122</ele>
        <time>2018-02-06T13:47:51Z</time>
      </trkpt>
      <trkpt lat="50.66583" lon="3.41022">
        <ele>46.473595</ele>
        <time>2018-02-06T13:47:53Z</time>
      </trkpt>
      <trkpt lat="50.66577" lon="3.41012">
        <ele>46.571419</ele>
        <time>2018-02-06T13:47:55Z</time>
      </trkpt>
      <trkpt lat="50.66571" lon="3.41002">
        <ele>46.633228</ele>
        <time>2018-02-06T13:47:57Z</time>
      </trkpt>
      <trkpt lat="50.66565" lon="3.40992">
        <ele>46.731239</ele>
        <time>2018-02-06T13:47:59Z</time>
      </trkpt>
      <trkpt lat="50.6656" lon="3.40982">
        <ele>46.779243</ele>
        <time>2018-02-06T13:48:01Z</time>
      </trkpt>
      <trkpt lat="50.66554" lon="3.40972">
        <ele>46.872559</ele>
        <time>2018-02-06T13:48:03Z</time>
      </trkpt>
      <trkpt lat="50.66548" lon="3.40962">
        <ele>46.975929</ele>
        <time>2018-02-06T13:48:05Z</time>
      </trkpt>
      <trkpt lat="50.66541" lon="3.40953">
        <ele>47.127663</ele>
        <time>2018-02-06T13:48:07Z</time>
      </trkpt>
      <trkpt lat="50.66535" lon="3.40945">
        <ele>47.250805</ele>
        <time>2018-02-06T13:48:09Z</time>
      </trkpt>
      <trkpt lat="50.66528" lon="3.40938">
        <ele>47.426826</ele>
        <time>2018-02-06T13:48:11Z</time>
      </trkpt>
      <trkpt lat="50.66521" lon="3.40932">
        <ele>47.579208</ele>
        <time>2018-02-06T13:48:13Z</time>
      </trkpt>
      <trkpt lat="50.66513" lon="3.40926">
        <ele>47.745567</ele>
        <time>2018-02-06T13:48:15Z</time>
      </trkpt>
      <trkpt lat="50.66507" lon="3.4092">
        <ele>47.897194</ele>
        <time>2018-02-06T13:48:17Z</time>
      </trkpt>
      <trkpt lat="50.66499" lon="3.40915">
        <ele>48.048496</ele>
        <time>2018-02-06T13:48:19Z</time>
      </trkpt>
      <trkpt lat="50.66493" lon="3.4091">
        <ele>48.250607</ele>
        <time>2018-02-06T13:48:21Z</time>
      </trkpt>
      <trkpt lat="50.66485" lon="3.40905">
        <ele>48.476109</ele>
        <time>2018-02-06T13:48:23Z</time>
      </trkpt>
      <trkpt lat="50.66477" lon="3.409">
        <ele>48.697601</ele>
        <time>2018-02-06T13:48:25Z</time>
      </trkpt>
      <trkpt lat="50.6647" lon="3.40894">
        <ele>48.916363</ele>
        <time>2018-02-06T13:48:27Z</time>
      </trkpt>
      <trkpt lat="50.66462" lon="3.40889">
        <ele>49.13258</ele>
        <time>2018-02-06T13:48:29Z</time>
      </trkpt>
      <trkpt lat="50.66455" lon="3.40884">
        <ele>49.32666</ele>
        <time>2018-02-06T13:48:31Z</time>
      </trkpt>
      <trkpt lat="50.66447" lon="3.40879">
        <ele>49.515217</ele>
        <time>2018-02-06T13:48:33Z</time>
      </trkpt>
      <trkpt lat="50.6644" lon="3.40873">
        <ele>49.775074</ele>
        <time>2018-02-06T13:48:35Z</time>
      </trkpt>
      <trkpt lat="50.66433" lon="3.40868">
        <ele>50.065331</ele>
        <time>2018-02-06T13:48:37Z</time>
      </trkpt>
      <trkpt lat="50.66425" lon="3.40863">
        <ele>50.312721</ele>
        <time>2018-02-06T13:48:39Z</time>
      </trkpt>
      <trkpt lat="50.66418" lon="3.40858">
        <ele>50.640251</ele>
        <time>2018-02-06T13:48:41Z</time>
      </trkpt>
      <trkpt lat="50.6641" lon="3.40854">
        <ele>50.955112</ele>
        <time>2018-02-06T13:48:43Z</time>
      </trkpt>
      <trkpt lat="50.66403" lon="3.40851">
        <ele>51.297615</ele>
        <time>2018-02-06T13:48:45Z</time>
      </trkpt>
      <trkpt lat="50.66396" lon="3.40848">
        <ele>51.475353</ele>
        <time>2018-02-06T13:48:47Z</time>
      </trkpt>
      <trkpt lat="50.66388" lon="3.40845">
        <ele>51.79538</ele>
        <time>2018-02-06T13:48:49Z</time>
      </trkpt>
      <trkpt lat="50.66381" lon="3.40842">
        <ele>52.036308</ele>
        <time>2018-02-06T13:48:51Z</time>
      </trkpt>
      <trkpt lat="50.66373" lon="3.40839">
        <ele>52.404106</ele>
        <time>2018-02-06T13:48:53Z</time>
      </trkpt>
      <trkpt lat="50.66366" lon="3.40835">
        <ele>52.70768</ele>
        <time>2018-02-06T13:48:55Z</time>
      </trkpt>
      <trkpt lat="50.66359" lon="3.40833">
        <ele>53.050255</ele>
        <time>2018-02-06T13:48:57Z</time>
      </trkpt>
      <trkpt lat="50.66352" lon="3.40831">
        <ele>53.354347</ele>
        <time>2018-02-06T13:48:59Z</time>
      </trkpt>
      <trkpt lat="50.66345" lon="3.40828">
        <ele>53.627003</ele>
        <time>2018-02-06T13:49:01Z</time>
      </trkpt>
      <trkpt lat="50.66337" lon="3.40826">
        <ele>53.934166</ele>
        <time>2018-02-06T13:49:03Z</time>
      </trkpt>
      <trkpt lat="50.6633" lon="3.40823">
        <ele>54.2714</ele>
        <time>2018-02-06T13:49:05Z</time>
      </trkpt>
      <trkpt lat="50.66323" lon="3.40821">
        <ele>54.578186</ele>
        <time>2018-02-06T13:49:07Z</time>
      </trkpt>
      <trkpt lat="50.66316" lon="3.40818">
        <ele>54.89679</ele>
        <time>2018-02-06T13:49:09Z</time>
      </trkpt>
      <trkpt lat="50.66308" lon="3.40815">
        <ele>55.254768</ele>
        <time>2018-02-06T13:49:11Z</time>
      </trkpt>
      <trkpt lat="50.663" lon="3.40812">
        <ele>55.584728</ele>
        <time>2018-02-06T13:49:13Z</time>
      </trkpt>
      <trkpt lat="50.66293" lon="3.4081">
        <ele>55.915382</ele>
        <time>2018-02-06T13:49:15Z</time>
      </trkpt>
      <trkpt lat="50.66286" lon="3.40809">
        <ele>56.188416</ele>
        <time>2018-02-06T13:49:17Z</time>
      </trkpt>
      <trkpt lat="50.66278" lon="3.40807">
        <ele>56.512321</ele>
        <time>2018-02-06T13:49:19Z</time>
      </trkpt>
      <trkpt lat="50.66271" lon="3.40807">
        <ele>56.783886</ele>
        <time>2018-02-06T13:49:21Z</time>
      </trkpt>
      <trkpt lat="50.66264" lon="3.40807">
        <ele>57.053478</ele>
        <time>2018-02-06T13:49:23Z</time>
      </trkpt>
      <trkpt lat="50.66258" lon="3.40807">
        <ele>57.195629</ele>
        <time>2018-02-06T13:49:25Z</time>
      </trkpt>
      <trkpt lat="50.66253" lon="3.40807">
        <ele>57.46743</ele>
        <time>2018-02-06T13:49:27Z</time>
      </trkpt>
      <trkpt lat="50.66248" lon="3.40807">
        <ele>57.69804</ele>
        <time>2018-02-06T13:49:29Z</time>
      </trkpt>
      <trkpt lat="50.66244" lon="3.40803">
        <ele>57.959648</ele>
        <time>2018-02-06T13:49:31Z</time>
      </trkpt>
      <trkpt lat="50.66243" lon="3.40794">
        <ele>58.175667</ele>
        <time>2018-02-06T13:49:33Z</time>
      </trkpt>
      <trkpt lat="50.66243" lon="3.40784">
        <ele>58.358879</ele>
        <time>2018-02-06T13:49:35Z</time>
      </trkpt>
      <trkpt lat="50.66243" lon="3.40773">
        <ele>58.547813</ele>
        <time>2018-02-06T13:49:37Z</time>
      </trkpt>
      <trkpt lat="50.66245" lon="3.40761">
        <ele>58.677479</ele>
        <time>2018-02-06T13:49:39Z</time>
      </trkpt>
      <trkpt lat="50.66245" lon="3.40749">
        <ele>58.854492</ele>
        <time>2018-02-06T13:49:41Z</time>
      </trkpt>
      <trkpt lat="50.66246" lon="3.40737">
        <ele>58.961388</ele>
        <time>2018-02-06T13:49:43Z</time>
      </trkpt>
      <trkpt lat="50.66247" lon="3.40723">
        <ele>59.087269</ele>
        <time>2018-02-06T13:49:45Z</time>
      </trkpt>
      <trkpt lat="50.66248" lon="3.40708">
        <ele>59.186939</ele>
        <time>2018-02-06T13:49:47Z</time>
      </trkpt>
      <trkpt lat="50.66248" lon="3.40693">
        <ele>59.218365</ele>
        <time>2018-02-06T13:49:49Z</time>
      </trkpt>
      <trkpt lat="50.66249" lon="3.40677">
        <ele>59.274712</ele>
        <time>2018-02-06T13:49:51Z</time>
      </trkpt>
      <trkpt lat="50.66249" lon="3.40661">
        <ele>59.256866</ele>
        <time>2018-02-06T13:49:53Z</time>
      </trkpt>
      <trkpt lat="50.6625" lon="3.40644">
        <ele>59.287834</ele>
        <time>2018-02-06T13:49:55Z</time>
      </trkpt>
      <trkpt lat="50.66251" lon="3.40627">
        <ele>59.245941</ele>
        <time>2018-02-06T13:49:57Z</time>
      </trkpt>
      <trkpt lat="50.66251" lon="3.40611">
        <ele>59.174706</ele>
        <time>2018-02-06T13:49:59Z</time>
      </trkpt>
      <trkpt lat="50.66253" lon="3.40596">
        <ele>59.111095</ele>
        <time>2018-02-06T13:50:01Z</time>
      </trkpt>
      <trkpt lat="50.66254" lon="3.40581">
        <ele>59.105721</ele>
        <time>2018-02-06T13:50:03Z</time>
      </trkpt>
      <trkpt lat="50.66255" lon="3.40566">
        <ele>58.999878</ele>
        <time>2018-02-06T13:50:05Z</time>
      </trkpt>
      <trkpt lat="50.66257" lon="3.40551">
        <ele>58.852711</ele>
        <time>2018-02-06T13:50:07Z</time>
      </trkpt>
      <trkpt lat="50.66258" lon="3.40537">
        <ele>58.689606</ele>
        <time>2018-02-06T13:50:09Z</time>
      </trkpt>
      <trkpt lat="50.6626" lon="3.40523">
        <ele>58.578907</ele>
        <time>2018-02-06T13:50:11Z</time>
      </trkpt>
      <trkpt lat="50.66261" lon="3.4051">
        <ele>58.464478</ele>
        <time>2018-02-06T13:50:13Z</time>
      </trkpt>
      <trkpt lat="50.66262" lon="3.40496">
        <ele>58.384697</ele>
        <time>2018-02-06T13:50:15Z</time>
      </trkpt>
      <trkpt lat="50.66264" lon="3.40483">
        <ele>58.342194</ele>
        <time>2018-02-06T13:50:17Z</time>
      </trkpt>
      <trkpt lat="50.66265" lon="3.4047">
        <ele>58.280853</ele>
        <time>2018-02-06T13:50:19Z</time>
      </trkpt>
      <trkpt lat="50.66266" lon="3.40457">
        <ele>58.217201</ele>
        <time>2018-02-06T13:50:21Z</time>
      </trkpt>
      <trkpt lat="50.66267" lon="3.40444">
        <ele>58.182182</ele>
        <time>2018-02-06T13:50:23Z</time>
      </trkpt>
      <trkpt lat="50.66269" lon="3.40431">
        <ele>58.185955</ele>
        <time>2018-02-06T13:50:25Z</time>
      </trkpt>
      <trkpt lat="50.6627" lon="3.40418">
        <ele>58.14193</ele>
        <time>2018-02-06T13:50:27Z</time>
      </trkpt>
      <trkpt lat="50.66271" lon="3.40406">
        <ele>58.138733</ele>
        <time>2018-02-06T13:50:29Z</time>
      </trkpt>
      <trkpt lat="50.66274" lon="3.40393">
        <ele>58.192932</ele>
        <time>2018-02-06T13:50:31Z</time>
      </trkpt>
      <trkpt lat="50.66275" lon="3.40381">
        <ele>58.266144</ele>
        <time>2018-02-06T13:50:33Z</time>
      </trkpt>
      <trkpt lat="50.66277" lon="3.40369">
        <ele>58.390572</ele>
        <time>2018-02-06T13:50:35Z</time>
      </trkpt>
      <trkpt lat="50.66279" lon="3.40357">
        <ele>58.561676</ele>
        <time>2018-02-06T13:50:37Z</time>
      </trkpt>
      <trkpt lat="50.66281" lon="3.40345">
        <ele>58.73098</ele>
        <time>2018-02-06T13:50:39Z</time>
      </trkpt>
      <trkpt lat="50.66283" lon="3.40333">
        <ele>58.81498</ele>
        <time>2018-02-06T13:50:41Z</time>
      </trkpt>
      <trkpt lat="50.66286" lon="3.40321">
        <ele>58.9977</ele>
        <time>2018-02-06T13:50:43Z</time>
      </trkpt>
      <trkpt lat="50.66288" lon="3.4031">
        <ele>59.197742</ele>
        <time>2018-02-06T13:50:45Z</time>
      </trkpt>
      <trkpt lat="50.66291" lon="3.40298">
        <ele>59.450417</ele>
        <time>2018-02-06T13:50:47Z</time>
      </trkpt>
      <trkpt lat="50.66293" lon="3.40286">
        <ele>59.769623</ele>
        <time>2018-02-06T13:50:49Z</time>
      </trkpt>
      <trkpt lat="50.66295" lon="3.40274">
        <ele>59.994171</ele>
        <time>2018-02-06T13:50:51Z</time>
      </trkpt>
      <trkpt lat="50.66297" lon="3.40262">
        <ele>60.20179</ele>
        <time>2018-02-06T13:50:53Z</time>
      </trkpt>
      <trkpt lat="50.66299" lon="3.4025">
        <ele>60.482433</ele>
        <time>2018-02-06T13:50:55Z</time>
      </trkpt>
      <trkpt lat="50.66301" lon="3.40238">
        <ele>60.691811</ele>
        <time>2018-02-06T13:50:57Z</time>
      </trkpt>
      <trkpt lat="50.66304" lon="3.40226">
        <ele>60.954212</ele>
        <time>2018-02-06T13:50:59Z</time>
      </trkpt>
      <trkpt lat="50.66305" lon="3.40214">
        <ele>61.227486</ele>
        <time>2018-02-06T13:51:01Z</time>
      </trkpt>
      <trkpt lat="50.66307" lon="3.40202">
        <ele>61.492329</ele>
        <time>2018-02-06T13:51:03Z</time>
      </trkpt>
      <trkpt lat="50.66308" lon="3.40191">
        <ele>61.757252</ele>
        <time>2018-02-06T13:51:05Z</time>
      </trkpt>
      <trkpt lat="50.66309" lon="3.40179">
        <ele>62.044697</ele>
        <time>2018-02-06T13:51:07Z</time>
      </trkpt>
      <trkpt lat="50.66309" lon="3.40167">
        <ele>62.33189</ele>
        <time>2018-02-06T13:51:09Z</time>
      </trkpt>
      <trkpt lat="50.66309" lon="3.40156">
        <ele>62.623955</ele>
        <time>2018-02-06T13:51:11Z</time>
      </trkpt>
      <trkpt lat="50.66309" lon="3.40145">
        <ele>62.947468</ele>
        <time>2018-02-06T13:51:13Z</time>
      </trkpt>
      <trkpt lat="50.66309" lon="3.40134">
        <ele>63.103401</ele>
        <time>2018-02-06T13:51:15Z</time>
      </trkpt>
      <trkpt lat="50.66308" lon="3.40123">
        <ele>63.34082</ele>
        <time>2018-02-06T13:51:17Z</time>
      </trkpt>
      <trkpt lat="50.66307" lon="3.40112">
        <ele>63.578899</ele>
        <time>2018-02-06T13:51:19Z</time>
      </trkpt>
      <trkpt lat="50.66306" lon="3.40101">
        <ele>63.888409</ele>
        <time>2018-02-06T13:51:21Z</time>
      </trkpt>
      <trkpt lat="50.66306" lon="3.40091">
        <ele>64.174004</ele>
        <time>2018-02-06T13:51:23Z</time>
      </trkpt>
      <trkpt lat="50.66305" lon="3.40079">
        <ele>64.533966</ele>
        <time>2018-02-06T13:51:25Z</time>
      </trkpt>
      <trkpt lat="50.66305" lon="3.40068">
        <ele>64.913704</ele>
        <time>2018-02-06T13:51:27Z</time>
      </trkpt>
      <trkpt lat="50.66305" lon="3.40057">
        <ele>65.282883</ele>
        <time>2018-02-06T13:51:29Z</time>
      </trkpt>
      <trkpt lat="50.66306" lon="3.40047">
        <ele>65.65136</ele>
        <time>2018-02-06T13:51:31Z</time>
      </trkpt>
      <trkpt lat="50.66306" lon="3.40037">
        <ele>66.077599</ele>
        <time>2018-02-06T13:51:33Z</time>
      </trkpt>
      <trkpt lat="50.66307" lon="3.40028">
        <ele>66.476555</ele>
        <time>2018-02-06T13:51:35Z</time>
      </trkpt>
      <trkpt lat="50.66309" lon="3.4002">
        <ele>66.86245</ele>
        <time>2018-02-06T13:51:37Z</time>
      </trkpt>
      <trkpt lat="50.66311" lon="3.40011">
        <ele>67.264168</ele>
        <time>2018-02-06T13:51:39Z</time>
      </trkpt>
      <trkpt lat="50.66315" lon="3.40004">
        <ele>67.591934</ele>
        <time>2018-02-06T13:51:41Z</time>
      </trkpt>
      <trkpt lat="50.66319" lon="3.39995">
        <ele>67.941986</ele>
        <time>2018-02-06T13:51:43Z</time>
      </trkpt>
      <trkpt lat="50.66323" lon="3.39985">
        <ele>68.274025</ele>
        <time>2018-02-06T13:51:45Z</time>
      </trkpt>
      <trkpt lat="50.66326" lon="3.39976">
        <ele>68.40181</ele>
        <time>2018-02-06T13:51:47Z</time>
      </trkpt>
      <trkpt lat="50.66327" lon="3.39966">
        <ele>68.714394</ele>
        <time>2018-02-06T13:51:49Z</time>
      </trkpt>
      <trkpt lat="50.66328" lon="3.39955">
        <ele>68.960945</ele>
        <time>2018-02-06T13:51:51Z</time>
      </trkpt>
      <trkpt lat="50.66329" lon="3.39945">
        <ele>69.244469</ele>
        <time>2018-02-06T13:51:53Z</time>
      </trkpt>
      <trkpt lat="50.6633" lon="3.39934">
        <ele>69.433823</ele>
        <time>2018-02-06T13:51:55Z</time>
      </trkpt>
      <trkpt lat="50.6633" lon="3.39923">
        <ele>69.630852</ele>
        <time>2018-02-06T13:51:57Z</time>
      </trkpt>
      <trkpt lat="50.66331" lon="3.39912">
        <ele>69.870491</ele>
        <time>2018-02-06T13:51:59Z</time>
      </trkpt>
      <trkpt lat="50.66332" lon="3.399">
        <ele>70.027206</ele>
        <time>2018-02-06T13:52:01Z</time>
      </trkpt>
      <trkpt lat="50.66333" lon="3.39889">
        <ele>70.168694</ele>
        <time>2018-02-06T13:52:03Z</time>
      </trkpt>
      <trkpt lat="50.66334" lon="3.39877">
        <ele>70.291061</ele>
        <time>2018-02-06T13:52:05Z</time>
      </trkpt>
      <trkpt lat="50.66335" lon="3.39864">
        <ele>70.336655</ele>
        <time>2018-02-06T13:52:07Z</time>
      </trkpt>
      <trkpt lat="50.66337" lon="3.39849">
        <ele>70.369957</ele>
        <time>2018-02-06T13:52:09Z</time>
      </trkpt>
      <trkpt lat="50.66339" lon="3.39833">
        <ele>70.352791</ele>
        <time>2018-02-06T13:52:11Z</time>
      </trkpt>
      <trkpt lat="50.66341" lon="3.39815">
        <ele>70.312378</ele>
        <time>2018-02-06T13:52:13Z</time>
      </trkpt>
      <trkpt lat="50.66343" lon="3.39796">
        <ele>70.16156</ele>
        <time>2018-02-06T13:52:15Z</time>
      </trkpt>
      <trkpt lat="50.66346" lon="3.39777">
        <ele>70.03083</ele>
        <time>2018-02-06T13:52:17Z</time>
      </trkpt>
      <trkpt lat="50.66351" lon="3.39757">
        <ele>69.871231</ele>
        <time>2018-02-06T13:52:19Z</time>
      </trkpt>
      <trkpt lat="50.66356" lon="3.39737">
        <ele>69.803329</ele>
        <time>2018-02-06T13:52:21Z</time>
      </trkpt>
      <trkpt lat="50.66362" lon="3.39715">
        <ele>69.594849</ele>
        <time>2018-02-06T13:52:23Z</time>
      </trkpt>
      <trkpt lat="50.66369" lon="3.39695">
        <ele>69.363449</ele>
        <time>2018-02-06T13:52:25Z</time>
      </trkpt>
      <trkpt lat="50.66375" lon="3.39674">
        <ele>69.072968</ele>
        <time>2018-02-06T13:52:27Z</time>
      </trkpt>
      <trkpt lat="50.66381" lon="3.39654">
        <ele>68.803452</ele>
        <time>2018-02-06T13:52:29Z</time>
      </trkpt>
      <trkpt lat="50.66388" lon="3.39635">
        <ele>68.500198</ele>
        <time>2018-02-06T13:52:31Z</time>
      </trkpt>
      <trkpt lat="50.66395" lon="3.39616">
        <ele>68.273918</ele>
        <time>2018-02-06T13:52:33Z</time>
      </trkpt>
      <trkpt lat="50.66402" lon="3.39597">
        <ele>67.942734</ele>
        <time>2018-02-06T13:52:35Z</time>
      </trkpt>
      <trkpt lat="50.66411" lon="3.3958">
        <ele>67.620552</ele>
        <time>2018-02-06T13:52:37Z</time>
      </trkpt>
      <trkpt lat="50.6642" lon="3.39564">
        <ele>67.256973</ele>
        <time>2018-02-06T13:52:39Z</time>
      </trkpt>
      <trkpt lat="50.66428" lon="3.39548">
        <ele>66.923958</ele>
        <time>2018-02-06T13:52:41Z</time>
      </trkpt>
      <trkpt lat="50.66437" lon="3.39533">
        <ele>66.556641</ele>
        <time>2018-02-06T13:52:43Z</time>
      </trkpt>
      <trkpt lat="50.66445" lon="3.39518">
        <ele>66.086861</ele>
        <time>2018-02-06T13:52:45Z</time>
      </trkpt>
      <trkpt lat="50.66454" lon="3.39503">
        <ele>65.688774</ele>
        <time>2018-02-06T13:52:47Z</time>
      </trkpt>
      <trkpt lat="50.6646" lon="3.39489">
        <ele>65.24543</ele>
        <time>2018-02-06T13:52:49Z</time>
      </trkpt>
      <trkpt lat="50.66466" lon="3.39473">
        <ele>65.053688</ele>
        <time>2018-02-06T13:52:51Z</time>
      </trkpt>
      <trkpt lat="50.66468" lon="3.39455">
        <ele>64.649239</ele>
        <time>2018-02-06T13:52:53Z</time>
      </trkpt>
      <trkpt lat="50.66468" lon="3.39437">
        <ele>64.251137</ele>
        <time>2018-02-06T13:52:55Z</time>
      </trkpt>
      <trkpt lat="50.66468" lon="3.39419">
        <ele>63.901531</ele>
        <time>2018-02-06T13:52:57Z</time>
      </trkpt>
      <trkpt lat="50.66467" lon="3.39401">
        <ele>63.494286</ele>
        <time>2018-02-06T13:52:59Z</time>
      </trkpt>
      <trkpt lat="50.66465" lon="3.39384">
        <ele>63.125587</ele>
        <time>2018-02-06T13:53:01Z</time>
      </trkpt>
      <trkpt lat="50.66463" lon="3.39366">
        <ele>62.788078</ele>
        <time>2018-02-06T13:53:03Z</time>
      </trkpt>
      <trkpt lat="50.66462" lon="3.39348">
        <ele>62.493958</ele>
        <time>2018-02-06T13:53:05Z</time>
      </trkpt>
      <trkpt lat="50.6646" lon="3.39331">
        <ele>62.298195</ele>
        <time>2018-02-06T13:53:07Z</time>
      </trkpt>
      <trkpt lat="50.66459" lon="3.39313">
        <ele>62.017262</ele>
        <time>2018-02-06T13:53:09Z</time>
      </trkpt>
      <trkpt lat="50.66457" lon="3.39295">
        <ele>61.846588</ele>
        <time>2018-02-06T13:53:11Z</time>
      </trkpt>
      <trkpt lat="50.66455" lon="3.39277">
        <ele>61.64904</ele>
        <time>2018-02-06T13:53:13Z</time>
      </trkpt>
      <trkpt lat="50.66453" lon="3.39258">
        <ele>61.595631</ele>
        <time>2018-02-06T13:53:15Z</time>
      </trkpt>
      <trkpt lat="50.66452" lon="3.39239">
        <ele>61.504395</ele>
        <time>2018-02-06T13:53:17Z</time>
      </trkpt>
      <trkpt lat="50.6645" lon="3.39219">
        <ele>61.42675</ele>
        <time>2018-02-06T13:53:19Z</time>
      </trkpt>
      <trkpt lat="50.66449" lon="3.392">
        <ele>61.391827</ele>
        <time>2018-02-06T13:53:21Z</time>
      </trkpt>
      <trkpt lat="50.66447" lon="3.39181">
        <ele>61.390434</ele>
        <time>2018-02-06T13:53:23Z</time>
      </trkpt>
      <trkpt lat="50.66446" lon="3.39161">
        <ele>61.48111</ele>
        <time>2018-02-06T13:53:25Z</time>
      </trkpt>
      <trkpt lat="50.66444" lon="3.39143">
        <ele>61.516449</ele>
        <time>2018-02-06T13:53:27Z</time>
      </trkpt>
      <trkpt lat="50.66443" lon="3.39124">
        <ele>61.617504</ele>
        <time>2018-02-06T13:53:29Z</time>
      </trkpt>
      <trkpt lat="50.66442" lon="3.39106">
        <ele>61.737988</ele>
        <time>2018-02-06T13:53:31Z</time>
      </trkpt>
      <trkpt lat="50.66441" lon="3.39087">
        <ele>61.841412</ele>
        <time>2018-02-06T13:53:33Z</time>
      </trkpt>
      <trkpt lat="50.6644" lon="3.39069">
        <ele>62.043499</ele>
        <time>2018-02-06T13:53:35Z</time>
      </trkpt>
      <trkpt lat="50.6644" lon="3.39051">
        <ele>62.183796</ele>
        <time>2018-02-06T13:53:37Z</time>
      </trkpt>
      <trkpt lat="50.66441" lon="3.39036">
        <ele>62.379639</ele>
        <time>2018-02-06T13:53:39Z</time>
      </trkpt>
      <trkpt lat="50.66442" lon="3.3902">
        <ele>62.650749</ele>
        <time>2018-02-06T13:53:41Z</time>
      </trkpt>
      <trkpt lat="50.66443" lon="3.39004">
        <ele>62.871735</ele>
        <time>2018-02-06T13:53:43Z</time>
      </trkpt>
      <trkpt lat="50.66444" lon="3.38989">
        <ele>63.040413</ele>
        <time>2018-02-06T13:53:45Z</time>
      </trkpt>
      <trkpt lat="50.66444" lon="3.38974">
        <ele>63.244362</ele>
        <time>2018-02-06T13:53:47Z</time>
      </trkpt>
      <trkpt lat="50.66446" lon="3.38959">
        <ele>63.519722</ele>
        <time>2018-02-06T13:53:49Z</time>
      </trkpt>
      <trkpt lat="50.66447" lon="3.38944">
        <ele>63.769348</ele>
        <time>2018-02-06T13:53:51Z</time>
      </trkpt>
      <trkpt lat="50.66448" lon="3.38928">
        <ele>63.970013</ele>
        <time>2018-02-06T13:53:53Z</time>
      </trkpt>
      <trkpt lat="50.66449" lon="3.38912">
        <ele>64.114235</ele>
        <time>2018-02-06T13:53:55Z</time>
      </trkpt>
      <trkpt lat="50.66451" lon="3.38896">
        <ele>64.19165</ele>
        <time>2018-02-06T13:53:57Z</time>
      </trkpt>
      <trkpt lat="50.66453" lon="3.38881">
        <ele>64.332542</ele>
        <time>2018-02-06T13:53:59Z</time>
      </trkpt>
      <trkpt lat="50.66456" lon="3.38865">
        <ele>64.459587</ele>
        <time>2018-02-06T13:54:01Z</time>
      </trkpt>
      <trkpt lat="50.66459" lon="3.38849">
        <ele>64.492386</ele>
        <time>2018-02-06T13:54:03Z</time>
      </trkpt>
      <trkpt lat="50.66462" lon="3.38833">
        <ele>64.588005</ele>
        <time>2018-02-06T13:54:05Z</time>
      </trkpt>
      <trkpt lat="50.66464" lon="3.38816">
        <ele>64.670822</ele>
        <time>2018-02-06T13:54:07Z</time>
      </trkpt>
      <trkpt lat="50.66467" lon="3.38799">
        <ele>64.745834</ele>
        <time>2018-02-06T13:54:09Z</time>
      </trkpt>
      <trkpt lat="50.66472" lon="3.38783">
        <ele>64.753799</ele>
        <time>2018-02-06T13:54:11Z</time>
      </trkpt>
      <trkpt lat="50.66478" lon="3.38768">
        <ele>64.73558</ele>
        <time>2018-02-06T13:54:13Z</time>
      </trkpt>
      <trkpt lat="50.66487" lon="3.38754">
        <ele>64.691574</ele>
        <time>2018-02-06T13:54:15Z</time>
      </trkpt>
      <trkpt lat="50.66497" lon="3.38742">
        <ele>64.562798</ele>
        <time>2018-02-06T13:54:17Z</time>
      </trkpt>
      <trkpt lat="50.66507" lon="3.38731">
        <ele>64.499329</ele>
        <time>2018-02-06T13:54:19Z</time>
      </trkpt>
      <trkpt lat="50.66518" lon="3.38719">
        <ele>64.388092</ele>
        <time>2018-02-06T13:54:21Z</time>
      </trkpt>
      <trkpt lat="50.66528" lon="3.38708">
        <ele>64.243118</ele>
        <time>2018-02-06T13:54:23Z</time>
      </trkpt>
      <trkpt lat="50.66538" lon="3.38697">
        <ele>64.12764</ele>
        <time>2018-02-06T13:54:25Z</time>
      </trkpt>
      <trkpt lat="50.66548" lon="3.38686">
        <ele>63.996857</ele>
        <time>2018-02-06T13:54:27Z</time>
      </trkpt>
      <trkpt lat="50.66558" lon="3.38675">
        <ele>63.788948</ele>
        <time>2018-02-06T13:54:29Z</time>
      </trkpt>
      <trkpt lat="50.66568" lon="3.38663">
        <ele>63.602192</ele>
        <time>2018-02-06T13:54:31Z</time>
      </trkpt>
      <trkpt lat="50.66578" lon="3.38651">
        <ele>63.375023</ele>
        <time>2018-02-06T13:54:33Z</time>
      </trkpt>
      <trkpt lat="50.66589" lon="3.38639">
        <ele>63.153023</ele>
        <time>2018-02-06T13:54:35Z</time>
      </trkpt>
      <trkpt lat="50.666" lon="3.38627">
        <ele>62.87508</ele>
        <time>2018-02-06T13:54:37Z</time>
      </trkpt>
      <trkpt lat="50.6661" lon="3.38614">
        <ele>62.558979</ele>
        <time>2018-02-06T13:54:39Z</time>
      </trkpt>
      <trkpt lat="50.66621" lon="3.38602">
        <ele>62.282402</ele>
        <time>2018-02-06T13:54:41Z</time>
      </trkpt>
      <trkpt lat="50.66632" lon="3.38591">
        <ele>62.12307</ele>
        <time>2018-02-06T13:54:43Z</time>
      </trkpt>
      <trkpt lat="50.66642" lon="3.38578">
        <ele>61.751213</ele>
        <time>2018-02-06T13:54:45Z</time>
      </trkpt>
      <trkpt lat="50.66653" lon="3.38566">
        <ele>61.375061</ele>
        <time>2018-02-06T13:54:47Z</time>
      </trkpt>
      <trkpt lat="50.66664" lon="3.38554">
        <ele>61.051441</ele>
        <time>2018-02-06T13:54:49Z</time>
      </trkpt>
      <trkpt lat="50.66675" lon="3.38542">
        <ele>60.64497</ele>
        <time>2018-02-06T13:54:51Z</time>
      </trkpt>
      <trkpt lat="50.66686" lon="3.3853">
        <ele>60.298473</ele>
        <time>2018-02-06T13:54:53Z</time>
      </trkpt>
      <trkpt lat="50.66696" lon="3.38518">
        <ele>59.952553</ele>
        <time>2018-02-06T13:54:55Z</time>
      </trkpt>
      <trkpt lat="50.66706" lon="3.38506">
        <ele>59.602917</ele>
        <time>2018-02-06T13:54:57Z</time>
      </trkpt>
      <trkpt lat="50.66716" lon="3.38494">
        <ele>59.323555</ele>
        <time>2018-02-06T13:54:59Z</time>
      </trkpt>
      <trkpt lat="50.66727" lon="3.38483">
        <ele>58.967243</ele>
        <time>2018-02-06T13:55:01Z</time>
      </trkpt>
      <trkpt lat="50.66737" lon="3.38471">
        <ele>58.675404</ele>
        <time>2018-02-06T13:55:03Z</time>
      </trkpt>
      <trkpt lat="50.66746" lon="3.38459">
        <ele>58.370647</ele>
        <time>2018-02-06T13:55:05Z</time>
      </trkpt>
      <trkpt lat="50.66754" lon="3.38447">
        <ele>57.99419</ele>
        <time>2018-02-06T13:55:07Z</time>
      </trkpt>
      <trkpt lat="50.66762" lon="3.38434">
        <ele>57.723743</ele>
        <time>2018-02-06T13:55:09Z</time>
      </trkpt>
      <trkpt lat="50.6677" lon="3.38421">
        <ele>57.346863</ele>
        <time>2018-02-06T13:55:11Z</time>
      </trkpt>
      <trkpt lat="50.66778" lon="3.38407">
        <ele>57.049347</ele>
        <time>2018-02-06T13:55:13Z</time>
      </trkpt>
      <trkpt lat="50.66785" lon="3.38394">
        <ele>56.753754</ele>
        <time>2018-02-06T13:55:15Z</time>
      </trkpt>
      <trkpt lat="50.66792" lon="3.38381">
        <ele>56.485924</ele>
        <time>2018-02-06T13:55:17Z</time>
      </trkpt>
      <trkpt lat="50.66799" lon="3.38368">
        <ele>56.277046</ele>
        <time>2018-02-06T13:55:19Z</time>
      </trkpt>
      <trkpt lat="50.66806" lon="3.38355">
        <ele>56.059132</ele>
        <time>2018-02-06T13:55:21Z</time>
      </trkpt>
      <trkpt lat="50.66813" lon="3.38342">
        <ele>55.861572</ele>
        <time>2018-02-06T13:55:23Z</time>
      </trkpt>
      <trkpt lat="50.6682" lon="3.3833">
        <ele>55.802288</ele>
        <time>2018-02-06T13:55:25Z</time>
      </trkpt>
      <trkpt lat="50.66827" lon="3.38317">
        <ele>55.602539</ele>
        <time>2018-02-06T13:55:27Z</time>
      </trkpt>
      <trkpt lat="50.66834" lon="3.38304">
        <ele>55.401978</ele>
        <time>2018-02-06T13:55:29Z</time>
      </trkpt>
      <trkpt lat="50.66841" lon="3.3829">
        <ele>55.261528</ele>
        <time>2018-02-06T13:55:31Z</time>
      </trkpt>
      <trkpt lat="50.66848" lon="3.38277">
        <ele>55.090351</ele>
        <time>2018-02-06T13:55:33Z</time>
      </trkpt>
      <trkpt lat="50.66856" lon="3.38263">
        <ele>54.918835</ele>
        <time>2018-02-06T13:55:35Z</time>
      </trkpt>
      <trkpt lat="50.66863" lon="3.3825">
        <ele>54.753498</ele>
        <time>2018-02-06T13:55:37Z</time>
      </trkpt>
      <trkpt lat="50.66871" lon="3.38237">
        <ele>54.669361</ele>
        <time>2018-02-06T13:55:39Z</time>
      </trkpt>
      <trkpt lat="50.66879" lon="3.38224">
        <ele>54.501808</ele>
        <time>2018-02-06T13:55:41Z</time>
      </trkpt>
      <trkpt lat="50.66887" lon="3.38211">
        <ele>54.377136</ele>
        <time>2018-02-06T13:55:43Z</time>
      </trkpt>
      <trkpt lat="50.66896" lon="3.38198">
        <ele>54.294472</ele>
        <time>2018-02-06T13:55:45Z</time>
      </trkpt>
      <trkpt lat="50.66904" lon="3.38186">
        <ele>54.224903</ele>
        <time>2018-02-06T13:55:47Z</time>
      </trkpt>
      <trkpt lat="50.66913" lon="3.38174">
        <ele>54.142494</ele>
        <time>2018-02-06T13:55:49Z</time>
      </trkpt>
      <trkpt lat="50.66921" lon="3.38162">
        <ele>54.023857</ele>
        <time>2018-02-06T13:55:51Z</time>
      </trkpt>
      <trkpt lat="50.66929" lon="3.3815">
        <ele>53.957344</ele>
        <time>2018-02-06T13:55:53Z</time>
      </trkpt>
      <trkpt lat="50.66938" lon="3.38138">
        <ele>53.84483</ele>
        <time>2018-02-06T13:55:55Z</time>
      </trkpt>
      <trkpt lat="50.66946" lon="3.38127">
        <ele>53.822731</ele>
        <time>2018-02-06T13:55:57Z</time>
      </trkpt>
      <trkpt lat="50.66954" lon="3.38115">
        <ele>53.706921</ele>
        <time>2018-02-06T13:55:59Z</time>
      </trkpt>
      <trkpt lat="50.66962" lon="3.38103">
        <ele>53.592999</ele>
        <time>2018-02-06T13:56:01Z</time>
      </trkpt>
      <trkpt lat="50.6697" lon="3.38092">
        <ele>53.477043</ele>
        <time>2018-02-06T13:56:03Z</time>
      </trkpt>
      <trkpt lat="50.66979" lon="3.38081">
        <ele>53.384533</ele>
        <time>2018-02-06T13:56:05Z</time>
      </trkpt>
      <trkpt lat="50.66986" lon="3.3807">
        <ele>53.256783</ele>
        <time>2018-02-06T13:56:07Z</time>
      </trkpt>
      <trkpt lat="50.66993" lon="3.3806">
        <ele>53.135956</ele>
        <time>2018-02-06T13:56:09Z</time>
      </trkpt>
      <trkpt lat="50.66999" lon="3.3805">
        <ele>52.988903</ele>
        <time>2018-02-06T13:56:11Z</time>
      </trkpt>
      <trkpt lat="50.67004" lon="3.3804">
        <ele>52.796406</ele>
        <time>2018-02-06T13:56:13Z</time>
      </trkpt>
      <trkpt lat="50.67001" lon="3.38029">
        <ele>52.590076</ele>
        <time>2018-02-06T13:56:15Z</time>
      </trkpt>
      <trkpt lat="50.66992" lon="3.38025">
        <ele>52.377441</ele>
        <time>2018-02-06T13:56:17Z</time>
      </trkpt>
      <trkpt lat="50.66982" lon="3.38025">
        <ele>52.159248</ele>
        <time>2018-02-06T13:56:19Z</time>
      </trkpt>
      <trkpt lat="50.66972" lon="3.38024">
        <ele>51.977203</ele>
        <time>2018-02-06T13:56:21Z</time>
      </trkpt>
      <trkpt lat="50.66962" lon="3.38021">
        <ele>51.779224</ele>
        <time>2018-02-06T13:56:23Z</time>
      </trkpt>
      <trkpt lat="50.66952" lon="3.38018">
        <ele>51.584686</ele>
        <time>2018-02-06T13:56:25Z</time>
      </trkpt>
      <trkpt lat="50.66942" lon="3.38014">
        <ele>51.427307</ele>
        <time>2018-02-06T13:56:27Z</time>
      </trkpt>
      <trkpt lat="50.66933" lon="3.38008">
        <ele>51.208092</ele>
        <time>2018-02-06T13:56:29Z</time>
      </trkpt>
      <trkpt lat="50.66923" lon="3.38001">
        <ele>51.024586</ele>
        <time>2018-02-06T13:56:31Z</time>
      </trkpt>
      <trkpt lat="50.66913" lon="3.37994">
        <ele>50.850975</ele>
        <time>2018-02-06T13:56:33Z</time>
      </trkpt>
      <trkpt lat="50.66904" lon="3.37988">
        <ele>50.736183</ele>
        <time>2018-02-06T13:56:35Z</time>
      </trkpt>
      <trkpt lat="50.66894" lon="3.37981">
        <ele>50.6203</ele>
        <time>2018-02-06T13:56:37Z</time>
      </trkpt>
      <trkpt lat="50.66885" lon="3.37974">
        <ele>50.568596</ele>
        <time>2018-02-06T13:56:39Z</time>
      </trkpt>
      <trkpt lat="50.66876" lon="3.37967">
        <ele>50.573063</ele>
        <time>2018-02-06T13:56:41Z</time>
      </trkpt>
      <trkpt lat="50.66866" lon="3.37961">
        <ele>50.504517</ele>
        <time>2018-02-06T13:56:43Z</time>
      </trkpt>
      <trkpt lat="50.66857" lon="3.37954">
        <ele>50.416573</ele>
        <time>2018-02-06T13:56:45Z</time>
      </trkpt>
      <trkpt lat="50.66847" lon="3.37947">
        <ele>50.381332</ele>
        <time>2018-02-06T13:56:47Z</time>
      </trkpt>
      <trkpt lat="50.66837" lon="3.3794">
        <ele>50.396965</ele>
        <time>2018-02-06T13:56:49Z</time>
      </trkpt>
      <trkpt lat="50.66828" lon="3.37932">
        <ele>50.421711</ele>
        <time>2018-02-06T13:56:51Z</time>
      </trkpt>
      <trkpt lat="50.66818" lon="3.37925">
        <ele>50.438606</ele>
        <time>2018-02-06T13:56:53Z</time>
      </trkpt>
      <trkpt lat="50.66808" lon="3.37918">
        <ele>50.586308</ele>
        <time>2018-02-06T13:56:55Z</time>
      </trkpt>
      <trkpt lat="50.66798" lon="3.37912">
        <ele>50.778557</ele>
        <time>2018-02-06T13:56:57Z</time>
      </trkpt>
      <trkpt lat="50.66789" lon="3.37907">
        <ele>50.899734</ele>
        <time>2018-02-06T13:56:59Z</time>
      </trkpt>
      <trkpt lat="50.66778" lon="3.37903">
        <ele>51.083458</ele>
        <time>2018-02-06T13:57:01Z</time>
      </trkpt>
      <trkpt lat="50.66768" lon="3.379">
        <ele>51.197376</ele>
        <time>2018-02-06T13:57:03Z</time>
      </trkpt>
      <trkpt lat="50.66757" lon="3.37898">
        <ele>51.392193</ele>
        <time>2018-02-06T13:57:05Z</time>
      </trkpt>
      <trkpt lat="50.66747" lon="3.37896">
        <ele>51.543335</ele>
        <time>2018-02-06T13:57:07Z</time>
      </trkpt>
      <trkpt lat="50.66737" lon="3.37895">
        <ele>51.739124</ele>
        <time>2018-02-06T13:57:09Z</time>
      </trkpt>
      <trkpt lat="50.66728" lon="3.37895">
        <ele>51.928345</ele>
        <time>2018-02-06T13:57:11Z</time>
      </trkpt>
      <trkpt lat="50.66719" lon="3.37895">
        <ele>52.106468</ele>
        <time>2018-02-06T13:57:13Z</time>
      </trkpt>
      <trkpt lat="50.6671" lon="3.37895">
        <ele>52.264709</ele>
        <time>2018-02-06T13:57:15Z</time>
      </trkpt>
      <trkpt lat="50.66701" lon="3.37894">
        <ele>52.437004</ele>
        <time>2018-02-06T13:57:17Z</time>
      </trkpt>
      <trkpt lat="50.6669" lon="3.37893">
        <ele>52.48774</ele>
        <time>2018-02-06T13:57:19Z</time>
      </trkpt>
      <trkpt lat="50.6668" lon="3.3789">
        <ele>52.600105</ele>
        <time>2018-02-06T13:57:21Z</time>
      </trkpt>
      <trkpt lat="50.6667" lon="3.37884">
        <ele>52.652973</ele>
        <time>2018-02-06T13:57:23Z</time>
      </trkpt>
      <trkpt lat="50.6666" lon="3.37877">
        <ele>52.600372</ele>
        <time>2018-02-06T13:57:25Z</time>
      </trkpt>
      <trkpt lat="50.66649" lon="3.37868">
        <ele>52.548279</ele>
        <time>2018-02-06T13:57:27Z</time>
      </trkpt>
      <trkpt lat="50.66637" lon="3.37858">
        <ele>52.498219</ele>
        <time>2018-02-06T13:57:29Z</time>
      </trkpt>
      <trkpt lat="50.66625" lon="3.37849">
        <ele>52.192669</ele>
        <time>2018-02-06T13:57:31Z</time>
      </trkpt>
      <trkpt lat="50.66613" lon="3.37843">
        <ele>51.866753</ele>
        <time>2018-02-06T13:57:33Z</time>
      </trkpt>
      <trkpt lat="50.666" lon="3.3784">
        <ele>51.630108</ele>
        <time>2018-02-06T13:57:35Z</time>
      </trkpt>
      <trkpt lat="50.66588" lon="3.37836">
        <ele>51.088078</ele>
        <time>2018-02-06T13:57:37Z</time>
      </trkpt>
      <trkpt lat="50.66577" lon="3.3783">
        <ele>50.457909</ele>
        <time>2018-02-06T13:57:39Z</time>
      </trkpt>
      <trkpt lat="50.66567" lon="3.3782">
        <ele>49.733253</ele>
        <time>2018-02-06T13:57:41Z</time>
      </trkpt>
      <trkpt lat="50.66558" lon="3.37806">
        <ele>48.95805</ele>
        <time>2018-02-06T13:57:43Z</time>
      </trkpt>
      <trkpt lat="50.6655" lon="3.37793">
        <ele>48.183735</ele>
        <time>2018-02-06T13:57:45Z</time>
      </trkpt>
      <trkpt lat="50.6654" lon="3.3778">
        <ele>47.376297</ele>
        <time>2018-02-06T13:57:47Z</time>
      </trkpt>
      <trkpt lat="50.6653" lon="3.37766">
        <ele>46.530708</ele>
        <time>2018-02-06T13:57:49Z</time>
      </trkpt>
      <trkpt lat="50.6652" lon="3.37752">
        <ele>45.658241</ele>
        <time>2018-02-06T13:57:51Z</time>
      </trkpt>
      <trkpt lat="50.6651" lon="3.37735">
        <ele>45.218147</ele>
        <time>2018-02-06T13:57:53Z</time>
      </trkpt>
      <trkpt lat="50.665" lon="3.37717">
        <ele>44.248283</ele>
        <time>2018-02-06T13:57:55Z</time>
      </trkpt>
      <trkpt lat="50.66493" lon="3.37695">
        <ele>43.298134</ele>
        <time>2018-02-06T13:57:57Z</time>
      </trkpt>
      <trkpt lat="50.66486" lon="3.37671">
        <ele>42.226112</ele>
        <time>2018-02-06T13:57:59Z</time>
      </trkpt>
      <trkpt lat="50.6648" lon="3.37648">
        <ele>41.098999</ele>
        <time>2018-02-06T13:58:01Z</time>
      </trkpt>
      <trkpt lat="50.66471" lon="3.37626">
        <ele>40.032715</ele>
        <time>2018-02-06T13:58:03Z</time>
      </trkpt>
      <trkpt lat="50.66462" lon="3.37605">
        <ele>39.016922</ele>
        <time>2018-02-06T13:58:05Z</time>
      </trkpt>
      <trkpt lat="50.66453" lon="3.37582">
        <ele>37.947868</ele>
        <time>2018-02-06T13:58:07Z</time>
      </trkpt>
      <trkpt lat="50.66445" lon="3.37558">
        <ele>36.992062</ele>
        <time>2018-02-06T13:58:09Z</time>
      </trkpt>
      <trkpt lat="50.66438" lon="3.37534">
        <ele>35.997536</ele>
        <time>2018-02-06T13:58:11Z</time>
      </trkpt>
      <trkpt lat="50.66431" lon="3.37509">
        <ele>35.162464</ele>
        <time>2018-02-06T13:58:13Z</time>
      </trkpt>
      <trkpt lat="50.66423" lon="3.37484">
        <ele>34.268757</ele>
        <time>2018-02-06T13:58:15Z</time>
      </trkpt>
      <trkpt lat="50.66417" lon="3.37461">
        <ele>33.546303</ele>
        <time>2018-02-06T13:58:17Z</time>
      </trkpt>
      <trkpt lat="50.66409" lon="3.3744">
        <ele>32.863445</ele>
        <time>2018-02-06T13:58:19Z</time>
      </trkpt>
      <trkpt lat="50.66402" lon="3.37419">
        <ele>32.189125</ele>
        <time>2018-02-06T13:58:21Z</time>
      </trkpt>
      <trkpt lat="50.66393" lon="3.37401">
        <ele>31.603846</ele>
        <time>2018-02-06T13:58:23Z</time>
      </trkpt>
      <trkpt lat="50.6638" lon="3.37386">
        <ele>30.921101</ele>
        <time>2018-02-06T13:58:25Z</time>
      </trkpt>
      <trkpt lat="50.66365" lon="3.37373">
        <ele>30.262051</ele>
        <time>2018-02-06T13:58:27Z</time>
      </trkpt>
      <trkpt lat="50.66351" lon="3.37361">
        <ele>29.650463</ele>
        <time>2018-02-06T13:58:29Z</time>
      </trkpt>
      <trkpt lat="50.66337" lon="3.37348">
        <ele>29.266876</ele>
        <time>2018-02-06T13:58:31Z</time>
      </trkpt>
      <trkpt lat="50.66324" lon="3.37336">
        <ele>28.634953</ele>
        <time>2018-02-06T13:58:33Z</time>
      </trkpt>
      <trkpt lat="50.66311" lon="3.37327">
        <ele>28.008881</ele>
        <time>2018-02-06T13:58:35Z</time>
      </trkpt>
      <trkpt lat="50.66298" lon="3.37322">
        <ele>27.483313</ele>
        <time>2018-02-06T13:58:37Z</time>
      </trkpt>
      <trkpt lat="50.66284" lon="3.37323">
        <ele>26.869574</ele>
        <time>2018-02-06T13:58:39Z</time>
      </trkpt>
      <trkpt lat="50.66272" lon="3.37328">
        <ele>26.40126</ele>
        <time>2018-02-06T13:58:41Z</time>
      </trkpt>
      <trkpt lat="50.66259" lon="3.37333">
        <ele>25.872669</ele>
        <time>2018-02-06T13:58:43Z</time>
      </trkpt>
      <trkpt lat="50.66246" lon="3.37336">
        <ele>25.397388</ele>
        <time>2018-02-06T13:58:45Z</time>
      </trkpt>
      <trkpt lat="50.66233" lon="3.37334">
        <ele>24.964077</ele>
        <time>2018-02-06T13:58:47Z</time>
      </trkpt>
      <trkpt lat="50.6622" lon="3.37328">
        <ele>24.595903</ele>
        <time>2018-02-06T13:58:49Z</time>
      </trkpt>
      <trkpt lat="50.66207" lon="3.3732">
        <ele>24.152203</ele>
        <time>2018-02-06T13:58:51Z</time>
      </trkpt>
      <trkpt lat="50.66194" lon="3.37312">
        <ele>23.778107</ele>
        <time>2018-02-06T13:58:53Z</time>
      </trkpt>
      <trkpt lat="50.6618" lon="3.37306">
        <ele>23.382824</ele>
        <time>2018-02-06T13:58:55Z</time>
      </trkpt>
      <trkpt lat="50.66167" lon="3.37302">
        <ele>23.081394</ele>
        <time>2018-02-06T13:58:57Z</time>
      </trkpt>
      <trkpt lat="50.66153" lon="3.373">
        <ele>22.774403</ele>
        <time>2018-02-06T13:58:59Z</time>
      </trkpt>
      <trkpt lat="50.6614" lon="3.373">
        <ele>22.515535</ele>
        <time>2018-02-06T13:59:01Z</time>
      </trkpt>
      <trkpt lat="50.66127" lon="3.37302">
        <ele>22.327536</ele>
        <time>2018-02-06T13:59:03Z</time>
      </trkpt>
      <trkpt lat="50.66114" lon="3.37306">
        <ele>22.185949</ele>
        <time>2018-02-06T13:59:05Z</time>
      </trkpt>
      <trkpt lat="50.66102" lon="3.37311">
        <ele>22.070896</ele>
        <time>2018-02-06T13:59:07Z</time>
      </trkpt>
      <trkpt lat="50.66089" lon="3.37316">
        <ele>21.913242</ele>
        <time>2018-02-06T13:59:09Z</time>
      </trkpt>
      <trkpt lat="50.66077" lon="3.3732">
        <ele>21.79034</ele>
        <time>2018-02-06T13:59:11Z</time>
      </trkpt>
      <trkpt lat="50.66064" lon="3.37323">
        <ele>21.753584</ele>
        <time>2018-02-06T13:59:13Z</time>
      </trkpt>
      <trkpt lat="50.6605" lon="3.37325">
        <ele>21.707407</ele>
        <time>2018-02-06T13:59:15Z</time>
      </trkpt>
      <trkpt lat="50.66037" lon="3.37324">
        <ele>21.686449</ele>
        <time>2018-02-06T13:59:17Z</time>
      </trkpt>
      <trkpt lat="50.66024" lon="3.37321">
        <ele>21.662426</ele>
        <time>2018-02-06T13:59:19Z</time>
      </trkpt>
      <trkpt lat="50.66013" lon="3.37314">
        <ele>21.77372</ele>
        <time>2018-02-06T13:59:21Z</time>
      </trkpt>
      <trkpt lat="50.66004" lon="3.37299">
        <ele>21.850931</ele>
        <time>2018-02-06T13:59:23Z</time>
      </trkpt>
      <trkpt lat="50.65999" lon="3.37281">
        <ele>21.980869</ele>
        <time>2018-02-06T13:59:25Z</time>
      </trkpt>
      <trkpt lat="50.65994" lon="3.37264">
        <ele>22.080509</ele>
        <time>2018-02-06T13:59:27Z</time>
      </trkpt>
      <trkpt lat="50.65987" lon="3.37247">
        <ele>22.226587</ele>
        <time>2018-02-06T13:59:29Z</time>
      </trkpt>
      <trkpt lat="50.65981" lon="3.37232">
        <ele>22.373539</ele>
        <time>2018-02-06T13:59:31Z</time>
      </trkpt>
      <trkpt lat="50.65973" lon="3.37219">
        <ele>22.561714</ele>
        <time>2018-02-06T13:59:33Z</time>
      </trkpt>
      <trkpt lat="50.65965" lon="3.37206">
        <ele>22.768642</ele>
        <time>2018-02-06T13:59:35Z</time>
      </trkpt>
      <trkpt lat="50.65956" lon="3.37193">
        <ele>22.95174</ele>
        <time>2018-02-06T13:59:37Z</time>
      </trkpt>
      <trkpt lat="50.65947" lon="3.37177">
        <ele>23.13279</ele>
        <time>2018-02-06T13:59:39Z</time>
      </trkpt>
      <trkpt lat="50.65938" lon="3.37161">
        <ele>23.314053</ele>
        <time>2018-02-06T13:59:41Z</time>
      </trkpt>
      <trkpt lat="50.65928" lon="3.37146">
        <ele>23.371464</ele>
        <time>2018-02-06T13:59:43Z</time>
      </trkpt>
      <trkpt lat="50.65918" lon="3.37132">
        <ele>23.498959</ele>
        <time>2018-02-06T13:59:45Z</time>
      </trkpt>
      <trkpt lat="50.65908" lon="3.37115">
        <ele>23.563993</ele>
        <time>2018-02-06T13:59:47Z</time>
      </trkpt>
      <trkpt lat="50.65901" lon="3.37096">
        <ele>23.700748</ele>
        <time>2018-02-06T13:59:49Z</time>
      </trkpt>
      <trkpt lat="50.65897" lon="3.37075">
        <ele>23.768755</ele>
        <time>2018-02-06T13:59:51Z</time>
      </trkpt>
      <trkpt lat="50.65893" lon="3.37053">
        <ele>23.815489</ele>
        <time>2018-02-06T13:59:53Z</time>
      </trkpt>
      <trkpt lat="50.6589" lon="3.37032">
        <ele>23.822424</ele>
        <time>2018-02-06T13:59:55Z</time>
      </trkpt>
      <trkpt lat="50.65887" lon="3.3701">
        <ele>23.882534</ele>
        <time>2018-02-06T13:59:57Z</time>
      </trkpt>
      <trkpt lat="50.65884" lon="3.36988">
        <ele>23.954412</ele>
        <time>2018-02-06T13:59:59Z</time>
      </trkpt>
      <trkpt lat="50.65881" lon="3.36967">
        <ele>23.913374</ele>
        <time>2018-02-06T14:00:01Z</time>
      </trkpt>
      <trkpt lat="50.65878" lon="3.36946">
        <ele>23.768509</ele>
        <time>2018-02-06T14:00:03Z</time>
      </trkpt>
      <trkpt lat="50.65875" lon="3.36925">
        <ele>23.626385</ele>
        <time>2018-02-06T14:00:05Z</time>
      </trkpt>
      <trkpt lat="50.65871" lon="3.36905">
        <ele>23.538219</ele>
        <time>2018-02-06T14:00:07Z</time>
      </trkpt>
      <trkpt lat="50.65868" lon="3.36885">
        <ele>23.371346</ele>
        <time>2018-02-06T14:00:09Z</time>
      </trkpt>
      <trkpt lat="50.65865" lon="3.36866">
        <ele>23.126942</ele>
        <time>2018-02-06T14:00:11Z</time>
      </trkpt>
      <trkpt lat="50.65863" lon="3.36848">
        <ele>22.913359</ele>
        <time>2018-02-06T14:00:13Z</time>
      </trkpt>
      <trkpt lat="50.6586" lon="3.36829">
        <ele>22.672703</ele>
        <time>2018-02-06T14:00:15Z</time>
      </trkpt>
      <trkpt lat="50.65857" lon="3.36811">
        <ele>22.41025</ele>
        <time>2018-02-06T14:00:17Z</time>
      </trkpt>
      <trkpt lat="50.65854" lon="3.36793">
        <ele>22.108234</ele>
        <time>2018-02-06T14:00:19Z</time>
      </trkpt>
      <trkpt lat="50.6585" lon="3.36775">
        <ele>21.864439</ele>
        <time>2018-02-06T14:00:21Z</time>
      </trkpt>
      <trkpt lat="50.65848" lon="3.36756">
        <ele>21.730692</ele>
        <time>2018-02-06T14:00:23Z</time>
      </trkpt>
      <trkpt lat="50.65845" lon="3.36738">
        <ele>21.537788</ele>
        <time>2018-02-06T14:00:25Z</time>
      </trkpt>
      <trkpt lat="50.65844" lon="3.3672">
        <ele>21.267385</ele>
        <time>2018-02-06T14:00:27Z</time>
      </trkpt>
      <trkpt lat="50.65842" lon="3.36701">
        <ele>21.00964</ele>
        <time>2018-02-06T14:00:29Z</time>
      </trkpt>
      <trkpt lat="50.65842" lon="3.36682">
        <ele>20.814821</ele>
        <time>2018-02-06T14:00:31Z</time>
      </trkpt>
      <trkpt lat="50.65841" lon="3.36663">
        <ele>20.638054</ele>
        <time>2018-02-06T14:00:33Z</time>
      </trkpt>
      <trkpt lat="50.65838" lon="3.36644">
        <ele>20.384714</ele>
        <time>2018-02-06T14:00:35Z</time>
      </trkpt>
      <trkpt lat="50.65835" lon="3.36626">
        <ele>20.157682</ele>
        <time>2018-02-06T14:00:37Z</time>
      </trkpt>
      <trkpt lat="50.65832" lon="3.36608">
        <ele>19.959135</ele>
        <time>2018-02-06T14:00:39Z</time>
      </trkpt>
      <trkpt lat="50.6583" lon="3.36592">
        <ele>19.808645</ele>
        <time>2018-02-06T14:00:41Z</time>
      </trkpt>
      <trkpt lat="50.65827" lon="3.36576">
        <ele>19.717278</ele>
        <time>2018-02-06T14:00:43Z</time>
      </trkpt>
      <trkpt lat="50.65824" lon="3.36561">
        <ele>19.544558</ele>
        <time>2018-02-06T14:00:45Z</time>
      </trkpt>
      <trkpt lat="50.65822" lon="3.36547">
        <ele>19.416927</ele>
        <time>2018-02-06T14:00:47Z</time>
      </trkpt>
      <trkpt lat="50.65818" lon="3.36531">
        <ele>19.273264</ele>
        <time>2018-02-06T14:00:49Z</time>
      </trkpt>
      <trkpt lat="50.65812" lon="3.36518">
        <ele>19.214146</ele>
        <time>2018-02-06T14:00:51Z</time>
      </trkpt>
      <trkpt lat="50.65802" lon="3.3651">
        <ele>19.158085</ele>
        <time>2018-02-06T14:00:53Z</time>
      </trkpt>
      <trkpt lat="50.6579" lon="3.36506">
        <ele>19.172205</ele>
        <time>2018-02-06T14:00:55Z</time>
      </trkpt>
      <trkpt lat="50.65778" lon="3.36503">
        <ele>19.095327</ele>
        <time>2018-02-06T14:00:57Z</time>
      </trkpt>
      <trkpt lat="50.65766" lon="3.36501">
        <ele>19.027344</ele>
        <time>2018-02-06T14:00:59Z</time>
      </trkpt>
      <trkpt lat="50.65755" lon="3.36498">
        <ele>19.019482</ele>
        <time>2018-02-06T14:01:01Z</time>
      </trkpt>
      <trkpt lat="50.65744" lon="3.36495">
        <ele>18.976864</ele>
        <time>2018-02-06T14:01:03Z</time>
      </trkpt>
      <trkpt lat="50.65732" lon="3.36491">
        <ele>18.961687</ele>
        <time>2018-02-06T14:01:05Z</time>
      </trkpt>
      <trkpt lat="50.65722" lon="3.36486">
        <ele>18.918278</ele>
        <time>2018-02-06T14:01:07Z</time>
      </trkpt>
      <trkpt lat="50.65716" lon="3.36478">
        <ele>18.855022</ele>
        <time>2018-02-06T14:01:09Z</time>
      </trkpt>
      <trkpt lat="50.65719" lon="3.36462">
        <ele>18.763371</ele>
        <time>2018-02-06T14:01:11Z</time>
      </trkpt>
      <trkpt lat="50.6572" lon="3.36443">
        <ele>18.678699</ele>
        <time>2018-02-06T14:01:13Z</time>
      </trkpt>
      <trkpt lat="50.65722" lon="3.36424">
        <ele>18.650671</ele>
        <time>2018-02-06T14:01:15Z</time>
      </trkpt>
      <trkpt lat="50.65722" lon="3.36406">
        <ele>18.614264</ele>
        <time>2018-02-06T14:01:17Z</time>
      </trkpt>
      <trkpt lat="50.65722" lon="3.36388">
        <ele>18.474762</ele>
        <time>2018-02-06T14:01:19Z</time>
      </trkpt>
      <trkpt lat="50.65724" lon="3.36371">
        <ele>18.40308</ele>
        <time>2018-02-06T14:01:21Z</time>
      </trkpt>
      <trkpt lat="50.65725" lon="3.36354">
        <ele>18.264568</ele>
        <time>2018-02-06T14:01:23Z</time>
      </trkpt>
      <trkpt lat="50.65728" lon="3.36336">
        <ele>18.128965</ele>
        <time>2018-02-06T14:01:25Z</time>
      </trkpt>
      <trkpt lat="50.65731" lon="3.36322">
        <ele>17.961575</ele>
        <time>2018-02-06T14:01:27Z</time>
      </trkpt>
      <trkpt lat="50.65733" lon="3.3631">
        <ele>17.821178</ele>
        <time>2018-02-06T14:01:29Z</time>
      </trkpt>
      <trkpt lat="50.65733" lon="3.36299">
        <ele>17.72282</ele>
        <time>2018-02-06T14:01:31Z</time>
      </trkpt>
      <trkpt lat="50.65733" lon="3.3629">
        <ele>17.58264</ele>
        <time>2018-02-06T14:01:33Z</time>
      </trkpt>
      <trkpt lat="50.65733" lon="3.36285">
        <ele>17.42168</ele>
        <time>2018-02-06T14:01:35Z</time>
      </trkpt>
      <trkpt lat="50.6573" lon="3.36277">
        <ele>17.34071</ele>
        <time>2018-02-06T14:01:37Z</time>
      </trkpt>
      <trkpt lat="50.65725" lon="3.36271">
        <ele>17.215807</ele>
        <time>2018-02-06T14:01:39Z</time>
      </trkpt>
      <trkpt lat="50.65717" lon="3.36266">
        <ele>17.043133</ele>
        <time>2018-02-06T14:01:41Z</time>
      </trkpt>
      <trkpt lat="50.65708" lon="3.36263">
        <ele>16.926973</ele>
        <time>2018-02-06T14:01:43Z</time>
      </trkpt>
      <trkpt lat="50.65701" lon="3.36257">
        <ele>16.780699</ele>
        <time>2018-02-06T14:01:45Z</time>
      </trkpt>
      <trkpt lat="50.65693" lon="3.36254">
        <ele>16.668427</ele>
        <time>2018-02-06T14:01:47Z</time>
      </trkpt>
      <trkpt lat="50.65685" lon="3.36251">
        <ele>16.552649</ele>
        <time>2018-02-06T14:01:49Z</time>
      </trkpt>
      <trkpt lat="50.65677" lon="3.36248">
        <ele>16.447512</ele>
        <time>2018-02-06T14:01:51Z</time>
      </trkpt>
      <trkpt lat="50.65669" lon="3.36244">
        <ele>16.34816</ele>
        <time>2018-02-06T14:01:53Z</time>
      </trkpt>
      <trkpt lat="50.65659" lon="3.36241">
        <ele>16.268818</ele>
        <time>2018-02-06T14:01:55Z</time>
      </trkpt>
      <trkpt lat="50.6565" lon="3.36237">
        <ele>16.193785</ele>
        <time>2018-02-06T14:01:57Z</time>
      </trkpt>
      <trkpt lat="50.6564" lon="3.36233">
        <ele>16.128134</ele>
        <time>2018-02-06T14:01:59Z</time>
      </trkpt>
      <trkpt lat="50.6563" lon="3.3623">
        <ele>16.083105</ele>
        <time>2018-02-06T14:02:01Z</time>
      </trkpt>
      <trkpt lat="50.65621" lon="3.36226">
        <ele>15.97818</ele>
        <time>2018-02-06T14:02:03Z</time>
      </trkpt>
      <trkpt lat="50.65611" lon="3.36223">
        <ele>15.915606</ele>
        <time>2018-02-06T14:02:05Z</time>
      </trkpt>
      <trkpt lat="50.65601" lon="3.36221">
        <ele>15.940946</ele>
        <time>2018-02-06T14:02:07Z</time>
      </trkpt>
      <trkpt lat="50.65592" lon="3.36219">
        <ele>15.948099</ele>
        <time>2018-02-06T14:02:09Z</time>
      </trkpt>
      <trkpt lat="50.65582" lon="3.36218">
        <ele>15.918013</ele>
        <time>2018-02-06T14:02:11Z</time>
      </trkpt>
      <trkpt lat="50.65572" lon="3.36217">
        <ele>15.889465</ele>
        <time>2018-02-06T14:02:13Z</time>
      </trkpt>
      <trkpt lat="50.65563" lon="3.36217">
        <ele>15.906668</ele>
        <time>2018-02-06T14:02:15Z</time>
      </trkpt>
      <trkpt lat="50.65553" lon="3.36217">
        <ele>15.939252</ele>
        <time>2018-02-06T14:02:17Z</time>
      </trkpt>
      <trkpt lat="50.65543" lon="3.36217">
        <ele>15.99236</ele>
        <time>2018-02-06T14:02:19Z</time>
      </trkpt>
      <trkpt lat="50.65532" lon="3.36217">
        <ele>16.098728</ele>
        <time>2018-02-06T14:02:21Z</time>
      </trkpt>
      <trkpt lat="50.65521" lon="3.36217">
        <ele>16.132313</ele>
        <time>2018-02-06T14:02:23Z</time>
      </trkpt>
      <trkpt lat="50.65511" lon="3.36217">
        <ele>16.148167</ele>
        <time>2018-02-06T14:02:25Z</time>
      </trkpt>
      <trkpt lat="50.65501" lon="3.36218">
        <ele>16.199505</ele>
        <time>2018-02-06T14:02:27Z</time>
      </trkpt>
      <trkpt lat="50.6549" lon="3.36218">
        <ele>16.221416</ele>
        <time>2018-02-06T14:02:29Z</time>
      </trkpt>
      <trkpt lat="50.6548" lon="3.36219">
        <ele>16.275517</ele>
        <time>2018-02-06T14:02:31Z</time>
      </trkpt>
      <trkpt lat="50.65469" lon="3.3622">
        <ele>16.41293</ele>
        <time>2018-02-06T14:02:33Z</time>
      </trkpt>
      <trkpt lat="50.65458" lon="3.3622">
        <ele>16.498108</ele>
        <time>2018-02-06T14:02:35Z</time>
      </trkpt>
      <trkpt lat="50.65448" lon="3.36219">
        <ele>16.609957</ele>
        <time>2018-02-06T14:02:37Z</time>
      </trkpt>
      <trkpt lat="50.65437" lon="3.36218">
        <ele>16.716061</ele>
        <time>2018-02-06T14:02:39Z</time>
      </trkpt>
      <trkpt lat="50.65426" lon="3.36219">
        <ele>16.870125</ele>
        <time>2018-02-06T14:02:41Z</time>
      </trkpt>
      <trkpt lat="50.65416" lon="3.36219">
        <ele>17.079807</ele>
        <time>2018-02-06T14:02:43Z</time>
      </trkpt>
      <trkpt lat="50.65405" lon="3.36219">
        <ele>17.242109</ele>
        <time>2018-02-06T14:02:45Z</time>
      </trkpt>
      <trkpt lat="50.65395" lon="3.36219">
        <ele>17.449507</ele>
        <time>2018-02-06T14:02:47Z</time>
      </trkpt>
      <trkpt lat="50.65384" lon="3.36219">
        <ele>17.663</ele>
        <time>2018-02-06T14:02:49Z</time>
      </trkpt>
      <trkpt lat="50.65373" lon="3.36219">
        <ele>17.797655</ele>
        <time>2018-02-06T14:02:51Z</time>
      </trkpt>
      <trkpt lat="50.65363" lon="3.36219">
        <ele>17.975409</ele>
        <time>2018-02-06T14:02:53Z</time>
      </trkpt>
      <trkpt lat="50.65352" lon="3.36219">
        <ele>18.178286</ele>
        <time>2018-02-06T14:02:55Z</time>
      </trkpt>
      <trkpt lat="50.6534" lon="3.36219">
        <ele>18.361742</ele>
        <time>2018-02-06T14:02:57Z</time>
      </trkpt>
      <trkpt lat="50.6533" lon="3.36219">
        <ele>18.511662</ele>
        <time>2018-02-06T14:02:59Z</time>
      </trkpt>
      <trkpt lat="50.65319" lon="3.36219">
        <ele>18.663422</ele>
        <time>2018-02-06T14:03:01Z</time>
      </trkpt>
      <trkpt lat="50.65308" lon="3.36219">
        <ele>18.870663</ele>
        <time>2018-02-06T14:03:03Z</time>
      </trkpt>
      <trkpt lat="50.65298" lon="3.3622">
        <ele>19.139343</ele>
        <time>2018-02-06T14:03:05Z</time>
      </trkpt>
      <trkpt lat="50.65287" lon="3.36221">
        <ele>19.368214</ele>
        <time>2018-02-06T14:03:07Z</time>
      </trkpt>
      <trkpt lat="50.65276" lon="3.36223">
        <ele>19.444483</ele>
        <time>2018-02-06T14:03:09Z</time>
      </trkpt>
      <trkpt lat="50.65266" lon="3.36224">
        <ele>19.57501</ele>
        <time>2018-02-06T14:03:11Z</time>
      </trkpt>
      <trkpt lat="50.65256" lon="3.36227">
        <ele>19.719349</ele>
        <time>2018-02-06T14:03:13Z</time>
      </trkpt>
      <trkpt lat="50.65246" lon="3.3623">
        <ele>19.86227</ele>
        <time>2018-02-06T14:03:15Z</time>
      </trkpt>
      <trkpt lat="50.65237" lon="3.36234">
        <ele>20.098101</ele>
        <time>2018-02-06T14:03:17Z</time>
      </trkpt>
      <trkpt lat="50.65227" lon="3.36238">
        <ele>20.293619</ele>
        <time>2018-02-06T14:03:19Z</time>
      </trkpt>
      <trkpt lat="50.65218" lon="3.36243">
        <ele>20.515064</ele>
        <time>2018-02-06T14:03:21Z</time>
      </trkpt>
      <trkpt lat="50.6521" lon="3.36248">
        <ele>20.713535</ele>
        <time>2018-02-06T14:03:23Z</time>
      </trkpt>
      <trkpt lat="50.65202" lon="3.36254">
        <ele>20.939163</ele>
        <time>2018-02-06T14:03:25Z</time>
      </trkpt>
      <trkpt lat="50.65194" lon="3.3626">
        <ele>21.180412</ele>
        <time>2018-02-06T14:03:27Z</time>
      </trkpt>
      <trkpt lat="50.65186" lon="3.36266">
        <ele>21.323118</ele>
        <time>2018-02-06T14:03:29Z</time>
      </trkpt>
      <trkpt lat="50.65178" lon="3.36272">
        <ele>21.592764</ele>
        <time>2018-02-06T14:03:31Z</time>
      </trkpt>
      <trkpt lat="50.6517" lon="3.36278">
        <ele>21.906258</ele>
        <time>2018-02-06T14:03:33Z</time>
      </trkpt>
      <trkpt lat="50.65162" lon="3.36285">
        <ele>22.201405</ele>
        <time>2018-02-06T14:03:35Z</time>
      </trkpt>
      <trkpt lat="50.65154" lon="3.36291">
        <ele>22.463911</ele>
        <time>2018-02-06T14:03:37Z</time>
      </trkpt>
      <trkpt lat="50.65147" lon="3.36298">
        <ele>22.716427</ele>
        <time>2018-02-06T14:03:39Z</time>
      </trkpt>
      <trkpt lat="50.65139" lon="3.36304">
        <ele>23.037422</ele>
        <time>2018-02-06T14:03:41Z</time>
      </trkpt>
      <trkpt lat="50.65131" lon="3.3631">
        <ele>23.184593</ele>
        <time>2018-02-06T14:03:43Z</time>
      </trkpt>
      <trkpt lat="50.65123" lon="3.36317">
        <ele>23.410959</ele>
        <time>2018-02-06T14:03:45Z</time>
      </trkpt>
      <trkpt lat="50.65115" lon="3.36323">
        <ele>23.65822</ele>
        <time>2018-02-06T14:03:47Z</time>
      </trkpt>
      <trkpt lat="50.65107" lon="3.3633">
        <ele>23.92873</ele>
        <time>2018-02-06T14:03:49Z</time>
      </trkpt>
      <trkpt lat="50.65099" lon="3.36337">
        <ele>24.346918</ele>
        <time>2018-02-06T14:03:51Z</time>
      </trkpt>
      <trkpt lat="50.65092" lon="3.36344">
        <ele>24.765661</ele>
        <time>2018-02-06T14:03:53Z</time>
      </trkpt>
      <trkpt lat="50.65084" lon="3.3635">
        <ele>25.100151</ele>
        <time>2018-02-06T14:03:55Z</time>
      </trkpt>
      <trkpt lat="50.65077" lon="3.36356">
        <ele>25.471354</ele>
        <time>2018-02-06T14:03:57Z</time>
      </trkpt>
      <trkpt lat="50.6507" lon="3.36362">
        <ele>25.796381</ele>
        <time>2018-02-06T14:03:59Z</time>
      </trkpt>
      <trkpt lat="50.65063" lon="3.36368">
        <ele>26.186544</ele>
        <time>2018-02-06T14:04:01Z</time>
      </trkpt>
      <trkpt lat="50.65056" lon="3.36374">
        <ele>26.494862</ele>
        <time>2018-02-06T14:04:03Z</time>
      </trkpt>
      <trkpt lat="50.65049" lon="3.3638">
        <ele>26.867962</ele>
        <time>2018-02-06T14:04:05Z</time>
      </trkpt>
      <trkpt lat="50.65042" lon="3.36385">
        <ele>27.193201</ele>
        <time>2018-02-06T14:04:07Z</time>
      </trkpt>
      <trkpt lat="50.65035" lon="3.3639">
        <ele>27.532291</ele>
        <time>2018-02-06T14:04:09Z</time>
      </trkpt>
      <trkpt lat="50.65027" lon="3.36395">
        <ele>27.904041</ele>
        <time>2018-02-06T14:04:11Z</time>
      </trkpt>
      <trkpt lat="50.6502" lon="3.364">
        <ele>28.273443</ele>
        <time>2018-02-06T14:04:13Z</time>
      </trkpt>
      <trkpt lat="50.65014" lon="3.36406">
        <ele>28.414944</ele>
        <time>2018-02-06T14:04:15Z</time>
      </trkpt>
      <trkpt lat="50.65007" lon="3.36412">
        <ele>28.667156</ele>
        <time>2018-02-06T14:04:17Z</time>
      </trkpt>
      <trkpt lat="50.64999" lon="3.36417">
        <ele>28.985952</ele>
        <time>2018-02-06T14:04:19Z</time>
      </trkpt>
      <trkpt lat="50.64993" lon="3.36422">
        <ele>29.408377</ele>
        <time>2018-02-06T14:04:21Z</time>
      </trkpt>
      <trkpt lat="50.64986" lon="3.36427">
        <ele>29.732718</ele>
        <time>2018-02-06T14:04:23Z</time>
      </trkpt>
      <trkpt lat="50.64979" lon="3.36433">
        <ele>30.12561</ele>
        <time>2018-02-06T14:04:25Z</time>
      </trkpt>
      <trkpt lat="50.64972" lon="3.3644">
        <ele>30.453135</ele>
        <time>2018-02-06T14:04:27Z</time>
      </trkpt>
      <trkpt lat="50.64966" lon="3.36446">
        <ele>30.74151</ele>
        <time>2018-02-06T14:04:29Z</time>
      </trkpt>
      <trkpt lat="50.6496" lon="3.36453">
        <ele>31.068722</ele>
        <time>2018-02-06T14:04:31Z</time>
      </trkpt>
      <trkpt lat="50.64954" lon="3.36461">
        <ele>31.296001</ele>
        <time>2018-02-06T14:04:33Z</time>
      </trkpt>
      <trkpt lat="50.64948" lon="3.36469">
        <ele>31.527908</ele>
        <time>2018-02-06T14:04:35Z</time>
      </trkpt>
      <trkpt lat="50.64943" lon="3.36477">
        <ele>31.790277</ele>
        <time>2018-02-06T14:04:37Z</time>
      </trkpt>
      <trkpt lat="50.64938" lon="3.36485">
        <ele>32.044086</ele>
        <time>2018-02-06T14:04:39Z</time>
      </trkpt>
      <trkpt lat="50.64934" lon="3.36493">
        <ele>32.240883</ele>
        <time>2018-02-06T14:04:41Z</time>
      </trkpt>
      <trkpt lat="50.6493" lon="3.36498">
        <ele>32.454063</ele>
        <time>2018-02-06T14:04:43Z</time>
      </trkpt>
      <trkpt lat="50.64926" lon="3.36498">
        <ele>32.651344</ele>
        <time>2018-02-06T14:04:45Z</time>
      </trkpt>
      <trkpt lat="50.64922" lon="3.36491">
        <ele>32.721348</ele>
        <time>2018-02-06T14:04:47Z</time>
      </trkpt>
      <trkpt lat="50.64917" lon="3.36481">
        <ele>32.887321</ele>
        <time>2018-02-06T14:04:49Z</time>
      </trkpt>
      <trkpt lat="50.64913" lon="3.36471">
        <ele>33.020481</ele>
        <time>2018-02-06T14:04:51Z</time>
      </trkpt>
      <trkpt lat="50.64908" lon="3.36461">
        <ele>33.113884</ele>
        <time>2018-02-06T14:04:53Z</time>
      </trkpt>
      <trkpt lat="50.64903" lon="3.36451">
        <ele>33.140633</ele>
        <time>2018-02-06T14:04:55Z</time>
      </trkpt>
      <trkpt lat="50.64897" lon="3.36439">
        <ele>33.243523</ele>
        <time>2018-02-06T14:04:57Z</time>
      </trkpt>
      <trkpt lat="50.64891" lon="3.36426">
        <ele>33.268394</ele>
        <time>2018-02-06T14:04:59Z</time>
      </trkpt>
      <trkpt lat="50.64886" lon="3.36413">
        <ele>33.276527</ele>
        <time>2018-02-06T14:05:01Z</time>
      </trkpt>
      <trkpt lat="50.64882" lon="3.364">
        <ele>33.246536</ele>
        <time>2018-02-06T14:05:03Z</time>
      </trkpt>
      <trkpt lat="50.64877" lon="3.36388">
        <ele>33.201843</ele>
        <time>2018-02-06T14:05:05Z</time>
      </trkpt>
      <trkpt lat="50.64874" lon="3.36375">
        <ele>33.13102</ele>
        <time>2018-02-06T14:05:07Z</time>
      </trkpt>
      <trkpt lat="50.6487" lon="3.36363">
        <ele>33.028404</ele>
        <time>2018-02-06T14:05:09Z</time>
      </trkpt>
      <trkpt lat="50.64866" lon="3.36352">
        <ele>32.944187</ele>
        <time>2018-02-06T14:05:11Z</time>
      </trkpt>
      <trkpt lat="50.64861" lon="3.3634">
        <ele>32.799805</ele>
        <time>2018-02-06T14:05:13Z</time>
      </trkpt>
      <trkpt lat="50.64856" lon="3.36329">
        <ele>32.704025</ele>
        <time>2018-02-06T14:05:15Z</time>
      </trkpt>
      <trkpt lat="50.64851" lon="3.36317">
        <ele>32.602959</ele>
        <time>2018-02-06T14:05:17Z</time>
      </trkpt>
      <trkpt lat="50.64844" lon="3.36306">
        <ele>32.468441</ele>
        <time>2018-02-06T14:05:19Z</time>
      </trkpt>
      <trkpt lat="50.64837" lon="3.36295">
        <ele>32.362545</ele>
        <time>2018-02-06T14:05:21Z</time>
      </trkpt>
      <trkpt lat="50.64829" lon="3.36284">
        <ele>32.146172</ele>
        <time>2018-02-06T14:05:23Z</time>
      </trkpt>
      <trkpt lat="50.64821" lon="3.36273">
        <ele>32.074329</ele>
        <time>2018-02-06T14:05:25Z</time>
      </trkpt>
      <trkpt lat="50.64813" lon="3.3626">
        <ele>31.902271</ele>
        <time>2018-02-06T14:05:27Z</time>
      </trkpt>
      <trkpt lat="50.64803" lon="3.36248">
        <ele>31.702869</ele>
        <time>2018-02-06T14:05:29Z</time>
      </trkpt>
      <trkpt lat="50.64796" lon="3.36237">
        <ele>31.45311</ele>
        <time>2018-02-06T14:05:31Z</time>
      </trkpt>
      <trkpt lat="50.64787" lon="3.36225">
        <ele>31.213867</ele>
        <time>2018-02-06T14:05:33Z</time>
      </trkpt>
      <trkpt lat="50.64778" lon="3.36213">
        <ele>30.945744</ele>
        <time>2018-02-06T14:05:35Z</time>
      </trkpt>
      <trkpt lat="50.64771" lon="3.36201">
        <ele>30.693869</ele>
        <time>2018-02-06T14:05:37Z</time>
      </trkpt>
      <trkpt lat="50.64765" lon="3.36188">
        <ele>30.400894</ele>
        <time>2018-02-06T14:05:39Z</time>
      </trkpt>
      <trkpt lat="50.6476" lon="3.36174">
        <ele>30.02915</ele>
        <time>2018-02-06T14:05:41Z</time>
      </trkpt>
      <trkpt lat="50.64758" lon="3.36156">
        <ele>29.658138</ele>
        <time>2018-02-06T14:05:43Z</time>
      </trkpt>
      <trkpt lat="50.6476" lon="3.36139">
        <ele>29.304541</ele>
        <time>2018-02-06T14:05:45Z</time>
      </trkpt>
      <trkpt lat="50.64765" lon="3.3612">
        <ele>28.934032</ele>
        <time>2018-02-06T14:05:47Z</time>
      </trkpt>
      <trkpt lat="50.64769" lon="3.36101">
        <ele>28.60528</ele>
        <time>2018-02-06T14:05:49Z</time>
      </trkpt>
      <trkpt lat="50.64771" lon="3.3608">
        <ele>28.195438</ele>
        <time>2018-02-06T14:05:51Z</time>
      </trkpt>
      <trkpt lat="50.6477" lon="3.3606">
        <ele>27.806339</ele>
        <time>2018-02-06T14:05:53Z</time>
      </trkpt>
      <trkpt lat="50.64767" lon="3.36039">
        <ele>27.664509</ele>
        <time>2018-02-06T14:05:55Z</time>
      </trkpt>
      <trkpt lat="50.64764" lon="3.36018">
        <ele>27.197613</ele>
        <time>2018-02-06T14:05:57Z</time>
      </trkpt>
      <trkpt lat="50.64759" lon="3.35997">
        <ele>26.778009</ele>
        <time>2018-02-06T14:05:59Z</time>
      </trkpt>
      <trkpt lat="50.64751" lon="3.35977">
        <ele>26.296982</ele>
        <time>2018-02-06T14:06:01Z</time>
      </trkpt>
      <trkpt lat="50.64744" lon="3.35957">
        <ele>25.816706</ele>
        <time>2018-02-06T14:06:03Z</time>
      </trkpt>
      <trkpt lat="50.64736" lon="3.35937">
        <ele>25.403934</ele>
        <time>2018-02-06T14:06:05Z</time>
      </trkpt>
      <trkpt lat="50.64728" lon="3.35918">
        <ele>24.965338</ele>
        <time>2018-02-06T14:06:07Z</time>
      </trkpt>
      <trkpt lat="50.64719" lon="3.35899">
        <ele>24.449291</ele>
        <time>2018-02-06T14:06:09Z</time>
      </trkpt>
      <trkpt lat="50.64711" lon="3.3588">
        <ele>23.987804</ele>
        <time>2018-02-06T14:06:11Z</time>
      </trkpt>
      <trkpt lat="50.64703" lon="3.35861">
        <ele>23.508759</ele>
        <time>2018-02-06T14:06:13Z</time>
      </trkpt>
      <trkpt lat="50.64694" lon="3.35842">
        <ele>23.096712</ele>
        <time>2018-02-06T14:06:15Z</time>
      </trkpt>
      <trkpt lat="50.64686" lon="3.35823">
        <ele>22.710209</ele>
        <time>2018-02-06T14:06:17Z</time>
      </trkpt>
      <trkpt lat="50.64677" lon="3.35805">
        <ele>22.299358</ele>
        <time>2018-02-06T14:06:19Z</time>
      </trkpt>
      <trkpt lat="50.64668" lon="3.35788">
        <ele>21.911558</ele>
        <time>2018-02-06T14:06:21Z</time>
      </trkpt>
      <trkpt lat="50.64657" lon="3.35774">
        <ele>21.7535</ele>
        <time>2018-02-06T14:06:23Z</time>
      </trkpt>
      <trkpt lat="50.64645" lon="3.35761">
        <ele>21.410793</ele>
        <time>2018-02-06T14:06:25Z</time>
      </trkpt>
      <trkpt lat="50.64634" lon="3.35748">
        <ele>20.963024</ele>
        <time>2018-02-06T14:06:27Z</time>
      </trkpt>
      <trkpt lat="50.64623" lon="3.35734">
        <ele>20.565094</ele>
        <time>2018-02-06T14:06:29Z</time>
      </trkpt>
      <trkpt lat="50.64613" lon="3.3572">
        <ele>20.189436</ele>
        <time>2018-02-06T14:06:31Z</time>
      </trkpt>
      <trkpt lat="50.64603" lon="3.35704">
        <ele>19.88098</ele>
        <time>2018-02-06T14:06:33Z</time>
      </trkpt>
      <trkpt lat="50.64595" lon="3.35686">
        <ele>19.550081</ele>
        <time>2018-02-06T14:06:35Z</time>
      </trkpt>
      <trkpt lat="50.64587" lon="3.35667">
        <ele>19.262529</ele>
        <time>2018-02-06T14:06:37Z</time>
      </trkpt>
      <trkpt lat="50.6458" lon="3.3565">
        <ele>19.039717</ele>
        <time>2018-02-06T14:06:39Z</time>
      </trkpt>
      <trkpt lat="50.64573" lon="3.35632">
        <ele>18.765757</ele>
        <time>2018-02-06T14:06:41Z</time>
      </trkpt>
      <trkpt lat="50.64568" lon="3.35613">
        <ele>18.569811</ele>
        <time>2018-02-06T14:06:43Z</time>
      </trkpt>
      <trkpt lat="50.64567" lon="3.35594">
        <ele>18.309059</ele>
        <time>2018-02-06T14:06:45Z</time>
      </trkpt>
      <trkpt lat="50.64568" lon="3.35574">
        <ele>18.058136</ele>
        <time>2018-02-06T14:06:47Z</time>
      </trkpt>
      <trkpt lat="50.6457" lon="3.35555">
        <ele>17.79324</ele>
        <time>2018-02-06T14:06:49Z</time>
      </trkpt>
      <trkpt lat="50.64571" lon="3.35535">
        <ele>17.625492</ele>
        <time>2018-02-06T14:06:51Z</time>
      </trkpt>
      <trkpt lat="50.64571" lon="3.35516">
        <ele>17.498112</ele>
        <time>2018-02-06T14:06:53Z</time>
      </trkpt>
      <trkpt lat="50.64571" lon="3.35496">
        <ele>17.336296</ele>
        <time>2018-02-06T14:06:55Z</time>
      </trkpt>
      <trkpt lat="50.64572" lon="3.35477">
        <ele>17.130329</ele>
        <time>2018-02-06T14:06:57Z</time>
      </trkpt>
      <trkpt lat="50.64572" lon="3.35458">
        <ele>16.958523</ele>
        <time>2018-02-06T14:06:59Z</time>
      </trkpt>
      <trkpt lat="50.64573" lon="3.35439">
        <ele>16.786335</ele>
        <time>2018-02-06T14:07:01Z</time>
      </trkpt>
      <trkpt lat="50.64573" lon="3.3542">
        <ele>16.662542</ele>
        <time>2018-02-06T14:07:03Z</time>
      </trkpt>
      <trkpt lat="50.64574" lon="3.35401">
        <ele>16.508459</ele>
        <time>2018-02-06T14:07:05Z</time>
      </trkpt>
      <trkpt lat="50.64574" lon="3.35383">
        <ele>16.444256</ele>
        <time>2018-02-06T14:07:07Z</time>
      </trkpt>
      <trkpt lat="50.64574" lon="3.35364">
        <ele>16.458162</ele>
        <time>2018-02-06T14:07:09Z</time>
      </trkpt>
      <trkpt lat="50.64574" lon="3.35346">
        <ele>16.435617</ele>
        <time>2018-02-06T14:07:11Z</time>
      </trkpt>
      <trkpt lat="50.64574" lon="3.35329">
        <ele>16.436283</ele>
        <time>2018-02-06T14:07:13Z</time>
      </trkpt>
      <trkpt lat="50.64574" lon="3.35312">
        <ele>16.41963</ele>
        <time>2018-02-06T14:07:15Z</time>
      </trkpt>
      <trkpt lat="50.64574" lon="3.35295">
        <ele>16.430441</ele>
        <time>2018-02-06T14:07:17Z</time>
      </trkpt>
      <trkpt lat="50.64573" lon="3.35279">
        <ele>16.441929</ele>
        <time>2018-02-06T14:07:19Z</time>
      </trkpt>
      <trkpt lat="50.64573" lon="3.35263">
        <ele>16.455217</ele>
        <time>2018-02-06T14:07:21Z</time>
      </trkpt>
      <trkpt lat="50.64573" lon="3.35247">
        <ele>16.50758</ele>
        <time>2018-02-06T14:07:23Z</time>
      </trkpt>
      <trkpt lat="50.64572" lon="3.35233">
        <ele>16.560452</ele>
        <time>2018-02-06T14:07:25Z</time>
      </trkpt>
      <trkpt lat="50.64571" lon="3.35218">
        <ele>16.649902</ele>
        <time>2018-02-06T14:07:27Z</time>
      </trkpt>
      <trkpt lat="50.64571" lon="3.35203">
        <ele>16.758989</ele>
        <time>2018-02-06T14:07:29Z</time>
      </trkpt>
      <trkpt lat="50.6457" lon="3.35188">
        <ele>16.899055</ele>
        <time>2018-02-06T14:07:31Z</time>
      </trkpt>
      <trkpt lat="50.64568" lon="3.35173">
        <ele>17.093061</ele>
        <time>2018-02-06T14:07:33Z</time>
      </trkpt>
      <trkpt lat="50.64567" lon="3.35158">
        <ele>17.262743</ele>
        <time>2018-02-06T14:07:35Z</time>
      </trkpt>
      <trkpt lat="50.64565" lon="3.35144">
        <ele>17.471691</ele>
        <time>2018-02-06T14:07:37Z</time>
      </trkpt>
      <trkpt lat="50.64563" lon="3.3513">
        <ele>17.733486</ele>
        <time>2018-02-06T14:07:39Z</time>
      </trkpt>
      <trkpt lat="50.64562" lon="3.35115">
        <ele>17.963173</ele>
        <time>2018-02-06T14:07:41Z</time>
      </trkpt>
      <trkpt lat="50.6456" lon="3.35101">
        <ele>18.233324</ele>
        <time>2018-02-06T14:07:43Z</time>
      </trkpt>
      <trkpt lat="50.64559" lon="3.35087">
        <ele>18.535114</ele>
        <time>2018-02-06T14:07:45Z</time>
      </trkpt>
      <trkpt lat="50.64558" lon="3.35074">
        <ele>18.807249</ele>
        <time>2018-02-06T14:07:47Z</time>
      </trkpt>
      <trkpt lat="50.64557" lon="3.35062">
        <ele>19.027271</ele>
        <time>2018-02-06T14:07:49Z</time>
      </trkpt>
      <trkpt lat="50.64556" lon="3.35051">
        <ele>19.133198</ele>
        <time>2018-02-06T14:07:51Z</time>
      </trkpt>
      <trkpt lat="50.64554" lon="3.35039">
        <ele>19.363731</ele>
        <time>2018-02-06T14:07:53Z</time>
      </trkpt>
      <trkpt lat="50.64553" lon="3.35029">
        <ele>19.555077</ele>
        <time>2018-02-06T14:07:55Z</time>
      </trkpt>
      <trkpt lat="50.64552" lon="3.35019">
        <ele>19.788292</ele>
        <time>2018-02-06T14:07:57Z</time>
      </trkpt>
      <trkpt lat="50.64551" lon="3.35007">
        <ele>19.990154</ele>
        <time>2018-02-06T14:07:59Z</time>
      </trkpt>
      <trkpt lat="50.6455" lon="3.34995">
        <ele>20.196171</ele>
        <time>2018-02-06T14:08:01Z</time>
      </trkpt>
      <trkpt lat="50.64549" lon="3.34982">
        <ele>20.43531</ele>
        <time>2018-02-06T14:08:03Z</time>
      </trkpt>
      <trkpt lat="50.64546" lon="3.34967">
        <ele>20.605743</ele>
        <time>2018-02-06T14:08:05Z</time>
      </trkpt>
      <trkpt lat="50.64545" lon="3.34952">
        <ele>20.707466</ele>
        <time>2018-02-06T14:08:07Z</time>
      </trkpt>
      <trkpt lat="50.64544" lon="3.34937">
        <ele>20.842319</ele>
        <time>2018-02-06T14:08:09Z</time>
      </trkpt>
      <trkpt lat="50.64544" lon="3.34922">
        <ele>20.98962</ele>
        <time>2018-02-06T14:08:11Z</time>
      </trkpt>
      <trkpt lat="50.64542" lon="3.34907">
        <ele>21.045111</ele>
        <time>2018-02-06T14:08:13Z</time>
      </trkpt>
      <trkpt lat="50.6454" lon="3.3489">
        <ele>21.056744</ele>
        <time>2018-02-06T14:08:15Z</time>
      </trkpt>
      <trkpt lat="50.64537" lon="3.34873">
        <ele>21.036871</ele>
        <time>2018-02-06T14:08:17Z</time>
      </trkpt>
      <trkpt lat="50.64536" lon="3.34858">
        <ele>20.986256</ele>
        <time>2018-02-06T14:08:19Z</time>
      </trkpt>
      <trkpt lat="50.64534" lon="3.34841">
        <ele>20.865957</ele>
        <time>2018-02-06T14:08:21Z</time>
      </trkpt>
      <trkpt lat="50.64533" lon="3.34825">
        <ele>20.808207</ele>
        <time>2018-02-06T14:08:23Z</time>
      </trkpt>
      <trkpt lat="50.6453" lon="3.34807">
        <ele>20.671894</ele>
        <time>2018-02-06T14:08:25Z</time>
      </trkpt>
      <trkpt lat="50.64528" lon="3.3479">
        <ele>20.572357</ele>
        <time>2018-02-06T14:08:27Z</time>
      </trkpt>
      <trkpt lat="50.64526" lon="3.34772">
        <ele>20.494501</ele>
        <time>2018-02-06T14:08:29Z</time>
      </trkpt>
      <trkpt lat="50.64524" lon="3.34755">
        <ele>20.403183</ele>
        <time>2018-02-06T14:08:31Z</time>
      </trkpt>
      <trkpt lat="50.64522" lon="3.3474">
        <ele>20.206015</ele>
        <time>2018-02-06T14:08:33Z</time>
      </trkpt>
      <trkpt lat="50.6452" lon="3.34724">
        <ele>20.032703</ele>
        <time>2018-02-06T14:08:35Z</time>
      </trkpt>
      <trkpt lat="50.64517" lon="3.34709">
        <ele>19.84997</ele>
        <time>2018-02-06T14:08:37Z</time>
      </trkpt>
      <trkpt lat="50.64516" lon="3.34693">
        <ele>19.674725</ele>
        <time>2018-02-06T14:08:39Z</time>
      </trkpt>
      <trkpt lat="50.64514" lon="3.34677">
        <ele>19.466125</ele>
        <time>2018-02-06T14:08:41Z</time>
      </trkpt>
      <trkpt lat="50.64512" lon="3.3466">
        <ele>19.249939</ele>
        <time>2018-02-06T14:08:43Z</time>
      </trkpt>
      <trkpt lat="50.6451" lon="3.34644">
        <ele>19.068151</ele>
        <time>2018-02-06T14:08:45Z</time>
      </trkpt>
      <trkpt lat="50.64508" lon="3.34629">
        <ele>18.890415</ele>
        <time>2018-02-06T14:08:47Z</time>
      </trkpt>
      <trkpt lat="50.64507" lon="3.34615">
        <ele>18.746483</ele>
        <time>2018-02-06T14:08:49Z</time>
      </trkpt>
      <trkpt lat="50.64505" lon="3.34602">
        <ele>18.608343</ele>
        <time>2018-02-06T14:08:51Z</time>
      </trkpt>
      <trkpt lat="50.64504" lon="3.3459">
        <ele>18.489773</ele>
        <time>2018-02-06T14:08:53Z</time>
      </trkpt>
      <trkpt lat="50.64504" lon="3.3458">
        <ele>18.383553</ele>
        <time>2018-02-06T14:08:55Z</time>
      </trkpt>
      <trkpt lat="50.64504" lon="3.34573">
        <ele>18.336685</ele>
        <time>2018-02-06T14:08:57Z</time>
      </trkpt>
      <trkpt lat="50.64501" lon="3.34567">
        <ele>18.333485</ele>
        <time>2018-02-06T14:08:59Z</time>
      </trkpt>
      <trkpt lat="50.64494" lon="3.34566">
        <ele>18.284384</ele>
        <time>2018-02-06T14:09:01Z</time>
      </trkpt>
      <trkpt lat="50.64485" lon="3.34567">
        <ele>18.327492</ele>
        <time>2018-02-06T14:09:03Z</time>
      </trkpt>
      <trkpt lat="50.64476" lon="3.34569">
        <ele>18.345577</ele>
        <time>2018-02-06T14:09:05Z</time>
      </trkpt>
      <trkpt lat="50.64466" lon="3.34569">
        <ele>18.401478</ele>
        <time>2018-02-06T14:09:07Z</time>
      </trkpt>
      <trkpt lat="50.64456" lon="3.34569">
        <ele>18.365278</ele>
        <time>2018-02-06T14:09:09Z</time>
      </trkpt>
      <trkpt lat="50.64447" lon="3.34569">
        <ele>18.331142</ele>
        <time>2018-02-06T14:09:11Z</time>
      </trkpt>
      <trkpt lat="50.64437" lon="3.34568">
        <ele>18.332277</ele>
        <time>2018-02-06T14:09:13Z</time>
      </trkpt>
      <trkpt lat="50.64427" lon="3.34568">
        <ele>18.401848</ele>
        <time>2018-02-06T14:09:15Z</time>
      </trkpt>
      <trkpt lat="50.64417" lon="3.34567">
        <ele>18.459217</ele>
        <time>2018-02-06T14:09:17Z</time>
      </trkpt>
      <trkpt lat="50.64408" lon="3.34566">
        <ele>18.483284</ele>
        <time>2018-02-06T14:09:19Z</time>
      </trkpt>
      <trkpt lat="50.644" lon="3.34573">
        <ele>18.517761</ele>
        <time>2018-02-06T14:09:21Z</time>
      </trkpt>
      <trkpt lat="50.64397" lon="3.34587">
        <ele>18.545599</ele>
        <time>2018-02-06T14:09:23Z</time>
      </trkpt>
      <trkpt lat="50.64395" lon="3.34603">
        <ele>18.649376</ele>
        <time>2018-02-06T14:09:25Z</time>
      </trkpt>
      <trkpt lat="50.64391" lon="3.34616">
        <ele>18.768505</ele>
        <time>2018-02-06T14:09:27Z</time>
      </trkpt>
      <trkpt lat="50.64384" lon="3.34626">
        <ele>18.876827</ele>
        <time>2018-02-06T14:09:29Z</time>
      </trkpt>
      <trkpt lat="50.64376" lon="3.34634">
        <ele>18.946512</ele>
        <time>2018-02-06T14:09:31Z</time>
      </trkpt>
      <trkpt lat="50.64368" lon="3.34641">
        <ele>19.054211</ele>
        <time>2018-02-06T14:09:33Z</time>
      </trkpt>
      <trkpt lat="50.64359" lon="3.34649">
        <ele>19.117773</ele>
        <time>2018-02-06T14:09:35Z</time>
      </trkpt>
      <trkpt lat="50.64349" lon="3.34654">
        <ele>19.16481</ele>
        <time>2018-02-06T14:09:37Z</time>
      </trkpt>
      <trkpt lat="50.6434" lon="3.34656">
        <ele>19.260538</ele>
        <time>2018-02-06T14:09:39Z</time>
      </trkpt>
      <trkpt lat="50.64333" lon="3.34655">
        <ele>19.328648</ele>
        <time>2018-02-06T14:09:41Z</time>
      </trkpt>
      <trkpt lat="50.64328" lon="3.34651">
        <ele>19.380756</ele>
        <time>2018-02-06T14:09:43Z</time>
      </trkpt>
      <trkpt lat="50.64325" lon="3.34643">
        <ele>19.364393</ele>
        <time>2018-02-06T14:09:45Z</time>
      </trkpt>
      <trkpt lat="50.64322" lon="3.34636">
        <ele>19.349855</ele>
        <time>2018-02-06T14:09:47Z</time>
      </trkpt>
      <trkpt lat="50.64319" lon="3.34633">
        <ele>19.307819</ele>
        <time>2018-02-06T14:09:49Z</time>
      </trkpt>
      <trkpt lat="50.64314" lon="3.34623">
        <ele>19.143572</ele>
        <time>2018-02-06T14:10:39Z</time>
      </trkpt>
      <trkpt lat="50.6431" lon="3.34615">
        <ele>19.093153</ele>
        <time>2018-02-06T14:10:41Z</time>
      </trkpt>
      <trkpt lat="50.64306" lon="3.34607">
        <ele>19.100079</ele>
        <time>2018-02-06T14:10:43Z</time>
      </trkpt>
      <trkpt lat="50.64301" lon="3.346">
        <ele>19.125507</ele>
        <time>2018-02-06T14:10:45Z</time>
      </trkpt>
      <trkpt lat="50.64296" lon="3.34593">
        <ele>19.098917</ele>
        <time>2018-02-06T14:10:47Z</time>
      </trkpt>
      <trkpt lat="50.6429" lon="3.34585">
        <ele>19.076681</ele>
        <time>2018-02-06T14:10:49Z</time>
      </trkpt>
      <trkpt lat="50.64285" lon="3.34577">
        <ele>19.09293</ele>
        <time>2018-02-06T14:10:51Z</time>
      </trkpt>
      <trkpt lat="50.6428" lon="3.34569">
        <ele>19.047977</ele>
        <time>2018-02-06T14:10:53Z</time>
      </trkpt>
      <trkpt lat="50.64276" lon="3.34562">
        <ele>19.051779</ele>
        <time>2018-02-06T14:10:55Z</time>
      </trkpt>
      <trkpt lat="50.64272" lon="3.34557">
        <ele>19.024256</ele>
        <time>2018-02-06T14:10:57Z</time>
      </trkpt>
      <trkpt lat="50.64269" lon="3.34552">
        <ele>19.009472</ele>
        <time>2018-02-06T14:10:59Z</time>
      </trkpt>
      <trkpt lat="50.64265" lon="3.34546">
        <ele>18.539463</ele>
        <time>2018-02-06T14:11:55Z</time>
      </trkpt>
      <trkpt lat="50.64262" lon="3.34542">
        <ele>18.585573</ele>
        <time>2018-02-06T14:11:57Z</time>
      </trkpt>
      <trkpt lat="50.64258" lon="3.34536">
        <ele>18.615345</ele>
        <time>2018-02-06T14:11:59Z</time>
      </trkpt>
      <trkpt lat="50.64253" lon="3.34528">
        <ele>18.593292</ele>
        <time>2018-02-06T14:12:01Z</time>
      </trkpt>
      <trkpt lat="50.64246" lon="3.34519">
        <ele>18.596281</ele>
        <time>2018-02-06T14:12:03Z</time>
      </trkpt>
      <trkpt lat="50.6424" lon="3.3451">
        <ele>18.626535</ele>
        <time>2018-02-06T14:12:05Z</time>
      </trkpt>
      <trkpt lat="50.64233" lon="3.345">
        <ele>18.63604</ele>
        <time>2018-02-06T14:12:07Z</time>
      </trkpt>
      <trkpt lat="50.64226" lon="3.3449">
        <ele>18.63973</ele>
        <time>2018-02-06T14:12:09Z</time>
      </trkpt>
      <trkpt lat="50.6422" lon="3.3448">
        <ele>18.664217</ele>
        <time>2018-02-06T14:12:11Z</time>
      </trkpt>
      <trkpt lat="50.64213" lon="3.3447">
        <ele>18.705568</ele>
        <time>2018-02-06T14:12:13Z</time>
      </trkpt>
      <trkpt lat="50.64206" lon="3.3446">
        <ele>18.766644</ele>
        <time>2018-02-06T14:12:15Z</time>
      </trkpt>
      <trkpt lat="50.64199" lon="3.3445">
        <ele>18.781446</ele>
        <time>2018-02-06T14:12:17Z</time>
      </trkpt>
      <trkpt lat="50.64192" lon="3.34441">
        <ele>18.791227</ele>
        <time>2018-02-06T14:12:19Z</time>
      </trkpt>
      <trkpt lat="50.64185" lon="3.34431">
        <ele>18.774021</ele>
        <time>2018-02-06T14:12:21Z</time>
      </trkpt>
      <trkpt lat="50.64178" lon="3.34422">
        <ele>18.783955</ele>
        <time>2018-02-06T14:12:23Z</time>
      </trkpt>
      <trkpt lat="50.6417" lon="3.34412">
        <ele>18.777096</ele>
        <time>2018-02-06T14:12:25Z</time>
      </trkpt>
      <trkpt lat="50.64164" lon="3.34403">
        <ele>18.76613</ele>
        <time>2018-02-06T14:12:27Z</time>
      </trkpt>
      <trkpt lat="50.64159" lon="3.34394">
        <ele>18.76317</ele>
        <time>2018-02-06T14:12:29Z</time>
      </trkpt>
      <trkpt lat="50.64153" lon="3.34384">
        <ele>18.737791</ele>
        <time>2018-02-06T14:12:31Z</time>
      </trkpt>
      <trkpt lat="50.64145" lon="3.34371">
        <ele>18.762524</ele>
        <time>2018-02-06T14:12:33Z</time>
      </trkpt>
      <trkpt lat="50.64137" lon="3.3436">
        <ele>18.788765</ele>
        <time>2018-02-06T14:12:35Z</time>
      </trkpt>
      <trkpt lat="50.64128" lon="3.34348">
        <ele>18.865995</ele>
        <time>2018-02-06T14:12:37Z</time>
      </trkpt>
      <trkpt lat="50.64119" lon="3.34337">
        <ele>18.843092</ele>
        <time>2018-02-06T14:12:39Z</time>
      </trkpt>
      <trkpt lat="50.6411" lon="3.34325">
        <ele>18.88393</ele>
        <time>2018-02-06T14:12:41Z</time>
      </trkpt>
      <trkpt lat="50.64102" lon="3.34316">
        <ele>18.951054</ele>
        <time>2018-02-06T14:12:43Z</time>
      </trkpt>
      <trkpt lat="50.64093" lon="3.34306">
        <ele>18.955116</ele>
        <time>2018-02-06T14:12:45Z</time>
      </trkpt>
      <trkpt lat="50.64085" lon="3.34295">
        <ele>18.960194</ele>
        <time>2018-02-06T14:12:47Z</time>
      </trkpt>
      <trkpt lat="50.64076" lon="3.34285">
        <ele>18.970629</ele>
        <time>2018-02-06T14:12:49Z</time>
      </trkpt>
      <trkpt lat="50.64068" lon="3.34276">
        <ele>18.953518</ele>
        <time>2018-02-06T14:12:51Z</time>
      </trkpt>
      <trkpt lat="50.64058" lon="3.34265">
        <ele>18.977333</ele>
        <time>2018-02-06T14:12:53Z</time>
      </trkpt>
      <trkpt lat="50.64048" lon="3.34254">
        <ele>18.95434</ele>
        <time>2018-02-06T14:12:55Z</time>
      </trkpt>
      <trkpt lat="50.64039" lon="3.34243">
        <ele>18.95252</ele>
        <time>2018-02-06T14:12:57Z</time>
      </trkpt>
      <trkpt lat="50.64031" lon="3.34233">
        <ele>18.957119</ele>
        <time>2018-02-06T14:12:59Z</time>
      </trkpt>
      <trkpt lat="50.64023" lon="3.34223">
        <ele>18.987942</ele>
        <time>2018-02-06T14:13:01Z</time>
      </trkpt>
      <trkpt lat="50.64014" lon="3.34211">
        <ele>18.995441</ele>
        <time>2018-02-06T14:13:03Z</time>
      </trkpt>
      <trkpt lat="50.64007" lon="3.342">
        <ele>19.006344</ele>
        <time>2018-02-06T14:13:05Z</time>
      </trkpt>
      <trkpt lat="50.63999" lon="3.34188">
        <ele>19.02441</ele>
        <time>2018-02-06T14:13:07Z</time>
      </trkpt>
      <trkpt lat="50.63991" lon="3.34177">
        <ele>19.088737</ele>
        <time>2018-02-06T14:13:09Z</time>
      </trkpt>
      <trkpt lat="50.63983" lon="3.34165">
        <ele>19.112556</ele>
        <time>2018-02-06T14:13:11Z</time>
      </trkpt>
      <trkpt lat="50.63976" lon="3.34154">
        <ele>19.075497</ele>
        <time>2018-02-06T14:13:13Z</time>
      </trkpt>
      <trkpt lat="50.63968" lon="3.34143">
        <ele>18.980639</ele>
        <time>2018-02-06T14:13:15Z</time>
      </trkpt>
      <trkpt lat="50.63961" lon="3.34132">
        <ele>18.925272</ele>
        <time>2018-02-06T14:13:17Z</time>
      </trkpt>
      <trkpt lat="50.63953" lon="3.3412">
        <ele>18.863781</ele>
        <time>2018-02-06T14:13:19Z</time>
      </trkpt>
      <trkpt lat="50.63946" lon="3.34109">
        <ele>18.863823</ele>
        <time>2018-02-06T14:13:21Z</time>
      </trkpt>
      <trkpt lat="50.63938" lon="3.34097">
        <ele>18.828144</ele>
        <time>2018-02-06T14:13:23Z</time>
      </trkpt>
      <trkpt lat="50.6393" lon="3.34086">
        <ele>18.753178</ele>
        <time>2018-02-06T14:13:25Z</time>
      </trkpt>
      <trkpt lat="50.63921" lon="3.34074">
        <ele>18.724377</ele>
        <time>2018-02-06T14:13:27Z</time>
      </trkpt>
      <trkpt lat="50.63913" lon="3.34063">
        <ele>18.680153</ele>
        <time>2018-02-06T14:13:29Z</time>
      </trkpt>
      <trkpt lat="50.63904" lon="3.34053">
        <ele>18.659126</ele>
        <time>2018-02-06T14:13:31Z</time>
      </trkpt>
      <trkpt lat="50.63894" lon="3.34042">
        <ele>18.619488</ele>
        <time>2018-02-06T14:13:33Z</time>
      </trkpt>
      <trkpt lat="50.63884" lon="3.34033">
        <ele>18.618319</ele>
        <time>2018-02-06T14:13:35Z</time>
      </trkpt>
      <trkpt lat="50.63874" lon="3.34024">
        <ele>18.58095</ele>
        <time>2018-02-06T14:13:37Z</time>
      </trkpt>
      <trkpt lat="50.63865" lon="3.34015">
        <ele>18.514284</ele>
        <time>2018-02-06T14:13:39Z</time>
      </trkpt>
      <trkpt lat="50.63855" lon="3.34005">
        <ele>18.441671</ele>
        <time>2018-02-06T14:13:41Z</time>
      </trkpt>
      <trkpt lat="50.63845" lon="3.33995">
        <ele>18.375042</ele>
        <time>2018-02-06T14:13:43Z</time>
      </trkpt>
      <trkpt lat="50.63837" lon="3.33986">
        <ele>18.33868</ele>
        <time>2018-02-06T14:13:45Z</time>
      </trkpt>
      <trkpt lat="50.63826" lon="3.33977">
        <ele>18.292019</ele>
        <time>2018-02-06T14:13:47Z</time>
      </trkpt>
      <trkpt lat="50.63817" lon="3.33968">
        <ele>18.201748</ele>
        <time>2018-02-06T14:13:49Z</time>
      </trkpt>
      <trkpt lat="50.63808" lon="3.33959">
        <ele>18.14353</ele>
        <time>2018-02-06T14:13:51Z</time>
      </trkpt>
      <trkpt lat="50.638" lon="3.33952">
        <ele>18.083858</ele>
        <time>2018-02-06T14:13:53Z</time>
      </trkpt>
      <trkpt lat="50.63791" lon="3.33944">
        <ele>18.065372</ele>
        <time>2018-02-06T14:13:55Z</time>
      </trkpt>
      <trkpt lat="50.63783" lon="3.33936">
        <ele>18.124464</ele>
        <time>2018-02-06T14:13:57Z</time>
      </trkpt>
      <trkpt lat="50.63776" lon="3.33929">
        <ele>18.160566</ele>
        <time>2018-02-06T14:13:59Z</time>
      </trkpt>
      <trkpt lat="50.63771" lon="3.3392">
        <ele>18.124178</ele>
        <time>2018-02-06T14:14:01Z</time>
      </trkpt>
      <trkpt lat="50.63766" lon="3.33905">
        <ele>18.086262</ele>
        <time>2018-02-06T14:14:03Z</time>
      </trkpt>
      <trkpt lat="50.63764" lon="3.33888">
        <ele>18.064262</ele>
        <time>2018-02-06T14:14:05Z</time>
      </trkpt>
      <trkpt lat="50.63763" lon="3.33871">
        <ele>18.07233</ele>
        <time>2018-02-06T14:14:07Z</time>
      </trkpt>
      <trkpt lat="50.63762" lon="3.33853">
        <ele>18.065256</ele>
        <time>2018-02-06T14:14:09Z</time>
      </trkpt>
      <trkpt lat="50.63761" lon="3.33835">
        <ele>18.08532</ele>
        <time>2018-02-06T14:14:11Z</time>
      </trkpt>
      <trkpt lat="50.63759" lon="3.33817">
        <ele>18.069155</ele>
        <time>2018-02-06T14:14:13Z</time>
      </trkpt>
      <trkpt lat="50.63757" lon="3.33799">
        <ele>18.076771</ele>
        <time>2018-02-06T14:14:15Z</time>
      </trkpt>
      <trkpt lat="50.63754" lon="3.33782">
        <ele>18.058712</ele>
        <time>2018-02-06T14:14:17Z</time>
      </trkpt>
      <trkpt lat="50.63751" lon="3.33766">
        <ele>18.089497</ele>
        <time>2018-02-06T14:14:19Z</time>
      </trkpt>
      <trkpt lat="50.63747" lon="3.33753">
        <ele>18.157932</ele>
        <time>2018-02-06T14:14:21Z</time>
      </trkpt>
      <trkpt lat="50.63742" lon="3.33739">
        <ele>18.194342</ele>
        <time>2018-02-06T14:14:23Z</time>
      </trkpt>
      <trkpt lat="50.63738" lon="3.33725">
        <ele>18.263912</ele>
        <time>2018-02-06T14:14:25Z</time>
      </trkpt>
      <trkpt lat="50.63732" lon="3.33712">
        <ele>18.330235</ele>
        <time>2018-02-06T14:14:27Z</time>
      </trkpt>
      <trkpt lat="50.63725" lon="3.33699">
        <ele>18.347445</ele>
        <time>2018-02-06T14:14:29Z</time>
      </trkpt>
      <trkpt lat="50.63718" lon="3.33689">
        <ele>18.393993</ele>
        <time>2018-02-06T14:14:31Z</time>
      </trkpt>
      <trkpt lat="50.6371" lon="3.33679">
        <ele>18.469208</ele>
        <time>2018-02-06T14:14:33Z</time>
      </trkpt>
      <trkpt lat="50.63701" lon="3.33671">
        <ele>18.60041</ele>
        <time>2018-02-06T14:14:35Z</time>
      </trkpt>
      <trkpt lat="50.63692" lon="3.33663">
        <ele>18.641478</ele>
        <time>2018-02-06T14:14:37Z</time>
      </trkpt>
      <trkpt lat="50.63683" lon="3.33656">
        <ele>18.659254</ele>
        <time>2018-02-06T14:14:39Z</time>
      </trkpt>
      <trkpt lat="50.63674" lon="3.33649">
        <ele>18.697479</ele>
        <time>2018-02-06T14:14:41Z</time>
      </trkpt>
      <trkpt lat="50.63666" lon="3.33642">
        <ele>18.789429</ele>
        <time>2018-02-06T14:14:43Z</time>
      </trkpt>
      <trkpt lat="50.63658" lon="3.33635">
        <ele>18.863596</ele>
        <time>2018-02-06T14:14:45Z</time>
      </trkpt>
      <trkpt lat="50.63649" lon="3.33629">
        <ele>18.935377</ele>
        <time>2018-02-06T14:14:47Z</time>
      </trkpt>
      <trkpt lat="50.63641" lon="3.33623">
        <ele>19.019838</ele>
        <time>2018-02-06T14:14:49Z</time>
      </trkpt>
      <trkpt lat="50.63633" lon="3.33616">
        <ele>19.099892</ele>
        <time>2018-02-06T14:14:51Z</time>
      </trkpt>
      <trkpt lat="50.63628" lon="3.33606">
        <ele>19.156599</ele>
        <time>2018-02-06T14:14:53Z</time>
      </trkpt>
      <trkpt lat="50.63629" lon="3.33593">
        <ele>19.247999</ele>
        <time>2018-02-06T14:14:55Z</time>
      </trkpt>
      <trkpt lat="50.63636" lon="3.33582">
        <ele>19.283592</ele>
        <time>2018-02-06T14:14:57Z</time>
      </trkpt>
      <trkpt lat="50.63644" lon="3.33572">
        <ele>19.380085</ele>
        <time>2018-02-06T14:14:59Z</time>
      </trkpt>
      <trkpt lat="50.63653" lon="3.33563">
        <ele>19.369781</ele>
        <time>2018-02-06T14:15:01Z</time>
      </trkpt>
      <trkpt lat="50.63662" lon="3.33552">
        <ele>19.416691</ele>
        <time>2018-02-06T14:15:03Z</time>
      </trkpt>
      <trkpt lat="50.6367" lon="3.33541">
        <ele>19.466234</ele>
        <time>2018-02-06T14:15:05Z</time>
      </trkpt>
      <trkpt lat="50.63679" lon="3.3353">
        <ele>19.506548</ele>
        <time>2018-02-06T14:15:07Z</time>
      </trkpt>
      <trkpt lat="50.63686" lon="3.33518">
        <ele>19.578789</ele>
        <time>2018-02-06T14:15:09Z</time>
      </trkpt>
      <trkpt lat="50.63693" lon="3.33504">
        <ele>19.604433</ele>
        <time>2018-02-06T14:15:11Z</time>
      </trkpt>
      <trkpt lat="50.63699" lon="3.3349">
        <ele>19.641773</ele>
        <time>2018-02-06T14:15:13Z</time>
      </trkpt>
      <trkpt lat="50.63703" lon="3.33475">
        <ele>19.649342</ele>
        <time>2018-02-06T14:15:15Z</time>
      </trkpt>
      <trkpt lat="50.63707" lon="3.33459">
        <ele>19.647182</ele>
        <time>2018-02-06T14:15:17Z</time>
      </trkpt>
      <trkpt lat="50.63711" lon="3.33443">
        <ele>19.668308</ele>
        <time>2018-02-06T14:15:19Z</time>
      </trkpt>
      <trkpt lat="50.63714" lon="3.33427">
        <ele>19.689268</ele>
        <time>2018-02-06T14:15:21Z</time>
      </trkpt>
      <trkpt lat="50.63717" lon="3.33411">
        <ele>19.731121</ele>
        <time>2018-02-06T14:15:23Z</time>
      </trkpt>
      <trkpt lat="50.6372" lon="3.33396">
        <ele>19.742901</ele>
        <time>2018-02-06T14:15:25Z</time>
      </trkpt>
      <trkpt lat="50.63724" lon="3.33381">
        <ele>19.816612</ele>
        <time>2018-02-06T14:15:27Z</time>
      </trkpt>
      <trkpt lat="50.63727" lon="3.33365">
        <ele>19.904875</ele>
        <time>2018-02-06T14:15:29Z</time>
      </trkpt>
      <trkpt lat="50.6373" lon="3.33351">
        <ele>19.907423</ele>
        <time>2018-02-06T14:15:31Z</time>
      </trkpt>
      <trkpt lat="50.63733" lon="3.33336">
        <ele>19.901711</ele>
        <time>2018-02-06T14:15:33Z</time>
      </trkpt>
      <trkpt lat="50.63736" lon="3.33321">
        <ele>19.904278</ele>
        <time>2018-02-06T14:15:35Z</time>
      </trkpt>
      <trkpt lat="50.63739" lon="3.33306">
        <ele>19.915491</ele>
        <time>2018-02-06T14:15:37Z</time>
      </trkpt>
      <trkpt lat="50.63742" lon="3.3329">
        <ele>19.869684</ele>
        <time>2018-02-06T14:15:39Z</time>
      </trkpt>
      <trkpt lat="50.63745" lon="3.33275">
        <ele>19.883755</ele>
        <time>2018-02-06T14:15:41Z</time>
      </trkpt>
      <trkpt lat="50.63749" lon="3.3326">
        <ele>19.873615</ele>
        <time>2018-02-06T14:15:43Z</time>
      </trkpt>
      <trkpt lat="50.63752" lon="3.33245">
        <ele>19.872801</ele>
        <time>2018-02-06T14:15:45Z</time>
      </trkpt>
      <trkpt lat="50.63755" lon="3.3323">
        <ele>19.871223</ele>
        <time>2018-02-06T14:15:47Z</time>
      </trkpt>
      <trkpt lat="50.63758" lon="3.33214">
        <ele>19.846231</ele>
        <time>2018-02-06T14:15:49Z</time>
      </trkpt>
      <trkpt lat="50.63762" lon="3.33199">
        <ele>19.875357</ele>
        <time>2018-02-06T14:15:51Z</time>
      </trkpt>
      <trkpt lat="50.63764" lon="3.33184">
        <ele>19.858259</ele>
        <time>2018-02-06T14:15:53Z</time>
      </trkpt>
      <trkpt lat="50.63767" lon="3.33168">
        <ele>19.930593</ele>
        <time>2018-02-06T14:15:55Z</time>
      </trkpt>
      <trkpt lat="50.63771" lon="3.33153">
        <ele>19.938028</ele>
        <time>2018-02-06T14:15:57Z</time>
      </trkpt>
      <trkpt lat="50.63774" lon="3.33138">
        <ele>19.993374</ele>
        <time>2018-02-06T14:15:59Z</time>
      </trkpt>
      <trkpt lat="50.63777" lon="3.33122">
        <ele>20.007708</ele>
        <time>2018-02-06T14:16:01Z</time>
      </trkpt>
      <trkpt lat="50.6378" lon="3.33107">
        <ele>20.018103</ele>
        <time>2018-02-06T14:16:03Z</time>
      </trkpt>
      <trkpt lat="50.63783" lon="3.33092">
        <ele>20.055819</ele>
        <time>2018-02-06T14:16:05Z</time>
      </trkpt>
      <trkpt lat="50.63786" lon="3.33077">
        <ele>20.119457</ele>
        <time>2018-02-06T14:16:07Z</time>
      </trkpt>
      <trkpt lat="50.63789" lon="3.33062">
        <ele>20.087646</ele>
        <time>2018-02-06T14:16:09Z</time>
      </trkpt>
      <trkpt lat="50.63792" lon="3.33046">
        <ele>20.046562</ele>
        <time>2018-02-06T14:16:11Z</time>
      </trkpt>
      <trkpt lat="50.63796" lon="3.33031">
        <ele>20.087681</ele>
        <time>2018-02-06T14:16:13Z</time>
      </trkpt>
      <trkpt lat="50.63799" lon="3.33016">
        <ele>20.148405</ele>
        <time>2018-02-06T14:16:15Z</time>
      </trkpt>
      <trkpt lat="50.63802" lon="3.33001">
        <ele>20.220119</ele>
        <time>2018-02-06T14:16:17Z</time>
      </trkpt>
      <trkpt lat="50.63805" lon="3.32987">
        <ele>20.235214</ele>
        <time>2018-02-06T14:16:19Z</time>
      </trkpt>
      <trkpt lat="50.63808" lon="3.32972">
        <ele>20.386801</ele>
        <time>2018-02-06T14:16:21Z</time>
      </trkpt>
      <trkpt lat="50.63811" lon="3.32957">
        <ele>20.433912</ele>
        <time>2018-02-06T14:16:23Z</time>
      </trkpt>
      <trkpt lat="50.63814" lon="3.32942">
        <ele>20.552837</ele>
        <time>2018-02-06T14:16:25Z</time>
      </trkpt>
      <trkpt lat="50.63817" lon="3.32928">
        <ele>20.662695</ele>
        <time>2018-02-06T14:16:27Z</time>
      </trkpt>
      <trkpt lat="50.6382" lon="3.32913">
        <ele>20.777655</ele>
        <time>2018-02-06T14:16:29Z</time>
      </trkpt>
      <trkpt lat="50.63823" lon="3.32899">
        <ele>20.908413</ele>
        <time>2018-02-06T14:16:31Z</time>
      </trkpt>
      <trkpt lat="50.63826" lon="3.32885">
        <ele>20.984095</ele>
        <time>2018-02-06T14:16:33Z</time>
      </trkpt>
      <trkpt lat="50.63829" lon="3.32871">
        <ele>21.062189</ele>
        <time>2018-02-06T14:16:35Z</time>
      </trkpt>
      <trkpt lat="50.63832" lon="3.32858">
        <ele>21.159618</ele>
        <time>2018-02-06T14:16:37Z</time>
      </trkpt>
      <trkpt lat="50.63835" lon="3.32844">
        <ele>21.324722</ele>
        <time>2018-02-06T14:16:39Z</time>
      </trkpt>
      <trkpt lat="50.63837" lon="3.32831">
        <ele>21.447571</ele>
        <time>2018-02-06T14:16:41Z</time>
      </trkpt>
      <trkpt lat="50.63841" lon="3.32817">
        <ele>21.545893</ele>
        <time>2018-02-06T14:16:43Z</time>
      </trkpt>
      <trkpt lat="50.63844" lon="3.32803">
        <ele>21.638727</ele>
        <time>2018-02-06T14:16:45Z</time>
      </trkpt>
      <trkpt lat="50.63847" lon="3.32789">
        <ele>21.744858</ele>
        <time>2018-02-06T14:16:47Z</time>
      </trkpt>
      <trkpt lat="50.6385" lon="3.32774">
        <ele>21.800434</ele>
        <time>2018-02-06T14:16:49Z</time>
      </trkpt>
      <trkpt lat="50.63853" lon="3.3276">
        <ele>21.876291</ele>
        <time>2018-02-06T14:16:51Z</time>
      </trkpt>
      <trkpt lat="50.63855" lon="3.32746">
        <ele>21.915455</ele>
        <time>2018-02-06T14:16:53Z</time>
      </trkpt>
      <trkpt lat="50.63858" lon="3.32732">
        <ele>22.011547</ele>
        <time>2018-02-06T14:16:55Z</time>
      </trkpt>
      <trkpt lat="50.63861" lon="3.32718">
        <ele>22.111286</ele>
        <time>2018-02-06T14:16:57Z</time>
      </trkpt>
      <trkpt lat="50.63864" lon="3.32704">
        <ele>22.264511</ele>
        <time>2018-02-06T14:16:59Z</time>
      </trkpt>
      <trkpt lat="50.63867" lon="3.32691">
        <ele>22.343979</ele>
        <time>2018-02-06T14:17:01Z</time>
      </trkpt>
      <trkpt lat="50.6387" lon="3.32678">
        <ele>22.4737</ele>
        <time>2018-02-06T14:17:03Z</time>
      </trkpt>
      <trkpt lat="50.63872" lon="3.32665">
        <ele>22.57379</ele>
        <time>2018-02-06T14:17:05Z</time>
      </trkpt>
      <trkpt lat="50.63872" lon="3.32653">
        <ele>22.611385</ele>
        <time>2018-02-06T14:17:07Z</time>
      </trkpt>
      <trkpt lat="50.63867" lon="3.32643">
        <ele>22.644236</ele>
        <time>2018-02-06T14:17:09Z</time>
      </trkpt>
      <trkpt lat="50.63858" lon="3.32638">
        <ele>22.674509</ele>
        <time>2018-02-06T14:17:11Z</time>
      </trkpt>
      <trkpt lat="50.63849" lon="3.32634">
        <ele>22.70298</ele>
        <time>2018-02-06T14:17:13Z</time>
      </trkpt>
      <trkpt lat="50.6384" lon="3.3263">
        <ele>22.752045</ele>
        <time>2018-02-06T14:17:15Z</time>
      </trkpt>
      <trkpt lat="50.63831" lon="3.32626">
        <ele>22.789335</ele>
        <time>2018-02-06T14:17:17Z</time>
      </trkpt>
      <trkpt lat="50.63821" lon="3.32622">
        <ele>22.779469</ele>
        <time>2018-02-06T14:17:19Z</time>
      </trkpt>
      <trkpt lat="50.63811" lon="3.32618">
        <ele>22.772038</ele>
        <time>2018-02-06T14:17:21Z</time>
      </trkpt>
      <trkpt lat="50.63801" lon="3.32614">
        <ele>22.801754</ele>
        <time>2018-02-06T14:17:23Z</time>
      </trkpt>
      <trkpt lat="50.63791" lon="3.3261">
        <ele>22.770329</ele>
        <time>2018-02-06T14:17:25Z</time>
      </trkpt>
      <trkpt lat="50.63781" lon="3.32605">
        <ele>22.802353</ele>
        <time>2018-02-06T14:17:27Z</time>
      </trkpt>
      <trkpt lat="50.63771" lon="3.326">
        <ele>22.80134</ele>
        <time>2018-02-06T14:17:29Z</time>
      </trkpt>
      <trkpt lat="50.63761" lon="3.32594">
        <ele>22.857431</ele>
        <time>2018-02-06T14:17:31Z</time>
      </trkpt>
      <trkpt lat="50.63752" lon="3.32586">
        <ele>22.938557</ele>
        <time>2018-02-06T14:17:33Z</time>
      </trkpt>
      <trkpt lat="50.63744" lon="3.32575">
        <ele>23.039707</ele>
        <time>2018-02-06T14:17:35Z</time>
      </trkpt>
      <trkpt lat="50.63736" lon="3.32564">
        <ele>23.046013</ele>
        <time>2018-02-06T14:17:37Z</time>
      </trkpt>
      <trkpt lat="50.63729" lon="3.32552">
        <ele>23.048304</ele>
        <time>2018-02-06T14:17:39Z</time>
      </trkpt>
      <trkpt lat="50.63721" lon="3.32541">
        <ele>23.071728</ele>
        <time>2018-02-06T14:17:41Z</time>
      </trkpt>
      <trkpt lat="50.63713" lon="3.32529">
        <ele>23.080618</ele>
        <time>2018-02-06T14:17:43Z</time>
      </trkpt>
      <trkpt lat="50.63705" lon="3.32518">
        <ele>23.091137</ele>
        <time>2018-02-06T14:17:45Z</time>
      </trkpt>
      <trkpt lat="50.63697" lon="3.32506">
        <ele>23.097813</ele>
        <time>2018-02-06T14:17:47Z</time>
      </trkpt>
      <trkpt lat="50.63689" lon="3.32494">
        <ele>23.132959</ele>
        <time>2018-02-06T14:17:49Z</time>
      </trkpt>
      <trkpt lat="50.63681" lon="3.32482">
        <ele>23.171803</ele>
        <time>2018-02-06T14:17:51Z</time>
      </trkpt>
      <trkpt lat="50.63673" lon="3.32471">
        <ele>23.231037</ele>
        <time>2018-02-06T14:17:53Z</time>
      </trkpt>
      <trkpt lat="50.63664" lon="3.3246">
        <ele>23.253298</ele>
        <time>2018-02-06T14:17:55Z</time>
      </trkpt>
      <trkpt lat="50.63656" lon="3.32448">
        <ele>23.285519</ele>
        <time>2018-02-06T14:17:57Z</time>
      </trkpt>
      <trkpt lat="50.63649" lon="3.32435">
        <ele>23.354147</ele>
        <time>2018-02-06T14:17:59Z</time>
      </trkpt>
      <trkpt lat="50.63641" lon="3.32422">
        <ele>23.432842</ele>
        <time>2018-02-06T14:18:01Z</time>
      </trkpt>
      <trkpt lat="50.63634" lon="3.32409">
        <ele>23.481274</ele>
        <time>2018-02-06T14:18:03Z</time>
      </trkpt>
      <trkpt lat="50.63628" lon="3.32396">
        <ele>23.542019</ele>
        <time>2018-02-06T14:18:05Z</time>
      </trkpt>
      <trkpt lat="50.63623" lon="3.32381">
        <ele>23.658306</ele>
        <time>2018-02-06T14:18:07Z</time>
      </trkpt>
      <trkpt lat="50.63619" lon="3.32366">
        <ele>23.745569</ele>
        <time>2018-02-06T14:18:09Z</time>
      </trkpt>
      <trkpt lat="50.63616" lon="3.3235">
        <ele>23.816431</ele>
        <time>2018-02-06T14:18:11Z</time>
      </trkpt>
      <trkpt lat="50.63612" lon="3.32335">
        <ele>23.887518</ele>
        <time>2018-02-06T14:18:13Z</time>
      </trkpt>
      <trkpt lat="50.63607" lon="3.3232">
        <ele>23.946692</ele>
        <time>2018-02-06T14:18:15Z</time>
      </trkpt>
      <trkpt lat="50.63601" lon="3.32307">
        <ele>23.966015</ele>
        <time>2018-02-06T14:18:17Z</time>
      </trkpt>
      <trkpt lat="50.63595" lon="3.32294">
        <ele>24.032402</ele>
        <time>2018-02-06T14:18:19Z</time>
      </trkpt>
      <trkpt lat="50.63589" lon="3.32281">
        <ele>24.112011</ele>
        <time>2018-02-06T14:18:21Z</time>
      </trkpt>
      <trkpt lat="50.63582" lon="3.32268">
        <ele>24.206303</ele>
        <time>2018-02-06T14:18:23Z</time>
      </trkpt>
      <trkpt lat="50.63575" lon="3.32255">
        <ele>24.286636</ele>
        <time>2018-02-06T14:18:25Z</time>
      </trkpt>
      <trkpt lat="50.63569" lon="3.32243">
        <ele>24.365856</ele>
        <time>2018-02-06T14:18:27Z</time>
      </trkpt>
      <trkpt lat="50.63562" lon="3.3223">
        <ele>24.429014</ele>
        <time>2018-02-06T14:18:29Z</time>
      </trkpt>
      <trkpt lat="50.63555" lon="3.32217">
        <ele>24.626495</ele>
        <time>2018-02-06T14:18:31Z</time>
      </trkpt>
      <trkpt lat="50.63549" lon="3.32204">
        <ele>24.73064</ele>
        <time>2018-02-06T14:18:33Z</time>
      </trkpt>
      <trkpt lat="50.63542" lon="3.32191">
        <ele>24.850451</ele>
        <time>2018-02-06T14:18:35Z</time>
      </trkpt>
      <trkpt lat="50.63535" lon="3.32179">
        <ele>24.963736</ele>
        <time>2018-02-06T14:18:37Z</time>
      </trkpt>
      <trkpt lat="50.63529" lon="3.32167">
        <ele>25.117588</ele>
        <time>2018-02-06T14:18:39Z</time>
      </trkpt>
      <trkpt lat="50.63522" lon="3.32155">
        <ele>25.212605</ele>
        <time>2018-02-06T14:18:41Z</time>
      </trkpt>
      <trkpt lat="50.63514" lon="3.32144">
        <ele>25.365221</ele>
        <time>2018-02-06T14:18:43Z</time>
      </trkpt>
      <trkpt lat="50.63506" lon="3.32133">
        <ele>25.467945</ele>
        <time>2018-02-06T14:18:45Z</time>
      </trkpt>
      <trkpt lat="50.63499" lon="3.32122">
        <ele>25.534647</ele>
        <time>2018-02-06T14:18:47Z</time>
      </trkpt>
      <trkpt lat="50.63491" lon="3.32111">
        <ele>25.615301</ele>
        <time>2018-02-06T14:18:49Z</time>
      </trkpt>
      <trkpt lat="50.63483" lon="3.32101">
        <ele>25.706356</ele>
        <time>2018-02-06T14:18:51Z</time>
      </trkpt>
      <trkpt lat="50.63475" lon="3.3209">
        <ele>25.859539</ele>
        <time>2018-02-06T14:18:53Z</time>
      </trkpt>
      <trkpt lat="50.63466" lon="3.32079">
        <ele>25.977945</ele>
        <time>2018-02-06T14:18:55Z</time>
      </trkpt>
      <trkpt lat="50.63459" lon="3.32067">
        <ele>26.112936</ele>
        <time>2018-02-06T14:18:57Z</time>
      </trkpt>
      <trkpt lat="50.63452" lon="3.32054">
        <ele>26.291916</ele>
        <time>2018-02-06T14:18:59Z</time>
      </trkpt>
      <trkpt lat="50.63447" lon="3.3204">
        <ele>26.458469</ele>
        <time>2018-02-06T14:19:01Z</time>
      </trkpt>
      <trkpt lat="50.63443" lon="3.32025">
        <ele>26.601215</ele>
        <time>2018-02-06T14:19:03Z</time>
      </trkpt>
      <trkpt lat="50.6344" lon="3.3201">
        <ele>26.702291</ele>
        <time>2018-02-06T14:19:05Z</time>
      </trkpt>
      <trkpt lat="50.63436" lon="3.31994">
        <ele>26.812027</ele>
        <time>2018-02-06T14:19:07Z</time>
      </trkpt>
      <trkpt lat="50.63433" lon="3.31978">
        <ele>26.967508</ele>
        <time>2018-02-06T14:19:09Z</time>
      </trkpt>
      <trkpt lat="50.6343" lon="3.31963">
        <ele>27.02853</ele>
        <time>2018-02-06T14:19:11Z</time>
      </trkpt>
      <trkpt lat="50.63426" lon="3.31949">
        <ele>27.143326</ele>
        <time>2018-02-06T14:19:13Z</time>
      </trkpt>
      <trkpt lat="50.63423" lon="3.31936">
        <ele>27.247799</ele>
        <time>2018-02-06T14:19:15Z</time>
      </trkpt>
      <trkpt lat="50.63421" lon="3.31923">
        <ele>27.3363</ele>
        <time>2018-02-06T14:19:17Z</time>
      </trkpt>
      <trkpt lat="50.63419" lon="3.31911">
        <ele>27.474283</ele>
        <time>2018-02-06T14:19:19Z</time>
      </trkpt>
      <trkpt lat="50.63417" lon="3.31899">
        <ele>27.619892</ele>
        <time>2018-02-06T14:19:21Z</time>
      </trkpt>
      <trkpt lat="50.63414" lon="3.31891">
        <ele>27.713263</ele>
        <time>2018-02-06T14:19:23Z</time>
      </trkpt>
      <trkpt lat="50.63409" lon="3.31888">
        <ele>27.793173</ele>
        <time>2018-02-06T14:19:25Z</time>
      </trkpt>
      <trkpt lat="50.63403" lon="3.31887">
        <ele>27.845926</ele>
        <time>2018-02-06T14:19:27Z</time>
      </trkpt>
      <trkpt lat="50.63396" lon="3.31888">
        <ele>27.993286</ele>
        <time>2018-02-06T14:19:29Z</time>
      </trkpt>
      <trkpt lat="50.63387" lon="3.31889">
        <ele>28.097504</ele>
        <time>2018-02-06T14:19:31Z</time>
      </trkpt>
      <trkpt lat="50.63377" lon="3.31891">
        <ele>28.224112</ele>
        <time>2018-02-06T14:19:33Z</time>
      </trkpt>
      <trkpt lat="50.63368" lon="3.31896">
        <ele>28.306208</ele>
        <time>2018-02-06T14:19:35Z</time>
      </trkpt>
      <trkpt lat="50.63358" lon="3.31901">
        <ele>28.368893</ele>
        <time>2018-02-06T14:19:37Z</time>
      </trkpt>
      <trkpt lat="50.63347" lon="3.31905">
        <ele>28.415295</ele>
        <time>2018-02-06T14:19:39Z</time>
      </trkpt>
      <trkpt lat="50.63336" lon="3.31909">
        <ele>28.47938</ele>
        <time>2018-02-06T14:19:41Z</time>
      </trkpt>
      <trkpt lat="50.63325" lon="3.31912">
        <ele>28.502087</ele>
        <time>2018-02-06T14:19:43Z</time>
      </trkpt>
      <trkpt lat="50.63313" lon="3.31915">
        <ele>28.521214</ele>
        <time>2018-02-06T14:19:45Z</time>
      </trkpt>
      <trkpt lat="50.63301" lon="3.31919">
        <ele>28.560501</ele>
        <time>2018-02-06T14:19:47Z</time>
      </trkpt>
      <trkpt lat="50.6329" lon="3.31924">
        <ele>28.57543</ele>
        <time>2018-02-06T14:19:49Z</time>
      </trkpt>
      <trkpt lat="50.63278" lon="3.31928">
        <ele>28.557928</ele>
        <time>2018-02-06T14:19:51Z</time>
      </trkpt>
      <trkpt lat="50.63267" lon="3.31932">
        <ele>28.560772</ele>
        <time>2018-02-06T14:19:53Z</time>
      </trkpt>
      <trkpt lat="50.63255" lon="3.31938">
        <ele>28.485851</ele>
        <time>2018-02-06T14:19:55Z</time>
      </trkpt>
      <trkpt lat="50.63245" lon="3.31949">
        <ele>28.391129</ele>
        <time>2018-02-06T14:19:57Z</time>
      </trkpt>
      <trkpt lat="50.63236" lon="3.31963">
        <ele>28.288065</ele>
        <time>2018-02-06T14:19:59Z</time>
      </trkpt>
      <trkpt lat="50.63228" lon="3.31978">
        <ele>28.173914</ele>
        <time>2018-02-06T14:20:01Z</time>
      </trkpt>
      <trkpt lat="50.6322" lon="3.31994">
        <ele>28.073498</ele>
        <time>2018-02-06T14:20:03Z</time>
      </trkpt>
      <trkpt lat="50.63213" lon="3.32012">
        <ele>27.962582</ele>
        <time>2018-02-06T14:20:05Z</time>
      </trkpt>
      <trkpt lat="50.63206" lon="3.3203">
        <ele>27.846674</ele>
        <time>2018-02-06T14:20:07Z</time>
      </trkpt>
      <trkpt lat="50.632" lon="3.32048">
        <ele>27.673584</ele>
        <time>2018-02-06T14:20:09Z</time>
      </trkpt>
      <trkpt lat="50.63193" lon="3.32066">
        <ele>27.467361</ele>
        <time>2018-02-06T14:20:11Z</time>
      </trkpt>
      <trkpt lat="50.63186" lon="3.32081">
        <ele>27.240749</ele>
        <time>2018-02-06T14:20:13Z</time>
      </trkpt>
      <trkpt lat="50.63178" lon="3.32096">
        <ele>27.058788</ele>
        <time>2018-02-06T14:20:15Z</time>
      </trkpt>
      <trkpt lat="50.63169" lon="3.32108">
        <ele>26.846436</ele>
        <time>2018-02-06T14:20:17Z</time>
      </trkpt>
      <trkpt lat="50.63158" lon="3.32115">
        <ele>26.58308</ele>
        <time>2018-02-06T14:20:19Z</time>
      </trkpt>
      <trkpt lat="50.63146" lon="3.32118">
        <ele>26.381983</ele>
        <time>2018-02-06T14:20:21Z</time>
      </trkpt>
      <trkpt lat="50.63134" lon="3.32117">
        <ele>26.115255</ele>
        <time>2018-02-06T14:20:23Z</time>
      </trkpt>
      <trkpt lat="50.63121" lon="3.32114">
        <ele>25.903244</ele>
        <time>2018-02-06T14:20:25Z</time>
      </trkpt>
      <trkpt lat="50.6311" lon="3.3211">
        <ele>25.66452</ele>
        <time>2018-02-06T14:20:27Z</time>
      </trkpt>
      <trkpt lat="50.63099" lon="3.32101">
        <ele>25.435732</ele>
        <time>2018-02-06T14:20:29Z</time>
      </trkpt>
      <trkpt lat="50.63089" lon="3.32091">
        <ele>25.187344</ele>
        <time>2018-02-06T14:20:31Z</time>
      </trkpt>
      <trkpt lat="50.63079" lon="3.32079">
        <ele>24.993977</ele>
        <time>2018-02-06T14:20:33Z</time>
      </trkpt>
      <trkpt lat="50.63069" lon="3.32068">
        <ele>24.806696</ele>
        <time>2018-02-06T14:20:35Z</time>
      </trkpt>
      <trkpt lat="50.63058" lon="3.32059">
        <ele>24.668081</ele>
        <time>2018-02-06T14:20:37Z</time>
      </trkpt>
      <trkpt lat="50.63047" lon="3.32053">
        <ele>24.535566</ele>
        <time>2018-02-06T14:20:39Z</time>
      </trkpt>
      <trkpt lat="50.63035" lon="3.32049">
        <ele>24.468094</ele>
        <time>2018-02-06T14:20:41Z</time>
      </trkpt>
      <trkpt lat="50.63024" lon="3.32048">
        <ele>24.355673</ele>
        <time>2018-02-06T14:20:43Z</time>
      </trkpt>
      <trkpt lat="50.63013" lon="3.32046">
        <ele>24.293949</ele>
        <time>2018-02-06T14:20:45Z</time>
      </trkpt>
      <trkpt lat="50.63002" lon="3.32045">
        <ele>24.178616</ele>
        <time>2018-02-06T14:20:47Z</time>
      </trkpt>
      <trkpt lat="50.62992" lon="3.32045">
        <ele>24.106951</ele>
        <time>2018-02-06T14:20:49Z</time>
      </trkpt>
      <trkpt lat="50.62981" lon="3.32044">
        <ele>24.069201</ele>
        <time>2018-02-06T14:20:51Z</time>
      </trkpt>
      <trkpt lat="50.62972" lon="3.32044">
        <ele>24.05224</ele>
        <time>2018-02-06T14:20:53Z</time>
      </trkpt>
      <trkpt lat="50.62964" lon="3.32043">
        <ele>24.00392</ele>
        <time>2018-02-06T14:20:55Z</time>
      </trkpt>
      <trkpt lat="50.62957" lon="3.32039">
        <ele>24.009808</ele>
        <time>2018-02-06T14:20:57Z</time>
      </trkpt>
      <trkpt lat="50.62951" lon="3.32038">
        <ele>24.053877</ele>
        <time>2018-02-06T14:20:59Z</time>
      </trkpt>
      <trkpt lat="50.62947" lon="3.32037">
        <ele>24.070591</ele>
        <time>2018-02-06T14:21:01Z</time>
      </trkpt>
      <trkpt lat="50.62944" lon="3.32036">
        <ele>24.225292</ele>
        <time>2018-02-06T14:21:05Z</time>
      </trkpt>
      <trkpt lat="50.62944" lon="3.32035">
        <ele>24.498291</ele>
        <time>2018-02-06T14:21:14Z</time>
      </trkpt>
      <trkpt lat="50.62941" lon="3.32035">
        <ele>24.545277</ele>
        <time>2018-02-06T14:21:16Z</time>
      </trkpt>
      <trkpt lat="50.62937" lon="3.32033">
        <ele>24.631845</ele>
        <time>2018-02-06T14:21:18Z</time>
      </trkpt>
      <trkpt lat="50.62933" lon="3.3203">
        <ele>24.703531</ele>
        <time>2018-02-06T14:21:20Z</time>
      </trkpt>
      <trkpt lat="50.62928" lon="3.32025">
        <ele>24.710424</ele>
        <time>2018-02-06T14:21:22Z</time>
      </trkpt>
      <trkpt lat="50.62922" lon="3.3202">
        <ele>24.708344</ele>
        <time>2018-02-06T14:21:24Z</time>
      </trkpt>
      <trkpt lat="50.62915" lon="3.32014">
        <ele>24.721706</ele>
        <time>2018-02-06T14:21:26Z</time>
      </trkpt>
      <trkpt lat="50.62906" lon="3.32007">
        <ele>24.741955</ele>
        <time>2018-02-06T14:21:28Z</time>
      </trkpt>
      <trkpt lat="50.62897" lon="3.32001">
        <ele>24.735144</ele>
        <time>2018-02-06T14:21:30Z</time>
      </trkpt>
      <trkpt lat="50.62888" lon="3.31995">
        <ele>24.702337</ele>
        <time>2018-02-06T14:21:32Z</time>
      </trkpt>
      <trkpt lat="50.62878" lon="3.31991">
        <ele>24.664814</ele>
        <time>2018-02-06T14:21:34Z</time>
      </trkpt>
      <trkpt lat="50.62869" lon="3.31986">
        <ele>24.680264</ele>
        <time>2018-02-06T14:21:36Z</time>
      </trkpt>
      <trkpt lat="50.62859" lon="3.31982">
        <ele>24.739817</ele>
        <time>2018-02-06T14:21:38Z</time>
      </trkpt>
      <trkpt lat="50.62849" lon="3.31979">
        <ele>24.748728</ele>
        <time>2018-02-06T14:21:40Z</time>
      </trkpt>
      <trkpt lat="50.6284" lon="3.31974">
        <ele>24.819126</ele>
        <time>2018-02-06T14:21:42Z</time>
      </trkpt>
      <trkpt lat="50.62832" lon="3.31965">
        <ele>24.86384</ele>
        <time>2018-02-06T14:21:44Z</time>
      </trkpt>
      <trkpt lat="50.62827" lon="3.31952">
        <ele>24.862719</ele>
        <time>2018-02-06T14:21:46Z</time>
      </trkpt>
      <trkpt lat="50.62822" lon="3.31938">
        <ele>24.906044</ele>
        <time>2018-02-06T14:21:48Z</time>
      </trkpt>
      <trkpt lat="50.62817" lon="3.31925">
        <ele>24.973665</ele>
        <time>2018-02-06T14:21:50Z</time>
      </trkpt>
      <trkpt lat="50.62812" lon="3.31914">
        <ele>24.989346</ele>
        <time>2018-02-06T14:21:52Z</time>
      </trkpt>
      <trkpt lat="50.62803" lon="3.31907">
        <ele>25.052681</ele>
        <time>2018-02-06T14:21:54Z</time>
      </trkpt>
      <trkpt lat="50.62793" lon="3.31904">
        <ele>25.151356</ele>
        <time>2018-02-06T14:21:56Z</time>
      </trkpt>
      <trkpt lat="50.62783" lon="3.31901">
        <ele>25.199005</ele>
        <time>2018-02-06T14:21:58Z</time>
      </trkpt>
      <trkpt lat="50.62773" lon="3.319">
        <ele>25.251133</ele>
        <time>2018-02-06T14:22:00Z</time>
      </trkpt>
      <trkpt lat="50.62762" lon="3.31898">
        <ele>25.274626</ele>
        <time>2018-02-06T14:22:02Z</time>
      </trkpt>
      <trkpt lat="50.62752" lon="3.31897">
        <ele>25.408682</ele>
        <time>2018-02-06T14:22:04Z</time>
      </trkpt>
      <trkpt lat="50.62741" lon="3.31896">
        <ele>25.479509</ele>
        <time>2018-02-06T14:22:06Z</time>
      </trkpt>
      <trkpt lat="50.62731" lon="3.31895">
        <ele>25.564817</ele>
        <time>2018-02-06T14:22:08Z</time>
      </trkpt>
      <trkpt lat="50.62721" lon="3.31893">
        <ele>25.628315</ele>
        <time>2018-02-06T14:22:10Z</time>
      </trkpt>
      <trkpt lat="50.62711" lon="3.31892">
        <ele>25.778088</ele>
        <time>2018-02-06T14:22:12Z</time>
      </trkpt>
      <trkpt lat="50.62701" lon="3.31889">
        <ele>25.920429</ele>
        <time>2018-02-06T14:22:14Z</time>
      </trkpt>
      <trkpt lat="50.62692" lon="3.31887">
        <ele>26.065241</ele>
        <time>2018-02-06T14:22:16Z</time>
      </trkpt>
      <trkpt lat="50.62682" lon="3.31884">
        <ele>26.150085</ele>
        <time>2018-02-06T14:22:18Z</time>
      </trkpt>
      <trkpt lat="50.62672" lon="3.3188">
        <ele>26.222248</ele>
        <time>2018-02-06T14:22:20Z</time>
      </trkpt>
      <trkpt lat="50.62663" lon="3.31875">
        <ele>26.305841</ele>
        <time>2018-02-06T14:22:22Z</time>
      </trkpt>
      <trkpt lat="50.62653" lon="3.3187">
        <ele>26.39823</ele>
        <time>2018-02-06T14:22:24Z</time>
      </trkpt>
      <trkpt lat="50.62643" lon="3.31864">
        <ele>26.48645</ele>
        <time>2018-02-06T14:22:26Z</time>
      </trkpt>
      <trkpt lat="50.62634" lon="3.31857">
        <ele>26.591053</ele>
        <time>2018-02-06T14:22:28Z</time>
      </trkpt>
      <trkpt lat="50.62624" lon="3.3185">
        <ele>26.679668</ele>
        <time>2018-02-06T14:22:30Z</time>
      </trkpt>
      <trkpt lat="50.62615" lon="3.31842">
        <ele>26.754492</ele>
        <time>2018-02-06T14:22:32Z</time>
      </trkpt>
      <trkpt lat="50.62606" lon="3.31834">
        <ele>26.83581</ele>
        <time>2018-02-06T14:22:34Z</time>
      </trkpt>
      <trkpt lat="50.62597" lon="3.31826">
        <ele>26.875477</ele>
        <time>2018-02-06T14:22:36Z</time>
      </trkpt>
      <trkpt lat="50.62588" lon="3.31819">
        <ele>26.952967</ele>
        <time>2018-02-06T14:22:38Z</time>
      </trkpt>
      <trkpt lat="50.62579" lon="3.31811">
        <ele>27.064426</ele>
        <time>2018-02-06T14:22:40Z</time>
      </trkpt>
      <trkpt lat="50.62571" lon="3.31804">
        <ele>27.174189</ele>
        <time>2018-02-06T14:22:42Z</time>
      </trkpt>
      <trkpt lat="50.62563" lon="3.31796">
        <ele>27.315145</ele>
        <time>2018-02-06T14:22:44Z</time>
      </trkpt>
      <trkpt lat="50.62554" lon="3.31787">
        <ele>27.396145</ele>
        <time>2018-02-06T14:22:46Z</time>
      </trkpt>
      <trkpt lat="50.62547" lon="3.31777">
        <ele>27.562229</ele>
        <time>2018-02-06T14:22:48Z</time>
      </trkpt>
      <trkpt lat="50.62542" lon="3.31765">
        <ele>27.697012</ele>
        <time>2018-02-06T14:22:50Z</time>
      </trkpt>
      <trkpt lat="50.62537" lon="3.31751">
        <ele>27.870636</ele>
        <time>2018-02-06T14:22:52Z</time>
      </trkpt>
      <trkpt lat="50.62534" lon="3.31737">
        <ele>27.9891</ele>
        <time>2018-02-06T14:22:54Z</time>
      </trkpt>
      <trkpt lat="50.62532" lon="3.31723">
        <ele>28.16131</ele>
        <time>2018-02-06T14:22:56Z</time>
      </trkpt>
      <trkpt lat="50.62528" lon="3.3171">
        <ele>28.227224</ele>
        <time>2018-02-06T14:22:58Z</time>
      </trkpt>
      <trkpt lat="50.62526" lon="3.31696">
        <ele>28.380346</ele>
        <time>2018-02-06T14:23:00Z</time>
      </trkpt>
      <trkpt lat="50.62523" lon="3.31683">
        <ele>28.562298</ele>
        <time>2018-02-06T14:23:02Z</time>
      </trkpt>
      <trkpt lat="50.6252" lon="3.31669">
        <ele>28.750713</ele>
        <time>2018-02-06T14:23:04Z</time>
      </trkpt>
      <trkpt lat="50.62518" lon="3.31655">
        <ele>28.940496</ele>
        <time>2018-02-06T14:23:06Z</time>
      </trkpt>
      <trkpt lat="50.62515" lon="3.31641">
        <ele>29.148947</ele>
        <time>2018-02-06T14:23:08Z</time>
      </trkpt>
      <trkpt lat="50.62512" lon="3.31628">
        <ele>29.341837</ele>
        <time>2018-02-06T14:23:10Z</time>
      </trkpt>
      <trkpt lat="50.62509" lon="3.31614">
        <ele>29.572561</ele>
        <time>2018-02-06T14:23:12Z</time>
      </trkpt>
      <trkpt lat="50.62506" lon="3.316">
        <ele>29.801418</ele>
        <time>2018-02-06T14:23:14Z</time>
      </trkpt>
      <trkpt lat="50.62503" lon="3.31587">
        <ele>30.007336</ele>
        <time>2018-02-06T14:23:16Z</time>
      </trkpt>
      <trkpt lat="50.625" lon="3.31574">
        <ele>30.212057</ele>
        <time>2018-02-06T14:23:18Z</time>
      </trkpt>
      <trkpt lat="50.62497" lon="3.3156">
        <ele>30.451481</ele>
        <time>2018-02-06T14:23:20Z</time>
      </trkpt>
      <trkpt lat="50.62494" lon="3.31546">
        <ele>30.687937</ele>
        <time>2018-02-06T14:23:22Z</time>
      </trkpt>
      <trkpt lat="50.62491" lon="3.31534">
        <ele>30.88998</ele>
        <time>2018-02-06T14:23:24Z</time>
      </trkpt>
      <trkpt lat="50.62488" lon="3.31522">
        <ele>31.100138</ele>
        <time>2018-02-06T14:23:26Z</time>
      </trkpt>
      <trkpt lat="50.62484" lon="3.3151">
        <ele>31.349131</ele>
        <time>2018-02-06T14:23:28Z</time>
      </trkpt>
      <trkpt lat="50.62482" lon="3.31495">
        <ele>31.434128</ele>
        <time>2018-02-06T14:23:30Z</time>
      </trkpt>
      <trkpt lat="50.62478" lon="3.31481">
        <ele>31.707129</ele>
        <time>2018-02-06T14:23:32Z</time>
      </trkpt>
      <trkpt lat="50.62476" lon="3.31466">
        <ele>31.980015</ele>
        <time>2018-02-06T14:23:34Z</time>
      </trkpt>
      <trkpt lat="50.62473" lon="3.31453">
        <ele>32.247913</ele>
        <time>2018-02-06T14:23:36Z</time>
      </trkpt>
      <trkpt lat="50.62471" lon="3.31441">
        <ele>32.465446</ele>
        <time>2018-02-06T14:23:38Z</time>
      </trkpt>
      <trkpt lat="50.62468" lon="3.31427">
        <ele>32.741177</ele>
        <time>2018-02-06T14:23:40Z</time>
      </trkpt>
      <trkpt lat="50.62466" lon="3.31415">
        <ele>33.031189</ele>
        <time>2018-02-06T14:23:42Z</time>
      </trkpt>
      <trkpt lat="50.62465" lon="3.31402">
        <ele>33.272385</ele>
        <time>2018-02-06T14:23:44Z</time>
      </trkpt>
      <trkpt lat="50.62463" lon="3.31389">
        <ele>33.490074</ele>
        <time>2018-02-06T14:23:46Z</time>
      </trkpt>
      <trkpt lat="50.62462" lon="3.31376">
        <ele>33.745647</ele>
        <time>2018-02-06T14:23:48Z</time>
      </trkpt>
      <trkpt lat="50.62462" lon="3.31363">
        <ele>34.06723</ele>
        <time>2018-02-06T14:23:50Z</time>
      </trkpt>
      <trkpt lat="50.62461" lon="3.31351">
        <ele>34.349174</ele>
        <time>2018-02-06T14:23:52Z</time>
      </trkpt>
      <trkpt lat="50.6246" lon="3.31338">
        <ele>34.650017</ele>
        <time>2018-02-06T14:23:54Z</time>
      </trkpt>
      <trkpt lat="50.62458" lon="3.31326">
        <ele>34.953499</ele>
        <time>2018-02-06T14:23:56Z</time>
      </trkpt>
      <trkpt lat="50.62456" lon="3.31314">
        <ele>35.211231</ele>
        <time>2018-02-06T14:23:58Z</time>
      </trkpt>
      <trkpt lat="50.62454" lon="3.31301">
        <ele>35.535358</ele>
        <time>2018-02-06T14:24:00Z</time>
      </trkpt>
      <trkpt lat="50.62452" lon="3.31289">
        <ele>35.827606</ele>
        <time>2018-02-06T14:24:02Z</time>
      </trkpt>
      <trkpt lat="50.62449" lon="3.31277">
        <ele>36.197975</ele>
        <time>2018-02-06T14:24:04Z</time>
      </trkpt>
      <trkpt lat="50.62447" lon="3.31264">
        <ele>36.348846</ele>
        <time>2018-02-06T14:24:06Z</time>
      </trkpt>
      <trkpt lat="50.62444" lon="3.31252">
        <ele>36.697056</ele>
        <time>2018-02-06T14:24:08Z</time>
      </trkpt>
      <trkpt lat="50.62442" lon="3.3124">
        <ele>37.040646</ele>
        <time>2018-02-06T14:24:10Z</time>
      </trkpt>
      <trkpt lat="50.62439" lon="3.31227">
        <ele>37.328476</ele>
        <time>2018-02-06T14:24:12Z</time>
      </trkpt>
      <trkpt lat="50.62436" lon="3.31213">
        <ele>37.611122</ele>
        <time>2018-02-06T14:24:14Z</time>
      </trkpt>
      <trkpt lat="50.62433" lon="3.31198">
        <ele>37.849937</ele>
        <time>2018-02-06T14:24:16Z</time>
      </trkpt>
      <trkpt lat="50.6243" lon="3.31183">
        <ele>38.039894</ele>
        <time>2018-02-06T14:24:18Z</time>
      </trkpt>
      <trkpt lat="50.62427" lon="3.31167">
        <ele>38.238869</ele>
        <time>2018-02-06T14:24:20Z</time>
      </trkpt>
      <trkpt lat="50.62426" lon="3.31151">
        <ele>38.423576</ele>
        <time>2018-02-06T14:24:22Z</time>
      </trkpt>
      <trkpt lat="50.62428" lon="3.31135">
        <ele>38.584381</ele>
        <time>2018-02-06T14:24:24Z</time>
      </trkpt>
      <trkpt lat="50.62431" lon="3.3112">
        <ele>38.818287</ele>
        <time>2018-02-06T14:24:26Z</time>
      </trkpt>
      <trkpt lat="50.62438" lon="3.31106">
        <ele>38.948059</ele>
        <time>2018-02-06T14:24:28Z</time>
      </trkpt>
      <trkpt lat="50.62445" lon="3.31094">
        <ele>39.111202</ele>
        <time>2018-02-06T14:24:30Z</time>
      </trkpt>
      <trkpt lat="50.62452" lon="3.31082">
        <ele>39.200184</ele>
        <time>2018-02-06T14:24:32Z</time>
      </trkpt>
      <trkpt lat="50.62459" lon="3.3107">
        <ele>39.243706</ele>
        <time>2018-02-06T14:24:34Z</time>
      </trkpt>
      <trkpt lat="50.62466" lon="3.31059">
        <ele>39.299809</ele>
        <time>2018-02-06T14:24:36Z</time>
      </trkpt>
      <trkpt lat="50.62473" lon="3.31048">
        <ele>39.447559</ele>
        <time>2018-02-06T14:24:38Z</time>
      </trkpt>
      <trkpt lat="50.6248" lon="3.31037">
        <ele>39.519741</ele>
        <time>2018-02-06T14:24:40Z</time>
      </trkpt>
      <trkpt lat="50.62487" lon="3.31025">
        <ele>39.577766</ele>
        <time>2018-02-06T14:24:42Z</time>
      </trkpt>
      <trkpt lat="50.62494" lon="3.31015">
        <ele>39.631466</ele>
        <time>2018-02-06T14:24:44Z</time>
      </trkpt>
      <trkpt lat="50.62502" lon="3.31005">
        <ele>39.614388</ele>
        <time>2018-02-06T14:24:46Z</time>
      </trkpt>
      <trkpt lat="50.6251" lon="3.30995">
        <ele>39.637486</ele>
        <time>2018-02-06T14:24:48Z</time>
      </trkpt>
      <trkpt lat="50.62518" lon="3.30985">
        <ele>39.622623</ele>
        <time>2018-02-06T14:24:50Z</time>
      </trkpt>
      <trkpt lat="50.62526" lon="3.30975">
        <ele>39.671902</ele>
        <time>2018-02-06T14:24:52Z</time>
      </trkpt>
      <trkpt lat="50.62534" lon="3.30965">
        <ele>39.700138</ele>
        <time>2018-02-06T14:24:54Z</time>
      </trkpt>
      <trkpt lat="50.62542" lon="3.30954">
        <ele>39.758671</ele>
        <time>2018-02-06T14:24:56Z</time>
      </trkpt>
      <trkpt lat="50.6255" lon="3.30944">
        <ele>39.831627</ele>
        <time>2018-02-06T14:24:58Z</time>
      </trkpt>
      <trkpt lat="50.62558" lon="3.30936">
        <ele>39.885857</ele>
        <time>2018-02-06T14:25:00Z</time>
      </trkpt>
      <trkpt lat="50.62566" lon="3.30926">
        <ele>39.941502</ele>
        <time>2018-02-06T14:25:02Z</time>
      </trkpt>
      <trkpt lat="50.62574" lon="3.30916">
        <ele>39.992935</ele>
        <time>2018-02-06T14:25:04Z</time>
      </trkpt>
      <trkpt lat="50.6258" lon="3.30905">
        <ele>39.972263</ele>
        <time>2018-02-06T14:25:06Z</time>
      </trkpt>
      <trkpt lat="50.62582" lon="3.30891">
        <ele>39.932705</ele>
        <time>2018-02-06T14:25:08Z</time>
      </trkpt>
      <trkpt lat="50.62579" lon="3.30875">
        <ele>39.885246</ele>
        <time>2018-02-06T14:25:10Z</time>
      </trkpt>
      <trkpt lat="50.62575" lon="3.30859">
        <ele>39.86071</ele>
        <time>2018-02-06T14:25:12Z</time>
      </trkpt>
      <trkpt lat="50.62572" lon="3.30843">
        <ele>39.886883</ele>
        <time>2018-02-06T14:25:14Z</time>
      </trkpt>
      <trkpt lat="50.62569" lon="3.30827">
        <ele>39.832909</ele>
        <time>2018-02-06T14:25:16Z</time>
      </trkpt>
      <trkpt lat="50.62566" lon="3.30809">
        <ele>39.776897</ele>
        <time>2018-02-06T14:25:18Z</time>
      </trkpt>
      <trkpt lat="50.62563" lon="3.30792">
        <ele>39.712204</ele>
        <time>2018-02-06T14:25:20Z</time>
      </trkpt>
      <trkpt lat="50.6256" lon="3.30774">
        <ele>39.668102</ele>
        <time>2018-02-06T14:25:22Z</time>
      </trkpt>
      <trkpt lat="50.62557" lon="3.30757">
        <ele>39.590065</ele>
        <time>2018-02-06T14:25:24Z</time>
      </trkpt>
      <trkpt lat="50.62554" lon="3.3074">
        <ele>39.488754</ele>
        <time>2018-02-06T14:25:26Z</time>
      </trkpt>
      <trkpt lat="50.62551" lon="3.30724">
        <ele>39.381721</ele>
        <time>2018-02-06T14:25:28Z</time>
      </trkpt>
      <trkpt lat="50.6255" lon="3.30707">
        <ele>39.286671</ele>
        <time>2018-02-06T14:25:30Z</time>
      </trkpt>
      <trkpt lat="50.62547" lon="3.3069">
        <ele>39.139553</ele>
        <time>2018-02-06T14:25:32Z</time>
      </trkpt>
      <trkpt lat="50.62544" lon="3.30673">
        <ele>38.920494</ele>
        <time>2018-02-06T14:25:34Z</time>
      </trkpt>
      <trkpt lat="50.6254" lon="3.30656">
        <ele>38.769791</ele>
        <time>2018-02-06T14:25:36Z</time>
      </trkpt>
      <trkpt lat="50.62538" lon="3.30639">
        <ele>38.559303</ele>
        <time>2018-02-06T14:25:38Z</time>
      </trkpt>
      <trkpt lat="50.62536" lon="3.30622">
        <ele>38.316505</ele>
        <time>2018-02-06T14:25:40Z</time>
      </trkpt>
      <trkpt lat="50.62533" lon="3.30606">
        <ele>38.076714</ele>
        <time>2018-02-06T14:25:42Z</time>
      </trkpt>
      <trkpt lat="50.62531" lon="3.30589">
        <ele>37.873409</ele>
        <time>2018-02-06T14:25:44Z</time>
      </trkpt>
      <trkpt lat="50.62529" lon="3.30574">
        <ele>37.62603</ele>
        <time>2018-02-06T14:25:46Z</time>
      </trkpt>
      <trkpt lat="50.62527" lon="3.30559">
        <ele>37.440636</ele>
        <time>2018-02-06T14:25:48Z</time>
      </trkpt>
      <trkpt lat="50.62524" lon="3.30543">
        <ele>37.346741</ele>
        <time>2018-02-06T14:25:50Z</time>
      </trkpt>
      <trkpt lat="50.62521" lon="3.30528">
        <ele>37.174522</ele>
        <time>2018-02-06T14:25:52Z</time>
      </trkpt>
      <trkpt lat="50.62518" lon="3.30513">
        <ele>36.963818</ele>
        <time>2018-02-06T14:25:54Z</time>
      </trkpt>
      <trkpt lat="50.62516" lon="3.30497">
        <ele>36.737755</ele>
        <time>2018-02-06T14:25:56Z</time>
      </trkpt>
      <trkpt lat="50.62514" lon="3.30482">
        <ele>36.557514</ele>
        <time>2018-02-06T14:25:58Z</time>
      </trkpt>
      <trkpt lat="50.62511" lon="3.30468">
        <ele>36.331795</ele>
        <time>2018-02-06T14:26:00Z</time>
      </trkpt>
      <trkpt lat="50.62508" lon="3.30453">
        <ele>36.13559</ele>
        <time>2018-02-06T14:26:02Z</time>
      </trkpt>
      <trkpt lat="50.62506" lon="3.30438">
        <ele>35.957855</ele>
        <time>2018-02-06T14:26:04Z</time>
      </trkpt>
      <trkpt lat="50.62505" lon="3.30422">
        <ele>35.752632</ele>
        <time>2018-02-06T14:26:06Z</time>
      </trkpt>
      <trkpt lat="50.62504" lon="3.30406">
        <ele>35.586933</ele>
        <time>2018-02-06T14:26:08Z</time>
      </trkpt>
      <trkpt lat="50.62504" lon="3.30391">
        <ele>35.413586</ele>
        <time>2018-02-06T14:26:10Z</time>
      </trkpt>
      <trkpt lat="50.62505" lon="3.30377">
        <ele>35.196953</ele>
        <time>2018-02-06T14:26:12Z</time>
      </trkpt>
      <trkpt lat="50.62505" lon="3.30362">
        <ele>35.042362</ele>
        <time>2018-02-06T14:26:14Z</time>
      </trkpt>
      <trkpt lat="50.62504" lon="3.30347">
        <ele>34.988152</ele>
        <time>2018-02-06T14:26:16Z</time>
      </trkpt>
      <trkpt lat="50.62503" lon="3.30331">
        <ele>34.797417</ele>
        <time>2018-02-06T14:26:18Z</time>
      </trkpt>
      <trkpt lat="50.62504" lon="3.30314">
        <ele>34.68475</ele>
        <time>2018-02-06T14:26:20Z</time>
      </trkpt>
      <trkpt lat="50.62504" lon="3.30296">
        <ele>34.591587</ele>
        <time>2018-02-06T14:26:22Z</time>
      </trkpt>
      <trkpt lat="50.62505" lon="3.30279">
        <ele>34.499233</ele>
        <time>2018-02-06T14:26:24Z</time>
      </trkpt>
      <trkpt lat="50.62507" lon="3.30265">
        <ele>34.379879</ele>
        <time>2018-02-06T14:26:26Z</time>
      </trkpt>
      <trkpt lat="50.62508" lon="3.30252">
        <ele>34.233383</ele>
        <time>2018-02-06T14:26:28Z</time>
      </trkpt>
      <trkpt lat="50.62509" lon="3.30241">
        <ele>34.104073</ele>
        <time>2018-02-06T14:26:30Z</time>
      </trkpt>
      <trkpt lat="50.62509" lon="3.30229">
        <ele>33.997845</ele>
        <time>2018-02-06T14:26:32Z</time>
      </trkpt>
      <trkpt lat="50.6251" lon="3.30217">
        <ele>33.911819</ele>
        <time>2018-02-06T14:26:34Z</time>
      </trkpt>
      <trkpt lat="50.62511" lon="3.30205">
        <ele>33.811672</ele>
        <time>2018-02-06T14:26:36Z</time>
      </trkpt>
      <trkpt lat="50.62511" lon="3.30195">
        <ele>33.726097</ele>
        <time>2018-02-06T14:26:38Z</time>
      </trkpt>
      <trkpt lat="50.62512" lon="3.30186">
        <ele>33.577522</ele>
        <time>2018-02-06T14:26:40Z</time>
      </trkpt>
      <trkpt lat="50.62513" lon="3.30176">
        <ele>33.507088</ele>
        <time>2018-02-06T14:26:42Z</time>
      </trkpt>
      <trkpt lat="50.62513" lon="3.30165">
        <ele>33.393864</ele>
        <time>2018-02-06T14:26:44Z</time>
      </trkpt>
      <trkpt lat="50.62514" lon="3.30155">
        <ele>33.247803</ele>
        <time>2018-02-06T14:26:46Z</time>
      </trkpt>
      <trkpt lat="50.62515" lon="3.30144">
        <ele>33.05888</ele>
        <time>2018-02-06T14:26:48Z</time>
      </trkpt>
      <trkpt lat="50.62516" lon="3.30131">
        <ele>32.919411</ele>
        <time>2018-02-06T14:26:50Z</time>
      </trkpt>
      <trkpt lat="50.62518" lon="3.30118">
        <ele>32.763203</ele>
        <time>2018-02-06T14:26:52Z</time>
      </trkpt>
      <trkpt lat="50.6252" lon="3.30104">
        <ele>32.648041</ele>
        <time>2018-02-06T14:26:54Z</time>
      </trkpt>
      <trkpt lat="50.62522" lon="3.3009">
        <ele>32.501595</ele>
        <time>2018-02-06T14:26:56Z</time>
      </trkpt>
      <trkpt lat="50.62523" lon="3.30076">
        <ele>32.397278</ele>
        <time>2018-02-06T14:26:58Z</time>
      </trkpt>
      <trkpt lat="50.62525" lon="3.3006">
        <ele>32.273857</ele>
        <time>2018-02-06T14:27:00Z</time>
      </trkpt>
      <trkpt lat="50.62527" lon="3.30044">
        <ele>32.152782</ele>
        <time>2018-02-06T14:27:02Z</time>
      </trkpt>
      <trkpt lat="50.62529" lon="3.30028">
        <ele>32.046917</ele>
        <time>2018-02-06T14:27:04Z</time>
      </trkpt>
      <trkpt lat="50.62532" lon="3.30011">
        <ele>31.925488</ele>
        <time>2018-02-06T14:27:06Z</time>
      </trkpt>
      <trkpt lat="50.62533" lon="3.29994">
        <ele>31.796082</ele>
        <time>2018-02-06T14:27:08Z</time>
      </trkpt>
      <trkpt lat="50.62535" lon="3.29976">
        <ele>31.704779</ele>
        <time>2018-02-06T14:27:10Z</time>
      </trkpt>
      <trkpt lat="50.62536" lon="3.29958">
        <ele>31.611797</ele>
        <time>2018-02-06T14:27:12Z</time>
      </trkpt>
      <trkpt lat="50.62536" lon="3.2994">
        <ele>31.466846</ele>
        <time>2018-02-06T14:27:14Z</time>
      </trkpt>
      <trkpt lat="50.62538" lon="3.29923">
        <ele>31.306202</ele>
        <time>2018-02-06T14:27:16Z</time>
      </trkpt>
      <trkpt lat="50.62539" lon="3.29905">
        <ele>31.19812</ele>
        <time>2018-02-06T14:27:18Z</time>
      </trkpt>
      <trkpt lat="50.62541" lon="3.29888">
        <ele>31.050751</ele>
        <time>2018-02-06T14:27:20Z</time>
      </trkpt>
      <trkpt lat="50.62542" lon="3.29871">
        <ele>30.93722</ele>
        <time>2018-02-06T14:27:22Z</time>
      </trkpt>
      <trkpt lat="50.62544" lon="3.29855">
        <ele>30.834558</ele>
        <time>2018-02-06T14:27:24Z</time>
      </trkpt>
      <trkpt lat="50.62545" lon="3.29839">
        <ele>30.649466</ele>
        <time>2018-02-06T14:27:26Z</time>
      </trkpt>
      <trkpt lat="50.62546" lon="3.29825">
        <ele>30.587978</ele>
        <time>2018-02-06T14:27:28Z</time>
      </trkpt>
      <trkpt lat="50.62548" lon="3.2981">
        <ele>30.530069</ele>
        <time>2018-02-06T14:27:30Z</time>
      </trkpt>
      <trkpt lat="50.62549" lon="3.29796">
        <ele>30.409588</ele>
        <time>2018-02-06T14:27:32Z</time>
      </trkpt>
      <trkpt lat="50.6255" lon="3.29782">
        <ele>30.348236</ele>
        <time>2018-02-06T14:27:34Z</time>
      </trkpt>
      <trkpt lat="50.6255" lon="3.29769">
        <ele>30.241175</ele>
        <time>2018-02-06T14:27:36Z</time>
      </trkpt>
      <trkpt lat="50.62551" lon="3.29755">
        <ele>30.12496</ele>
        <time>2018-02-06T14:27:38Z</time>
      </trkpt>
      <trkpt lat="50.62554" lon="3.29741">
        <ele>29.949478</ele>
        <time>2018-02-06T14:27:40Z</time>
      </trkpt>
      <trkpt lat="50.6256" lon="3.2973">
        <ele>29.833462</ele>
        <time>2018-02-06T14:27:42Z</time>
      </trkpt>
      <trkpt lat="50.62568" lon="3.29721">
        <ele>29.639887</ele>
        <time>2018-02-06T14:27:44Z</time>
      </trkpt>
      <trkpt lat="50.62577" lon="3.29711">
        <ele>29.487072</ele>
        <time>2018-02-06T14:27:46Z</time>
      </trkpt>
      <trkpt lat="50.62585" lon="3.29701">
        <ele>29.358028</ele>
        <time>2018-02-06T14:27:48Z</time>
      </trkpt>
      <trkpt lat="50.62594" lon="3.29691">
        <ele>29.210621</ele>
        <time>2018-02-06T14:27:50Z</time>
      </trkpt>
      <trkpt lat="50.62603" lon="3.29682">
        <ele>29.04476</ele>
        <time>2018-02-06T14:27:52Z</time>
      </trkpt>
      <trkpt lat="50.62611" lon="3.29672">
        <ele>28.980427</ele>
        <time>2018-02-06T14:27:54Z</time>
      </trkpt>
      <trkpt lat="50.62618" lon="3.2966">
        <ele>28.86459</ele>
        <time>2018-02-06T14:27:56Z</time>
      </trkpt>
      <trkpt lat="50.62626" lon="3.29648">
        <ele>28.750891</ele>
        <time>2018-02-06T14:27:58Z</time>
      </trkpt>
      <trkpt lat="50.62632" lon="3.29635">
        <ele>28.61529</ele>
        <time>2018-02-06T14:28:00Z</time>
      </trkpt>
      <trkpt lat="50.62639" lon="3.29622">
        <ele>28.528025</ele>
        <time>2018-02-06T14:28:02Z</time>
      </trkpt>
      <trkpt lat="50.62648" lon="3.29612">
        <ele>28.425495</ele>
        <time>2018-02-06T14:28:04Z</time>
      </trkpt>
      <trkpt lat="50.62657" lon="3.29602">
        <ele>28.252239</ele>
        <time>2018-02-06T14:28:06Z</time>
      </trkpt>
      <trkpt lat="50.62666" lon="3.29592">
        <ele>28.069126</ele>
        <time>2018-02-06T14:28:08Z</time>
      </trkpt>
      <trkpt lat="50.62675" lon="3.29582">
        <ele>27.962494</ele>
        <time>2018-02-06T14:28:10Z</time>
      </trkpt>
      <trkpt lat="50.62684" lon="3.29572">
        <ele>27.774311</ele>
        <time>2018-02-06T14:28:12Z</time>
      </trkpt>
      <trkpt lat="50.62693" lon="3.29561">
        <ele>27.599833</ele>
        <time>2018-02-06T14:28:14Z</time>
      </trkpt>
      <trkpt lat="50.62701" lon="3.29551">
        <ele>27.469997</ele>
        <time>2018-02-06T14:28:16Z</time>
      </trkpt>
      <trkpt lat="50.62711" lon="3.29542">
        <ele>27.307251</ele>
        <time>2018-02-06T14:28:18Z</time>
      </trkpt>
      <trkpt lat="50.6272" lon="3.29533">
        <ele>27.114975</ele>
        <time>2018-02-06T14:28:20Z</time>
      </trkpt>
      <trkpt lat="50.62729" lon="3.29524">
        <ele>26.980572</ele>
        <time>2018-02-06T14:28:22Z</time>
      </trkpt>
      <trkpt lat="50.62737" lon="3.29515">
        <ele>26.827297</ele>
        <time>2018-02-06T14:28:24Z</time>
      </trkpt>
      <trkpt lat="50.62744" lon="3.29507">
        <ele>26.724789</ele>
        <time>2018-02-06T14:28:26Z</time>
      </trkpt>
      <trkpt lat="50.62752" lon="3.29498">
        <ele>26.678024</ele>
        <time>2018-02-06T14:28:28Z</time>
      </trkpt>
      <trkpt lat="50.62759" lon="3.29489">
        <ele>26.541397</ele>
        <time>2018-02-06T14:28:30Z</time>
      </trkpt>
      <trkpt lat="50.62767" lon="3.29482">
        <ele>26.341846</ele>
        <time>2018-02-06T14:28:32Z</time>
      </trkpt>
      <trkpt lat="50.62775" lon="3.29479">
        <ele>26.220753</ele>
        <time>2018-02-06T14:28:34Z</time>
      </trkpt>
      <trkpt lat="50.62785" lon="3.29481">
        <ele>26.040457</ele>
        <time>2018-02-06T14:28:36Z</time>
      </trkpt>
      <trkpt lat="50.62795" lon="3.29486">
        <ele>25.850998</ele>
        <time>2018-02-06T14:28:38Z</time>
      </trkpt>
      <trkpt lat="50.62805" lon="3.2949">
        <ele>25.691818</ele>
        <time>2018-02-06T14:28:40Z</time>
      </trkpt>
      <trkpt lat="50.62815" lon="3.29492">
        <ele>25.552021</ele>
        <time>2018-02-06T14:28:42Z</time>
      </trkpt>
      <trkpt lat="50.62824" lon="3.29493">
        <ele>25.426796</ele>
        <time>2018-02-06T14:28:44Z</time>
      </trkpt>
      <trkpt lat="50.62833" lon="3.2949">
        <ele>25.314571</ele>
        <time>2018-02-06T14:28:46Z</time>
      </trkpt>
      <trkpt lat="50.6284" lon="3.29484">
        <ele>25.224028</ele>
        <time>2018-02-06T14:28:48Z</time>
      </trkpt>
      <trkpt lat="50.62846" lon="3.29475">
        <ele>25.082249</ele>
        <time>2018-02-06T14:28:50Z</time>
      </trkpt>
      <trkpt lat="50.62852" lon="3.29464">
        <ele>24.990171</ele>
        <time>2018-02-06T14:28:52Z</time>
      </trkpt>
      <trkpt lat="50.62857" lon="3.29455">
        <ele>24.896946</ele>
        <time>2018-02-06T14:28:54Z</time>
      </trkpt>
      <trkpt lat="50.62863" lon="3.29446">
        <ele>24.830753</ele>
        <time>2018-02-06T14:28:56Z</time>
      </trkpt>
      <trkpt lat="50.62869" lon="3.29437">
        <ele>24.785124</ele>
        <time>2018-02-06T14:28:58Z</time>
      </trkpt>
      <trkpt lat="50.62874" lon="3.29428">
        <ele>24.725025</ele>
        <time>2018-02-06T14:29:00Z</time>
      </trkpt>
      <trkpt lat="50.6288" lon="3.29418">
        <ele>24.723396</ele>
        <time>2018-02-06T14:29:02Z</time>
      </trkpt>
      <trkpt lat="50.62887" lon="3.29409">
        <ele>24.643597</ele>
        <time>2018-02-06T14:29:04Z</time>
      </trkpt>
      <trkpt lat="50.62893" lon="3.294">
        <ele>24.601524</ele>
        <time>2018-02-06T14:29:06Z</time>
      </trkpt>
      <trkpt lat="50.62898" lon="3.29391">
        <ele>24.562454</ele>
        <time>2018-02-06T14:29:08Z</time>
      </trkpt>
      <trkpt lat="50.62904" lon="3.29381">
        <ele>24.50502</ele>
        <time>2018-02-06T14:29:10Z</time>
      </trkpt>
      <trkpt lat="50.6291" lon="3.29371">
        <ele>24.477823</ele>
        <time>2018-02-06T14:29:12Z</time>
      </trkpt>
      <trkpt lat="50.62916" lon="3.2936">
        <ele>24.442875</ele>
        <time>2018-02-06T14:29:14Z</time>
      </trkpt>
      <trkpt lat="50.62923" lon="3.29349">
        <ele>24.46776</ele>
        <time>2018-02-06T14:29:16Z</time>
      </trkpt>
      <trkpt lat="50.6293" lon="3.29337">
        <ele>24.450417</ele>
        <time>2018-02-06T14:29:18Z</time>
      </trkpt>
      <trkpt lat="50.62937" lon="3.29326">
        <ele>24.493416</ele>
        <time>2018-02-06T14:29:20Z</time>
      </trkpt>
      <trkpt lat="50.62944" lon="3.29314">
        <ele>24.488304</ele>
        <time>2018-02-06T14:29:22Z</time>
      </trkpt>
      <trkpt lat="50.62952" lon="3.29303">
        <ele>24.4753</ele>
        <time>2018-02-06T14:29:24Z</time>
      </trkpt>
      <trkpt lat="50.6296" lon="3.29294">
        <ele>24.457972</ele>
        <time>2018-02-06T14:29:26Z</time>
      </trkpt>
      <trkpt lat="50.62968" lon="3.29286">
        <ele>24.457712</ele>
        <time>2018-02-06T14:29:28Z</time>
      </trkpt>
      <trkpt lat="50.62977" lon="3.29278">
        <ele>24.445063</ele>
        <time>2018-02-06T14:29:30Z</time>
      </trkpt>
      <trkpt lat="50.62985" lon="3.2927">
        <ele>24.444168</ele>
        <time>2018-02-06T14:29:32Z</time>
      </trkpt>
      <trkpt lat="50.62994" lon="3.29263">
        <ele>24.440777</ele>
        <time>2018-02-06T14:29:34Z</time>
      </trkpt>
      <trkpt lat="50.63002" lon="3.29255">
        <ele>24.418018</ele>
        <time>2018-02-06T14:29:36Z</time>
      </trkpt>
      <trkpt lat="50.63011" lon="3.29246">
        <ele>24.379398</ele>
        <time>2018-02-06T14:29:38Z</time>
      </trkpt>
      <trkpt lat="50.6302" lon="3.29238">
        <ele>24.288048</ele>
        <time>2018-02-06T14:29:40Z</time>
      </trkpt>
      <trkpt lat="50.63028" lon="3.29231">
        <ele>24.191435</ele>
        <time>2018-02-06T14:29:42Z</time>
      </trkpt>
      <trkpt lat="50.63037" lon="3.29224">
        <ele>24.114073</ele>
        <time>2018-02-06T14:29:44Z</time>
      </trkpt>
      <trkpt lat="50.63044" lon="3.29218">
        <ele>24.034798</ele>
        <time>2018-02-06T14:29:46Z</time>
      </trkpt>
      <trkpt lat="50.63052" lon="3.29213">
        <ele>23.952219</ele>
        <time>2018-02-06T14:29:48Z</time>
      </trkpt>
      <trkpt lat="50.6306" lon="3.29206">
        <ele>23.836023</ele>
        <time>2018-02-06T14:29:50Z</time>
      </trkpt>
      <trkpt lat="50.63068" lon="3.29198">
        <ele>23.698145</ele>
        <time>2018-02-06T14:29:52Z</time>
      </trkpt>
      <trkpt lat="50.63077" lon="3.29191">
        <ele>23.611513</ele>
        <time>2018-02-06T14:29:54Z</time>
      </trkpt>
      <trkpt lat="50.63086" lon="3.29183">
        <ele>23.524399</ele>
        <time>2018-02-06T14:29:56Z</time>
      </trkpt>
      <trkpt lat="50.63095" lon="3.29175">
        <ele>23.488897</ele>
        <time>2018-02-06T14:29:58Z</time>
      </trkpt>
      <trkpt lat="50.63104" lon="3.29166">
        <ele>23.384205</ele>
        <time>2018-02-06T14:30:00Z</time>
      </trkpt>
      <trkpt lat="50.63112" lon="3.2916">
        <ele>23.279413</ele>
        <time>2018-02-06T14:30:02Z</time>
      </trkpt>
      <trkpt lat="50.63119" lon="3.29152">
        <ele>23.167789</ele>
        <time>2018-02-06T14:30:04Z</time>
      </trkpt>
      <trkpt lat="50.63128" lon="3.29144">
        <ele>23.125311</ele>
        <time>2018-02-06T14:30:06Z</time>
      </trkpt>
      <trkpt lat="50.63137" lon="3.29136">
        <ele>23.046919</ele>
        <time>2018-02-06T14:30:08Z</time>
      </trkpt>
      <trkpt lat="50.63145" lon="3.29128">
        <ele>22.96361</ele>
        <time>2018-02-06T14:30:10Z</time>
      </trkpt>
      <trkpt lat="50.63153" lon="3.29121">
        <ele>22.870678</ele>
        <time>2018-02-06T14:30:12Z</time>
      </trkpt>
      <trkpt lat="50.63161" lon="3.29112">
        <ele>22.779726</ele>
        <time>2018-02-06T14:30:14Z</time>
      </trkpt>
      <trkpt lat="50.63169" lon="3.29103">
        <ele>22.682974</ele>
        <time>2018-02-06T14:30:16Z</time>
      </trkpt>
      <trkpt lat="50.63176" lon="3.29093">
        <ele>22.614605</ele>
        <time>2018-02-06T14:30:18Z</time>
      </trkpt>
      <trkpt lat="50.63183" lon="3.29082">
        <ele>22.532782</ele>
        <time>2018-02-06T14:30:20Z</time>
      </trkpt>
      <trkpt lat="50.63189" lon="3.29072">
        <ele>22.503887</ele>
        <time>2018-02-06T14:30:22Z</time>
      </trkpt>
      <trkpt lat="50.63194" lon="3.29061">
        <ele>22.452108</ele>
        <time>2018-02-06T14:30:24Z</time>
      </trkpt>
      <trkpt lat="50.63201" lon="3.29052">
        <ele>22.471046</ele>
        <time>2018-02-06T14:30:26Z</time>
      </trkpt>
      <trkpt lat="50.63211" lon="3.29046">
        <ele>22.442114</ele>
        <time>2018-02-06T14:30:28Z</time>
      </trkpt>
      <trkpt lat="50.63225" lon="3.29042">
        <ele>22.435108</ele>
        <time>2018-02-06T14:30:30Z</time>
      </trkpt>
      <trkpt lat="50.63237" lon="3.29037">
        <ele>22.406372</ele>
        <time>2018-02-06T14:30:32Z</time>
      </trkpt>
      <trkpt lat="50.63248" lon="3.29033">
        <ele>22.443951</ele>
        <time>2018-02-06T14:30:34Z</time>
      </trkpt>
      <trkpt lat="50.63259" lon="3.29029">
        <ele>22.37504</ele>
        <time>2018-02-06T14:30:36Z</time>
      </trkpt>
      <trkpt lat="50.63269" lon="3.29026">
        <ele>22.372049</ele>
        <time>2018-02-06T14:30:38Z</time>
      </trkpt>
      <trkpt lat="50.63279" lon="3.29023">
        <ele>22.319427</ele>
        <time>2018-02-06T14:30:40Z</time>
      </trkpt>
      <trkpt lat="50.63289" lon="3.2902">
        <ele>22.330925</ele>
        <time>2018-02-06T14:30:42Z</time>
      </trkpt>
      <trkpt lat="50.63298" lon="3.29016">
        <ele>22.280849</ele>
        <time>2018-02-06T14:30:44Z</time>
      </trkpt>
      <trkpt lat="50.63308" lon="3.29013">
        <ele>22.204115</ele>
        <time>2018-02-06T14:30:46Z</time>
      </trkpt>
      <trkpt lat="50.63316" lon="3.29009">
        <ele>22.141537</ele>
        <time>2018-02-06T14:30:48Z</time>
      </trkpt>
      <trkpt lat="50.63326" lon="3.29006">
        <ele>22.132761</ele>
        <time>2018-02-06T14:30:50Z</time>
      </trkpt>
      <trkpt lat="50.63335" lon="3.29001">
        <ele>22.145063</ele>
        <time>2018-02-06T14:30:52Z</time>
      </trkpt>
      <trkpt lat="50.63344" lon="3.28997">
        <ele>22.169788</ele>
        <time>2018-02-06T14:30:54Z</time>
      </trkpt>
      <trkpt lat="50.63353" lon="3.28993">
        <ele>22.118979</ele>
        <time>2018-02-06T14:30:56Z</time>
      </trkpt>
      <trkpt lat="50.63361" lon="3.2899">
        <ele>22.091204</ele>
        <time>2018-02-06T14:30:58Z</time>
      </trkpt>
      <trkpt lat="50.63369" lon="3.28986">
        <ele>22.092306</ele>
        <time>2018-02-06T14:31:00Z</time>
      </trkpt>
      <trkpt lat="50.63376" lon="3.28982">
        <ele>22.052744</ele>
        <time>2018-02-06T14:31:02Z</time>
      </trkpt>
      <trkpt lat="50.63384" lon="3.28978">
        <ele>22.057011</ele>
        <time>2018-02-06T14:31:04Z</time>
      </trkpt>
      <trkpt lat="50.63392" lon="3.28974">
        <ele>22.04977</ele>
        <time>2018-02-06T14:31:06Z</time>
      </trkpt>
      <trkpt lat="50.634" lon="3.2897">
        <ele>22.005337</ele>
        <time>2018-02-06T14:31:08Z</time>
      </trkpt>
      <trkpt lat="50.63408" lon="3.28966">
        <ele>21.96343</ele>
        <time>2018-02-06T14:31:10Z</time>
      </trkpt>
      <trkpt lat="50.63416" lon="3.28961">
        <ele>21.983627</ele>
        <time>2018-02-06T14:31:12Z</time>
      </trkpt>
      <trkpt lat="50.63424" lon="3.28955">
        <ele>21.987448</ele>
        <time>2018-02-06T14:31:14Z</time>
      </trkpt>
      <trkpt lat="50.63431" lon="3.28948">
        <ele>21.997425</ele>
        <time>2018-02-06T14:31:16Z</time>
      </trkpt>
      <trkpt lat="50.63439" lon="3.28942">
        <ele>21.956825</ele>
        <time>2018-02-06T14:31:18Z</time>
      </trkpt>
      <trkpt lat="50.63447" lon="3.28936">
        <ele>21.949627</ele>
        <time>2018-02-06T14:31:20Z</time>
      </trkpt>
      <trkpt lat="50.63455" lon="3.28928">
        <ele>21.943027</ele>
        <time>2018-02-06T14:31:22Z</time>
      </trkpt>
      <trkpt lat="50.63462" lon="3.28921">
        <ele>21.960613</ele>
        <time>2018-02-06T14:31:24Z</time>
      </trkpt>
      <trkpt lat="50.63469" lon="3.28914">
        <ele>21.972267</ele>
        <time>2018-02-06T14:31:26Z</time>
      </trkpt>
      <trkpt lat="50.63476" lon="3.28908">
        <ele>21.992697</ele>
        <time>2018-02-06T14:31:28Z</time>
      </trkpt>
      <trkpt lat="50.63481" lon="3.28899">
        <ele>22.008795</ele>
        <time>2018-02-06T14:31:30Z</time>
      </trkpt>
      <trkpt lat="50.6348" lon="3.28887">
        <ele>21.93572</ele>
        <time>2018-02-06T14:31:32Z</time>
      </trkpt>
      <trkpt lat="50.63476" lon="3.28874">
        <ele>21.896994</ele>
        <time>2018-02-06T14:31:34Z</time>
      </trkpt>
      <trkpt lat="50.63472" lon="3.2886">
        <ele>21.904034</ele>
        <time>2018-02-06T14:31:36Z</time>
      </trkpt>
      <trkpt lat="50.6347" lon="3.28846">
        <ele>21.927454</ele>
        <time>2018-02-06T14:31:38Z</time>
      </trkpt>
      <trkpt lat="50.63468" lon="3.28832">
        <ele>21.912258</ele>
        <time>2018-02-06T14:31:40Z</time>
      </trkpt>
      <trkpt lat="50.63468" lon="3.28819">
        <ele>21.846792</ele>
        <time>2018-02-06T14:31:42Z</time>
      </trkpt>
      <trkpt lat="50.63468" lon="3.28806">
        <ele>21.867809</ele>
        <time>2018-02-06T14:31:44Z</time>
      </trkpt>
      <trkpt lat="50.63468" lon="3.28794">
        <ele>21.854631</ele>
        <time>2018-02-06T14:31:46Z</time>
      </trkpt>
      <trkpt lat="50.63468" lon="3.2878">
        <ele>21.858484</ele>
        <time>2018-02-06T14:31:48Z</time>
      </trkpt>
      <trkpt lat="50.63467" lon="3.28766">
        <ele>21.877077</ele>
        <time>2018-02-06T14:31:50Z</time>
      </trkpt>
      <trkpt lat="50.63466" lon="3.28751">
        <ele>21.871216</ele>
        <time>2018-02-06T14:31:52Z</time>
      </trkpt>
      <trkpt lat="50.63465" lon="3.28737">
        <ele>21.829096</ele>
        <time>2018-02-06T14:31:54Z</time>
      </trkpt>
      <trkpt lat="50.63463" lon="3.28722">
        <ele>21.870037</ele>
        <time>2018-02-06T14:31:56Z</time>
      </trkpt>
      <trkpt lat="50.63461" lon="3.28706">
        <ele>21.886034</ele>
        <time>2018-02-06T14:31:58Z</time>
      </trkpt>
      <trkpt lat="50.6346" lon="3.28691">
        <ele>21.902988</ele>
        <time>2018-02-06T14:32:00Z</time>
      </trkpt>
      <trkpt lat="50.63458" lon="3.28677">
        <ele>21.922815</ele>
        <time>2018-02-06T14:32:02Z</time>
      </trkpt>
      <trkpt lat="50.63457" lon="3.28664">
        <ele>21.884928</ele>
        <time>2018-02-06T14:32:04Z</time>
      </trkpt>
      <trkpt lat="50.63455" lon="3.28649">
        <ele>21.901829</ele>
        <time>2018-02-06T14:32:06Z</time>
      </trkpt>
      <trkpt lat="50.63454" lon="3.28635">
        <ele>21.884359</ele>
        <time>2018-02-06T14:32:08Z</time>
      </trkpt>
      <trkpt lat="50.63452" lon="3.28621">
        <ele>21.884245</ele>
        <time>2018-02-06T14:32:10Z</time>
      </trkpt>
      <trkpt lat="50.63451" lon="3.28607">
        <ele>21.84148</ele>
        <time>2018-02-06T14:32:12Z</time>
      </trkpt>
      <trkpt lat="50.63449" lon="3.28593">
        <ele>21.853359</ele>
        <time>2018-02-06T14:32:14Z</time>
      </trkpt>
      <trkpt lat="50.63448" lon="3.28581">
        <ele>21.816105</ele>
        <time>2018-02-06T14:32:16Z</time>
      </trkpt>
      <trkpt lat="50.63447" lon="3.28568">
        <ele>21.690397</ele>
        <time>2018-02-06T14:32:18Z</time>
      </trkpt>
      <trkpt lat="50.63446" lon="3.28555">
        <ele>21.709234</ele>
        <time>2018-02-06T14:32:20Z</time>
      </trkpt>
      <trkpt lat="50.63451" lon="3.28542">
        <ele>21.711412</ele>
        <time>2018-02-06T14:32:22Z</time>
      </trkpt>
      <trkpt lat="50.63457" lon="3.28533">
        <ele>21.736668</ele>
        <time>2018-02-06T14:32:24Z</time>
      </trkpt>
      <trkpt lat="50.63464" lon="3.28526">
        <ele>21.737957</ele>
        <time>2018-02-06T14:32:26Z</time>
      </trkpt>
      <trkpt lat="50.63471" lon="3.28518">
        <ele>21.711834</ele>
        <time>2018-02-06T14:32:28Z</time>
      </trkpt>
      <trkpt lat="50.63478" lon="3.28511">
        <ele>21.729826</ele>
        <time>2018-02-06T14:32:30Z</time>
      </trkpt>
      <trkpt lat="50.63483" lon="3.28502">
        <ele>21.727146</ele>
        <time>2018-02-06T14:32:32Z</time>
      </trkpt>
      <trkpt lat="50.63488" lon="3.28495">
        <ele>21.767559</ele>
        <time>2018-02-06T14:32:34Z</time>
      </trkpt>
      <trkpt lat="50.63492" lon="3.28487">
        <ele>21.763599</ele>
        <time>2018-02-06T14:32:36Z</time>
      </trkpt>
      <trkpt lat="50.63496" lon="3.28477">
        <ele>21.775539</ele>
        <time>2018-02-06T14:32:38Z</time>
      </trkpt>
      <trkpt lat="50.63498" lon="3.28465">
        <ele>21.770809</ele>
        <time>2018-02-06T14:32:40Z</time>
      </trkpt>
      <trkpt lat="50.63496" lon="3.28453">
        <ele>21.775251</ele>
        <time>2018-02-06T14:32:42Z</time>
      </trkpt>
      <trkpt lat="50.63491" lon="3.28442">
        <ele>21.791981</ele>
        <time>2018-02-06T14:32:44Z</time>
      </trkpt>
      <trkpt lat="50.63485" lon="3.2843">
        <ele>21.808851</ele>
        <time>2018-02-06T14:32:46Z</time>
      </trkpt>
      <trkpt lat="50.6348" lon="3.28419">
        <ele>21.774786</ele>
        <time>2018-02-06T14:32:48Z</time>
      </trkpt>
      <trkpt lat="50.63475" lon="3.28406">
        <ele>21.750145</ele>
        <time>2018-02-06T14:32:50Z</time>
      </trkpt>
      <trkpt lat="50.63474" lon="3.28393">
        <ele>21.758324</ele>
        <time>2018-02-06T14:32:52Z</time>
      </trkpt>
      <trkpt lat="50.63478" lon="3.28381">
        <ele>21.798649</ele>
        <time>2018-02-06T14:32:54Z</time>
      </trkpt>
      <trkpt lat="50.63484" lon="3.2837">
        <ele>21.849712</ele>
        <time>2018-02-06T14:32:56Z</time>
      </trkpt>
      <trkpt lat="50.6349" lon="3.2836">
        <ele>21.983818</ele>
        <time>2018-02-06T14:32:58Z</time>
      </trkpt>
      <trkpt lat="50.63496" lon="3.2835">
        <ele>22.137928</ele>
        <time>2018-02-06T14:33:00Z</time>
      </trkpt>
      <trkpt lat="50.63503" lon="3.2834">
        <ele>22.224911</ele>
        <time>2018-02-06T14:33:02Z</time>
      </trkpt>
      <trkpt lat="50.63509" lon="3.2833">
        <ele>22.316849</ele>
        <time>2018-02-06T14:33:04Z</time>
      </trkpt>
      <trkpt lat="50.63515" lon="3.2832">
        <ele>22.389851</ele>
        <time>2018-02-06T14:33:06Z</time>
      </trkpt>
      <trkpt lat="50.63521" lon="3.28311">
        <ele>22.522724</ele>
        <time>2018-02-06T14:33:08Z</time>
      </trkpt>
      <trkpt lat="50.63527" lon="3.28301">
        <ele>22.604954</ele>
        <time>2018-02-06T14:33:10Z</time>
      </trkpt>
      <trkpt lat="50.63533" lon="3.28292">
        <ele>22.720318</ele>
        <time>2018-02-06T14:33:12Z</time>
      </trkpt>
      <trkpt lat="50.6354" lon="3.28282">
        <ele>22.749674</ele>
        <time>2018-02-06T14:33:14Z</time>
      </trkpt>
      <trkpt lat="50.63546" lon="3.28273">
        <ele>22.833654</ele>
        <time>2018-02-06T14:33:16Z</time>
      </trkpt>
      <trkpt lat="50.63553" lon="3.28263">
        <ele>22.937042</ele>
        <time>2018-02-06T14:33:18Z</time>
      </trkpt>
      <trkpt lat="50.63559" lon="3.28253">
        <ele>22.997631</ele>
        <time>2018-02-06T14:33:20Z</time>
      </trkpt>
      <trkpt lat="50.63565" lon="3.28243">
        <ele>23.168257</ele>
        <time>2018-02-06T14:33:22Z</time>
      </trkpt>
      <trkpt lat="50.63572" lon="3.28233">
        <ele>23.271788</ele>
        <time>2018-02-06T14:33:24Z</time>
      </trkpt>
      <trkpt lat="50.63578" lon="3.28224">
        <ele>23.382944</ele>
        <time>2018-02-06T14:33:26Z</time>
      </trkpt>
      <trkpt lat="50.63584" lon="3.28215">
        <ele>23.544386</ele>
        <time>2018-02-06T14:33:28Z</time>
      </trkpt>
      <trkpt lat="50.6359" lon="3.28206">
        <ele>23.666132</ele>
        <time>2018-02-06T14:33:30Z</time>
      </trkpt>
      <trkpt lat="50.63595" lon="3.28197">
        <ele>23.794956</ele>
        <time>2018-02-06T14:33:32Z</time>
      </trkpt>
      <trkpt lat="50.63599" lon="3.28188">
        <ele>23.883183</ele>
        <time>2018-02-06T14:33:34Z</time>
      </trkpt>
      <trkpt lat="50.63599" lon="3.28178">
        <ele>23.954567</ele>
        <time>2018-02-06T14:33:36Z</time>
      </trkpt>
      <trkpt lat="50.63593" lon="3.28171">
        <ele>23.966206</ele>
        <time>2018-02-06T14:33:38Z</time>
      </trkpt>
      <trkpt lat="50.63585" lon="3.28162">
        <ele>23.976231</ele>
        <time>2018-02-06T14:33:40Z</time>
      </trkpt>
      <trkpt lat="50.63577" lon="3.28153">
        <ele>23.972906</ele>
        <time>2018-02-06T14:33:42Z</time>
      </trkpt>
      <trkpt lat="50.6357" lon="3.28143">
        <ele>23.952587</ele>
        <time>2018-02-06T14:33:44Z</time>
      </trkpt>
      <trkpt lat="50.63562" lon="3.28132">
        <ele>23.929295</ele>
        <time>2018-02-06T14:33:46Z</time>
      </trkpt>
      <trkpt lat="50.63555" lon="3.2812">
        <ele>23.876657</ele>
        <time>2018-02-06T14:33:48Z</time>
      </trkpt>
      <trkpt lat="50.63549" lon="3.28108">
        <ele>23.840797</ele>
        <time>2018-02-06T14:33:50Z</time>
      </trkpt>
      <trkpt lat="50.63543" lon="3.28095">
        <ele>23.812807</ele>
        <time>2018-02-06T14:33:52Z</time>
      </trkpt>
      <trkpt lat="50.63537" lon="3.28083">
        <ele>23.74972</ele>
        <time>2018-02-06T14:33:54Z</time>
      </trkpt>
      <trkpt lat="50.6353" lon="3.28071">
        <ele>23.712069</ele>
        <time>2018-02-06T14:33:56Z</time>
      </trkpt>
      <trkpt lat="50.63524" lon="3.28058">
        <ele>23.644482</ele>
        <time>2018-02-06T14:33:58Z</time>
      </trkpt>
      <trkpt lat="50.63518" lon="3.28045">
        <ele>23.57159</ele>
        <time>2018-02-06T14:34:00Z</time>
      </trkpt>
      <trkpt lat="50.63512" lon="3.28032">
        <ele>23.481634</ele>
        <time>2018-02-06T14:34:02Z</time>
      </trkpt>
      <trkpt lat="50.63506" lon="3.28018">
        <ele>23.357944</ele>
        <time>2018-02-06T14:34:04Z</time>
      </trkpt>
      <trkpt lat="50.635" lon="3.28006">
        <ele>23.305208</ele>
        <time>2018-02-06T14:34:06Z</time>
      </trkpt>
      <trkpt lat="50.63492" lon="3.27995">
        <ele>23.195827</ele>
        <time>2018-02-06T14:34:08Z</time>
      </trkpt>
      <trkpt lat="50.63485" lon="3.27984">
        <ele>23.133778</ele>
        <time>2018-02-06T14:34:10Z</time>
      </trkpt>
      <trkpt lat="50.6348" lon="3.2797">
        <ele>23.057789</ele>
        <time>2018-02-06T14:34:12Z</time>
      </trkpt>
      <trkpt lat="50.6348" lon="3.27955">
        <ele>22.973866</ele>
        <time>2018-02-06T14:34:14Z</time>
      </trkpt>
      <trkpt lat="50.63483" lon="3.27939">
        <ele>22.938206</ele>
        <time>2018-02-06T14:34:16Z</time>
      </trkpt>
      <trkpt lat="50.63489" lon="3.27924">
        <ele>22.860987</ele>
        <time>2018-02-06T14:34:18Z</time>
      </trkpt>
      <trkpt lat="50.63494" lon="3.2791">
        <ele>22.800816</ele>
        <time>2018-02-06T14:34:20Z</time>
      </trkpt>
      <trkpt lat="50.635" lon="3.27895">
        <ele>22.747728</ele>
        <time>2018-02-06T14:34:22Z</time>
      </trkpt>
      <trkpt lat="50.63505" lon="3.27879">
        <ele>22.723036</ele>
        <time>2018-02-06T14:34:24Z</time>
      </trkpt>
      <trkpt lat="50.63509" lon="3.27864">
        <ele>22.709269</ele>
        <time>2018-02-06T14:34:26Z</time>
      </trkpt>
      <trkpt lat="50.63515" lon="3.2785">
        <ele>22.724857</ele>
        <time>2018-02-06T14:34:28Z</time>
      </trkpt>
      <trkpt lat="50.6352" lon="3.27835">
        <ele>22.741468</ele>
        <time>2018-02-06T14:34:30Z</time>
      </trkpt>
      <trkpt lat="50.63525" lon="3.27821">
        <ele>22.760504</ele>
        <time>2018-02-06T14:34:32Z</time>
      </trkpt>
      <trkpt lat="50.63529" lon="3.27806">
        <ele>22.751118</ele>
        <time>2018-02-06T14:34:34Z</time>
      </trkpt>
      <trkpt lat="50.63534" lon="3.27792">
        <ele>22.765244</ele>
        <time>2018-02-06T14:34:36Z</time>
      </trkpt>
      <trkpt lat="50.63538" lon="3.27778">
        <ele>22.754063</ele>
        <time>2018-02-06T14:34:38Z</time>
      </trkpt>
      <trkpt lat="50.63543" lon="3.27765">
        <ele>22.77776</ele>
        <time>2018-02-06T14:34:40Z</time>
      </trkpt>
      <trkpt lat="50.63548" lon="3.27753">
        <ele>22.776684</ele>
        <time>2018-02-06T14:34:42Z</time>
      </trkpt>
      <trkpt lat="50.63552" lon="3.2774">
        <ele>22.839365</ele>
        <time>2018-02-06T14:34:44Z</time>
      </trkpt>
      <trkpt lat="50.63557" lon="3.27727">
        <ele>22.875177</ele>
        <time>2018-02-06T14:34:46Z</time>
      </trkpt>
      <trkpt lat="50.63562" lon="3.27713">
        <ele>22.887785</ele>
        <time>2018-02-06T14:34:48Z</time>
      </trkpt>
      <trkpt lat="50.63566" lon="3.277">
        <ele>22.977921</ele>
        <time>2018-02-06T14:34:50Z</time>
      </trkpt>
      <trkpt lat="50.6357" lon="3.27687">
        <ele>23.019808</ele>
        <time>2018-02-06T14:34:52Z</time>
      </trkpt>
      <trkpt lat="50.63574" lon="3.27674">
        <ele>23.112869</ele>
        <time>2018-02-06T14:34:54Z</time>
      </trkpt>
      <trkpt lat="50.63578" lon="3.2766">
        <ele>23.188093</ele>
        <time>2018-02-06T14:34:56Z</time>
      </trkpt>
      <trkpt lat="50.63582" lon="3.27647">
        <ele>23.256691</ele>
        <time>2018-02-06T14:34:58Z</time>
      </trkpt>
      <trkpt lat="50.63586" lon="3.27635">
        <ele>23.340288</ele>
        <time>2018-02-06T14:35:00Z</time>
      </trkpt>
      <trkpt lat="50.6359" lon="3.27622">
        <ele>23.402615</ele>
        <time>2018-02-06T14:35:02Z</time>
      </trkpt>
      <trkpt lat="50.63593" lon="3.2761">
        <ele>23.465611</ele>
        <time>2018-02-06T14:35:04Z</time>
      </trkpt>
      <trkpt lat="50.63597" lon="3.27598">
        <ele>23.526569</ele>
        <time>2018-02-06T14:35:06Z</time>
      </trkpt>
      <trkpt lat="50.63601" lon="3.27586">
        <ele>23.576265</ele>
        <time>2018-02-06T14:35:08Z</time>
      </trkpt>
      <trkpt lat="50.63605" lon="3.27574">
        <ele>23.60811</ele>
        <time>2018-02-06T14:35:10Z</time>
      </trkpt>
      <trkpt lat="50.63609" lon="3.27562">
        <ele>23.670326</ele>
        <time>2018-02-06T14:35:12Z</time>
      </trkpt>
      <trkpt lat="50.63613" lon="3.27551">
        <ele>23.722767</ele>
        <time>2018-02-06T14:35:14Z</time>
      </trkpt>
      <trkpt lat="50.63616" lon="3.2754">
        <ele>23.788435</ele>
        <time>2018-02-06T14:35:16Z</time>
      </trkpt>
      <trkpt lat="50.63619" lon="3.27531">
        <ele>23.883018</ele>
        <time>2018-02-06T14:35:18Z</time>
      </trkpt>
      <trkpt lat="50.63621" lon="3.27522">
        <ele>24.02808</ele>
        <time>2018-02-06T14:35:20Z</time>
      </trkpt>
      <trkpt lat="50.63624" lon="3.27514">
        <ele>24.135227</ele>
        <time>2018-02-06T14:35:22Z</time>
      </trkpt>
      <trkpt lat="50.63626" lon="3.27506">
        <ele>24.22678</ele>
        <time>2018-02-06T14:35:24Z</time>
      </trkpt>
      <trkpt lat="50.63628" lon="3.275">
        <ele>24.322487</ele>
        <time>2018-02-06T14:35:26Z</time>
      </trkpt>
      <trkpt lat="50.63631" lon="3.27496">
        <ele>24.430027</ele>
        <time>2018-02-06T14:35:28Z</time>
      </trkpt>
      <trkpt lat="50.63636" lon="3.27496">
        <ele>24.47961</ele>
        <time>2018-02-06T14:35:30Z</time>
      </trkpt>
      <trkpt lat="50.63641" lon="3.27499">
        <ele>24.505943</ele>
        <time>2018-02-06T14:35:32Z</time>
      </trkpt>
      <trkpt lat="50.63646" lon="3.27506">
        <ele>24.594364</ele>
        <time>2018-02-06T14:35:34Z</time>
      </trkpt>
      <trkpt lat="50.63652" lon="3.27514">
        <ele>24.672665</ele>
        <time>2018-02-06T14:35:36Z</time>
      </trkpt>
      <trkpt lat="50.63657" lon="3.27523">
        <ele>24.779657</ele>
        <time>2018-02-06T14:35:38Z</time>
      </trkpt>
      <trkpt lat="50.63662" lon="3.27533">
        <ele>24.892178</ele>
        <time>2018-02-06T14:35:40Z</time>
      </trkpt>
      <trkpt lat="50.63668" lon="3.27541">
        <ele>24.976223</ele>
        <time>2018-02-06T14:35:42Z</time>
      </trkpt>
      <trkpt lat="50.63673" lon="3.27549">
        <ele>25.074387</ele>
        <time>2018-02-06T14:35:44Z</time>
      </trkpt>
      <trkpt lat="50.63679" lon="3.27558">
        <ele>25.19393</ele>
        <time>2018-02-06T14:35:46Z</time>
      </trkpt>
      <trkpt lat="50.63685" lon="3.27567">
        <ele>25.345236</ele>
        <time>2018-02-06T14:35:48Z</time>
      </trkpt>
      <trkpt lat="50.63691" lon="3.27576">
        <ele>25.46073</ele>
        <time>2018-02-06T14:35:50Z</time>
      </trkpt>
      <trkpt lat="50.63697" lon="3.27585">
        <ele>25.586813</ele>
        <time>2018-02-06T14:35:52Z</time>
      </trkpt>
      <trkpt lat="50.63703" lon="3.27594">
        <ele>25.648005</ele>
        <time>2018-02-06T14:35:54Z</time>
      </trkpt>
      <trkpt lat="50.63709" lon="3.27604">
        <ele>25.721212</ele>
        <time>2018-02-06T14:35:56Z</time>
      </trkpt>
      <trkpt lat="50.63715" lon="3.27613">
        <ele>25.809967</ele>
        <time>2018-02-06T14:35:58Z</time>
      </trkpt>
      <trkpt lat="50.63722" lon="3.27621">
        <ele>25.860834</ele>
        <time>2018-02-06T14:36:00Z</time>
      </trkpt>
      <trkpt lat="50.63728" lon="3.27629">
        <ele>25.855433</ele>
        <time>2018-02-06T14:36:02Z</time>
      </trkpt>
      <trkpt lat="50.63734" lon="3.27638">
        <ele>25.896244</ele>
        <time>2018-02-06T14:36:04Z</time>
      </trkpt>
      <trkpt lat="50.6374" lon="3.27647">
        <ele>25.950481</ele>
        <time>2018-02-06T14:36:06Z</time>
      </trkpt>
      <trkpt lat="50.63746" lon="3.27656">
        <ele>25.98045</ele>
        <time>2018-02-06T14:36:08Z</time>
      </trkpt>
      <trkpt lat="50.63752" lon="3.27665">
        <ele>26.040659</ele>
        <time>2018-02-06T14:36:10Z</time>
      </trkpt>
      <trkpt lat="50.63757" lon="3.27674">
        <ele>26.126766</ele>
        <time>2018-02-06T14:36:12Z</time>
      </trkpt>
      <trkpt lat="50.63762" lon="3.27682">
        <ele>26.181889</ele>
        <time>2018-02-06T14:36:14Z</time>
      </trkpt>
      <trkpt lat="50.63767" lon="3.27689">
        <ele>26.235584</ele>
        <time>2018-02-06T14:36:16Z</time>
      </trkpt>
      <trkpt lat="50.63772" lon="3.27698">
        <ele>26.295521</ele>
        <time>2018-02-06T14:36:18Z</time>
      </trkpt>
      <trkpt lat="50.63777" lon="3.27707">
        <ele>26.345081</ele>
        <time>2018-02-06T14:36:20Z</time>
      </trkpt>
      <trkpt lat="50.63783" lon="3.27715">
        <ele>26.375717</ele>
        <time>2018-02-06T14:36:22Z</time>
      </trkpt>
      <trkpt lat="50.63788" lon="3.27723">
        <ele>26.427532</ele>
        <time>2018-02-06T14:36:24Z</time>
      </trkpt>
      <trkpt lat="50.63793" lon="3.27733">
        <ele>26.480061</ele>
        <time>2018-02-06T14:36:26Z</time>
      </trkpt>
      <trkpt lat="50.63799" lon="3.27742">
        <ele>26.510761</ele>
        <time>2018-02-06T14:36:28Z</time>
      </trkpt>
      <trkpt lat="50.63804" lon="3.27751">
        <ele>26.562042</ele>
        <time>2018-02-06T14:36:30Z</time>
      </trkpt>
      <trkpt lat="50.63809" lon="3.2776">
        <ele>26.593603</ele>
        <time>2018-02-06T14:36:32Z</time>
      </trkpt>
      <trkpt lat="50.63815" lon="3.27769">
        <ele>26.617014</ele>
        <time>2018-02-06T14:36:34Z</time>
      </trkpt>
      <trkpt lat="50.6382" lon="3.27779">
        <ele>26.731165</ele>
        <time>2018-02-06T14:36:36Z</time>
      </trkpt>
      <trkpt lat="50.63826" lon="3.27788">
        <ele>26.769995</ele>
        <time>2018-02-06T14:36:38Z</time>
      </trkpt>
      <trkpt lat="50.63831" lon="3.27798">
        <ele>26.841808</ele>
        <time>2018-02-06T14:36:40Z</time>
      </trkpt>
      <trkpt lat="50.63837" lon="3.27808">
        <ele>26.923462</ele>
        <time>2018-02-06T14:36:42Z</time>
      </trkpt>
      <trkpt lat="50.63843" lon="3.27816">
        <ele>27.055225</ele>
        <time>2018-02-06T14:36:44Z</time>
      </trkpt>
      <trkpt lat="50.63849" lon="3.27824">
        <ele>27.177282</ele>
        <time>2018-02-06T14:36:46Z</time>
      </trkpt>
      <trkpt lat="50.63855" lon="3.27833">
        <ele>27.241077</ele>
        <time>2018-02-06T14:36:48Z</time>
      </trkpt>
      <trkpt lat="50.6386" lon="3.27843">
        <ele>27.282248</ele>
        <time>2018-02-06T14:36:50Z</time>
      </trkpt>
      <trkpt lat="50.63866" lon="3.27852">
        <ele>27.338512</ele>
        <time>2018-02-06T14:36:52Z</time>
      </trkpt>
      <trkpt lat="50.63871" lon="3.27862">
        <ele>27.36525</ele>
        <time>2018-02-06T14:36:54Z</time>
      </trkpt>
      <trkpt lat="50.63878" lon="3.27871">
        <ele>27.473608</ele>
        <time>2018-02-06T14:36:56Z</time>
      </trkpt>
      <trkpt lat="50.63884" lon="3.2788">
        <ele>27.551285</ele>
        <time>2018-02-06T14:36:58Z</time>
      </trkpt>
      <trkpt lat="50.63891" lon="3.27889">
        <ele>27.62508</ele>
        <time>2018-02-06T14:37:00Z</time>
      </trkpt>
      <trkpt lat="50.63897" lon="3.27898">
        <ele>27.686916</ele>
        <time>2018-02-06T14:37:02Z</time>
      </trkpt>
      <trkpt lat="50.63904" lon="3.27906">
        <ele>27.779205</ele>
        <time>2018-02-06T14:37:04Z</time>
      </trkpt>
      <trkpt lat="50.63911" lon="3.27914">
        <ele>27.868225</ele>
        <time>2018-02-06T14:37:06Z</time>
      </trkpt>
      <trkpt lat="50.63918" lon="3.27921">
        <ele>27.944138</ele>
        <time>2018-02-06T14:37:08Z</time>
      </trkpt>
      <trkpt lat="50.63925" lon="3.2793">
        <ele>27.939911</ele>
        <time>2018-02-06T14:37:10Z</time>
      </trkpt>
      <trkpt lat="50.63932" lon="3.27939">
        <ele>27.997564</ele>
        <time>2018-02-06T14:37:12Z</time>
      </trkpt>
      <trkpt lat="50.63939" lon="3.27949">
        <ele>28.096558</ele>
        <time>2018-02-06T14:37:14Z</time>
      </trkpt>
      <trkpt lat="50.63945" lon="3.2796">
        <ele>28.180813</ele>
        <time>2018-02-06T14:37:16Z</time>
      </trkpt>
      <trkpt lat="50.63951" lon="3.27972">
        <ele>28.269171</ele>
        <time>2018-02-06T14:37:18Z</time>
      </trkpt>
      <trkpt lat="50.63958" lon="3.27983">
        <ele>28.344433</ele>
        <time>2018-02-06T14:37:20Z</time>
      </trkpt>
      <trkpt lat="50.63964" lon="3.27994">
        <ele>28.391567</ele>
        <time>2018-02-06T14:37:22Z</time>
      </trkpt>
      <trkpt lat="50.63971" lon="3.28005">
        <ele>28.434433</ele>
        <time>2018-02-06T14:37:24Z</time>
      </trkpt>
      <trkpt lat="50.63978" lon="3.28015">
        <ele>28.468243</ele>
        <time>2018-02-06T14:37:26Z</time>
      </trkpt>
      <trkpt lat="50.63985" lon="3.28026">
        <ele>28.453609</ele>
        <time>2018-02-06T14:37:28Z</time>
      </trkpt>
      <trkpt lat="50.63993" lon="3.28037">
        <ele>28.532969</ele>
        <time>2018-02-06T14:37:30Z</time>
      </trkpt>
      <trkpt lat="50.64" lon="3.28048">
        <ele>28.555084</ele>
        <time>2018-02-06T14:37:32Z</time>
      </trkpt>
      <trkpt lat="50.64006" lon="3.2806">
        <ele>28.545506</ele>
        <time>2018-02-06T14:37:34Z</time>
      </trkpt>
      <trkpt lat="50.64013" lon="3.28072">
        <ele>28.545212</ele>
        <time>2018-02-06T14:37:36Z</time>
      </trkpt>
      <trkpt lat="50.6402" lon="3.28083">
        <ele>28.520123</ele>
        <time>2018-02-06T14:37:38Z</time>
      </trkpt>
      <trkpt lat="50.64027" lon="3.28093">
        <ele>28.477768</ele>
        <time>2018-02-06T14:37:40Z</time>
      </trkpt>
      <trkpt lat="50.64035" lon="3.28103">
        <ele>28.465725</ele>
        <time>2018-02-06T14:37:42Z</time>
      </trkpt>
      <trkpt lat="50.64043" lon="3.28112">
        <ele>28.481174</ele>
        <time>2018-02-06T14:37:44Z</time>
      </trkpt>
      <trkpt lat="50.64051" lon="3.2812">
        <ele>28.444286</ele>
        <time>2018-02-06T14:37:46Z</time>
      </trkpt>
      <trkpt lat="50.6406" lon="3.28127">
        <ele>28.387548</ele>
        <time>2018-02-06T14:37:48Z</time>
      </trkpt>
      <trkpt lat="50.64068" lon="3.28135">
        <ele>28.325342</ele>
        <time>2018-02-06T14:37:50Z</time>
      </trkpt>
      <trkpt lat="50.64077" lon="3.28142">
        <ele>28.313873</ele>
        <time>2018-02-06T14:37:52Z</time>
      </trkpt>
      <trkpt lat="50.64086" lon="3.28149">
        <ele>28.303854</ele>
        <time>2018-02-06T14:37:54Z</time>
      </trkpt>
      <trkpt lat="50.64095" lon="3.28157">
        <ele>28.285913</ele>
        <time>2018-02-06T14:37:56Z</time>
      </trkpt>
      <trkpt lat="50.64104" lon="3.28164">
        <ele>28.297709</ele>
        <time>2018-02-06T14:37:58Z</time>
      </trkpt>
      <trkpt lat="50.64113" lon="3.28173">
        <ele>28.250021</ele>
        <time>2018-02-06T14:38:00Z</time>
      </trkpt>
      <trkpt lat="50.64121" lon="3.28182">
        <ele>28.224293</ele>
        <time>2018-02-06T14:38:02Z</time>
      </trkpt>
      <trkpt lat="50.6413" lon="3.28191">
        <ele>28.201931</ele>
        <time>2018-02-06T14:38:04Z</time>
      </trkpt>
      <trkpt lat="50.64138" lon="3.28201">
        <ele>28.149342</ele>
        <time>2018-02-06T14:38:06Z</time>
      </trkpt>
      <trkpt lat="50.64146" lon="3.28211">
        <ele>28.080841</ele>
        <time>2018-02-06T14:38:08Z</time>
      </trkpt>
      <trkpt lat="50.64154" lon="3.28222">
        <ele>28.067993</ele>
        <time>2018-02-06T14:38:10Z</time>
      </trkpt>
      <trkpt lat="50.64162" lon="3.28233">
        <ele>28.030533</ele>
        <time>2018-02-06T14:38:12Z</time>
      </trkpt>
      <trkpt lat="50.64171" lon="3.28244">
        <ele>27.986935</ele>
        <time>2018-02-06T14:38:14Z</time>
      </trkpt>
      <trkpt lat="50.64179" lon="3.28254">
        <ele>27.912329</ele>
        <time>2018-02-06T14:38:16Z</time>
      </trkpt>
      <trkpt lat="50.64187" lon="3.28265">
        <ele>27.823177</ele>
        <time>2018-02-06T14:38:18Z</time>
      </trkpt>
      <trkpt lat="50.64195" lon="3.28274">
        <ele>27.794804</ele>
        <time>2018-02-06T14:38:20Z</time>
      </trkpt>
      <trkpt lat="50.64203" lon="3.28284">
        <ele>27.753433</ele>
        <time>2018-02-06T14:38:22Z</time>
      </trkpt>
      <trkpt lat="50.6421" lon="3.28293">
        <ele>27.668888</ele>
        <time>2018-02-06T14:38:24Z</time>
      </trkpt>
      <trkpt lat="50.64218" lon="3.28302">
        <ele>27.597855</ele>
        <time>2018-02-06T14:38:26Z</time>
      </trkpt>
      <trkpt lat="50.64225" lon="3.28312">
        <ele>27.537716</ele>
        <time>2018-02-06T14:38:28Z</time>
      </trkpt>
      <trkpt lat="50.64233" lon="3.28322">
        <ele>27.491562</ele>
        <time>2018-02-06T14:38:30Z</time>
      </trkpt>
      <trkpt lat="50.64241" lon="3.2833">
        <ele>27.45364</ele>
        <time>2018-02-06T14:38:32Z</time>
      </trkpt>
      <trkpt lat="50.64249" lon="3.28338">
        <ele>27.379486</ele>
        <time>2018-02-06T14:38:34Z</time>
      </trkpt>
      <trkpt lat="50.64258" lon="3.28344">
        <ele>27.282694</ele>
        <time>2018-02-06T14:38:36Z</time>
      </trkpt>
      <trkpt lat="50.64267" lon="3.28348">
        <ele>27.087519</ele>
        <time>2018-02-06T14:38:38Z</time>
      </trkpt>
      <trkpt lat="50.64277" lon="3.2835">
        <ele>26.924713</ele>
        <time>2018-02-06T14:38:40Z</time>
      </trkpt>
      <trkpt lat="50.64286" lon="3.28351">
        <ele>26.770569</ele>
        <time>2018-02-06T14:38:42Z</time>
      </trkpt>
      <trkpt lat="50.64295" lon="3.28353">
        <ele>26.60873</ele>
        <time>2018-02-06T14:38:44Z</time>
      </trkpt>
      <trkpt lat="50.64304" lon="3.28356">
        <ele>26.462448</ele>
        <time>2018-02-06T14:38:46Z</time>
      </trkpt>
      <trkpt lat="50.64311" lon="3.28362">
        <ele>26.342575</ele>
        <time>2018-02-06T14:38:48Z</time>
      </trkpt>
      <trkpt lat="50.64318" lon="3.28372">
        <ele>26.24379</ele>
        <time>2018-02-06T14:38:50Z</time>
      </trkpt>
      <trkpt lat="50.64325" lon="3.28382">
        <ele>26.158405</ele>
        <time>2018-02-06T14:38:52Z</time>
      </trkpt>
      <trkpt lat="50.64332" lon="3.28393">
        <ele>26.051666</ele>
        <time>2018-02-06T14:38:54Z</time>
      </trkpt>
      <trkpt lat="50.6434" lon="3.28404">
        <ele>25.979248</ele>
        <time>2018-02-06T14:38:56Z</time>
      </trkpt>
      <trkpt lat="50.64347" lon="3.28415">
        <ele>25.872311</ele>
        <time>2018-02-06T14:38:58Z</time>
      </trkpt>
      <trkpt lat="50.64354" lon="3.28427">
        <ele>25.832932</ele>
        <time>2018-02-06T14:39:00Z</time>
      </trkpt>
      <trkpt lat="50.6436" lon="3.28438">
        <ele>25.809631</ele>
        <time>2018-02-06T14:39:02Z</time>
      </trkpt>
      <trkpt lat="50.64367" lon="3.2845">
        <ele>25.760244</ele>
        <time>2018-02-06T14:39:04Z</time>
      </trkpt>
      <trkpt lat="50.64373" lon="3.28462">
        <ele>25.717899</ele>
        <time>2018-02-06T14:39:06Z</time>
      </trkpt>
      <trkpt lat="50.64379" lon="3.28473">
        <ele>25.640646</ele>
        <time>2018-02-06T14:39:08Z</time>
      </trkpt>
      <trkpt lat="50.64385" lon="3.28483">
        <ele>25.523991</ele>
        <time>2018-02-06T14:39:10Z</time>
      </trkpt>
      <trkpt lat="50.64391" lon="3.28494">
        <ele>25.417492</ele>
        <time>2018-02-06T14:39:12Z</time>
      </trkpt>
      <trkpt lat="50.64396" lon="3.28504">
        <ele>25.314699</ele>
        <time>2018-02-06T14:39:14Z</time>
      </trkpt>
      <trkpt lat="50.64402" lon="3.28513">
        <ele>25.264462</ele>
        <time>2018-02-06T14:39:16Z</time>
      </trkpt>
      <trkpt lat="50.64406" lon="3.2852">
        <ele>25.160851</ele>
        <time>2018-02-06T14:39:18Z</time>
      </trkpt>
      <trkpt lat="50.64409" lon="3.28526">
        <ele>25.130676</ele>
        <time>2018-02-06T14:39:20Z</time>
      </trkpt>
      <trkpt lat="50.6441" lon="3.2853">
        <ele>25.082117</ele>
        <time>2018-02-06T14:39:24Z</time>
      </trkpt>
      <trkpt lat="50.6441" lon="3.28532">
        <ele>25.044756</ele>
        <time>2018-02-06T14:39:28Z</time>
      </trkpt>
      <trkpt lat="50.64414" lon="3.28534">
        <ele>24.984772</ele>
        <time>2018-02-06T14:39:30Z</time>
      </trkpt>
      <trkpt lat="50.64418" lon="3.2853">
        <ele>24.923996</ele>
        <time>2018-02-06T14:39:32Z</time>
      </trkpt>
      <trkpt lat="50.64424" lon="3.28523">
        <ele>24.863842</ele>
        <time>2018-02-06T14:39:34Z</time>
      </trkpt>
      <trkpt lat="50.64429" lon="3.28513">
        <ele>24.85162</ele>
        <time>2018-02-06T14:39:36Z</time>
      </trkpt>
      <trkpt lat="50.64433" lon="3.28502">
        <ele>24.822987</ele>
        <time>2018-02-06T14:39:38Z</time>
      </trkpt>
      <trkpt lat="50.64439" lon="3.28491">
        <ele>24.833342</ele>
        <time>2018-02-06T14:39:40Z</time>
      </trkpt>
      <trkpt lat="50.64444" lon="3.2848">
        <ele>24.792112</ele>
        <time>2018-02-06T14:39:42Z</time>
      </trkpt>
      <trkpt lat="50.64449" lon="3.28469">
        <ele>24.685102</ele>
        <time>2018-02-06T14:39:44Z</time>
      </trkpt>
      <trkpt lat="50.64454" lon="3.28457">
        <ele>24.613699</ele>
        <time>2018-02-06T14:39:46Z</time>
      </trkpt>
      <trkpt lat="50.64459" lon="3.28445">
        <ele>24.586315</ele>
        <time>2018-02-06T14:39:48Z</time>
      </trkpt>
      <trkpt lat="50.64462" lon="3.28432">
        <ele>24.571932</ele>
        <time>2018-02-06T14:39:50Z</time>
      </trkpt>
      <trkpt lat="50.64465" lon="3.28418">
        <ele>24.614723</ele>
        <time>2018-02-06T14:39:52Z</time>
      </trkpt>
      <trkpt lat="50.64466" lon="3.28403">
        <ele>24.633421</ele>
        <time>2018-02-06T14:39:54Z</time>
      </trkpt>
      <trkpt lat="50.64468" lon="3.28389">
        <ele>24.686516</ele>
        <time>2018-02-06T14:39:56Z</time>
      </trkpt>
      <trkpt lat="50.6447" lon="3.28376">
        <ele>24.786654</ele>
        <time>2018-02-06T14:39:58Z</time>
      </trkpt>
      <trkpt lat="50.64474" lon="3.28364">
        <ele>24.887861</ele>
        <time>2018-02-06T14:40:00Z</time>
      </trkpt>
      <trkpt lat="50.64476" lon="3.28352">
        <ele>24.940315</ele>
        <time>2018-02-06T14:40:02Z</time>
      </trkpt>
      <trkpt lat="50.64478" lon="3.2834">
        <ele>25.041172</ele>
        <time>2018-02-06T14:40:04Z</time>
      </trkpt>
      <trkpt lat="50.64479" lon="3.28329">
        <ele>25.174599</ele>
        <time>2018-02-06T14:40:06Z</time>
      </trkpt>
      <trkpt lat="50.6448" lon="3.28318">
        <ele>25.252087</ele>
        <time>2018-02-06T14:40:08Z</time>
      </trkpt>
      <trkpt lat="50.64483" lon="3.28309">
        <ele>25.337132</ele>
        <time>2018-02-06T14:40:10Z</time>
      </trkpt>
      <trkpt lat="50.64486" lon="3.28305">
        <ele>25.494173</ele>
        <time>2018-02-06T14:40:12Z</time>
      </trkpt>
      <trkpt lat="50.64491" lon="3.28304">
        <ele>25.617245</ele>
        <time>2018-02-06T14:40:14Z</time>
      </trkpt>
      <trkpt lat="50.64494" lon="3.28305">
        <ele>25.725565</ele>
        <time>2018-02-06T14:40:16Z</time>
      </trkpt>
      <trkpt lat="50.64498" lon="3.28307">
        <ele>25.867254</ele>
        <time>2018-02-06T14:40:18Z</time>
      </trkpt>
      <trkpt lat="50.64502" lon="3.28311">
        <ele>25.928391</ele>
        <time>2018-02-06T14:40:20Z</time>
      </trkpt>
      <trkpt lat="50.64506" lon="3.28314">
        <ele>26.07925</ele>
        <time>2018-02-06T14:40:22Z</time>
      </trkpt>
      <trkpt lat="50.64509" lon="3.28317">
        <ele>26.258799</ele>
        <time>2018-02-06T14:40:24Z</time>
      </trkpt>
    </trkseg>
  </trk>
</gpx>